<?xml version="1.0" encoding="UTF-8" standalone="no" ?>
<gpx xmlns="http://www.topografix.com/GPX/1/1" xmlns:xsi="http://www.w3.org/2001/XMLSchema-instance" xsi:schemaLocation="http://www.topografix.com/GPX/1/1 http://www.topografix.com/GPX/1/1/gpx.xsd" version="1.1" creator="VisuGPX - https://www.visugpx.com">
  <metadata>
    <name>vaux </name>
  </metadata>
  <trk>
    <name><![CDATA[152 Vaux de cernay 17kms]]></name>
    <trkseg>
      <trkpt lat="48.67962" lon="1.96613">
        <ele>146</ele>
        <time>2016-05-16T08:06:54Z</time>
      </trkpt>
      <trkpt lat="48.67969" lon="1.96613">
        <ele>173</ele>
        <time>2016-05-16T08:07:04Z</time>
      </trkpt>
      <trkpt lat="48.67971" lon="1.96614">
        <ele>173</ele>
        <time>2016-05-16T08:07:05Z</time>
      </trkpt>
      <trkpt lat="48.67968" lon="1.9661">
        <ele>170</ele>
        <time>2016-05-16T08:09:06Z</time>
      </trkpt>
      <trkpt lat="48.67963" lon="1.96603">
        <ele>173</ele>
        <time>2016-05-16T08:09:07Z</time>
      </trkpt>
      <trkpt lat="48.67959" lon="1.96593">
        <ele>167</ele>
        <time>2016-05-16T08:09:15Z</time>
      </trkpt>
      <trkpt lat="48.67955" lon="1.96592">
        <ele>164</ele>
        <time>2016-05-16T08:09:16Z</time>
      </trkpt>
      <trkpt lat="48.67956" lon="1.96589">
        <ele>162</ele>
        <time>2016-05-16T08:09:18Z</time>
      </trkpt>
      <trkpt lat="48.67956" lon="1.96588">
        <ele>161</ele>
        <time>2016-05-16T08:09:19Z</time>
      </trkpt>
      <trkpt lat="48.67956" lon="1.96588">
        <ele>161</ele>
        <time>2016-05-16T08:09:19Z</time>
      </trkpt>
      <trkpt lat="48.67956" lon="1.96588">
        <ele>162</ele>
        <time>2016-05-16T08:09:20Z</time>
      </trkpt>
      <trkpt lat="48.67955" lon="1.96585">
        <ele>162</ele>
        <time>2016-05-16T08:09:21Z</time>
      </trkpt>
      <trkpt lat="48.67955" lon="1.96584">
        <ele>161</ele>
        <time>2016-05-16T08:09:22Z</time>
      </trkpt>
      <trkpt lat="48.67955" lon="1.96584">
        <ele>161</ele>
        <time>2016-05-16T08:09:22Z</time>
      </trkpt>
      <trkpt lat="48.67955" lon="1.96585">
        <ele>161</ele>
        <time>2016-05-16T08:09:23Z</time>
      </trkpt>
      <trkpt lat="48.67953" lon="1.96572">
        <ele>163</ele>
        <time>2016-05-16T08:09:28Z</time>
      </trkpt>
      <trkpt lat="48.67953" lon="1.96571">
        <ele>163</ele>
        <time>2016-05-16T08:09:29Z</time>
      </trkpt>
      <trkpt lat="48.6795" lon="1.96558">
        <ele>164</ele>
        <time>2016-05-16T08:10:04Z</time>
      </trkpt>
      <trkpt lat="48.6795" lon="1.96558">
        <ele>165</ele>
        <time>2016-05-16T08:10:05Z</time>
      </trkpt>
      <trkpt lat="48.67945" lon="1.96547">
        <ele>161</ele>
        <time>2016-05-16T08:10:53Z</time>
      </trkpt>
      <trkpt lat="48.67942" lon="1.96543">
        <ele>165</ele>
        <time>2016-05-16T08:10:54Z</time>
      </trkpt>
      <trkpt lat="48.67939" lon="1.9653">
        <ele>162</ele>
        <time>2016-05-16T08:10:57Z</time>
      </trkpt>
      <trkpt lat="48.67938" lon="1.96526">
        <ele>163</ele>
        <time>2016-05-16T08:10:58Z</time>
      </trkpt>
      <trkpt lat="48.67933" lon="1.96519">
        <ele>161</ele>
        <time>2016-05-16T08:11:02Z</time>
      </trkpt>
      <trkpt lat="48.67931" lon="1.96515">
        <ele>158</ele>
        <time>2016-05-16T08:11:03Z</time>
      </trkpt>
      <trkpt lat="48.67925" lon="1.96508">
        <ele>161</ele>
        <time>2016-05-16T08:11:37Z</time>
      </trkpt>
      <trkpt lat="48.67923" lon="1.96507">
        <ele>161</ele>
        <time>2016-05-16T08:11:38Z</time>
      </trkpt>
      <trkpt lat="48.67916" lon="1.96502">
        <ele>163</ele>
        <time>2016-05-16T08:11:43Z</time>
      </trkpt>
      <trkpt lat="48.67915" lon="1.96502">
        <ele>164</ele>
        <time>2016-05-16T08:11:44Z</time>
      </trkpt>
      <trkpt lat="48.67909" lon="1.96501">
        <ele>165</ele>
        <time>2016-05-16T08:11:48Z</time>
      </trkpt>
      <trkpt lat="48.67905" lon="1.96495">
        <ele>163</ele>
        <time>2016-05-16T08:11:49Z</time>
      </trkpt>
      <trkpt lat="48.679" lon="1.96488">
        <ele>162</ele>
        <time>2016-05-16T08:11:53Z</time>
      </trkpt>
      <trkpt lat="48.67902" lon="1.96482">
        <ele>162</ele>
        <time>2016-05-16T08:11:54Z</time>
      </trkpt>
      <trkpt lat="48.67908" lon="1.96477">
        <ele>161</ele>
        <time>2016-05-16T08:11:59Z</time>
      </trkpt>
      <trkpt lat="48.67911" lon="1.96474">
        <ele>161</ele>
        <time>2016-05-16T08:12:00Z</time>
      </trkpt>
      <trkpt lat="48.67908" lon="1.96465">
        <ele>159</ele>
        <time>2016-05-16T08:12:05Z</time>
      </trkpt>
      <trkpt lat="48.6791" lon="1.9646">
        <ele>161</ele>
        <time>2016-05-16T08:12:06Z</time>
      </trkpt>
      <trkpt lat="48.67909" lon="1.96468">
        <ele>160</ele>
        <time>2016-05-16T08:12:09Z</time>
      </trkpt>
      <trkpt lat="48.67887" lon="1.96455">
        <ele>167</ele>
        <time>2016-05-16T08:12:24Z</time>
      </trkpt>
      <trkpt lat="48.67883" lon="1.96459">
        <ele>167</ele>
        <time>2016-05-16T08:12:25Z</time>
      </trkpt>
      <trkpt lat="48.67876" lon="1.9646">
        <ele>166</ele>
        <time>2016-05-16T08:12:26Z</time>
      </trkpt>
      <trkpt lat="48.67869" lon="1.96465">
        <ele>166</ele>
        <time>2016-05-16T08:12:35Z</time>
      </trkpt>
      <trkpt lat="48.67866" lon="1.96469">
        <ele>165</ele>
        <time>2016-05-16T08:12:36Z</time>
      </trkpt>
      <trkpt lat="48.6786" lon="1.96463">
        <ele>161</ele>
        <time>2016-05-16T08:12:41Z</time>
      </trkpt>
      <trkpt lat="48.67857" lon="1.96463">
        <ele>161</ele>
        <time>2016-05-16T08:12:42Z</time>
      </trkpt>
      <trkpt lat="48.67853" lon="1.96475">
        <ele>150</ele>
        <time>2016-05-16T08:13:23Z</time>
      </trkpt>
      <trkpt lat="48.67852" lon="1.96477">
        <ele>149</ele>
        <time>2016-05-16T08:13:24Z</time>
      </trkpt>
      <trkpt lat="48.67844" lon="1.96481">
        <ele>146</ele>
        <time>2016-05-16T08:13:29Z</time>
      </trkpt>
      <trkpt lat="48.67843" lon="1.96481">
        <ele>146</ele>
        <time>2016-05-16T08:13:30Z</time>
      </trkpt>
      <trkpt lat="48.67836" lon="1.96488">
        <ele>146</ele>
        <time>2016-05-16T08:13:35Z</time>
      </trkpt>
      <trkpt lat="48.67835" lon="1.96493">
        <ele>146</ele>
        <time>2016-05-16T08:13:36Z</time>
      </trkpt>
      <trkpt lat="48.67826" lon="1.96496">
        <ele>148</ele>
        <time>2016-05-16T08:13:42Z</time>
      </trkpt>
      <trkpt lat="48.67825" lon="1.96495">
        <ele>148</ele>
        <time>2016-05-16T08:13:43Z</time>
      </trkpt>
      <trkpt lat="48.67817" lon="1.96491">
        <ele>146</ele>
        <time>2016-05-16T08:13:46Z</time>
      </trkpt>
      <trkpt lat="48.67816" lon="1.96489">
        <ele>146</ele>
        <time>2016-05-16T08:13:47Z</time>
      </trkpt>
      <trkpt lat="48.67818" lon="1.96479">
        <ele>149</ele>
        <time>2016-05-16T08:13:53Z</time>
      </trkpt>
      <trkpt lat="48.67819" lon="1.96475">
        <ele>149</ele>
        <time>2016-05-16T08:13:54Z</time>
      </trkpt>
      <trkpt lat="48.67813" lon="1.96479">
        <ele>153</ele>
        <time>2016-05-16T08:13:56Z</time>
      </trkpt>
      <trkpt lat="48.6781" lon="1.96481">
        <ele>153</ele>
        <time>2016-05-16T08:13:57Z</time>
      </trkpt>
      <trkpt lat="48.67814" lon="1.96478">
        <ele>155</ele>
        <time>2016-05-16T08:13:58Z</time>
      </trkpt>
      <trkpt lat="48.67812" lon="1.9648">
        <ele>157</ele>
        <time>2016-05-16T08:13:59Z</time>
      </trkpt>
      <trkpt lat="48.67811" lon="1.96486">
        <ele>157</ele>
        <time>2016-05-16T08:14:00Z</time>
      </trkpt>
      <trkpt lat="48.67803" lon="1.96492">
        <ele>158</ele>
        <time>2016-05-16T08:14:06Z</time>
      </trkpt>
      <trkpt lat="48.678" lon="1.96492">
        <ele>158</ele>
        <time>2016-05-16T08:14:07Z</time>
      </trkpt>
      <trkpt lat="48.67793" lon="1.96487">
        <ele>158</ele>
        <time>2016-05-16T08:14:53Z</time>
      </trkpt>
      <trkpt lat="48.67791" lon="1.96482">
        <ele>158</ele>
        <time>2016-05-16T08:14:54Z</time>
      </trkpt>
      <trkpt lat="48.67793" lon="1.96474">
        <ele>155</ele>
        <time>2016-05-16T08:14:57Z</time>
      </trkpt>
      <trkpt lat="48.67787" lon="1.96467">
        <ele>154</ele>
        <time>2016-05-16T08:14:58Z</time>
      </trkpt>
      <trkpt lat="48.67782" lon="1.96464">
        <ele>151</ele>
        <time>2016-05-16T08:15:00Z</time>
      </trkpt>
      <trkpt lat="48.67778" lon="1.96462">
        <ele>151</ele>
        <time>2016-05-16T08:15:01Z</time>
      </trkpt>
      <trkpt lat="48.67771" lon="1.96457">
        <ele>155</ele>
        <time>2016-05-16T08:15:07Z</time>
      </trkpt>
      <trkpt lat="48.6777" lon="1.96452">
        <ele>157</ele>
        <time>2016-05-16T08:15:08Z</time>
      </trkpt>
      <trkpt lat="48.6777" lon="1.96452">
        <ele>157</ele>
        <time>2016-05-16T08:15:08Z</time>
      </trkpt>
      <trkpt lat="48.67769" lon="1.96452">
        <ele>157</ele>
        <time>2016-05-16T08:15:09Z</time>
      </trkpt>
      <trkpt lat="48.6777" lon="1.96449">
        <ele>157</ele>
        <time>2016-05-16T08:15:10Z</time>
      </trkpt>
      <trkpt lat="48.67765" lon="1.96442">
        <ele>156</ele>
        <time>2016-05-16T08:15:13Z</time>
      </trkpt>
      <trkpt lat="48.67763" lon="1.96438">
        <ele>158</ele>
        <time>2016-05-16T08:15:14Z</time>
      </trkpt>
      <trkpt lat="48.6776" lon="1.96427">
        <ele>160</ele>
        <time>2016-05-16T08:15:16Z</time>
      </trkpt>
      <trkpt lat="48.6776" lon="1.96424">
        <ele>162</ele>
        <time>2016-05-16T08:15:17Z</time>
      </trkpt>
      <trkpt lat="48.67757" lon="1.96412">
        <ele>162</ele>
        <time>2016-05-16T08:15:18Z</time>
      </trkpt>
      <trkpt lat="48.67766" lon="1.96411">
        <ele>155</ele>
        <time>2016-05-16T08:15:19Z</time>
      </trkpt>
      <trkpt lat="48.67764" lon="1.96409">
        <ele>156</ele>
        <time>2016-05-16T08:15:20Z</time>
      </trkpt>
      <trkpt lat="48.67756" lon="1.9643">
        <ele>156</ele>
        <time>2016-05-16T08:15:21Z</time>
      </trkpt>
      <trkpt lat="48.67751" lon="1.96429">
        <ele>159</ele>
        <time>2016-05-16T08:15:23Z</time>
      </trkpt>
      <trkpt lat="48.67743" lon="1.96435">
        <ele>161</ele>
        <time>2016-05-16T08:15:24Z</time>
      </trkpt>
      <trkpt lat="48.67743" lon="1.96431">
        <ele>158</ele>
        <time>2016-05-16T08:15:30Z</time>
      </trkpt>
      <trkpt lat="48.67749" lon="1.9642">
        <ele>156</ele>
        <time>2016-05-16T08:15:31Z</time>
      </trkpt>
      <trkpt lat="48.67754" lon="1.9641">
        <ele>152</ele>
        <time>2016-05-16T08:15:33Z</time>
      </trkpt>
      <trkpt lat="48.67757" lon="1.96405">
        <ele>151</ele>
        <time>2016-05-16T08:15:34Z</time>
      </trkpt>
      <trkpt lat="48.67752" lon="1.96411">
        <ele>153</ele>
        <time>2016-05-16T08:15:35Z</time>
      </trkpt>
      <trkpt lat="48.67749" lon="1.96413">
        <ele>155</ele>
        <time>2016-05-16T08:15:36Z</time>
      </trkpt>
      <trkpt lat="48.67742" lon="1.96408">
        <ele>155</ele>
        <time>2016-05-16T08:15:41Z</time>
      </trkpt>
      <trkpt lat="48.67739" lon="1.96403">
        <ele>156</ele>
        <time>2016-05-16T08:15:42Z</time>
      </trkpt>
      <trkpt lat="48.67739" lon="1.96403">
        <ele>156</ele>
        <time>2016-05-16T08:15:42Z</time>
      </trkpt>
      <trkpt lat="48.67738" lon="1.96407">
        <ele>158</ele>
        <time>2016-05-16T08:15:43Z</time>
      </trkpt>
      <trkpt lat="48.67738" lon="1.96407">
        <ele>158</ele>
        <time>2016-05-16T08:15:43Z</time>
      </trkpt>
      <trkpt lat="48.67738" lon="1.96407">
        <ele>158</ele>
        <time>2016-05-16T08:15:44Z</time>
      </trkpt>
      <trkpt lat="48.67733" lon="1.96399">
        <ele>161</ele>
        <time>2016-05-16T08:15:47Z</time>
      </trkpt>
      <trkpt lat="48.67732" lon="1.96402">
        <ele>159</ele>
        <time>2016-05-16T08:15:48Z</time>
      </trkpt>
      <trkpt lat="48.67732" lon="1.96402">
        <ele>159</ele>
        <time>2016-05-16T08:15:48Z</time>
      </trkpt>
      <trkpt lat="48.67732" lon="1.96401">
        <ele>159</ele>
        <time>2016-05-16T08:15:49Z</time>
      </trkpt>
      <trkpt lat="48.67732" lon="1.96398">
        <ele>159</ele>
        <time>2016-05-16T08:15:50Z</time>
      </trkpt>
      <trkpt lat="48.67731" lon="1.96397">
        <ele>159</ele>
        <time>2016-05-16T08:15:51Z</time>
      </trkpt>
      <trkpt lat="48.67726" lon="1.96386">
        <ele>165</ele>
        <time>2016-05-16T08:16:20Z</time>
      </trkpt>
      <trkpt lat="48.67726" lon="1.96386">
        <ele>165</ele>
        <time>2016-05-16T08:16:21Z</time>
      </trkpt>
      <trkpt lat="48.67722" lon="1.96376">
        <ele>165</ele>
        <time>2016-05-16T08:16:35Z</time>
      </trkpt>
      <trkpt lat="48.6772" lon="1.96374">
        <ele>164</ele>
        <time>2016-05-16T08:16:36Z</time>
      </trkpt>
      <trkpt lat="48.6772" lon="1.96374">
        <ele>164</ele>
        <time>2016-05-16T08:16:36Z</time>
      </trkpt>
      <trkpt lat="48.67721" lon="1.96371">
        <ele>164</ele>
        <time>2016-05-16T08:16:37Z</time>
      </trkpt>
      <trkpt lat="48.67717" lon="1.96361">
        <ele>170</ele>
        <time>2016-05-16T08:16:42Z</time>
      </trkpt>
      <trkpt lat="48.67716" lon="1.96357">
        <ele>171</ele>
        <time>2016-05-16T08:16:43Z</time>
      </trkpt>
      <trkpt lat="48.67716" lon="1.96357">
        <ele>171</ele>
        <time>2016-05-16T08:16:43Z</time>
      </trkpt>
      <trkpt lat="48.67715" lon="1.96355">
        <ele>172</ele>
        <time>2016-05-16T08:16:44Z</time>
      </trkpt>
      <trkpt lat="48.67715" lon="1.96355">
        <ele>172</ele>
        <time>2016-05-16T08:16:44Z</time>
      </trkpt>
      <trkpt lat="48.67712" lon="1.96353">
        <ele>172</ele>
        <time>2016-05-16T08:16:45Z</time>
      </trkpt>
      <trkpt lat="48.67709" lon="1.9634">
        <ele>173</ele>
        <time>2016-05-16T08:16:48Z</time>
      </trkpt>
      <trkpt lat="48.67706" lon="1.96336">
        <ele>174</ele>
        <time>2016-05-16T08:16:49Z</time>
      </trkpt>
      <trkpt lat="48.67701" lon="1.96327">
        <ele>174</ele>
        <time>2016-05-16T08:16:53Z</time>
      </trkpt>
      <trkpt lat="48.677" lon="1.96324">
        <ele>175</ele>
        <time>2016-05-16T08:16:54Z</time>
      </trkpt>
      <trkpt lat="48.677" lon="1.96311">
        <ele>180</ele>
        <time>2016-05-16T08:17:00Z</time>
      </trkpt>
      <trkpt lat="48.677" lon="1.9631">
        <ele>179</ele>
        <time>2016-05-16T08:17:01Z</time>
      </trkpt>
      <trkpt lat="48.67694" lon="1.96307">
        <ele>176</ele>
        <time>2016-05-16T08:17:05Z</time>
      </trkpt>
      <trkpt lat="48.67691" lon="1.96302">
        <ele>176</ele>
        <time>2016-05-16T08:17:06Z</time>
      </trkpt>
      <trkpt lat="48.67694" lon="1.96289">
        <ele>176</ele>
        <time>2016-05-16T08:17:09Z</time>
      </trkpt>
      <trkpt lat="48.67695" lon="1.96288">
        <ele>176</ele>
        <time>2016-05-16T08:17:10Z</time>
      </trkpt>
      <trkpt lat="48.67688" lon="1.9629">
        <ele>172</ele>
        <time>2016-05-16T08:17:16Z</time>
      </trkpt>
      <trkpt lat="48.67686" lon="1.96291">
        <ele>171</ele>
        <time>2016-05-16T08:17:17Z</time>
      </trkpt>
      <trkpt lat="48.67679" lon="1.96286">
        <ele>172</ele>
        <time>2016-05-16T08:17:21Z</time>
      </trkpt>
      <trkpt lat="48.67679" lon="1.96281">
        <ele>169</ele>
        <time>2016-05-16T08:17:22Z</time>
      </trkpt>
      <trkpt lat="48.67674" lon="1.96273">
        <ele>177</ele>
        <time>2016-05-16T08:17:27Z</time>
      </trkpt>
      <trkpt lat="48.67673" lon="1.96273">
        <ele>177</ele>
        <time>2016-05-16T08:17:28Z</time>
      </trkpt>
      <trkpt lat="48.67673" lon="1.96273">
        <ele>177</ele>
        <time>2016-05-16T08:17:28Z</time>
      </trkpt>
      <trkpt lat="48.67675" lon="1.96272">
        <ele>175</ele>
        <time>2016-05-16T08:17:29Z</time>
      </trkpt>
      <trkpt lat="48.67667" lon="1.9627">
        <ele>172</ele>
        <time>2016-05-16T08:17:42Z</time>
      </trkpt>
      <trkpt lat="48.67666" lon="1.96269">
        <ele>171</ele>
        <time>2016-05-16T08:17:43Z</time>
      </trkpt>
      <trkpt lat="48.67667" lon="1.96258">
        <ele>166</ele>
        <time>2016-05-16T08:17:57Z</time>
      </trkpt>
      <trkpt lat="48.67666" lon="1.96252">
        <ele>166</ele>
        <time>2016-05-16T08:17:58Z</time>
      </trkpt>
      <trkpt lat="48.67663" lon="1.96243">
        <ele>169</ele>
        <time>2016-05-16T08:18:04Z</time>
      </trkpt>
      <trkpt lat="48.67662" lon="1.9624">
        <ele>170</ele>
        <time>2016-05-16T08:18:05Z</time>
      </trkpt>
      <trkpt lat="48.67655" lon="1.96236">
        <ele>168</ele>
        <time>2016-05-16T08:18:09Z</time>
      </trkpt>
      <trkpt lat="48.67653" lon="1.96235">
        <ele>168</ele>
        <time>2016-05-16T08:18:10Z</time>
      </trkpt>
      <trkpt lat="48.67651" lon="1.96225">
        <ele>167</ele>
        <time>2016-05-16T08:18:19Z</time>
      </trkpt>
      <trkpt lat="48.67653" lon="1.9622">
        <ele>167</ele>
        <time>2016-05-16T08:18:20Z</time>
      </trkpt>
      <trkpt lat="48.67661" lon="1.96219">
        <ele>166</ele>
        <time>2016-05-16T08:18:28Z</time>
      </trkpt>
      <trkpt lat="48.67662" lon="1.96217">
        <ele>165</ele>
        <time>2016-05-16T08:18:29Z</time>
      </trkpt>
      <trkpt lat="48.67662" lon="1.96217">
        <ele>165</ele>
        <time>2016-05-16T08:18:29Z</time>
      </trkpt>
      <trkpt lat="48.67662" lon="1.96218">
        <ele>166</ele>
        <time>2016-05-16T08:18:30Z</time>
      </trkpt>
      <trkpt lat="48.67668" lon="1.96209">
        <ele>165</ele>
        <time>2016-05-16T08:18:36Z</time>
      </trkpt>
      <trkpt lat="48.6767" lon="1.96208">
        <ele>164</ele>
        <time>2016-05-16T08:18:37Z</time>
      </trkpt>
      <trkpt lat="48.67676" lon="1.96198">
        <ele>166</ele>
        <time>2016-05-16T08:18:49Z</time>
      </trkpt>
      <trkpt lat="48.67676" lon="1.96197">
        <ele>166</ele>
        <time>2016-05-16T08:18:50Z</time>
      </trkpt>
      <trkpt lat="48.67677" lon="1.96194">
        <ele>167</ele>
        <time>2016-05-16T08:19:14Z</time>
      </trkpt>
      <trkpt lat="48.67676" lon="1.96183">
        <ele>168</ele>
        <time>2016-05-16T08:19:15Z</time>
      </trkpt>
      <trkpt lat="48.67674" lon="1.96176">
        <ele>167</ele>
        <time>2016-05-16T08:19:16Z</time>
      </trkpt>
      <trkpt lat="48.67674" lon="1.96168">
        <ele>168</ele>
        <time>2016-05-16T08:19:17Z</time>
      </trkpt>
      <trkpt lat="48.67677" lon="1.96156">
        <ele>168</ele>
        <time>2016-05-16T08:19:19Z</time>
      </trkpt>
      <trkpt lat="48.67676" lon="1.96152">
        <ele>170</ele>
        <time>2016-05-16T08:19:20Z</time>
      </trkpt>
      <trkpt lat="48.67677" lon="1.96145">
        <ele>177</ele>
        <time>2016-05-16T08:19:24Z</time>
      </trkpt>
      <trkpt lat="48.67676" lon="1.96143">
        <ele>177</ele>
        <time>2016-05-16T08:19:25Z</time>
      </trkpt>
      <trkpt lat="48.67678" lon="1.96141">
        <ele>171</ele>
        <time>2016-05-16T08:19:40Z</time>
      </trkpt>
      <trkpt lat="48.67677" lon="1.96138">
        <ele>170</ele>
        <time>2016-05-16T08:19:41Z</time>
      </trkpt>
      <trkpt lat="48.67671" lon="1.96131">
        <ele>167</ele>
        <time>2016-05-16T08:19:46Z</time>
      </trkpt>
      <trkpt lat="48.67671" lon="1.96129">
        <ele>168</ele>
        <time>2016-05-16T08:19:47Z</time>
      </trkpt>
      <trkpt lat="48.67673" lon="1.96118">
        <ele>169</ele>
        <time>2016-05-16T08:20:28Z</time>
      </trkpt>
      <trkpt lat="48.67676" lon="1.96116">
        <ele>168</ele>
        <time>2016-05-16T08:20:29Z</time>
      </trkpt>
      <trkpt lat="48.67681" lon="1.96106">
        <ele>161</ele>
        <time>2016-05-16T08:20:38Z</time>
      </trkpt>
      <trkpt lat="48.67682" lon="1.96105">
        <ele>160</ele>
        <time>2016-05-16T08:20:39Z</time>
      </trkpt>
      <trkpt lat="48.67683" lon="1.96093">
        <ele>159</ele>
        <time>2016-05-16T08:20:47Z</time>
      </trkpt>
      <trkpt lat="48.67684" lon="1.96091">
        <ele>159</ele>
        <time>2016-05-16T08:20:48Z</time>
      </trkpt>
      <trkpt lat="48.67687" lon="1.96079">
        <ele>156</ele>
        <time>2016-05-16T08:20:57Z</time>
      </trkpt>
      <trkpt lat="48.67688" lon="1.96077">
        <ele>156</ele>
        <time>2016-05-16T08:20:58Z</time>
      </trkpt>
      <trkpt lat="48.67684" lon="1.96065">
        <ele>157</ele>
        <time>2016-05-16T08:21:39Z</time>
      </trkpt>
      <trkpt lat="48.67685" lon="1.96061">
        <ele>154</ele>
        <time>2016-05-16T08:21:40Z</time>
      </trkpt>
      <trkpt lat="48.67685" lon="1.96056">
        <ele>155</ele>
        <time>2016-05-16T08:21:41Z</time>
      </trkpt>
      <trkpt lat="48.67687" lon="1.96047">
        <ele>153</ele>
        <time>2016-05-16T08:21:42Z</time>
      </trkpt>
      <trkpt lat="48.67683" lon="1.96037">
        <ele>152</ele>
        <time>2016-05-16T08:21:45Z</time>
      </trkpt>
      <trkpt lat="48.67684" lon="1.96032">
        <ele>152</ele>
        <time>2016-05-16T08:21:46Z</time>
      </trkpt>
      <trkpt lat="48.67688" lon="1.96026">
        <ele>150</ele>
        <time>2016-05-16T08:21:48Z</time>
      </trkpt>
      <trkpt lat="48.67686" lon="1.96019">
        <ele>149</ele>
        <time>2016-05-16T08:21:49Z</time>
      </trkpt>
      <trkpt lat="48.67686" lon="1.96008">
        <ele>150</ele>
        <time>2016-05-16T08:21:54Z</time>
      </trkpt>
      <trkpt lat="48.67685" lon="1.96005">
        <ele>152</ele>
        <time>2016-05-16T08:21:55Z</time>
      </trkpt>
      <trkpt lat="48.67686" lon="1.95995">
        <ele>150</ele>
        <time>2016-05-16T08:21:58Z</time>
      </trkpt>
      <trkpt lat="48.67686" lon="1.95992">
        <ele>150</ele>
        <time>2016-05-16T08:21:59Z</time>
      </trkpt>
      <trkpt lat="48.67686" lon="1.95992">
        <ele>150</ele>
        <time>2016-05-16T08:21:59Z</time>
      </trkpt>
      <trkpt lat="48.67686" lon="1.95989">
        <ele>151</ele>
        <time>2016-05-16T08:22:00Z</time>
      </trkpt>
      <trkpt lat="48.6769" lon="1.95978">
        <ele>153</ele>
        <time>2016-05-16T08:22:16Z</time>
      </trkpt>
      <trkpt lat="48.67689" lon="1.95976">
        <ele>152</ele>
        <time>2016-05-16T08:22:17Z</time>
      </trkpt>
      <trkpt lat="48.67691" lon="1.95963">
        <ele>153</ele>
        <time>2016-05-16T08:22:26Z</time>
      </trkpt>
      <trkpt lat="48.67695" lon="1.95963">
        <ele>150</ele>
        <time>2016-05-16T08:22:27Z</time>
      </trkpt>
      <trkpt lat="48.67695" lon="1.9595">
        <ele>151</ele>
        <time>2016-05-16T08:22:29Z</time>
      </trkpt>
      <trkpt lat="48.67695" lon="1.95946">
        <ele>152</ele>
        <time>2016-05-16T08:22:30Z</time>
      </trkpt>
      <trkpt lat="48.67697" lon="1.95941">
        <ele>153</ele>
        <time>2016-05-16T08:22:32Z</time>
      </trkpt>
      <trkpt lat="48.67697" lon="1.95939">
        <ele>154</ele>
        <time>2016-05-16T08:22:33Z</time>
      </trkpt>
      <trkpt lat="48.67699" lon="1.95926">
        <ele>158</ele>
        <time>2016-05-16T08:22:51Z</time>
      </trkpt>
      <trkpt lat="48.67699" lon="1.95926">
        <ele>158</ele>
        <time>2016-05-16T08:22:52Z</time>
      </trkpt>
      <trkpt lat="48.67704" lon="1.95917">
        <ele>156</ele>
        <time>2016-05-16T08:23:01Z</time>
      </trkpt>
      <trkpt lat="48.67706" lon="1.95918">
        <ele>155</ele>
        <time>2016-05-16T08:23:02Z</time>
      </trkpt>
      <trkpt lat="48.67708" lon="1.95907">
        <ele>156</ele>
        <time>2016-05-16T08:23:06Z</time>
      </trkpt>
      <trkpt lat="48.67708" lon="1.95904">
        <ele>157</ele>
        <time>2016-05-16T08:23:07Z</time>
      </trkpt>
      <trkpt lat="48.6771" lon="1.95891">
        <ele>159</ele>
        <time>2016-05-16T08:23:12Z</time>
      </trkpt>
      <trkpt lat="48.67711" lon="1.95887">
        <ele>159</ele>
        <time>2016-05-16T08:23:13Z</time>
      </trkpt>
      <trkpt lat="48.67714" lon="1.95878">
        <ele>166</ele>
        <time>2016-05-16T08:23:18Z</time>
      </trkpt>
      <trkpt lat="48.67717" lon="1.95876">
        <ele>165</ele>
        <time>2016-05-16T08:23:19Z</time>
      </trkpt>
      <trkpt lat="48.67721" lon="1.95869">
        <ele>166</ele>
        <time>2016-05-16T08:23:22Z</time>
      </trkpt>
      <trkpt lat="48.67721" lon="1.95863">
        <ele>168</ele>
        <time>2016-05-16T08:23:23Z</time>
      </trkpt>
      <trkpt lat="48.67729" lon="1.95858">
        <ele>162</ele>
        <time>2016-05-16T08:23:26Z</time>
      </trkpt>
      <trkpt lat="48.6773" lon="1.95854">
        <ele>163</ele>
        <time>2016-05-16T08:23:27Z</time>
      </trkpt>
      <trkpt lat="48.67734" lon="1.95846">
        <ele>165</ele>
        <time>2016-05-16T08:23:35Z</time>
      </trkpt>
      <trkpt lat="48.67734" lon="1.95842">
        <ele>165</ele>
        <time>2016-05-16T08:23:36Z</time>
      </trkpt>
      <trkpt lat="48.67734" lon="1.95841">
        <ele>165</ele>
        <time>2016-05-16T08:23:37Z</time>
      </trkpt>
      <trkpt lat="48.67733" lon="1.95834">
        <ele>165</ele>
        <time>2016-05-16T08:23:38Z</time>
      </trkpt>
      <trkpt lat="48.6774" lon="1.95828">
        <ele>159</ele>
        <time>2016-05-16T08:23:44Z</time>
      </trkpt>
      <trkpt lat="48.67741" lon="1.95825">
        <ele>159</ele>
        <time>2016-05-16T08:23:45Z</time>
      </trkpt>
      <trkpt lat="48.67742" lon="1.95812">
        <ele>161</ele>
        <time>2016-05-16T08:24:33Z</time>
      </trkpt>
      <trkpt lat="48.67739" lon="1.95801">
        <ele>159</ele>
        <time>2016-05-16T08:24:34Z</time>
      </trkpt>
      <trkpt lat="48.67745" lon="1.95795">
        <ele>159</ele>
        <time>2016-05-16T08:24:36Z</time>
      </trkpt>
      <trkpt lat="48.67747" lon="1.95791">
        <ele>157</ele>
        <time>2016-05-16T08:24:37Z</time>
      </trkpt>
      <trkpt lat="48.67749" lon="1.95782">
        <ele>152</ele>
        <time>2016-05-16T08:24:39Z</time>
      </trkpt>
      <trkpt lat="48.67754" lon="1.95779">
        <ele>151</ele>
        <time>2016-05-16T08:24:40Z</time>
      </trkpt>
      <trkpt lat="48.67758" lon="1.95771">
        <ele>149</ele>
        <time>2016-05-16T08:24:42Z</time>
      </trkpt>
      <trkpt lat="48.67762" lon="1.95769">
        <ele>149</ele>
        <time>2016-05-16T08:24:43Z</time>
      </trkpt>
      <trkpt lat="48.67766" lon="1.95757">
        <ele>150</ele>
        <time>2016-05-16T08:24:52Z</time>
      </trkpt>
      <trkpt lat="48.67767" lon="1.95757">
        <ele>151</ele>
        <time>2016-05-16T08:24:53Z</time>
      </trkpt>
      <trkpt lat="48.67771" lon="1.95746">
        <ele>152</ele>
        <time>2016-05-16T08:25:18Z</time>
      </trkpt>
      <trkpt lat="48.67772" lon="1.95743">
        <ele>153</ele>
        <time>2016-05-16T08:25:19Z</time>
      </trkpt>
      <trkpt lat="48.67776" lon="1.95732">
        <ele>155</ele>
        <time>2016-05-16T08:25:27Z</time>
      </trkpt>
      <trkpt lat="48.67776" lon="1.95731">
        <ele>154</ele>
        <time>2016-05-16T08:25:28Z</time>
      </trkpt>
      <trkpt lat="48.67782" lon="1.95722">
        <ele>157</ele>
        <time>2016-05-16T08:25:33Z</time>
      </trkpt>
      <trkpt lat="48.67783" lon="1.9572">
        <ele>156</ele>
        <time>2016-05-16T08:25:34Z</time>
      </trkpt>
      <trkpt lat="48.67788" lon="1.9571">
        <ele>153</ele>
        <time>2016-05-16T08:25:43Z</time>
      </trkpt>
      <trkpt lat="48.67789" lon="1.95706">
        <ele>153</ele>
        <time>2016-05-16T08:25:44Z</time>
      </trkpt>
      <trkpt lat="48.67793" lon="1.95705">
        <ele>154</ele>
        <time>2016-05-16T08:25:46Z</time>
      </trkpt>
      <trkpt lat="48.67794" lon="1.95704">
        <ele>155</ele>
        <time>2016-05-16T08:25:47Z</time>
      </trkpt>
      <trkpt lat="48.67794" lon="1.95704">
        <ele>155</ele>
        <time>2016-05-16T08:25:47Z</time>
      </trkpt>
      <trkpt lat="48.67794" lon="1.95701">
        <ele>156</ele>
        <time>2016-05-16T08:25:48Z</time>
      </trkpt>
      <trkpt lat="48.67802" lon="1.957">
        <ele>153</ele>
        <time>2016-05-16T08:25:50Z</time>
      </trkpt>
      <trkpt lat="48.67803" lon="1.95695">
        <ele>154</ele>
        <time>2016-05-16T08:25:51Z</time>
      </trkpt>
      <trkpt lat="48.67811" lon="1.95694">
        <ele>154</ele>
        <time>2016-05-16T08:25:55Z</time>
      </trkpt>
      <trkpt lat="48.67813" lon="1.95694">
        <ele>153</ele>
        <time>2016-05-16T08:25:56Z</time>
      </trkpt>
      <trkpt lat="48.67813" lon="1.95694">
        <ele>153</ele>
        <time>2016-05-16T08:25:56Z</time>
      </trkpt>
      <trkpt lat="48.67813" lon="1.95692">
        <ele>150</ele>
        <time>2016-05-16T08:25:57Z</time>
      </trkpt>
      <trkpt lat="48.67813" lon="1.95692">
        <ele>150</ele>
        <time>2016-05-16T08:25:57Z</time>
      </trkpt>
      <trkpt lat="48.67814" lon="1.9569">
        <ele>150</ele>
        <time>2016-05-16T08:25:58Z</time>
      </trkpt>
      <trkpt lat="48.67818" lon="1.95679">
        <ele>147</ele>
        <time>2016-05-16T08:26:02Z</time>
      </trkpt>
      <trkpt lat="48.67819" lon="1.95678">
        <ele>148</ele>
        <time>2016-05-16T08:26:03Z</time>
      </trkpt>
      <trkpt lat="48.67824" lon="1.9567">
        <ele>147</ele>
        <time>2016-05-16T08:26:13Z</time>
      </trkpt>
      <trkpt lat="48.67823" lon="1.95662">
        <ele>151</ele>
        <time>2016-05-16T08:26:14Z</time>
      </trkpt>
      <trkpt lat="48.67825" lon="1.95655">
        <ele>154</ele>
        <time>2016-05-16T08:26:18Z</time>
      </trkpt>
      <trkpt lat="48.67825" lon="1.95647">
        <ele>155</ele>
        <time>2016-05-16T08:26:19Z</time>
      </trkpt>
      <trkpt lat="48.67826" lon="1.95634">
        <ele>156</ele>
        <time>2016-05-16T08:27:04Z</time>
      </trkpt>
      <trkpt lat="48.67826" lon="1.95632">
        <ele>157</ele>
        <time>2016-05-16T08:27:05Z</time>
      </trkpt>
      <trkpt lat="48.67831" lon="1.95623">
        <ele>157</ele>
        <time>2016-05-16T08:27:08Z</time>
      </trkpt>
      <trkpt lat="48.67835" lon="1.95627">
        <ele>160</ele>
        <time>2016-05-16T08:27:09Z</time>
      </trkpt>
      <trkpt lat="48.67843" lon="1.95629">
        <ele>160</ele>
        <time>2016-05-16T08:27:13Z</time>
      </trkpt>
      <trkpt lat="48.67846" lon="1.95621">
        <ele>160</ele>
        <time>2016-05-16T08:27:14Z</time>
      </trkpt>
      <trkpt lat="48.67844" lon="1.9561">
        <ele>158</ele>
        <time>2016-05-16T08:27:18Z</time>
      </trkpt>
      <trkpt lat="48.67842" lon="1.95606">
        <ele>157</ele>
        <time>2016-05-16T08:27:19Z</time>
      </trkpt>
      <trkpt lat="48.67844" lon="1.95595">
        <ele>158</ele>
        <time>2016-05-16T08:27:21Z</time>
      </trkpt>
      <trkpt lat="48.6784" lon="1.95595">
        <ele>160</ele>
        <time>2016-05-16T08:27:22Z</time>
      </trkpt>
      <trkpt lat="48.6784" lon="1.95595">
        <ele>160</ele>
        <time>2016-05-16T08:27:22Z</time>
      </trkpt>
      <trkpt lat="48.67839" lon="1.95592">
        <ele>161</ele>
        <time>2016-05-16T08:27:23Z</time>
      </trkpt>
      <trkpt lat="48.67844" lon="1.95584">
        <ele>156</ele>
        <time>2016-05-16T08:27:32Z</time>
      </trkpt>
      <trkpt lat="48.67845" lon="1.95581">
        <ele>156</ele>
        <time>2016-05-16T08:27:33Z</time>
      </trkpt>
      <trkpt lat="48.67847" lon="1.95586">
        <ele>158</ele>
        <time>2016-05-16T08:27:41Z</time>
      </trkpt>
      <trkpt lat="48.67848" lon="1.95586">
        <ele>159</ele>
        <time>2016-05-16T08:27:42Z</time>
      </trkpt>
      <trkpt lat="48.6785" lon="1.95573">
        <ele>157</ele>
        <time>2016-05-16T08:28:07Z</time>
      </trkpt>
      <trkpt lat="48.6785" lon="1.95573">
        <ele>157</ele>
        <time>2016-05-16T08:28:08Z</time>
      </trkpt>
      <trkpt lat="48.67852" lon="1.95564">
        <ele>154</ele>
        <time>2016-05-16T08:28:26Z</time>
      </trkpt>
      <trkpt lat="48.67853" lon="1.9556">
        <ele>151</ele>
        <time>2016-05-16T08:28:27Z</time>
      </trkpt>
      <trkpt lat="48.67857" lon="1.95548">
        <ele>145</ele>
        <time>2016-05-16T08:28:30Z</time>
      </trkpt>
      <trkpt lat="48.67858" lon="1.95545">
        <ele>145</ele>
        <time>2016-05-16T08:28:31Z</time>
      </trkpt>
      <trkpt lat="48.67853" lon="1.95533">
        <ele>150</ele>
        <time>2016-05-16T08:28:35Z</time>
      </trkpt>
      <trkpt lat="48.67854" lon="1.95528">
        <ele>152</ele>
        <time>2016-05-16T08:28:36Z</time>
      </trkpt>
      <trkpt lat="48.67855" lon="1.95517">
        <ele>153</ele>
        <time>2016-05-16T08:28:40Z</time>
      </trkpt>
      <trkpt lat="48.67857" lon="1.95513">
        <ele>155</ele>
        <time>2016-05-16T08:28:41Z</time>
      </trkpt>
      <trkpt lat="48.67857" lon="1.95513">
        <ele>155</ele>
        <time>2016-05-16T08:28:41Z</time>
      </trkpt>
      <trkpt lat="48.67855" lon="1.95513">
        <ele>151</ele>
        <time>2016-05-16T08:28:42Z</time>
      </trkpt>
      <trkpt lat="48.67855" lon="1.95513">
        <ele>151</ele>
        <time>2016-05-16T08:28:43Z</time>
      </trkpt>
      <trkpt lat="48.67856" lon="1.95513">
        <ele>150</ele>
        <time>2016-05-16T08:28:43Z</time>
      </trkpt>
      <trkpt lat="48.67858" lon="1.95501">
        <ele>147</ele>
        <time>2016-05-16T08:28:46Z</time>
      </trkpt>
      <trkpt lat="48.67857" lon="1.95497">
        <ele>151</ele>
        <time>2016-05-16T08:28:47Z</time>
      </trkpt>
      <trkpt lat="48.67857" lon="1.95488">
        <ele>152</ele>
        <time>2016-05-16T08:28:54Z</time>
      </trkpt>
      <trkpt lat="48.67855" lon="1.95481">
        <ele>154</ele>
        <time>2016-05-16T08:28:55Z</time>
      </trkpt>
      <trkpt lat="48.67857" lon="1.95468">
        <ele>158</ele>
        <time>2016-05-16T08:29:03Z</time>
      </trkpt>
      <trkpt lat="48.67852" lon="1.95463">
        <ele>159</ele>
        <time>2016-05-16T08:29:04Z</time>
      </trkpt>
      <trkpt lat="48.67853" lon="1.95455">
        <ele>159</ele>
        <time>2016-05-16T08:29:08Z</time>
      </trkpt>
      <trkpt lat="48.67853" lon="1.95449">
        <ele>158</ele>
        <time>2016-05-16T08:29:09Z</time>
      </trkpt>
      <trkpt lat="48.67854" lon="1.95451">
        <ele>158</ele>
        <time>2016-05-16T08:29:10Z</time>
      </trkpt>
      <trkpt lat="48.67856" lon="1.95447">
        <ele>159</ele>
        <time>2016-05-16T08:29:11Z</time>
      </trkpt>
      <trkpt lat="48.67861" lon="1.95437">
        <ele>160</ele>
        <time>2016-05-16T08:29:20Z</time>
      </trkpt>
      <trkpt lat="48.67861" lon="1.95435">
        <ele>161</ele>
        <time>2016-05-16T08:29:21Z</time>
      </trkpt>
      <trkpt lat="48.67863" lon="1.95423">
        <ele>165</ele>
        <time>2016-05-16T08:29:43Z</time>
      </trkpt>
      <trkpt lat="48.67863" lon="1.95422">
        <ele>163</ele>
        <time>2016-05-16T08:29:44Z</time>
      </trkpt>
      <trkpt lat="48.67863" lon="1.95422">
        <ele>163</ele>
        <time>2016-05-16T08:29:44Z</time>
      </trkpt>
      <trkpt lat="48.67863" lon="1.9542">
        <ele>164</ele>
        <time>2016-05-16T08:29:45Z</time>
      </trkpt>
      <trkpt lat="48.67865" lon="1.95408">
        <ele>164</ele>
        <time>2016-05-16T08:29:53Z</time>
      </trkpt>
      <trkpt lat="48.67866" lon="1.95406">
        <ele>166</ele>
        <time>2016-05-16T08:29:54Z</time>
      </trkpt>
      <trkpt lat="48.67866" lon="1.95406">
        <ele>166</ele>
        <time>2016-05-16T08:29:54Z</time>
      </trkpt>
      <trkpt lat="48.67867" lon="1.95405">
        <ele>165</ele>
        <time>2016-05-16T08:29:55Z</time>
      </trkpt>
      <trkpt lat="48.67867" lon="1.95405">
        <ele>165</ele>
        <time>2016-05-16T08:29:55Z</time>
      </trkpt>
      <trkpt lat="48.67868" lon="1.95403">
        <ele>165</ele>
        <time>2016-05-16T08:29:56Z</time>
      </trkpt>
      <trkpt lat="48.67873" lon="1.95392">
        <ele>163</ele>
        <time>2016-05-16T08:30:04Z</time>
      </trkpt>
      <trkpt lat="48.67873" lon="1.95391">
        <ele>162</ele>
        <time>2016-05-16T08:30:06Z</time>
      </trkpt>
      <trkpt lat="48.67876" lon="1.9538">
        <ele>165</ele>
        <time>2016-05-16T08:30:15Z</time>
      </trkpt>
      <trkpt lat="48.67877" lon="1.95379">
        <ele>164</ele>
        <time>2016-05-16T08:30:16Z</time>
      </trkpt>
      <trkpt lat="48.67878" lon="1.95377">
        <ele>166</ele>
        <time>2016-05-16T08:30:18Z</time>
      </trkpt>
      <trkpt lat="48.67879" lon="1.95375">
        <ele>166</ele>
        <time>2016-05-16T08:30:19Z</time>
      </trkpt>
      <trkpt lat="48.67886" lon="1.95368">
        <ele>165</ele>
        <time>2016-05-16T08:30:24Z</time>
      </trkpt>
      <trkpt lat="48.67887" lon="1.95366">
        <ele>164</ele>
        <time>2016-05-16T08:30:25Z</time>
      </trkpt>
      <trkpt lat="48.67895" lon="1.95359">
        <ele>162</ele>
        <time>2016-05-16T08:30:38Z</time>
      </trkpt>
      <trkpt lat="48.67895" lon="1.95358">
        <ele>162</ele>
        <time>2016-05-16T08:30:39Z</time>
      </trkpt>
      <trkpt lat="48.67901" lon="1.95351">
        <ele>160</ele>
        <time>2016-05-16T08:30:52Z</time>
      </trkpt>
      <trkpt lat="48.67903" lon="1.9535">
        <ele>160</ele>
        <time>2016-05-16T08:30:53Z</time>
      </trkpt>
      <trkpt lat="48.6791" lon="1.95347">
        <ele>151</ele>
        <time>2016-05-16T08:30:57Z</time>
      </trkpt>
      <trkpt lat="48.6791" lon="1.95342">
        <ele>151</ele>
        <time>2016-05-16T08:30:58Z</time>
      </trkpt>
      <trkpt lat="48.67914" lon="1.95331">
        <ele>151</ele>
        <time>2016-05-16T08:31:01Z</time>
      </trkpt>
      <trkpt lat="48.67914" lon="1.95329">
        <ele>150</ele>
        <time>2016-05-16T08:31:02Z</time>
      </trkpt>
      <trkpt lat="48.67915" lon="1.95327">
        <ele>151</ele>
        <time>2016-05-16T08:31:03Z</time>
      </trkpt>
      <trkpt lat="48.67918" lon="1.95329">
        <ele>149</ele>
        <time>2016-05-16T08:31:04Z</time>
      </trkpt>
      <trkpt lat="48.67918" lon="1.95329">
        <ele>149</ele>
        <time>2016-05-16T08:31:05Z</time>
      </trkpt>
      <trkpt lat="48.67918" lon="1.95324">
        <ele>151</ele>
        <time>2016-05-16T08:31:06Z</time>
      </trkpt>
      <trkpt lat="48.67921" lon="1.95314">
        <ele>149</ele>
        <time>2016-05-16T08:31:09Z</time>
      </trkpt>
      <trkpt lat="48.67924" lon="1.95313">
        <ele>148</ele>
        <time>2016-05-16T08:31:10Z</time>
      </trkpt>
      <trkpt lat="48.67927" lon="1.95304">
        <ele>142</ele>
        <time>2016-05-16T08:31:15Z</time>
      </trkpt>
      <trkpt lat="48.67928" lon="1.95301">
        <ele>142</ele>
        <time>2016-05-16T08:31:16Z</time>
      </trkpt>
      <trkpt lat="48.67931" lon="1.9529">
        <ele>142</ele>
        <time>2016-05-16T08:31:19Z</time>
      </trkpt>
      <trkpt lat="48.67933" lon="1.95289">
        <ele>142</ele>
        <time>2016-05-16T08:31:20Z</time>
      </trkpt>
      <trkpt lat="48.67933" lon="1.95275">
        <ele>146</ele>
        <time>2016-05-16T08:31:26Z</time>
      </trkpt>
      <trkpt lat="48.67935" lon="1.95272">
        <ele>147</ele>
        <time>2016-05-16T08:31:27Z</time>
      </trkpt>
      <trkpt lat="48.67935" lon="1.95259">
        <ele>151</ele>
        <time>2016-05-16T08:31:42Z</time>
      </trkpt>
      <trkpt lat="48.67935" lon="1.95258">
        <ele>151</ele>
        <time>2016-05-16T08:31:43Z</time>
      </trkpt>
      <trkpt lat="48.67935" lon="1.95247">
        <ele>151</ele>
        <time>2016-05-16T08:31:56Z</time>
      </trkpt>
      <trkpt lat="48.67935" lon="1.95244">
        <ele>151</ele>
        <time>2016-05-16T08:31:57Z</time>
      </trkpt>
      <trkpt lat="48.67941" lon="1.95235">
        <ele>148</ele>
        <time>2016-05-16T08:32:01Z</time>
      </trkpt>
      <trkpt lat="48.67942" lon="1.95233">
        <ele>149</ele>
        <time>2016-05-16T08:32:02Z</time>
      </trkpt>
      <trkpt lat="48.67945" lon="1.9522">
        <ele>147</ele>
        <time>2016-05-16T08:32:05Z</time>
      </trkpt>
      <trkpt lat="48.67945" lon="1.95219">
        <ele>147</ele>
        <time>2016-05-16T08:32:06Z</time>
      </trkpt>
      <trkpt lat="48.67944" lon="1.95208">
        <ele>149</ele>
        <time>2016-05-16T08:32:11Z</time>
      </trkpt>
      <trkpt lat="48.67942" lon="1.95205">
        <ele>150</ele>
        <time>2016-05-16T08:32:12Z</time>
      </trkpt>
      <trkpt lat="48.67942" lon="1.95205">
        <ele>150</ele>
        <time>2016-05-16T08:32:12Z</time>
      </trkpt>
      <trkpt lat="48.67943" lon="1.95203">
        <ele>149</ele>
        <time>2016-05-16T08:32:13Z</time>
      </trkpt>
      <trkpt lat="48.67943" lon="1.95203">
        <ele>149</ele>
        <time>2016-05-16T08:32:13Z</time>
      </trkpt>
      <trkpt lat="48.67942" lon="1.95205">
        <ele>145</ele>
        <time>2016-05-16T08:32:14Z</time>
      </trkpt>
      <trkpt lat="48.67942" lon="1.95205">
        <ele>145</ele>
        <time>2016-05-16T08:32:14Z</time>
      </trkpt>
      <trkpt lat="48.67944" lon="1.95208">
        <ele>141</ele>
        <time>2016-05-16T08:32:15Z</time>
      </trkpt>
      <trkpt lat="48.67942" lon="1.95197">
        <ele>138</ele>
        <time>2016-05-16T08:32:22Z</time>
      </trkpt>
      <trkpt lat="48.67942" lon="1.95197">
        <ele>138</ele>
        <time>2016-05-16T08:32:23Z</time>
      </trkpt>
      <trkpt lat="48.67944" lon="1.95184">
        <ele>142</ele>
        <time>2016-05-16T08:32:39Z</time>
      </trkpt>
      <trkpt lat="48.67944" lon="1.95183">
        <ele>142</ele>
        <time>2016-05-16T08:32:40Z</time>
      </trkpt>
      <trkpt lat="48.67946" lon="1.95178">
        <ele>139</ele>
        <time>2016-05-16T08:33:03Z</time>
      </trkpt>
      <trkpt lat="48.67947" lon="1.95178">
        <ele>140</ele>
        <time>2016-05-16T08:33:04Z</time>
      </trkpt>
      <trkpt lat="48.67951" lon="1.95167">
        <ele>139</ele>
        <time>2016-05-16T08:33:11Z</time>
      </trkpt>
      <trkpt lat="48.67952" lon="1.95166">
        <ele>140</ele>
        <time>2016-05-16T08:33:12Z</time>
      </trkpt>
      <trkpt lat="48.6796" lon="1.95163">
        <ele>139</ele>
        <time>2016-05-16T08:33:16Z</time>
      </trkpt>
      <trkpt lat="48.67961" lon="1.95162">
        <ele>139</ele>
        <time>2016-05-16T08:33:17Z</time>
      </trkpt>
      <trkpt lat="48.67962" lon="1.95151">
        <ele>133</ele>
        <time>2016-05-16T08:33:21Z</time>
      </trkpt>
      <trkpt lat="48.67962" lon="1.95143">
        <ele>134</ele>
        <time>2016-05-16T08:33:22Z</time>
      </trkpt>
      <trkpt lat="48.67961" lon="1.95131">
        <ele>137</ele>
        <time>2016-05-16T08:33:26Z</time>
      </trkpt>
      <trkpt lat="48.67963" lon="1.9513">
        <ele>135</ele>
        <time>2016-05-16T08:33:27Z</time>
      </trkpt>
      <trkpt lat="48.67965" lon="1.9512">
        <ele>131</ele>
        <time>2016-05-16T08:33:30Z</time>
      </trkpt>
      <trkpt lat="48.6797" lon="1.95117">
        <ele>132</ele>
        <time>2016-05-16T08:33:31Z</time>
      </trkpt>
      <trkpt lat="48.67972" lon="1.95105">
        <ele>132</ele>
        <time>2016-05-16T08:33:34Z</time>
      </trkpt>
      <trkpt lat="48.67976" lon="1.95103">
        <ele>130</ele>
        <time>2016-05-16T08:33:35Z</time>
      </trkpt>
      <trkpt lat="48.67977" lon="1.95099">
        <ele>133</ele>
        <time>2016-05-16T08:33:36Z</time>
      </trkpt>
      <trkpt lat="48.67977" lon="1.95098">
        <ele>132</ele>
        <time>2016-05-16T08:33:37Z</time>
      </trkpt>
      <trkpt lat="48.67977" lon="1.95098">
        <ele>132</ele>
        <time>2016-05-16T08:33:37Z</time>
      </trkpt>
      <trkpt lat="48.67977" lon="1.95095">
        <ele>132</ele>
        <time>2016-05-16T08:33:38Z</time>
      </trkpt>
      <trkpt lat="48.67984" lon="1.9509">
        <ele>132</ele>
        <time>2016-05-16T08:33:41Z</time>
      </trkpt>
      <trkpt lat="48.67986" lon="1.95087">
        <ele>132</ele>
        <time>2016-05-16T08:33:42Z</time>
      </trkpt>
      <trkpt lat="48.67986" lon="1.95074">
        <ele>137</ele>
        <time>2016-05-16T08:33:55Z</time>
      </trkpt>
      <trkpt lat="48.67986" lon="1.95073">
        <ele>138</ele>
        <time>2016-05-16T08:33:56Z</time>
      </trkpt>
      <trkpt lat="48.67992" lon="1.95064">
        <ele>138</ele>
        <time>2016-05-16T08:34:14Z</time>
      </trkpt>
      <trkpt lat="48.67993" lon="1.95061">
        <ele>140</ele>
        <time>2016-05-16T08:34:15Z</time>
      </trkpt>
      <trkpt lat="48.67995" lon="1.95048">
        <ele>144</ele>
        <time>2016-05-16T08:34:18Z</time>
      </trkpt>
      <trkpt lat="48.67995" lon="1.95046">
        <ele>145</ele>
        <time>2016-05-16T08:34:19Z</time>
      </trkpt>
      <trkpt lat="48.68003" lon="1.95039">
        <ele>144</ele>
        <time>2016-05-16T08:34:23Z</time>
      </trkpt>
      <trkpt lat="48.68003" lon="1.95036">
        <ele>143</ele>
        <time>2016-05-16T08:34:24Z</time>
      </trkpt>
      <trkpt lat="48.68004" lon="1.95023">
        <ele>148</ele>
        <time>2016-05-16T08:34:29Z</time>
      </trkpt>
      <trkpt lat="48.68004" lon="1.95022">
        <ele>150</ele>
        <time>2016-05-16T08:34:30Z</time>
      </trkpt>
      <trkpt lat="48.68011" lon="1.95014">
        <ele>151</ele>
        <time>2016-05-16T08:34:43Z</time>
      </trkpt>
      <trkpt lat="48.68012" lon="1.95014">
        <ele>152</ele>
        <time>2016-05-16T08:34:44Z</time>
      </trkpt>
      <trkpt lat="48.6802" lon="1.95011">
        <ele>152</ele>
        <time>2016-05-16T08:35:03Z</time>
      </trkpt>
      <trkpt lat="48.68022" lon="1.95008">
        <ele>152</ele>
        <time>2016-05-16T08:35:04Z</time>
      </trkpt>
      <trkpt lat="48.68027" lon="1.95001">
        <ele>148</ele>
        <time>2016-05-16T08:35:08Z</time>
      </trkpt>
      <trkpt lat="48.68031" lon="1.95">
        <ele>147</ele>
        <time>2016-05-16T08:35:09Z</time>
      </trkpt>
      <trkpt lat="48.68031" lon="1.95">
        <ele>147</ele>
        <time>2016-05-16T08:35:09Z</time>
      </trkpt>
      <trkpt lat="48.68033" lon="1.94997">
        <ele>147</ele>
        <time>2016-05-16T08:35:10Z</time>
      </trkpt>
      <trkpt lat="48.68033" lon="1.94997">
        <ele>147</ele>
        <time>2016-05-16T08:35:10Z</time>
      </trkpt>
      <trkpt lat="48.68037" lon="1.94997">
        <ele>141</ele>
        <time>2016-05-16T08:35:11Z</time>
      </trkpt>
      <trkpt lat="48.68045" lon="1.94989">
        <ele>149</ele>
        <time>2016-05-16T08:35:28Z</time>
      </trkpt>
      <trkpt lat="48.68045" lon="1.94988">
        <ele>149</ele>
        <time>2016-05-16T08:35:29Z</time>
      </trkpt>
      <trkpt lat="48.68049" lon="1.9498">
        <ele>152</ele>
        <time>2016-05-16T08:35:45Z</time>
      </trkpt>
      <trkpt lat="48.68054" lon="1.94983">
        <ele>154</ele>
        <time>2016-05-16T08:35:46Z</time>
      </trkpt>
      <trkpt lat="48.6806" lon="1.94975">
        <ele>154</ele>
        <time>2016-05-16T08:35:50Z</time>
      </trkpt>
      <trkpt lat="48.68061" lon="1.94973">
        <ele>154</ele>
        <time>2016-05-16T08:35:51Z</time>
      </trkpt>
      <trkpt lat="48.68065" lon="1.94963">
        <ele>157</ele>
        <time>2016-05-16T08:35:59Z</time>
      </trkpt>
      <trkpt lat="48.68066" lon="1.94961">
        <ele>158</ele>
        <time>2016-05-16T08:36:00Z</time>
      </trkpt>
      <trkpt lat="48.68067" lon="1.94948">
        <ele>160</ele>
        <time>2016-05-16T08:36:05Z</time>
      </trkpt>
      <trkpt lat="48.68067" lon="1.94946">
        <ele>161</ele>
        <time>2016-05-16T08:36:06Z</time>
      </trkpt>
      <trkpt lat="48.6807" lon="1.94936">
        <ele>160</ele>
        <time>2016-05-16T08:36:09Z</time>
      </trkpt>
      <trkpt lat="48.68071" lon="1.94931">
        <ele>159</ele>
        <time>2016-05-16T08:36:10Z</time>
      </trkpt>
      <trkpt lat="48.68069" lon="1.9492">
        <ele>160</ele>
        <time>2016-05-16T08:36:16Z</time>
      </trkpt>
      <trkpt lat="48.68069" lon="1.94917">
        <ele>160</ele>
        <time>2016-05-16T08:36:17Z</time>
      </trkpt>
      <trkpt lat="48.68074" lon="1.94908">
        <ele>164</ele>
        <time>2016-05-16T08:36:21Z</time>
      </trkpt>
      <trkpt lat="48.68075" lon="1.94907">
        <ele>163</ele>
        <time>2016-05-16T08:36:22Z</time>
      </trkpt>
      <trkpt lat="48.68077" lon="1.94895">
        <ele>162</ele>
        <time>2016-05-16T08:36:29Z</time>
      </trkpt>
      <trkpt lat="48.68076" lon="1.94892">
        <ele>162</ele>
        <time>2016-05-16T08:36:30Z</time>
      </trkpt>
      <trkpt lat="48.68078" lon="1.94879">
        <ele>159</ele>
        <time>2016-05-16T08:36:50Z</time>
      </trkpt>
      <trkpt lat="48.68078" lon="1.94876">
        <ele>159</ele>
        <time>2016-05-16T08:36:51Z</time>
      </trkpt>
      <trkpt lat="48.68081" lon="1.94866">
        <ele>158</ele>
        <time>2016-05-16T08:36:54Z</time>
      </trkpt>
      <trkpt lat="48.68082" lon="1.94862">
        <ele>159</ele>
        <time>2016-05-16T08:36:55Z</time>
      </trkpt>
      <trkpt lat="48.68085" lon="1.9485">
        <ele>161</ele>
        <time>2016-05-16T08:37:09Z</time>
      </trkpt>
      <trkpt lat="48.68085" lon="1.94848">
        <ele>162</ele>
        <time>2016-05-16T08:37:10Z</time>
      </trkpt>
      <trkpt lat="48.68086" lon="1.94841">
        <ele>166</ele>
        <time>2016-05-16T08:37:17Z</time>
      </trkpt>
      <trkpt lat="48.6809" lon="1.94833">
        <ele>167</ele>
        <time>2016-05-16T08:37:18Z</time>
      </trkpt>
      <trkpt lat="48.68097" lon="1.94826">
        <ele>168</ele>
        <time>2016-05-16T08:37:24Z</time>
      </trkpt>
      <trkpt lat="48.68099" lon="1.94822">
        <ele>168</ele>
        <time>2016-05-16T08:37:25Z</time>
      </trkpt>
      <trkpt lat="48.681" lon="1.94809">
        <ele>165</ele>
        <time>2016-05-16T08:37:32Z</time>
      </trkpt>
      <trkpt lat="48.681" lon="1.94808">
        <ele>164</ele>
        <time>2016-05-16T08:37:33Z</time>
      </trkpt>
      <trkpt lat="48.68101" lon="1.948">
        <ele>171</ele>
        <time>2016-05-16T08:38:48Z</time>
      </trkpt>
      <trkpt lat="48.68106" lon="1.94797">
        <ele>170</ele>
        <time>2016-05-16T08:38:49Z</time>
      </trkpt>
      <trkpt lat="48.68112" lon="1.94787">
        <ele>170</ele>
        <time>2016-05-16T08:38:55Z</time>
      </trkpt>
      <trkpt lat="48.68112" lon="1.94785">
        <ele>171</ele>
        <time>2016-05-16T08:38:56Z</time>
      </trkpt>
      <trkpt lat="48.68111" lon="1.94772">
        <ele>172</ele>
        <time>2016-05-16T08:39:06Z</time>
      </trkpt>
      <trkpt lat="48.68111" lon="1.94772">
        <ele>172</ele>
        <time>2016-05-16T08:39:07Z</time>
      </trkpt>
      <trkpt lat="48.68115" lon="1.94762">
        <ele>171</ele>
        <time>2016-05-16T08:39:24Z</time>
      </trkpt>
      <trkpt lat="48.68116" lon="1.9476">
        <ele>168</ele>
        <time>2016-05-16T08:39:25Z</time>
      </trkpt>
      <trkpt lat="48.68114" lon="1.94748">
        <ele>169</ele>
        <time>2016-05-16T08:39:27Z</time>
      </trkpt>
      <trkpt lat="48.68114" lon="1.94744">
        <ele>169</ele>
        <time>2016-05-16T08:39:28Z</time>
      </trkpt>
      <trkpt lat="48.68116" lon="1.94732">
        <ele>174</ele>
        <time>2016-05-16T08:39:31Z</time>
      </trkpt>
      <trkpt lat="48.68117" lon="1.94729">
        <ele>174</ele>
        <time>2016-05-16T08:39:32Z</time>
      </trkpt>
      <trkpt lat="48.68116" lon="1.9473">
        <ele>173</ele>
        <time>2016-05-16T08:39:33Z</time>
      </trkpt>
      <trkpt lat="48.68117" lon="1.9473">
        <ele>173</ele>
        <time>2016-05-16T08:39:34Z</time>
      </trkpt>
      <trkpt lat="48.68117" lon="1.94727">
        <ele>175</ele>
        <time>2016-05-16T08:39:35Z</time>
      </trkpt>
      <trkpt lat="48.68119" lon="1.94727">
        <ele>175</ele>
        <time>2016-05-16T08:39:36Z</time>
      </trkpt>
      <trkpt lat="48.68123" lon="1.94716">
        <ele>178</ele>
        <time>2016-05-16T08:39:41Z</time>
      </trkpt>
      <trkpt lat="48.68125" lon="1.94715">
        <ele>177</ele>
        <time>2016-05-16T08:39:42Z</time>
      </trkpt>
      <trkpt lat="48.68127" lon="1.94704">
        <ele>177</ele>
        <time>2016-05-16T08:39:54Z</time>
      </trkpt>
      <trkpt lat="48.68128" lon="1.94702">
        <ele>177</ele>
        <time>2016-05-16T08:39:55Z</time>
      </trkpt>
      <trkpt lat="48.68128" lon="1.94689">
        <ele>175</ele>
        <time>2016-05-16T08:40:01Z</time>
      </trkpt>
      <trkpt lat="48.68129" lon="1.94685">
        <ele>174</ele>
        <time>2016-05-16T08:40:02Z</time>
      </trkpt>
      <trkpt lat="48.68127" lon="1.94674">
        <ele>179</ele>
        <time>2016-05-16T08:40:05Z</time>
      </trkpt>
      <trkpt lat="48.68128" lon="1.94669">
        <ele>178</ele>
        <time>2016-05-16T08:40:06Z</time>
      </trkpt>
      <trkpt lat="48.6813" lon="1.94657">
        <ele>174</ele>
        <time>2016-05-16T08:40:14Z</time>
      </trkpt>
      <trkpt lat="48.68127" lon="1.94654">
        <ele>176</ele>
        <time>2016-05-16T08:40:15Z</time>
      </trkpt>
      <trkpt lat="48.68128" lon="1.94641">
        <ele>178</ele>
        <time>2016-05-16T08:40:21Z</time>
      </trkpt>
      <trkpt lat="48.6813" lon="1.94639">
        <ele>178</ele>
        <time>2016-05-16T08:40:22Z</time>
      </trkpt>
      <trkpt lat="48.68129" lon="1.94626">
        <ele>176</ele>
        <time>2016-05-16T08:40:28Z</time>
      </trkpt>
      <trkpt lat="48.68133" lon="1.94625">
        <ele>177</ele>
        <time>2016-05-16T08:40:29Z</time>
      </trkpt>
      <trkpt lat="48.68131" lon="1.94616">
        <ele>174</ele>
        <time>2016-05-16T08:40:39Z</time>
      </trkpt>
      <trkpt lat="48.68132" lon="1.94615">
        <ele>175</ele>
        <time>2016-05-16T08:40:40Z</time>
      </trkpt>
      <trkpt lat="48.68131" lon="1.94613">
        <ele>176</ele>
        <time>2016-05-16T08:40:41Z</time>
      </trkpt>
      <trkpt lat="48.68131" lon="1.94611">
        <ele>176</ele>
        <time>2016-05-16T08:40:42Z</time>
      </trkpt>
      <trkpt lat="48.68129" lon="1.94598">
        <ele>174</ele>
        <time>2016-05-16T08:40:48Z</time>
      </trkpt>
      <trkpt lat="48.68128" lon="1.94597">
        <ele>176</ele>
        <time>2016-05-16T08:40:49Z</time>
      </trkpt>
      <trkpt lat="48.68129" lon="1.94584">
        <ele>174</ele>
        <time>2016-05-16T08:40:55Z</time>
      </trkpt>
      <trkpt lat="48.68129" lon="1.94581">
        <ele>175</ele>
        <time>2016-05-16T08:40:56Z</time>
      </trkpt>
      <trkpt lat="48.68129" lon="1.94568">
        <ele>175</ele>
        <time>2016-05-16T08:41:10Z</time>
      </trkpt>
      <trkpt lat="48.68129" lon="1.94568">
        <ele>175</ele>
        <time>2016-05-16T08:41:11Z</time>
      </trkpt>
      <trkpt lat="48.68133" lon="1.94557">
        <ele>166</ele>
        <time>2016-05-16T08:41:33Z</time>
      </trkpt>
      <trkpt lat="48.68134" lon="1.94553">
        <ele>164</ele>
        <time>2016-05-16T08:41:34Z</time>
      </trkpt>
      <trkpt lat="48.68137" lon="1.9454">
        <ele>160</ele>
        <time>2016-05-16T08:41:39Z</time>
      </trkpt>
      <trkpt lat="48.68136" lon="1.94539">
        <ele>162</ele>
        <time>2016-05-16T08:41:40Z</time>
      </trkpt>
      <trkpt lat="48.68137" lon="1.94526">
        <ele>166</ele>
        <time>2016-05-16T08:41:52Z</time>
      </trkpt>
      <trkpt lat="48.68137" lon="1.94525">
        <ele>166</ele>
        <time>2016-05-16T08:41:53Z</time>
      </trkpt>
      <trkpt lat="48.68142" lon="1.94516">
        <ele>167</ele>
        <time>2016-05-16T08:42:16Z</time>
      </trkpt>
      <trkpt lat="48.68147" lon="1.94513">
        <ele>165</ele>
        <time>2016-05-16T08:42:17Z</time>
      </trkpt>
      <trkpt lat="48.68155" lon="1.94515">
        <ele>166</ele>
        <time>2016-05-16T08:42:24Z</time>
      </trkpt>
      <trkpt lat="48.68156" lon="1.94512">
        <ele>165</ele>
        <time>2016-05-16T08:42:25Z</time>
      </trkpt>
      <trkpt lat="48.68159" lon="1.94501">
        <ele>162</ele>
        <time>2016-05-16T08:42:28Z</time>
      </trkpt>
      <trkpt lat="48.68159" lon="1.94498">
        <ele>163</ele>
        <time>2016-05-16T08:42:29Z</time>
      </trkpt>
      <trkpt lat="48.68161" lon="1.94486">
        <ele>163</ele>
        <time>2016-05-16T08:42:32Z</time>
      </trkpt>
      <trkpt lat="48.6816" lon="1.94483">
        <ele>164</ele>
        <time>2016-05-16T08:42:33Z</time>
      </trkpt>
      <trkpt lat="48.68167" lon="1.94474">
        <ele>160</ele>
        <time>2016-05-16T08:42:36Z</time>
      </trkpt>
      <trkpt lat="48.68168" lon="1.94473">
        <ele>161</ele>
        <time>2016-05-16T08:42:37Z</time>
      </trkpt>
      <trkpt lat="48.6817" lon="1.94472">
        <ele>162</ele>
        <time>2016-05-16T08:42:38Z</time>
      </trkpt>
      <trkpt lat="48.68171" lon="1.9447">
        <ele>164</ele>
        <time>2016-05-16T08:42:39Z</time>
      </trkpt>
      <trkpt lat="48.68171" lon="1.9447">
        <ele>164</ele>
        <time>2016-05-16T08:42:39Z</time>
      </trkpt>
      <trkpt lat="48.68171" lon="1.94469">
        <ele>164</ele>
        <time>2016-05-16T08:42:40Z</time>
      </trkpt>
      <trkpt lat="48.68171" lon="1.94469">
        <ele>165</ele>
        <time>2016-05-16T08:42:42Z</time>
      </trkpt>
      <trkpt lat="48.6817" lon="1.94471">
        <ele>166</ele>
        <time>2016-05-16T08:42:42Z</time>
      </trkpt>
      <trkpt lat="48.6817" lon="1.94471">
        <ele>166</ele>
        <time>2016-05-16T08:42:42Z</time>
      </trkpt>
      <trkpt lat="48.68171" lon="1.94471">
        <ele>167</ele>
        <time>2016-05-16T08:42:43Z</time>
      </trkpt>
      <trkpt lat="48.68178" lon="1.94465">
        <ele>167</ele>
        <time>2016-05-16T08:42:54Z</time>
      </trkpt>
      <trkpt lat="48.68178" lon="1.94464">
        <ele>167</ele>
        <time>2016-05-16T08:42:55Z</time>
      </trkpt>
      <trkpt lat="48.68187" lon="1.94462">
        <ele>167</ele>
        <time>2016-05-16T08:43:06Z</time>
      </trkpt>
      <trkpt lat="48.68188" lon="1.94461">
        <ele>167</ele>
        <time>2016-05-16T08:43:07Z</time>
      </trkpt>
      <trkpt lat="48.68197" lon="1.94457">
        <ele>169</ele>
        <time>2016-05-16T08:43:33Z</time>
      </trkpt>
      <trkpt lat="48.68198" lon="1.94459">
        <ele>169</ele>
        <time>2016-05-16T08:43:34Z</time>
      </trkpt>
      <trkpt lat="48.68206" lon="1.94462">
        <ele>169</ele>
        <time>2016-05-16T08:43:44Z</time>
      </trkpt>
      <trkpt lat="48.68207" lon="1.94462">
        <ele>168</ele>
        <time>2016-05-16T08:43:45Z</time>
      </trkpt>
      <trkpt lat="48.68215" lon="1.94456">
        <ele>164</ele>
        <time>2016-05-16T08:43:56Z</time>
      </trkpt>
      <trkpt lat="48.68215" lon="1.94455">
        <ele>164</ele>
        <time>2016-05-16T08:43:57Z</time>
      </trkpt>
      <trkpt lat="48.68224" lon="1.94452">
        <ele>156</ele>
        <time>2016-05-16T08:44:21Z</time>
      </trkpt>
      <trkpt lat="48.68224" lon="1.9445">
        <ele>156</ele>
        <time>2016-05-16T08:44:22Z</time>
      </trkpt>
      <trkpt lat="48.68229" lon="1.94447">
        <ele>154</ele>
        <time>2016-05-16T08:44:25Z</time>
      </trkpt>
      <trkpt lat="48.68232" lon="1.94446">
        <ele>148</ele>
        <time>2016-05-16T08:44:26Z</time>
      </trkpt>
      <trkpt lat="48.68234" lon="1.94442">
        <ele>146</ele>
        <time>2016-05-16T08:44:28Z</time>
      </trkpt>
      <trkpt lat="48.68234" lon="1.94441">
        <ele>144</ele>
        <time>2016-05-16T08:44:29Z</time>
      </trkpt>
      <trkpt lat="48.68234" lon="1.94441">
        <ele>144</ele>
        <time>2016-05-16T08:44:29Z</time>
      </trkpt>
      <trkpt lat="48.68234" lon="1.94442">
        <ele>142</ele>
        <time>2016-05-16T08:44:30Z</time>
      </trkpt>
      <trkpt lat="48.68237" lon="1.94437">
        <ele>139</ele>
        <time>2016-05-16T08:44:33Z</time>
      </trkpt>
      <trkpt lat="48.68238" lon="1.94436">
        <ele>139</ele>
        <time>2016-05-16T08:44:34Z</time>
      </trkpt>
      <trkpt lat="48.68238" lon="1.94436">
        <ele>139</ele>
        <time>2016-05-16T08:44:34Z</time>
      </trkpt>
      <trkpt lat="48.68239" lon="1.94434">
        <ele>140</ele>
        <time>2016-05-16T08:44:35Z</time>
      </trkpt>
      <trkpt lat="48.68239" lon="1.94434">
        <ele>140</ele>
        <time>2016-05-16T08:44:35Z</time>
      </trkpt>
      <trkpt lat="48.68241" lon="1.94433">
        <ele>141</ele>
        <time>2016-05-16T08:44:36Z</time>
      </trkpt>
      <trkpt lat="48.68241" lon="1.94433">
        <ele>141</ele>
        <time>2016-05-16T08:44:36Z</time>
      </trkpt>
      <trkpt lat="48.68241" lon="1.94431">
        <ele>140</ele>
        <time>2016-05-16T08:44:37Z</time>
      </trkpt>
      <trkpt lat="48.68248" lon="1.94421">
        <ele>140</ele>
        <time>2016-05-16T08:44:47Z</time>
      </trkpt>
      <trkpt lat="48.68247" lon="1.94419">
        <ele>141</ele>
        <time>2016-05-16T08:44:48Z</time>
      </trkpt>
      <trkpt lat="48.68251" lon="1.94407">
        <ele>143</ele>
        <time>2016-05-16T08:45:05Z</time>
      </trkpt>
      <trkpt lat="48.68251" lon="1.94405">
        <ele>142</ele>
        <time>2016-05-16T08:45:06Z</time>
      </trkpt>
      <trkpt lat="48.68254" lon="1.94394">
        <ele>138</ele>
        <time>2016-05-16T08:45:12Z</time>
      </trkpt>
      <trkpt lat="48.68255" lon="1.94391">
        <ele>138</ele>
        <time>2016-05-16T08:45:13Z</time>
      </trkpt>
      <trkpt lat="48.68257" lon="1.94381">
        <ele>141</ele>
        <time>2016-05-16T08:45:18Z</time>
      </trkpt>
      <trkpt lat="48.68258" lon="1.94377">
        <ele>143</ele>
        <time>2016-05-16T08:45:19Z</time>
      </trkpt>
      <trkpt lat="48.6826" lon="1.94373">
        <ele>143</ele>
        <time>2016-05-16T08:45:22Z</time>
      </trkpt>
      <trkpt lat="48.68258" lon="1.94371">
        <ele>143</ele>
        <time>2016-05-16T08:45:23Z</time>
      </trkpt>
      <trkpt lat="48.68258" lon="1.94371">
        <ele>143</ele>
        <time>2016-05-16T08:45:23Z</time>
      </trkpt>
      <trkpt lat="48.68257" lon="1.94367">
        <ele>143</ele>
        <time>2016-05-16T08:45:24Z</time>
      </trkpt>
      <trkpt lat="48.68259" lon="1.94357">
        <ele>140</ele>
        <time>2016-05-16T08:45:34Z</time>
      </trkpt>
      <trkpt lat="48.68261" lon="1.94354">
        <ele>141</ele>
        <time>2016-05-16T08:45:35Z</time>
      </trkpt>
      <trkpt lat="48.68265" lon="1.94342">
        <ele>145</ele>
        <time>2016-05-16T08:45:39Z</time>
      </trkpt>
      <trkpt lat="48.68267" lon="1.94338">
        <ele>143</ele>
        <time>2016-05-16T08:45:40Z</time>
      </trkpt>
      <trkpt lat="48.6827" lon="1.94331">
        <ele>145</ele>
        <time>2016-05-16T08:45:42Z</time>
      </trkpt>
      <trkpt lat="48.68271" lon="1.94325">
        <ele>144</ele>
        <time>2016-05-16T08:45:43Z</time>
      </trkpt>
      <trkpt lat="48.68277" lon="1.94316">
        <ele>145</ele>
        <time>2016-05-16T08:45:47Z</time>
      </trkpt>
      <trkpt lat="48.68278" lon="1.94314">
        <ele>145</ele>
        <time>2016-05-16T08:45:48Z</time>
      </trkpt>
      <trkpt lat="48.6828" lon="1.94306">
        <ele>148</ele>
        <time>2016-05-16T08:45:50Z</time>
      </trkpt>
      <trkpt lat="48.68281" lon="1.943">
        <ele>150</ele>
        <time>2016-05-16T08:45:51Z</time>
      </trkpt>
      <trkpt lat="48.68281" lon="1.943">
        <ele>150</ele>
        <time>2016-05-16T08:45:51Z</time>
      </trkpt>
      <trkpt lat="48.68281" lon="1.94296">
        <ele>152</ele>
        <time>2016-05-16T08:45:52Z</time>
      </trkpt>
      <trkpt lat="48.68282" lon="1.94292">
        <ele>154</ele>
        <time>2016-05-16T08:45:53Z</time>
      </trkpt>
      <trkpt lat="48.68283" lon="1.9429">
        <ele>155</ele>
        <time>2016-05-16T08:45:54Z</time>
      </trkpt>
      <trkpt lat="48.68285" lon="1.94283">
        <ele>157</ele>
        <time>2016-05-16T08:45:59Z</time>
      </trkpt>
      <trkpt lat="48.68283" lon="1.94285">
        <ele>157</ele>
        <time>2016-05-16T08:46:00Z</time>
      </trkpt>
      <trkpt lat="48.68283" lon="1.94285">
        <ele>157</ele>
        <time>2016-05-16T08:46:00Z</time>
      </trkpt>
      <trkpt lat="48.68283" lon="1.94283">
        <ele>157</ele>
        <time>2016-05-16T08:46:01Z</time>
      </trkpt>
      <trkpt lat="48.68282" lon="1.94272">
        <ele>159</ele>
        <time>2016-05-16T08:46:06Z</time>
      </trkpt>
      <trkpt lat="48.68282" lon="1.94269">
        <ele>159</ele>
        <time>2016-05-16T08:46:07Z</time>
      </trkpt>
      <trkpt lat="48.68288" lon="1.9426">
        <ele>158</ele>
        <time>2016-05-16T08:46:15Z</time>
      </trkpt>
      <trkpt lat="48.68287" lon="1.94257">
        <ele>159</ele>
        <time>2016-05-16T08:46:16Z</time>
      </trkpt>
      <trkpt lat="48.68282" lon="1.94247">
        <ele>161</ele>
        <time>2016-05-16T08:46:25Z</time>
      </trkpt>
      <trkpt lat="48.68281" lon="1.94245">
        <ele>162</ele>
        <time>2016-05-16T08:46:26Z</time>
      </trkpt>
      <trkpt lat="48.68281" lon="1.94245">
        <ele>162</ele>
        <time>2016-05-16T08:46:26Z</time>
      </trkpt>
      <trkpt lat="48.6828" lon="1.94244">
        <ele>162</ele>
        <time>2016-05-16T08:46:27Z</time>
      </trkpt>
      <trkpt lat="48.68281" lon="1.94236">
        <ele>165</ele>
        <time>2016-05-16T08:47:22Z</time>
      </trkpt>
      <trkpt lat="48.68283" lon="1.94234">
        <ele>165</ele>
        <time>2016-05-16T08:47:23Z</time>
      </trkpt>
      <trkpt lat="48.6829" lon="1.94228">
        <ele>161</ele>
        <time>2016-05-16T08:47:26Z</time>
      </trkpt>
      <trkpt lat="48.6829" lon="1.94225">
        <ele>161</ele>
        <time>2016-05-16T08:47:27Z</time>
      </trkpt>
      <trkpt lat="48.68291" lon="1.94213">
        <ele>158</ele>
        <time>2016-05-16T08:47:32Z</time>
      </trkpt>
      <trkpt lat="48.68294" lon="1.94212">
        <ele>153</ele>
        <time>2016-05-16T08:47:33Z</time>
      </trkpt>
      <trkpt lat="48.683" lon="1.94204">
        <ele>155</ele>
        <time>2016-05-16T08:47:36Z</time>
      </trkpt>
      <trkpt lat="48.683" lon="1.942">
        <ele>156</ele>
        <time>2016-05-16T08:47:37Z</time>
      </trkpt>
      <trkpt lat="48.68306" lon="1.9419">
        <ele>150</ele>
        <time>2016-05-16T08:47:45Z</time>
      </trkpt>
      <trkpt lat="48.68306" lon="1.9419">
        <ele>149</ele>
        <time>2016-05-16T08:47:46Z</time>
      </trkpt>
      <trkpt lat="48.68306" lon="1.9419">
        <ele>149</ele>
        <time>2016-05-16T08:47:46Z</time>
      </trkpt>
      <trkpt lat="48.68307" lon="1.94188">
        <ele>148</ele>
        <time>2016-05-16T08:47:47Z</time>
      </trkpt>
      <trkpt lat="48.68307" lon="1.94186">
        <ele>149</ele>
        <time>2016-05-16T08:47:48Z</time>
      </trkpt>
      <trkpt lat="48.68307" lon="1.94184">
        <ele>148</ele>
        <time>2016-05-16T08:47:49Z</time>
      </trkpt>
      <trkpt lat="48.68313" lon="1.94176">
        <ele>149</ele>
        <time>2016-05-16T08:47:55Z</time>
      </trkpt>
      <trkpt lat="48.68314" lon="1.94174">
        <ele>147</ele>
        <time>2016-05-16T08:47:56Z</time>
      </trkpt>
      <trkpt lat="48.68314" lon="1.94169">
        <ele>145</ele>
        <time>2016-05-16T08:47:58Z</time>
      </trkpt>
      <trkpt lat="48.68314" lon="1.94166">
        <ele>146</ele>
        <time>2016-05-16T08:47:59Z</time>
      </trkpt>
      <trkpt lat="48.68314" lon="1.94166">
        <ele>146</ele>
        <time>2016-05-16T08:47:59Z</time>
      </trkpt>
      <trkpt lat="48.68313" lon="1.94162">
        <ele>145</ele>
        <time>2016-05-16T08:48:00Z</time>
      </trkpt>
      <trkpt lat="48.68316" lon="1.94151">
        <ele>143</ele>
        <time>2016-05-16T08:48:04Z</time>
      </trkpt>
      <trkpt lat="48.68317" lon="1.94149">
        <ele>143</ele>
        <time>2016-05-16T08:48:05Z</time>
      </trkpt>
      <trkpt lat="48.68317" lon="1.94146">
        <ele>144</ele>
        <time>2016-05-16T08:48:08Z</time>
      </trkpt>
      <trkpt lat="48.68317" lon="1.94145">
        <ele>145</ele>
        <time>2016-05-16T08:48:09Z</time>
      </trkpt>
      <trkpt lat="48.68321" lon="1.94133">
        <ele>147</ele>
        <time>2016-05-16T08:48:25Z</time>
      </trkpt>
      <trkpt lat="48.68321" lon="1.94132">
        <ele>147</ele>
        <time>2016-05-16T08:48:26Z</time>
      </trkpt>
      <trkpt lat="48.68325" lon="1.94126">
        <ele>147</ele>
        <time>2016-05-16T08:48:36Z</time>
      </trkpt>
      <trkpt lat="48.68329" lon="1.94125">
        <ele>146</ele>
        <time>2016-05-16T08:48:37Z</time>
      </trkpt>
      <trkpt lat="48.68331" lon="1.94118">
        <ele>147</ele>
        <time>2016-05-16T08:48:38Z</time>
      </trkpt>
      <trkpt lat="48.68329" lon="1.94107">
        <ele>149</ele>
        <time>2016-05-16T08:48:39Z</time>
      </trkpt>
      <trkpt lat="48.68331" lon="1.94101">
        <ele>150</ele>
        <time>2016-05-16T08:48:40Z</time>
      </trkpt>
      <trkpt lat="48.68331" lon="1.94091">
        <ele>151</ele>
        <time>2016-05-16T08:48:41Z</time>
      </trkpt>
      <trkpt lat="48.68333" lon="1.94085">
        <ele>154</ele>
        <time>2016-05-16T08:48:42Z</time>
      </trkpt>
      <trkpt lat="48.68334" lon="1.94074">
        <ele>154</ele>
        <time>2016-05-16T08:48:43Z</time>
      </trkpt>
      <trkpt lat="48.68334" lon="1.94074">
        <ele>154</ele>
        <time>2016-05-16T08:48:43Z</time>
      </trkpt>
      <trkpt lat="48.68335" lon="1.9406">
        <ele>155</ele>
        <time>2016-05-16T08:48:46Z</time>
      </trkpt>
      <trkpt lat="48.68337" lon="1.9405">
        <ele>157</ele>
        <time>2016-05-16T08:48:48Z</time>
      </trkpt>
      <trkpt lat="48.68338" lon="1.94044">
        <ele>159</ele>
        <time>2016-05-16T08:48:49Z</time>
      </trkpt>
      <trkpt lat="48.68343" lon="1.94033">
        <ele>155</ele>
        <time>2016-05-16T08:49:00Z</time>
      </trkpt>
      <trkpt lat="48.68343" lon="1.9403">
        <ele>156</ele>
        <time>2016-05-16T08:49:01Z</time>
      </trkpt>
      <trkpt lat="48.68349" lon="1.94021">
        <ele>156</ele>
        <time>2016-05-16T08:49:08Z</time>
      </trkpt>
      <trkpt lat="48.6835" lon="1.94018">
        <ele>157</ele>
        <time>2016-05-16T08:49:09Z</time>
      </trkpt>
      <trkpt lat="48.68356" lon="1.94009">
        <ele>156</ele>
        <time>2016-05-16T08:49:16Z</time>
      </trkpt>
      <trkpt lat="48.68357" lon="1.94008">
        <ele>158</ele>
        <time>2016-05-16T08:49:17Z</time>
      </trkpt>
      <trkpt lat="48.68362" lon="1.93997">
        <ele>160</ele>
        <time>2016-05-16T08:49:23Z</time>
      </trkpt>
      <trkpt lat="48.6836" lon="1.93993">
        <ele>160</ele>
        <time>2016-05-16T08:49:24Z</time>
      </trkpt>
      <trkpt lat="48.68363" lon="1.9398">
        <ele>163</ele>
        <time>2016-05-16T08:49:29Z</time>
      </trkpt>
      <trkpt lat="48.68364" lon="1.93977">
        <ele>164</ele>
        <time>2016-05-16T08:49:30Z</time>
      </trkpt>
      <trkpt lat="48.68368" lon="1.93969">
        <ele>163</ele>
        <time>2016-05-16T08:49:34Z</time>
      </trkpt>
      <trkpt lat="48.68367" lon="1.9396">
        <ele>163</ele>
        <time>2016-05-16T08:49:35Z</time>
      </trkpt>
      <trkpt lat="48.68375" lon="1.93956">
        <ele>163</ele>
        <time>2016-05-16T08:49:43Z</time>
      </trkpt>
      <trkpt lat="48.68376" lon="1.93955">
        <ele>163</ele>
        <time>2016-05-16T08:49:44Z</time>
      </trkpt>
      <trkpt lat="48.68382" lon="1.93951">
        <ele>167</ele>
        <time>2016-05-16T08:49:49Z</time>
      </trkpt>
      <trkpt lat="48.68385" lon="1.93949">
        <ele>169</ele>
        <time>2016-05-16T08:49:50Z</time>
      </trkpt>
      <trkpt lat="48.68392" lon="1.93941">
        <ele>168</ele>
        <time>2016-05-16T08:49:55Z</time>
      </trkpt>
      <trkpt lat="48.68392" lon="1.93939">
        <ele>169</ele>
        <time>2016-05-16T08:49:56Z</time>
      </trkpt>
      <trkpt lat="48.68399" lon="1.93933">
        <ele>169</ele>
        <time>2016-05-16T08:50:07Z</time>
      </trkpt>
      <trkpt lat="48.68401" lon="1.93933">
        <ele>170</ele>
        <time>2016-05-16T08:50:08Z</time>
      </trkpt>
      <trkpt lat="48.68401" lon="1.93933">
        <ele>170</ele>
        <time>2016-05-16T08:50:08Z</time>
      </trkpt>
      <trkpt lat="48.68401" lon="1.93934">
        <ele>170</ele>
        <time>2016-05-16T08:50:09Z</time>
      </trkpt>
      <trkpt lat="48.68401" lon="1.93934">
        <ele>170</ele>
        <time>2016-05-16T08:50:09Z</time>
      </trkpt>
      <trkpt lat="48.68401" lon="1.93936">
        <ele>170</ele>
        <time>2016-05-16T08:50:10Z</time>
      </trkpt>
      <trkpt lat="48.68409" lon="1.9394">
        <ele>170</ele>
        <time>2016-05-16T08:50:17Z</time>
      </trkpt>
      <trkpt lat="48.68411" lon="1.93939">
        <ele>169</ele>
        <time>2016-05-16T08:50:18Z</time>
      </trkpt>
      <trkpt lat="48.68414" lon="1.9393">
        <ele>170</ele>
        <time>2016-05-16T08:50:43Z</time>
      </trkpt>
      <trkpt lat="48.68417" lon="1.93924">
        <ele>171</ele>
        <time>2016-05-16T08:50:44Z</time>
      </trkpt>
      <trkpt lat="48.6842" lon="1.93917">
        <ele>172</ele>
        <time>2016-05-16T08:50:46Z</time>
      </trkpt>
      <trkpt lat="48.68422" lon="1.9391">
        <ele>171</ele>
        <time>2016-05-16T08:50:47Z</time>
      </trkpt>
      <trkpt lat="48.68427" lon="1.939">
        <ele>174</ele>
        <time>2016-05-16T08:50:54Z</time>
      </trkpt>
      <trkpt lat="48.68428" lon="1.93896">
        <ele>176</ele>
        <time>2016-05-16T08:50:55Z</time>
      </trkpt>
      <trkpt lat="48.68434" lon="1.93887">
        <ele>178</ele>
        <time>2016-05-16T08:51:10Z</time>
      </trkpt>
      <trkpt lat="48.68437" lon="1.93887">
        <ele>178</ele>
        <time>2016-05-16T08:51:11Z</time>
      </trkpt>
      <trkpt lat="48.68441" lon="1.93875">
        <ele>171</ele>
        <time>2016-05-16T08:51:20Z</time>
      </trkpt>
      <trkpt lat="48.68441" lon="1.93874">
        <ele>171</ele>
        <time>2016-05-16T08:51:21Z</time>
      </trkpt>
      <trkpt lat="48.68447" lon="1.93869">
        <ele>169</ele>
        <time>2016-05-16T08:51:45Z</time>
      </trkpt>
      <trkpt lat="48.6845" lon="1.93866">
        <ele>166</ele>
        <time>2016-05-16T08:51:46Z</time>
      </trkpt>
      <trkpt lat="48.68457" lon="1.93859">
        <ele>160</ele>
        <time>2016-05-16T08:51:50Z</time>
      </trkpt>
      <trkpt lat="48.68461" lon="1.9386">
        <ele>158</ele>
        <time>2016-05-16T08:51:51Z</time>
      </trkpt>
      <trkpt lat="48.68467" lon="1.93852">
        <ele>157</ele>
        <time>2016-05-16T08:51:56Z</time>
      </trkpt>
      <trkpt lat="48.68469" lon="1.9385">
        <ele>156</ele>
        <time>2016-05-16T08:51:57Z</time>
      </trkpt>
      <trkpt lat="48.68471" lon="1.93848">
        <ele>158</ele>
        <time>2016-05-16T08:51:59Z</time>
      </trkpt>
      <trkpt lat="48.68473" lon="1.93846">
        <ele>158</ele>
        <time>2016-05-16T08:52:00Z</time>
      </trkpt>
      <trkpt lat="48.68473" lon="1.93846">
        <ele>158</ele>
        <time>2016-05-16T08:52:00Z</time>
      </trkpt>
      <trkpt lat="48.68474" lon="1.93845">
        <ele>155</ele>
        <time>2016-05-16T08:52:01Z</time>
      </trkpt>
      <trkpt lat="48.68477" lon="1.93837">
        <ele>156</ele>
        <time>2016-05-16T08:52:04Z</time>
      </trkpt>
      <trkpt lat="48.68478" lon="1.93834">
        <ele>157</ele>
        <time>2016-05-16T08:52:05Z</time>
      </trkpt>
      <trkpt lat="48.68478" lon="1.93834">
        <ele>157</ele>
        <time>2016-05-16T08:52:05Z</time>
      </trkpt>
      <trkpt lat="48.68477" lon="1.9383">
        <ele>157</ele>
        <time>2016-05-16T08:52:06Z</time>
      </trkpt>
      <trkpt lat="48.68483" lon="1.93821">
        <ele>161</ele>
        <time>2016-05-16T08:52:11Z</time>
      </trkpt>
      <trkpt lat="48.68484" lon="1.93818">
        <ele>161</ele>
        <time>2016-05-16T08:52:12Z</time>
      </trkpt>
      <trkpt lat="48.68487" lon="1.93806">
        <ele>163</ele>
        <time>2016-05-16T08:52:16Z</time>
      </trkpt>
      <trkpt lat="48.68487" lon="1.938">
        <ele>163</ele>
        <time>2016-05-16T08:52:17Z</time>
      </trkpt>
      <trkpt lat="48.68484" lon="1.9379">
        <ele>161</ele>
        <time>2016-05-16T08:52:25Z</time>
      </trkpt>
      <trkpt lat="48.68484" lon="1.93783">
        <ele>163</ele>
        <time>2016-05-16T08:52:26Z</time>
      </trkpt>
      <trkpt lat="48.68489" lon="1.93778">
        <ele>165</ele>
        <time>2016-05-16T08:52:29Z</time>
      </trkpt>
      <trkpt lat="48.6849" lon="1.93773">
        <ele>165</ele>
        <time>2016-05-16T08:52:30Z</time>
      </trkpt>
      <trkpt lat="48.68493" lon="1.93769">
        <ele>168</ele>
        <time>2016-05-16T08:52:33Z</time>
      </trkpt>
      <trkpt lat="48.68495" lon="1.93758">
        <ele>171</ele>
        <time>2016-05-16T08:52:34Z</time>
      </trkpt>
      <trkpt lat="48.68501" lon="1.93749">
        <ele>171</ele>
        <time>2016-05-16T08:52:42Z</time>
      </trkpt>
      <trkpt lat="48.68502" lon="1.93747">
        <ele>171</ele>
        <time>2016-05-16T08:52:43Z</time>
      </trkpt>
      <trkpt lat="48.68505" lon="1.93734">
        <ele>167</ele>
        <time>2016-05-16T08:52:48Z</time>
      </trkpt>
      <trkpt lat="48.68504" lon="1.93733">
        <ele>167</ele>
        <time>2016-05-16T08:52:49Z</time>
      </trkpt>
      <trkpt lat="48.68507" lon="1.93721">
        <ele>168</ele>
        <time>2016-05-16T08:52:56Z</time>
      </trkpt>
      <trkpt lat="48.68507" lon="1.93719">
        <ele>167</ele>
        <time>2016-05-16T08:52:57Z</time>
      </trkpt>
      <trkpt lat="48.6851" lon="1.93708">
        <ele>169</ele>
        <time>2016-05-16T08:53:03Z</time>
      </trkpt>
      <trkpt lat="48.6851" lon="1.93708">
        <ele>169</ele>
        <time>2016-05-16T08:53:04Z</time>
      </trkpt>
      <trkpt lat="48.68508" lon="1.93705">
        <ele>168</ele>
        <time>2016-05-16T08:53:08Z</time>
      </trkpt>
      <trkpt lat="48.68509" lon="1.93703">
        <ele>168</ele>
        <time>2016-05-16T08:53:09Z</time>
      </trkpt>
      <trkpt lat="48.68508" lon="1.93692">
        <ele>169</ele>
        <time>2016-05-16T08:53:22Z</time>
      </trkpt>
      <trkpt lat="48.68507" lon="1.9369">
        <ele>168</ele>
        <time>2016-05-16T08:53:26Z</time>
      </trkpt>
      <trkpt lat="48.68514" lon="1.93684">
        <ele>167</ele>
        <time>2016-05-16T08:53:33Z</time>
      </trkpt>
      <trkpt lat="48.68514" lon="1.9368">
        <ele>167</ele>
        <time>2016-05-16T08:53:34Z</time>
      </trkpt>
      <trkpt lat="48.68516" lon="1.93669">
        <ele>167</ele>
        <time>2016-05-16T08:53:40Z</time>
      </trkpt>
      <trkpt lat="48.68516" lon="1.93664">
        <ele>167</ele>
        <time>2016-05-16T08:53:41Z</time>
      </trkpt>
      <trkpt lat="48.68517" lon="1.93655">
        <ele>167</ele>
        <time>2016-05-16T08:54:26Z</time>
      </trkpt>
      <trkpt lat="48.68518" lon="1.93645">
        <ele>167</ele>
        <time>2016-05-16T08:54:27Z</time>
      </trkpt>
      <trkpt lat="48.68525" lon="1.93638">
        <ele>162</ele>
        <time>2016-05-16T08:54:31Z</time>
      </trkpt>
      <trkpt lat="48.68527" lon="1.93636">
        <ele>162</ele>
        <time>2016-05-16T08:54:32Z</time>
      </trkpt>
      <trkpt lat="48.68533" lon="1.93631">
        <ele>163</ele>
        <time>2016-05-16T08:54:35Z</time>
      </trkpt>
      <trkpt lat="48.68535" lon="1.9363">
        <ele>159</ele>
        <time>2016-05-16T08:54:36Z</time>
      </trkpt>
      <trkpt lat="48.68539" lon="1.93626">
        <ele>158</ele>
        <time>2016-05-16T08:54:41Z</time>
      </trkpt>
      <trkpt lat="48.68544" lon="1.93623">
        <ele>158</ele>
        <time>2016-05-16T08:54:47Z</time>
      </trkpt>
      <trkpt lat="48.68546" lon="1.93611">
        <ele>158</ele>
        <time>2016-05-16T08:54:50Z</time>
      </trkpt>
      <trkpt lat="48.68548" lon="1.9361">
        <ele>158</ele>
        <time>2016-05-16T08:54:51Z</time>
      </trkpt>
      <trkpt lat="48.6855" lon="1.93601">
        <ele>159</ele>
        <time>2016-05-16T08:54:54Z</time>
      </trkpt>
      <trkpt lat="48.68547" lon="1.93591">
        <ele>160</ele>
        <time>2016-05-16T08:54:55Z</time>
      </trkpt>
      <trkpt lat="48.68547" lon="1.93591">
        <ele>160</ele>
        <time>2016-05-16T08:54:55Z</time>
      </trkpt>
      <trkpt lat="48.68546" lon="1.93594">
        <ele>159</ele>
        <time>2016-05-16T08:54:56Z</time>
      </trkpt>
      <trkpt lat="48.68546" lon="1.93594">
        <ele>159</ele>
        <time>2016-05-16T08:54:56Z</time>
      </trkpt>
      <trkpt lat="48.68547" lon="1.93586">
        <ele>159</ele>
        <time>2016-05-16T08:54:57Z</time>
      </trkpt>
      <trkpt lat="48.68547" lon="1.93584">
        <ele>161</ele>
        <time>2016-05-16T08:54:58Z</time>
      </trkpt>
      <trkpt lat="48.68546" lon="1.93589">
        <ele>160</ele>
        <time>2016-05-16T08:54:59Z</time>
      </trkpt>
      <trkpt lat="48.68546" lon="1.93589">
        <ele>160</ele>
        <time>2016-05-16T08:54:59Z</time>
      </trkpt>
      <trkpt lat="48.68549" lon="1.93587">
        <ele>160</ele>
        <time>2016-05-16T08:55:00Z</time>
      </trkpt>
      <trkpt lat="48.68552" lon="1.93578">
        <ele>159</ele>
        <time>2016-05-16T08:55:03Z</time>
      </trkpt>
      <trkpt lat="48.68553" lon="1.93574">
        <ele>159</ele>
        <time>2016-05-16T08:55:04Z</time>
      </trkpt>
      <trkpt lat="48.68556" lon="1.93566">
        <ele>160</ele>
        <time>2016-05-16T08:55:08Z</time>
      </trkpt>
      <trkpt lat="48.6856" lon="1.93563">
        <ele>161</ele>
        <time>2016-05-16T08:55:09Z</time>
      </trkpt>
      <trkpt lat="48.68564" lon="1.93553">
        <ele>161</ele>
        <time>2016-05-16T08:55:12Z</time>
      </trkpt>
      <trkpt lat="48.68564" lon="1.9355">
        <ele>161</ele>
        <time>2016-05-16T08:55:13Z</time>
      </trkpt>
      <trkpt lat="48.68564" lon="1.93537">
        <ele>160</ele>
        <time>2016-05-16T08:55:24Z</time>
      </trkpt>
      <trkpt lat="48.68565" lon="1.9353">
        <ele>160</ele>
        <time>2016-05-16T08:55:25Z</time>
      </trkpt>
      <trkpt lat="48.6857" lon="1.93521">
        <ele>160</ele>
        <time>2016-05-16T08:55:30Z</time>
      </trkpt>
      <trkpt lat="48.68574" lon="1.93516">
        <ele>161</ele>
        <time>2016-05-16T08:55:31Z</time>
      </trkpt>
      <trkpt lat="48.68571" lon="1.93504">
        <ele>160</ele>
        <time>2016-05-16T08:55:44Z</time>
      </trkpt>
      <trkpt lat="48.68569" lon="1.93503">
        <ele>162</ele>
        <time>2016-05-16T08:55:45Z</time>
      </trkpt>
      <trkpt lat="48.68573" lon="1.93493">
        <ele>161</ele>
        <time>2016-05-16T08:55:57Z</time>
      </trkpt>
      <trkpt lat="48.68575" lon="1.93491">
        <ele>162</ele>
        <time>2016-05-16T08:55:58Z</time>
      </trkpt>
      <trkpt lat="48.68577" lon="1.93479">
        <ele>164</ele>
        <time>2016-05-16T08:56:06Z</time>
      </trkpt>
      <trkpt lat="48.68578" lon="1.93476">
        <ele>164</ele>
        <time>2016-05-16T08:56:07Z</time>
      </trkpt>
      <trkpt lat="48.68581" lon="1.93478">
        <ele>164</ele>
        <time>2016-05-16T08:56:10Z</time>
      </trkpt>
      <trkpt lat="48.68581" lon="1.93478">
        <ele>164</ele>
        <time>2016-05-16T08:56:11Z</time>
      </trkpt>
      <trkpt lat="48.68581" lon="1.93478">
        <ele>164</ele>
        <time>2016-05-16T08:56:11Z</time>
      </trkpt>
      <trkpt lat="48.68582" lon="1.93477">
        <ele>165</ele>
        <time>2016-05-16T08:56:12Z</time>
      </trkpt>
      <trkpt lat="48.68584" lon="1.93466">
        <ele>169</ele>
        <time>2016-05-16T08:56:43Z</time>
      </trkpt>
      <trkpt lat="48.68585" lon="1.93461">
        <ele>168</ele>
        <time>2016-05-16T08:56:44Z</time>
      </trkpt>
      <trkpt lat="48.68589" lon="1.9345">
        <ele>160</ele>
        <time>2016-05-16T08:56:47Z</time>
      </trkpt>
      <trkpt lat="48.68592" lon="1.93448">
        <ele>159</ele>
        <time>2016-05-16T08:56:48Z</time>
      </trkpt>
      <trkpt lat="48.68598" lon="1.9344">
        <ele>160</ele>
        <time>2016-05-16T08:56:51Z</time>
      </trkpt>
      <trkpt lat="48.68603" lon="1.93438">
        <ele>160</ele>
        <time>2016-05-16T08:56:52Z</time>
      </trkpt>
      <trkpt lat="48.68606" lon="1.93426">
        <ele>163</ele>
        <time>2016-05-16T08:57:00Z</time>
      </trkpt>
      <trkpt lat="48.68606" lon="1.93425">
        <ele>164</ele>
        <time>2016-05-16T08:57:01Z</time>
      </trkpt>
      <trkpt lat="48.68608" lon="1.93414">
        <ele>168</ele>
        <time>2016-05-16T08:57:07Z</time>
      </trkpt>
      <trkpt lat="48.6861" lon="1.9341">
        <ele>170</ele>
        <time>2016-05-16T08:57:08Z</time>
      </trkpt>
      <trkpt lat="48.68617" lon="1.93405">
        <ele>170</ele>
        <time>2016-05-16T08:57:13Z</time>
      </trkpt>
      <trkpt lat="48.6862" lon="1.93402">
        <ele>171</ele>
        <time>2016-05-16T08:57:14Z</time>
      </trkpt>
      <trkpt lat="48.68628" lon="1.93397">
        <ele>174</ele>
        <time>2016-05-16T08:57:25Z</time>
      </trkpt>
      <trkpt lat="48.68628" lon="1.93396">
        <ele>175</ele>
        <time>2016-05-16T08:57:26Z</time>
      </trkpt>
      <trkpt lat="48.68634" lon="1.93391">
        <ele>176</ele>
        <time>2016-05-16T08:57:49Z</time>
      </trkpt>
      <trkpt lat="48.68639" lon="1.93389">
        <ele>171</ele>
        <time>2016-05-16T08:57:50Z</time>
      </trkpt>
      <trkpt lat="48.68645" lon="1.93385">
        <ele>169</ele>
        <time>2016-05-16T08:57:54Z</time>
      </trkpt>
      <trkpt lat="48.68647" lon="1.93382">
        <ele>170</ele>
        <time>2016-05-16T08:57:55Z</time>
      </trkpt>
      <trkpt lat="48.68652" lon="1.93373">
        <ele>169</ele>
        <time>2016-05-16T08:57:59Z</time>
      </trkpt>
      <trkpt lat="48.68652" lon="1.93369">
        <ele>170</ele>
        <time>2016-05-16T08:58:00Z</time>
      </trkpt>
      <trkpt lat="48.68654" lon="1.93356">
        <ele>171</ele>
        <time>2016-05-16T08:58:04Z</time>
      </trkpt>
      <trkpt lat="48.68656" lon="1.93353">
        <ele>172</ele>
        <time>2016-05-16T08:58:05Z</time>
      </trkpt>
      <trkpt lat="48.68658" lon="1.93341">
        <ele>176</ele>
        <time>2016-05-16T08:58:09Z</time>
      </trkpt>
      <trkpt lat="48.68658" lon="1.93339">
        <ele>177</ele>
        <time>2016-05-16T08:58:10Z</time>
      </trkpt>
      <trkpt lat="48.68663" lon="1.93328">
        <ele>170</ele>
        <time>2016-05-16T08:58:22Z</time>
      </trkpt>
      <trkpt lat="48.68664" lon="1.93327">
        <ele>170</ele>
        <time>2016-05-16T08:58:23Z</time>
      </trkpt>
      <trkpt lat="48.68661" lon="1.93314">
        <ele>168</ele>
        <time>2016-05-16T08:58:33Z</time>
      </trkpt>
      <trkpt lat="48.68661" lon="1.93312">
        <ele>168</ele>
        <time>2016-05-16T08:58:34Z</time>
      </trkpt>
      <trkpt lat="48.68657" lon="1.933">
        <ele>169</ele>
        <time>2016-05-16T08:58:40Z</time>
      </trkpt>
      <trkpt lat="48.68658" lon="1.93295">
        <ele>170</ele>
        <time>2016-05-16T08:58:41Z</time>
      </trkpt>
      <trkpt lat="48.68653" lon="1.93284">
        <ele>169</ele>
        <time>2016-05-16T08:58:47Z</time>
      </trkpt>
      <trkpt lat="48.68652" lon="1.93279">
        <ele>168</ele>
        <time>2016-05-16T08:58:48Z</time>
      </trkpt>
      <trkpt lat="48.6865" lon="1.93269">
        <ele>169</ele>
        <time>2016-05-16T08:58:50Z</time>
      </trkpt>
      <trkpt lat="48.68644" lon="1.93265">
        <ele>170</ele>
        <time>2016-05-16T08:58:51Z</time>
      </trkpt>
      <trkpt lat="48.68641" lon="1.93253">
        <ele>172</ele>
        <time>2016-05-16T08:59:00Z</time>
      </trkpt>
      <trkpt lat="48.68642" lon="1.93251">
        <ele>170</ele>
        <time>2016-05-16T08:59:01Z</time>
      </trkpt>
      <trkpt lat="48.6864" lon="1.93239">
        <ele>172</ele>
        <time>2016-05-16T08:59:11Z</time>
      </trkpt>
      <trkpt lat="48.68639" lon="1.93237">
        <ele>172</ele>
        <time>2016-05-16T08:59:12Z</time>
      </trkpt>
      <trkpt lat="48.68641" lon="1.93227">
        <ele>173</ele>
        <time>2016-05-16T08:59:16Z</time>
      </trkpt>
      <trkpt lat="48.68643" lon="1.93222">
        <ele>174</ele>
        <time>2016-05-16T08:59:17Z</time>
      </trkpt>
      <trkpt lat="48.68646" lon="1.93211">
        <ele>179</ele>
        <time>2016-05-16T08:59:25Z</time>
      </trkpt>
      <trkpt lat="48.68647" lon="1.93208">
        <ele>179</ele>
        <time>2016-05-16T08:59:26Z</time>
      </trkpt>
      <trkpt lat="48.68647" lon="1.93197">
        <ele>182</ele>
        <time>2016-05-16T08:59:35Z</time>
      </trkpt>
      <trkpt lat="48.68646" lon="1.93194">
        <ele>183</ele>
        <time>2016-05-16T08:59:36Z</time>
      </trkpt>
      <trkpt lat="48.68647" lon="1.93182">
        <ele>184</ele>
        <time>2016-05-16T08:59:42Z</time>
      </trkpt>
      <trkpt lat="48.68648" lon="1.93178">
        <ele>184</ele>
        <time>2016-05-16T08:59:43Z</time>
      </trkpt>
      <trkpt lat="48.68653" lon="1.93168">
        <ele>181</ele>
        <time>2016-05-16T08:59:50Z</time>
      </trkpt>
      <trkpt lat="48.68654" lon="1.93166">
        <ele>181</ele>
        <time>2016-05-16T08:59:51Z</time>
      </trkpt>
      <trkpt lat="48.68654" lon="1.93156">
        <ele>183</ele>
        <time>2016-05-16T08:59:56Z</time>
      </trkpt>
      <trkpt lat="48.68655" lon="1.9315">
        <ele>184</ele>
        <time>2016-05-16T08:59:57Z</time>
      </trkpt>
      <trkpt lat="48.68658" lon="1.93144">
        <ele>184</ele>
        <time>2016-05-16T09:00:02Z</time>
      </trkpt>
      <trkpt lat="48.68657" lon="1.93145">
        <ele>184</ele>
        <time>2016-05-16T09:00:03Z</time>
      </trkpt>
      <trkpt lat="48.68657" lon="1.93145">
        <ele>184</ele>
        <time>2016-05-16T09:00:03Z</time>
      </trkpt>
      <trkpt lat="48.68658" lon="1.93141">
        <ele>184</ele>
        <time>2016-05-16T09:00:04Z</time>
      </trkpt>
      <trkpt lat="48.68662" lon="1.93133">
        <ele>184</ele>
        <time>2016-05-16T09:00:06Z</time>
      </trkpt>
      <trkpt lat="48.68658" lon="1.93126">
        <ele>184</ele>
        <time>2016-05-16T09:00:07Z</time>
      </trkpt>
      <trkpt lat="48.68659" lon="1.93121">
        <ele>186</ele>
        <time>2016-05-16T09:00:11Z</time>
      </trkpt>
      <trkpt lat="48.68658" lon="1.93124">
        <ele>187</ele>
        <time>2016-05-16T09:00:12Z</time>
      </trkpt>
      <trkpt lat="48.6866" lon="1.93122">
        <ele>185</ele>
        <time>2016-05-16T09:00:14Z</time>
      </trkpt>
      <trkpt lat="48.68661" lon="1.93118">
        <ele>185</ele>
        <time>2016-05-16T09:00:15Z</time>
      </trkpt>
      <trkpt lat="48.68658" lon="1.93107">
        <ele>185</ele>
        <time>2016-05-16T09:00:23Z</time>
      </trkpt>
      <trkpt lat="48.68659" lon="1.93104">
        <ele>186</ele>
        <time>2016-05-16T09:00:24Z</time>
      </trkpt>
      <trkpt lat="48.68659" lon="1.93092">
        <ele>184</ele>
        <time>2016-05-16T09:00:27Z</time>
      </trkpt>
      <trkpt lat="48.68659" lon="1.93089">
        <ele>184</ele>
        <time>2016-05-16T09:00:28Z</time>
      </trkpt>
      <trkpt lat="48.68663" lon="1.93078">
        <ele>181</ele>
        <time>2016-05-16T09:00:35Z</time>
      </trkpt>
      <trkpt lat="48.68663" lon="1.93076">
        <ele>182</ele>
        <time>2016-05-16T09:00:36Z</time>
      </trkpt>
      <trkpt lat="48.68661" lon="1.93068">
        <ele>177</ele>
        <time>2016-05-16T09:00:42Z</time>
      </trkpt>
      <trkpt lat="48.68661" lon="1.93063">
        <ele>178</ele>
        <time>2016-05-16T09:00:43Z</time>
      </trkpt>
      <trkpt lat="48.68668" lon="1.93059">
        <ele>179</ele>
        <time>2016-05-16T09:00:46Z</time>
      </trkpt>
      <trkpt lat="48.6867" lon="1.93061">
        <ele>178</ele>
        <time>2016-05-16T09:00:47Z</time>
      </trkpt>
      <trkpt lat="48.68669" lon="1.9305">
        <ele>179</ele>
        <time>2016-05-16T09:00:53Z</time>
      </trkpt>
      <trkpt lat="48.6867" lon="1.93047">
        <ele>178</ele>
        <time>2016-05-16T09:00:54Z</time>
      </trkpt>
      <trkpt lat="48.68669" lon="1.93042">
        <ele>178</ele>
        <time>2016-05-16T09:00:59Z</time>
      </trkpt>
      <trkpt lat="48.68667" lon="1.93043">
        <ele>179</ele>
        <time>2016-05-16T09:01:00Z</time>
      </trkpt>
      <trkpt lat="48.68667" lon="1.93043">
        <ele>179</ele>
        <time>2016-05-16T09:01:00Z</time>
      </trkpt>
      <trkpt lat="48.68671" lon="1.93044">
        <ele>179</ele>
        <time>2016-05-16T09:01:01Z</time>
      </trkpt>
      <trkpt lat="48.68671" lon="1.93031">
        <ele>176</ele>
        <time>2016-05-16T09:01:09Z</time>
      </trkpt>
      <trkpt lat="48.6867" lon="1.93029">
        <ele>177</ele>
        <time>2016-05-16T09:01:10Z</time>
      </trkpt>
      <trkpt lat="48.68671" lon="1.93019">
        <ele>171</ele>
        <time>2016-05-16T09:01:18Z</time>
      </trkpt>
      <trkpt lat="48.68672" lon="1.93014">
        <ele>171</ele>
        <time>2016-05-16T09:01:19Z</time>
      </trkpt>
      <trkpt lat="48.68673" lon="1.93002">
        <ele>172</ele>
        <time>2016-05-16T09:01:25Z</time>
      </trkpt>
      <trkpt lat="48.68671" lon="1.93">
        <ele>172</ele>
        <time>2016-05-16T09:01:26Z</time>
      </trkpt>
      <trkpt lat="48.68673" lon="1.92993">
        <ele>173</ele>
        <time>2016-05-16T09:01:31Z</time>
      </trkpt>
      <trkpt lat="48.68673" lon="1.92994">
        <ele>174</ele>
        <time>2016-05-16T09:01:32Z</time>
      </trkpt>
      <trkpt lat="48.68673" lon="1.92994">
        <ele>174</ele>
        <time>2016-05-16T09:01:32Z</time>
      </trkpt>
      <trkpt lat="48.68672" lon="1.92993">
        <ele>175</ele>
        <time>2016-05-16T09:01:33Z</time>
      </trkpt>
      <trkpt lat="48.68677" lon="1.92982">
        <ele>171</ele>
        <time>2016-05-16T09:01:37Z</time>
      </trkpt>
      <trkpt lat="48.68676" lon="1.92977">
        <ele>172</ele>
        <time>2016-05-16T09:01:38Z</time>
      </trkpt>
      <trkpt lat="48.68678" lon="1.92966">
        <ele>172</ele>
        <time>2016-05-16T09:01:44Z</time>
      </trkpt>
      <trkpt lat="48.68678" lon="1.92963">
        <ele>171</ele>
        <time>2016-05-16T09:01:45Z</time>
      </trkpt>
      <trkpt lat="48.68684" lon="1.92954">
        <ele>167</ele>
        <time>2016-05-16T09:01:54Z</time>
      </trkpt>
      <trkpt lat="48.68684" lon="1.92952">
        <ele>167</ele>
        <time>2016-05-16T09:01:55Z</time>
      </trkpt>
      <trkpt lat="48.6869" lon="1.92941">
        <ele>169</ele>
        <time>2016-05-16T09:02:00Z</time>
      </trkpt>
      <trkpt lat="48.6869" lon="1.9294">
        <ele>169</ele>
        <time>2016-05-16T09:02:01Z</time>
      </trkpt>
      <trkpt lat="48.68694" lon="1.92927">
        <ele>174</ele>
        <time>2016-05-16T09:02:26Z</time>
      </trkpt>
      <trkpt lat="48.68695" lon="1.92924">
        <ele>174</ele>
        <time>2016-05-16T09:02:27Z</time>
      </trkpt>
      <trkpt lat="48.68698" lon="1.92916">
        <ele>170</ele>
        <time>2016-05-16T09:02:30Z</time>
      </trkpt>
      <trkpt lat="48.687" lon="1.92913">
        <ele>170</ele>
        <time>2016-05-16T09:02:31Z</time>
      </trkpt>
      <trkpt lat="48.68703" lon="1.92901">
        <ele>168</ele>
        <time>2016-05-16T09:02:35Z</time>
      </trkpt>
      <trkpt lat="48.68704" lon="1.92899">
        <ele>168</ele>
        <time>2016-05-16T09:02:36Z</time>
      </trkpt>
      <trkpt lat="48.6871" lon="1.92891">
        <ele>167</ele>
        <time>2016-05-16T09:02:39Z</time>
      </trkpt>
      <trkpt lat="48.6871" lon="1.92888">
        <ele>166</ele>
        <time>2016-05-16T09:02:40Z</time>
      </trkpt>
      <trkpt lat="48.68713" lon="1.92878">
        <ele>167</ele>
        <time>2016-05-16T09:02:43Z</time>
      </trkpt>
      <trkpt lat="48.68714" lon="1.92875">
        <ele>165</ele>
        <time>2016-05-16T09:02:44Z</time>
      </trkpt>
      <trkpt lat="48.68719" lon="1.92865">
        <ele>165</ele>
        <time>2016-05-16T09:02:48Z</time>
      </trkpt>
      <trkpt lat="48.6872" lon="1.92862">
        <ele>166</ele>
        <time>2016-05-16T09:02:49Z</time>
      </trkpt>
      <trkpt lat="48.68724" lon="1.92852">
        <ele>168</ele>
        <time>2016-05-16T09:02:54Z</time>
      </trkpt>
      <trkpt lat="48.68724" lon="1.9285">
        <ele>168</ele>
        <time>2016-05-16T09:02:55Z</time>
      </trkpt>
      <trkpt lat="48.68729" lon="1.92839">
        <ele>169</ele>
        <time>2016-05-16T09:03:01Z</time>
      </trkpt>
      <trkpt lat="48.68731" lon="1.92837">
        <ele>170</ele>
        <time>2016-05-16T09:03:02Z</time>
      </trkpt>
      <trkpt lat="48.68735" lon="1.92827">
        <ele>173</ele>
        <time>2016-05-16T09:03:07Z</time>
      </trkpt>
      <trkpt lat="48.68737" lon="1.92825">
        <ele>173</ele>
        <time>2016-05-16T09:03:08Z</time>
      </trkpt>
      <trkpt lat="48.68743" lon="1.92815">
        <ele>171</ele>
        <time>2016-05-16T09:03:17Z</time>
      </trkpt>
      <trkpt lat="48.68744" lon="1.92815">
        <ele>170</ele>
        <time>2016-05-16T09:03:18Z</time>
      </trkpt>
      <trkpt lat="48.68749" lon="1.92805">
        <ele>170</ele>
        <time>2016-05-16T09:03:24Z</time>
      </trkpt>
      <trkpt lat="48.68749" lon="1.92803">
        <ele>170</ele>
        <time>2016-05-16T09:03:25Z</time>
      </trkpt>
      <trkpt lat="48.68751" lon="1.9279">
        <ele>174</ele>
        <time>2016-05-16T09:03:29Z</time>
      </trkpt>
      <trkpt lat="48.68752" lon="1.92787">
        <ele>173</ele>
        <time>2016-05-16T09:03:30Z</time>
      </trkpt>
      <trkpt lat="48.68758" lon="1.9278">
        <ele>176</ele>
        <time>2016-05-16T09:03:37Z</time>
      </trkpt>
      <trkpt lat="48.6876" lon="1.92779">
        <ele>176</ele>
        <time>2016-05-16T09:03:38Z</time>
      </trkpt>
      <trkpt lat="48.68764" lon="1.92767">
        <ele>177</ele>
        <time>2016-05-16T09:03:50Z</time>
      </trkpt>
      <trkpt lat="48.68765" lon="1.92765">
        <ele>177</ele>
        <time>2016-05-16T09:03:51Z</time>
      </trkpt>
      <trkpt lat="48.68768" lon="1.92754">
        <ele>177</ele>
        <time>2016-05-16T09:04:00Z</time>
      </trkpt>
      <trkpt lat="48.6877" lon="1.92753">
        <ele>176</ele>
        <time>2016-05-16T09:04:01Z</time>
      </trkpt>
      <trkpt lat="48.68775" lon="1.92742">
        <ele>174</ele>
        <time>2016-05-16T09:04:08Z</time>
      </trkpt>
      <trkpt lat="48.68776" lon="1.92739">
        <ele>174</ele>
        <time>2016-05-16T09:04:09Z</time>
      </trkpt>
      <trkpt lat="48.68777" lon="1.92727">
        <ele>178</ele>
        <time>2016-05-16T09:04:13Z</time>
      </trkpt>
      <trkpt lat="48.68777" lon="1.92725">
        <ele>178</ele>
        <time>2016-05-16T09:04:14Z</time>
      </trkpt>
      <trkpt lat="48.68777" lon="1.92715">
        <ele>181</ele>
        <time>2016-05-16T09:04:18Z</time>
      </trkpt>
      <trkpt lat="48.68777" lon="1.92712">
        <ele>182</ele>
        <time>2016-05-16T09:04:19Z</time>
      </trkpt>
      <trkpt lat="48.68777" lon="1.92714">
        <ele>183</ele>
        <time>2016-05-16T09:04:20Z</time>
      </trkpt>
      <trkpt lat="48.68777" lon="1.92717">
        <ele>183</ele>
        <time>2016-05-16T09:04:21Z</time>
      </trkpt>
      <trkpt lat="48.68777" lon="1.92717">
        <ele>183</ele>
        <time>2016-05-16T09:04:21Z</time>
      </trkpt>
      <trkpt lat="48.68778" lon="1.92714">
        <ele>182</ele>
        <time>2016-05-16T09:04:22Z</time>
      </trkpt>
      <trkpt lat="48.68777" lon="1.92702">
        <ele>182</ele>
        <time>2016-05-16T09:04:24Z</time>
      </trkpt>
      <trkpt lat="48.68777" lon="1.92701">
        <ele>182</ele>
        <time>2016-05-16T09:04:25Z</time>
      </trkpt>
      <trkpt lat="48.68776" lon="1.92698">
        <ele>183</ele>
        <time>2016-05-16T09:04:26Z</time>
      </trkpt>
      <trkpt lat="48.68773" lon="1.92688">
        <ele>182</ele>
        <time>2016-05-16T09:04:27Z</time>
      </trkpt>
      <trkpt lat="48.6878" lon="1.92681">
        <ele>186</ele>
        <time>2016-05-16T09:04:39Z</time>
      </trkpt>
      <trkpt lat="48.68782" lon="1.9268">
        <ele>183</ele>
        <time>2016-05-16T09:04:40Z</time>
      </trkpt>
      <trkpt lat="48.68788" lon="1.92671">
        <ele>179</ele>
        <time>2016-05-16T09:04:52Z</time>
      </trkpt>
      <trkpt lat="48.68788" lon="1.9267">
        <ele>180</ele>
        <time>2016-05-16T09:04:53Z</time>
      </trkpt>
      <trkpt lat="48.68795" lon="1.92669">
        <ele>173</ele>
        <time>2016-05-16T09:04:56Z</time>
      </trkpt>
      <trkpt lat="48.68797" lon="1.92669">
        <ele>173</ele>
        <time>2016-05-16T09:04:57Z</time>
      </trkpt>
      <trkpt lat="48.68803" lon="1.9266">
        <ele>172</ele>
        <time>2016-05-16T09:05:08Z</time>
      </trkpt>
      <trkpt lat="48.68804" lon="1.92659">
        <ele>173</ele>
        <time>2016-05-16T09:05:09Z</time>
      </trkpt>
      <trkpt lat="48.68808" lon="1.92647">
        <ele>172</ele>
        <time>2016-05-16T09:05:16Z</time>
      </trkpt>
      <trkpt lat="48.68808" lon="1.92645">
        <ele>172</ele>
        <time>2016-05-16T09:05:17Z</time>
      </trkpt>
      <trkpt lat="48.68812" lon="1.92636">
        <ele>172</ele>
        <time>2016-05-16T09:05:24Z</time>
      </trkpt>
      <trkpt lat="48.68813" lon="1.92634">
        <ele>173</ele>
        <time>2016-05-16T09:05:25Z</time>
      </trkpt>
      <trkpt lat="48.68821" lon="1.92627">
        <ele>174</ele>
        <time>2016-05-16T09:05:38Z</time>
      </trkpt>
      <trkpt lat="48.68821" lon="1.92626">
        <ele>174</ele>
        <time>2016-05-16T09:05:39Z</time>
      </trkpt>
      <trkpt lat="48.68828" lon="1.92618">
        <ele>179</ele>
        <time>2016-05-16T09:05:49Z</time>
      </trkpt>
      <trkpt lat="48.68832" lon="1.92618">
        <ele>181</ele>
        <time>2016-05-16T09:05:50Z</time>
      </trkpt>
      <trkpt lat="48.68832" lon="1.92611">
        <ele>183</ele>
        <time>2016-05-16T09:05:54Z</time>
      </trkpt>
      <trkpt lat="48.68832" lon="1.92609">
        <ele>185</ele>
        <time>2016-05-16T09:05:55Z</time>
      </trkpt>
      <trkpt lat="48.68832" lon="1.92609">
        <ele>185</ele>
        <time>2016-05-16T09:05:55Z</time>
      </trkpt>
      <trkpt lat="48.68834" lon="1.92609">
        <ele>185</ele>
        <time>2016-05-16T09:05:56Z</time>
      </trkpt>
      <trkpt lat="48.68838" lon="1.92603">
        <ele>185</ele>
        <time>2016-05-16T09:10:37Z</time>
      </trkpt>
      <trkpt lat="48.68841" lon="1.92596">
        <ele>182</ele>
        <time>2016-05-16T09:10:38Z</time>
      </trkpt>
      <trkpt lat="48.68843" lon="1.92585">
        <ele>179</ele>
        <time>2016-05-16T09:10:40Z</time>
      </trkpt>
      <trkpt lat="48.68845" lon="1.92577">
        <ele>178</ele>
        <time>2016-05-16T09:10:41Z</time>
      </trkpt>
      <trkpt lat="48.6885" lon="1.92566">
        <ele>177</ele>
        <time>2016-05-16T09:10:43Z</time>
      </trkpt>
      <trkpt lat="48.68852" lon="1.9256">
        <ele>177</ele>
        <time>2016-05-16T09:10:44Z</time>
      </trkpt>
      <trkpt lat="48.68854" lon="1.92552">
        <ele>180</ele>
        <time>2016-05-16T09:10:45Z</time>
      </trkpt>
      <trkpt lat="48.68852" lon="1.92546">
        <ele>180</ele>
        <time>2016-05-16T09:10:46Z</time>
      </trkpt>
      <trkpt lat="48.68861" lon="1.92542">
        <ele>182</ele>
        <time>2016-05-16T09:10:49Z</time>
      </trkpt>
      <trkpt lat="48.68862" lon="1.92539">
        <ele>182</ele>
        <time>2016-05-16T09:10:50Z</time>
      </trkpt>
      <trkpt lat="48.68857" lon="1.92534">
        <ele>182</ele>
        <time>2016-05-16T09:10:54Z</time>
      </trkpt>
      <trkpt lat="48.68854" lon="1.92532">
        <ele>182</ele>
        <time>2016-05-16T09:10:55Z</time>
      </trkpt>
      <trkpt lat="48.68857" lon="1.9252">
        <ele>184</ele>
        <time>2016-05-16T09:10:58Z</time>
      </trkpt>
      <trkpt lat="48.68856" lon="1.92517">
        <ele>185</ele>
        <time>2016-05-16T09:10:59Z</time>
      </trkpt>
      <trkpt lat="48.68852" lon="1.92507">
        <ele>191</ele>
        <time>2016-05-16T09:11:03Z</time>
      </trkpt>
      <trkpt lat="48.68852" lon="1.92505">
        <ele>191</ele>
        <time>2016-05-16T09:11:04Z</time>
      </trkpt>
      <trkpt lat="48.68852" lon="1.92505">
        <ele>191</ele>
        <time>2016-05-16T09:11:04Z</time>
      </trkpt>
      <trkpt lat="48.68849" lon="1.92502">
        <ele>192</ele>
        <time>2016-05-16T09:11:05Z</time>
      </trkpt>
      <trkpt lat="48.68847" lon="1.92498">
        <ele>194</ele>
        <time>2016-05-16T09:11:07Z</time>
      </trkpt>
      <trkpt lat="48.68848" lon="1.92494">
        <ele>194</ele>
        <time>2016-05-16T09:11:08Z</time>
      </trkpt>
      <trkpt lat="48.68848" lon="1.92494">
        <ele>194</ele>
        <time>2016-05-16T09:11:08Z</time>
      </trkpt>
      <trkpt lat="48.68845" lon="1.92496">
        <ele>195</ele>
        <time>2016-05-16T09:11:09Z</time>
      </trkpt>
      <trkpt lat="48.68842" lon="1.92495">
        <ele>197</ele>
        <time>2016-05-16T09:11:10Z</time>
      </trkpt>
      <trkpt lat="48.68844" lon="1.92496">
        <ele>196</ele>
        <time>2016-05-16T09:11:11Z</time>
      </trkpt>
      <trkpt lat="48.68844" lon="1.92496">
        <ele>196</ele>
        <time>2016-05-16T09:11:11Z</time>
      </trkpt>
      <trkpt lat="48.68844" lon="1.92493">
        <ele>196</ele>
        <time>2016-05-16T09:11:12Z</time>
      </trkpt>
      <trkpt lat="48.68848" lon="1.92481">
        <ele>185</ele>
        <time>2016-05-16T09:11:22Z</time>
      </trkpt>
      <trkpt lat="48.68849" lon="1.92481">
        <ele>184</ele>
        <time>2016-05-16T09:11:23Z</time>
      </trkpt>
      <trkpt lat="48.68853" lon="1.92476">
        <ele>182</ele>
        <time>2016-05-16T09:11:36Z</time>
      </trkpt>
      <trkpt lat="48.68853" lon="1.92461">
        <ele>184</ele>
        <time>2016-05-16T09:11:37Z</time>
      </trkpt>
      <trkpt lat="48.68858" lon="1.92449">
        <ele>182</ele>
        <time>2016-05-16T09:11:40Z</time>
      </trkpt>
      <trkpt lat="48.68859" lon="1.92443">
        <ele>184</ele>
        <time>2016-05-16T09:11:41Z</time>
      </trkpt>
      <trkpt lat="48.68867" lon="1.92437">
        <ele>184</ele>
        <time>2016-05-16T09:11:46Z</time>
      </trkpt>
      <trkpt lat="48.68868" lon="1.92434">
        <ele>184</ele>
        <time>2016-05-16T09:11:47Z</time>
      </trkpt>
      <trkpt lat="48.68868" lon="1.9243">
        <ele>184</ele>
        <time>2016-05-16T09:11:48Z</time>
      </trkpt>
      <trkpt lat="48.68867" lon="1.92428">
        <ele>184</ele>
        <time>2016-05-16T09:11:49Z</time>
      </trkpt>
      <trkpt lat="48.68867" lon="1.92428">
        <ele>184</ele>
        <time>2016-05-16T09:11:49Z</time>
      </trkpt>
      <trkpt lat="48.68868" lon="1.92429">
        <ele>184</ele>
        <time>2016-05-16T09:11:50Z</time>
      </trkpt>
      <trkpt lat="48.68877" lon="1.92427">
        <ele>183</ele>
        <time>2016-05-16T09:11:57Z</time>
      </trkpt>
      <trkpt lat="48.68878" lon="1.92428">
        <ele>184</ele>
        <time>2016-05-16T09:11:58Z</time>
      </trkpt>
      <trkpt lat="48.68884" lon="1.92418">
        <ele>187</ele>
        <time>2016-05-16T09:12:06Z</time>
      </trkpt>
      <trkpt lat="48.68885" lon="1.92415">
        <ele>180</ele>
        <time>2016-05-16T09:12:07Z</time>
      </trkpt>
      <trkpt lat="48.68887" lon="1.92404">
        <ele>180</ele>
        <time>2016-05-16T09:12:19Z</time>
      </trkpt>
      <trkpt lat="48.68886" lon="1.92401">
        <ele>180</ele>
        <time>2016-05-16T09:12:20Z</time>
      </trkpt>
      <trkpt lat="48.6889" lon="1.92402">
        <ele>176</ele>
        <time>2016-05-16T09:12:23Z</time>
      </trkpt>
      <trkpt lat="48.68895" lon="1.92407">
        <ele>171</ele>
        <time>2016-05-16T09:12:24Z</time>
      </trkpt>
      <trkpt lat="48.68902" lon="1.924">
        <ele>171</ele>
        <time>2016-05-16T09:12:30Z</time>
      </trkpt>
      <trkpt lat="48.68903" lon="1.92399">
        <ele>170</ele>
        <time>2016-05-16T09:12:31Z</time>
      </trkpt>
      <trkpt lat="48.68905" lon="1.92387">
        <ele>166</ele>
        <time>2016-05-16T09:12:40Z</time>
      </trkpt>
      <trkpt lat="48.68905" lon="1.92385">
        <ele>167</ele>
        <time>2016-05-16T09:12:41Z</time>
      </trkpt>
      <trkpt lat="48.68905" lon="1.92381">
        <ele>168</ele>
        <time>2016-05-16T09:12:42Z</time>
      </trkpt>
      <trkpt lat="48.68906" lon="1.92384">
        <ele>165</ele>
        <time>2016-05-16T09:12:43Z</time>
      </trkpt>
      <trkpt lat="48.68908" lon="1.92385">
        <ele>164</ele>
        <time>2016-05-16T09:12:45Z</time>
      </trkpt>
      <trkpt lat="48.68909" lon="1.92384">
        <ele>164</ele>
        <time>2016-05-16T09:12:46Z</time>
      </trkpt>
      <trkpt lat="48.68911" lon="1.92372">
        <ele>165</ele>
        <time>2016-05-16T09:12:50Z</time>
      </trkpt>
      <trkpt lat="48.68912" lon="1.9237">
        <ele>165</ele>
        <time>2016-05-16T09:12:51Z</time>
      </trkpt>
      <trkpt lat="48.68916" lon="1.9236">
        <ele>165</ele>
        <time>2016-05-16T09:12:57Z</time>
      </trkpt>
      <trkpt lat="48.68914" lon="1.92355">
        <ele>165</ele>
        <time>2016-05-16T09:12:58Z</time>
      </trkpt>
      <trkpt lat="48.68921" lon="1.92349">
        <ele>167</ele>
        <time>2016-05-16T09:13:02Z</time>
      </trkpt>
      <trkpt lat="48.68928" lon="1.92353">
        <ele>165</ele>
        <time>2016-05-16T09:13:03Z</time>
      </trkpt>
      <trkpt lat="48.68936" lon="1.9235">
        <ele>165</ele>
        <time>2016-05-16T09:13:11Z</time>
      </trkpt>
      <trkpt lat="48.68936" lon="1.92346">
        <ele>167</ele>
        <time>2016-05-16T09:13:12Z</time>
      </trkpt>
      <trkpt lat="48.68935" lon="1.92335">
        <ele>167</ele>
        <time>2016-05-16T09:13:19Z</time>
      </trkpt>
      <trkpt lat="48.68935" lon="1.92332">
        <ele>168</ele>
        <time>2016-05-16T09:13:20Z</time>
      </trkpt>
      <trkpt lat="48.68941" lon="1.92326">
        <ele>168</ele>
        <time>2016-05-16T09:13:26Z</time>
      </trkpt>
      <trkpt lat="48.68945" lon="1.92334">
        <ele>167</ele>
        <time>2016-05-16T09:13:27Z</time>
      </trkpt>
      <trkpt lat="48.68949" lon="1.9234">
        <ele>167</ele>
        <time>2016-05-16T09:13:30Z</time>
      </trkpt>
      <trkpt lat="48.68951" lon="1.9234">
        <ele>167</ele>
        <time>2016-05-16T09:13:31Z</time>
      </trkpt>
      <trkpt lat="48.68951" lon="1.9234">
        <ele>167</ele>
        <time>2016-05-16T09:13:31Z</time>
      </trkpt>
      <trkpt lat="48.68951" lon="1.92341">
        <ele>167</ele>
        <time>2016-05-16T09:13:32Z</time>
      </trkpt>
      <trkpt lat="48.68952" lon="1.92341">
        <ele>168</ele>
        <time>2016-05-16T09:13:35Z</time>
      </trkpt>
      <trkpt lat="48.68952" lon="1.92341">
        <ele>166</ele>
        <time>2016-05-16T09:13:36Z</time>
      </trkpt>
      <trkpt lat="48.68952" lon="1.92341">
        <ele>166</ele>
        <time>2016-05-16T09:13:36Z</time>
      </trkpt>
      <trkpt lat="48.68952" lon="1.9234">
        <ele>167</ele>
        <time>2016-05-16T09:13:37Z</time>
      </trkpt>
      <trkpt lat="48.68953" lon="1.92335">
        <ele>167</ele>
        <time>2016-05-16T09:13:41Z</time>
      </trkpt>
      <trkpt lat="48.68954" lon="1.92335">
        <ele>166</ele>
        <time>2016-05-16T09:13:42Z</time>
      </trkpt>
      <trkpt lat="48.68963" lon="1.9233">
        <ele>165</ele>
        <time>2016-05-16T09:13:56Z</time>
      </trkpt>
      <trkpt lat="48.68963" lon="1.9233">
        <ele>165</ele>
        <time>2016-05-16T09:13:57Z</time>
      </trkpt>
      <trkpt lat="48.68963" lon="1.92323">
        <ele>168</ele>
        <time>2016-05-16T09:14:11Z</time>
      </trkpt>
      <trkpt lat="48.68966" lon="1.92319">
        <ele>170</ele>
        <time>2016-05-16T09:14:12Z</time>
      </trkpt>
      <trkpt lat="48.68968" lon="1.92308">
        <ele>171</ele>
        <time>2016-05-16T09:14:19Z</time>
      </trkpt>
      <trkpt lat="48.68968" lon="1.92305">
        <ele>171</ele>
        <time>2016-05-16T09:14:20Z</time>
      </trkpt>
      <trkpt lat="48.6897" lon="1.92292">
        <ele>174</ele>
        <time>2016-05-16T09:14:25Z</time>
      </trkpt>
      <trkpt lat="48.68971" lon="1.92291">
        <ele>176</ele>
        <time>2016-05-16T09:14:26Z</time>
      </trkpt>
      <trkpt lat="48.68972" lon="1.92278">
        <ele>176</ele>
        <time>2016-05-16T09:14:30Z</time>
      </trkpt>
      <trkpt lat="48.68972" lon="1.92275">
        <ele>176</ele>
        <time>2016-05-16T09:14:31Z</time>
      </trkpt>
      <trkpt lat="48.68971" lon="1.92266">
        <ele>177</ele>
        <time>2016-05-16T09:14:34Z</time>
      </trkpt>
      <trkpt lat="48.68973" lon="1.92266">
        <ele>173</ele>
        <time>2016-05-16T09:14:35Z</time>
      </trkpt>
      <trkpt lat="48.68973" lon="1.92266">
        <ele>173</ele>
        <time>2016-05-16T09:14:35Z</time>
      </trkpt>
      <trkpt lat="48.68972" lon="1.92262">
        <ele>174</ele>
        <time>2016-05-16T09:14:36Z</time>
      </trkpt>
      <trkpt lat="48.68977" lon="1.92251">
        <ele>174</ele>
        <time>2016-05-16T09:14:43Z</time>
      </trkpt>
      <trkpt lat="48.68978" lon="1.92249">
        <ele>173</ele>
        <time>2016-05-16T09:14:44Z</time>
      </trkpt>
      <trkpt lat="48.68973" lon="1.92241">
        <ele>172</ele>
        <time>2016-05-16T09:14:48Z</time>
      </trkpt>
      <trkpt lat="48.68972" lon="1.92238">
        <ele>172</ele>
        <time>2016-05-16T09:14:49Z</time>
      </trkpt>
      <trkpt lat="48.68973" lon="1.92224">
        <ele>170</ele>
        <time>2016-05-16T09:14:56Z</time>
      </trkpt>
      <trkpt lat="48.68974" lon="1.92223">
        <ele>169</ele>
        <time>2016-05-16T09:14:57Z</time>
      </trkpt>
      <trkpt lat="48.68975" lon="1.92221">
        <ele>168</ele>
        <time>2016-05-16T09:14:58Z</time>
      </trkpt>
      <trkpt lat="48.68975" lon="1.9222">
        <ele>166</ele>
        <time>2016-05-16T09:14:59Z</time>
      </trkpt>
      <trkpt lat="48.68975" lon="1.9222">
        <ele>166</ele>
        <time>2016-05-16T09:14:59Z</time>
      </trkpt>
      <trkpt lat="48.68975" lon="1.92217">
        <ele>167</ele>
        <time>2016-05-16T09:15:00Z</time>
      </trkpt>
      <trkpt lat="48.68979" lon="1.92206">
        <ele>165</ele>
        <time>2016-05-16T09:15:05Z</time>
      </trkpt>
      <trkpt lat="48.6898" lon="1.92203">
        <ele>165</ele>
        <time>2016-05-16T09:15:06Z</time>
      </trkpt>
      <trkpt lat="48.6898" lon="1.92197">
        <ele>167</ele>
        <time>2016-05-16T09:15:10Z</time>
      </trkpt>
      <trkpt lat="48.6898" lon="1.92196">
        <ele>167</ele>
        <time>2016-05-16T09:15:11Z</time>
      </trkpt>
      <trkpt lat="48.68979" lon="1.92193">
        <ele>169</ele>
        <time>2016-05-16T09:15:13Z</time>
      </trkpt>
      <trkpt lat="48.68979" lon="1.92194">
        <ele>170</ele>
        <time>2016-05-16T09:15:14Z</time>
      </trkpt>
      <trkpt lat="48.68978" lon="1.92191">
        <ele>170</ele>
        <time>2016-05-16T09:15:16Z</time>
      </trkpt>
      <trkpt lat="48.68977" lon="1.92192">
        <ele>169</ele>
        <time>2016-05-16T09:15:17Z</time>
      </trkpt>
      <trkpt lat="48.68977" lon="1.92183">
        <ele>174</ele>
        <time>2016-05-16T09:15:42Z</time>
      </trkpt>
      <trkpt lat="48.68979" lon="1.92181">
        <ele>169</ele>
        <time>2016-05-16T09:15:43Z</time>
      </trkpt>
      <trkpt lat="48.68983" lon="1.92169">
        <ele>162</ele>
        <time>2016-05-16T09:15:47Z</time>
      </trkpt>
      <trkpt lat="48.68983" lon="1.92165">
        <ele>162</ele>
        <time>2016-05-16T09:15:48Z</time>
      </trkpt>
      <trkpt lat="48.68985" lon="1.92152">
        <ele>165</ele>
        <time>2016-05-16T09:15:52Z</time>
      </trkpt>
      <trkpt lat="48.68985" lon="1.92149">
        <ele>166</ele>
        <time>2016-05-16T09:15:53Z</time>
      </trkpt>
      <trkpt lat="48.68985" lon="1.92149">
        <ele>166</ele>
        <time>2016-05-16T09:15:53Z</time>
      </trkpt>
      <trkpt lat="48.68984" lon="1.92148">
        <ele>167</ele>
        <time>2016-05-16T09:15:54Z</time>
      </trkpt>
      <trkpt lat="48.68984" lon="1.92148">
        <ele>167</ele>
        <time>2016-05-16T09:15:54Z</time>
      </trkpt>
      <trkpt lat="48.68987" lon="1.92147">
        <ele>169</ele>
        <time>2016-05-16T09:15:55Z</time>
      </trkpt>
      <trkpt lat="48.6899" lon="1.92136">
        <ele>172</ele>
        <time>2016-05-16T09:16:00Z</time>
      </trkpt>
      <trkpt lat="48.68993" lon="1.92134">
        <ele>171</ele>
        <time>2016-05-16T09:16:01Z</time>
      </trkpt>
      <trkpt lat="48.68993" lon="1.92121">
        <ele>172</ele>
        <time>2016-05-16T09:16:07Z</time>
      </trkpt>
      <trkpt lat="48.68994" lon="1.92118">
        <ele>173</ele>
        <time>2016-05-16T09:16:08Z</time>
      </trkpt>
      <trkpt lat="48.68994" lon="1.92118">
        <ele>173</ele>
        <time>2016-05-16T09:16:08Z</time>
      </trkpt>
      <trkpt lat="48.68995" lon="1.92117">
        <ele>174</ele>
        <time>2016-05-16T09:16:09Z</time>
      </trkpt>
      <trkpt lat="48.68995" lon="1.92114">
        <ele>175</ele>
        <time>2016-05-16T09:16:10Z</time>
      </trkpt>
      <trkpt lat="48.68996" lon="1.92113">
        <ele>175</ele>
        <time>2016-05-16T09:16:11Z</time>
      </trkpt>
      <trkpt lat="48.68995" lon="1.92101">
        <ele>177</ele>
        <time>2016-05-16T09:16:19Z</time>
      </trkpt>
      <trkpt lat="48.68995" lon="1.92099">
        <ele>177</ele>
        <time>2016-05-16T09:16:20Z</time>
      </trkpt>
      <trkpt lat="48.68998" lon="1.92091">
        <ele>175</ele>
        <time>2016-05-16T09:16:36Z</time>
      </trkpt>
      <trkpt lat="48.69" lon="1.92081">
        <ele>176</ele>
        <time>2016-05-16T09:16:37Z</time>
      </trkpt>
      <trkpt lat="48.69002" lon="1.92069">
        <ele>173</ele>
        <time>2016-05-16T09:16:39Z</time>
      </trkpt>
      <trkpt lat="48.69005" lon="1.92064">
        <ele>175</ele>
        <time>2016-05-16T09:16:40Z</time>
      </trkpt>
      <trkpt lat="48.69002" lon="1.92053">
        <ele>177</ele>
        <time>2016-05-16T09:16:41Z</time>
      </trkpt>
      <trkpt lat="48.69003" lon="1.92036">
        <ele>178</ele>
        <time>2016-05-16T09:16:42Z</time>
      </trkpt>
      <trkpt lat="48.68998" lon="1.9203">
        <ele>177</ele>
        <time>2016-05-16T09:16:49Z</time>
      </trkpt>
      <trkpt lat="48.68998" lon="1.9203">
        <ele>177</ele>
        <time>2016-05-16T09:16:50Z</time>
      </trkpt>
      <trkpt lat="48.68998" lon="1.9203">
        <ele>177</ele>
        <time>2016-05-16T09:16:50Z</time>
      </trkpt>
      <trkpt lat="48.68998" lon="1.92028">
        <ele>177</ele>
        <time>2016-05-16T09:16:51Z</time>
      </trkpt>
      <trkpt lat="48.69004" lon="1.92018">
        <ele>178</ele>
        <time>2016-05-16T09:16:58Z</time>
      </trkpt>
      <trkpt lat="48.69005" lon="1.92017">
        <ele>178</ele>
        <time>2016-05-16T09:16:59Z</time>
      </trkpt>
      <trkpt lat="48.69012" lon="1.92014">
        <ele>180</ele>
        <time>2016-05-16T09:17:03Z</time>
      </trkpt>
      <trkpt lat="48.69011" lon="1.92012">
        <ele>180</ele>
        <time>2016-05-16T09:17:04Z</time>
      </trkpt>
      <trkpt lat="48.69011" lon="1.92012">
        <ele>180</ele>
        <time>2016-05-16T09:17:04Z</time>
      </trkpt>
      <trkpt lat="48.69011" lon="1.9201">
        <ele>178</ele>
        <time>2016-05-16T09:17:05Z</time>
      </trkpt>
      <trkpt lat="48.69011" lon="1.9201">
        <ele>178</ele>
        <time>2016-05-16T09:17:05Z</time>
      </trkpt>
      <trkpt lat="48.69011" lon="1.92009">
        <ele>178</ele>
        <time>2016-05-16T09:17:06Z</time>
      </trkpt>
      <trkpt lat="48.69011" lon="1.92009">
        <ele>178</ele>
        <time>2016-05-16T09:17:06Z</time>
      </trkpt>
      <trkpt lat="48.69012" lon="1.92007">
        <ele>177</ele>
        <time>2016-05-16T09:17:07Z</time>
      </trkpt>
      <trkpt lat="48.69013" lon="1.91995">
        <ele>173</ele>
        <time>2016-05-16T09:17:13Z</time>
      </trkpt>
      <trkpt lat="48.69015" lon="1.91993">
        <ele>174</ele>
        <time>2016-05-16T09:17:14Z</time>
      </trkpt>
      <trkpt lat="48.69022" lon="1.91987">
        <ele>171</ele>
        <time>2016-05-16T09:17:23Z</time>
      </trkpt>
      <trkpt lat="48.69022" lon="1.91983">
        <ele>171</ele>
        <time>2016-05-16T09:17:24Z</time>
      </trkpt>
      <trkpt lat="48.69027" lon="1.91972">
        <ele>171</ele>
        <time>2016-05-16T09:17:30Z</time>
      </trkpt>
      <trkpt lat="48.69029" lon="1.91969">
        <ele>171</ele>
        <time>2016-05-16T09:17:31Z</time>
      </trkpt>
      <trkpt lat="48.69028" lon="1.91958">
        <ele>172</ele>
        <time>2016-05-16T09:17:33Z</time>
      </trkpt>
      <trkpt lat="48.6903" lon="1.91955">
        <ele>172</ele>
        <time>2016-05-16T09:17:34Z</time>
      </trkpt>
      <trkpt lat="48.69038" lon="1.91951">
        <ele>180</ele>
        <time>2016-05-16T09:17:42Z</time>
      </trkpt>
      <trkpt lat="48.69039" lon="1.91949">
        <ele>179</ele>
        <time>2016-05-16T09:17:43Z</time>
      </trkpt>
      <trkpt lat="48.69043" lon="1.91954">
        <ele>179</ele>
        <time>2016-05-16T09:17:44Z</time>
      </trkpt>
      <trkpt lat="48.69049" lon="1.9196">
        <ele>178</ele>
        <time>2016-05-16T09:17:45Z</time>
      </trkpt>
      <trkpt lat="48.69053" lon="1.91951">
        <ele>179</ele>
        <time>2016-05-16T09:17:50Z</time>
      </trkpt>
      <trkpt lat="48.69053" lon="1.91945">
        <ele>178</ele>
        <time>2016-05-16T09:17:51Z</time>
      </trkpt>
      <trkpt lat="48.69051" lon="1.91933">
        <ele>177</ele>
        <time>2016-05-16T09:17:58Z</time>
      </trkpt>
      <trkpt lat="48.69054" lon="1.91931">
        <ele>177</ele>
        <time>2016-05-16T09:17:59Z</time>
      </trkpt>
      <trkpt lat="48.69059" lon="1.9192">
        <ele>177</ele>
        <time>2016-05-16T09:18:07Z</time>
      </trkpt>
      <trkpt lat="48.69057" lon="1.91915">
        <ele>178</ele>
        <time>2016-05-16T09:18:08Z</time>
      </trkpt>
      <trkpt lat="48.69057" lon="1.91902">
        <ele>182</ele>
        <time>2016-05-16T09:18:16Z</time>
      </trkpt>
      <trkpt lat="48.69058" lon="1.919">
        <ele>181</ele>
        <time>2016-05-16T09:18:17Z</time>
      </trkpt>
      <trkpt lat="48.69056" lon="1.91889">
        <ele>180</ele>
        <time>2016-05-16T09:18:23Z</time>
      </trkpt>
      <trkpt lat="48.69058" lon="1.91886">
        <ele>181</ele>
        <time>2016-05-16T09:18:24Z</time>
      </trkpt>
      <trkpt lat="48.69064" lon="1.91877">
        <ele>178</ele>
        <time>2016-05-16T09:19:12Z</time>
      </trkpt>
      <trkpt lat="48.69066" lon="1.91875">
        <ele>181</ele>
        <time>2016-05-16T09:19:13Z</time>
      </trkpt>
      <trkpt lat="48.69069" lon="1.91868">
        <ele>183</ele>
        <time>2016-05-16T09:19:15Z</time>
      </trkpt>
      <trkpt lat="48.69071" lon="1.91861">
        <ele>185</ele>
        <time>2016-05-16T09:19:16Z</time>
      </trkpt>
      <trkpt lat="48.69076" lon="1.91854">
        <ele>187</ele>
        <time>2016-05-16T09:19:19Z</time>
      </trkpt>
      <trkpt lat="48.69077" lon="1.91851">
        <ele>190</ele>
        <time>2016-05-16T09:19:20Z</time>
      </trkpt>
      <trkpt lat="48.69077" lon="1.91839">
        <ele>188</ele>
        <time>2016-05-16T09:19:27Z</time>
      </trkpt>
      <trkpt lat="48.6908" lon="1.91836">
        <ele>187</ele>
        <time>2016-05-16T09:19:28Z</time>
      </trkpt>
      <trkpt lat="48.69085" lon="1.91828">
        <ele>185</ele>
        <time>2016-05-16T09:19:53Z</time>
      </trkpt>
      <trkpt lat="48.69087" lon="1.91826">
        <ele>185</ele>
        <time>2016-05-16T09:19:54Z</time>
      </trkpt>
      <trkpt lat="48.69086" lon="1.91823">
        <ele>186</ele>
        <time>2016-05-16T09:19:55Z</time>
      </trkpt>
      <trkpt lat="48.69087" lon="1.91821">
        <ele>186</ele>
        <time>2016-05-16T09:19:56Z</time>
      </trkpt>
      <trkpt lat="48.69087" lon="1.91821">
        <ele>186</ele>
        <time>2016-05-16T09:19:56Z</time>
      </trkpt>
      <trkpt lat="48.69088" lon="1.91819">
        <ele>188</ele>
        <time>2016-05-16T09:19:57Z</time>
      </trkpt>
      <trkpt lat="48.6909" lon="1.91809">
        <ele>187</ele>
        <time>2016-05-16T09:19:59Z</time>
      </trkpt>
      <trkpt lat="48.69095" lon="1.91801">
        <ele>187</ele>
        <time>2016-05-16T09:20:00Z</time>
      </trkpt>
      <trkpt lat="48.691" lon="1.91793">
        <ele>187</ele>
        <time>2016-05-16T09:20:01Z</time>
      </trkpt>
      <trkpt lat="48.69103" lon="1.91779">
        <ele>187</ele>
        <time>2016-05-16T09:20:02Z</time>
      </trkpt>
      <trkpt lat="48.69108" lon="1.91771">
        <ele>187</ele>
        <time>2016-05-16T09:20:05Z</time>
      </trkpt>
      <trkpt lat="48.6911" lon="1.9177">
        <ele>188</ele>
        <time>2016-05-16T09:20:06Z</time>
      </trkpt>
      <trkpt lat="48.69115" lon="1.91759">
        <ele>186</ele>
        <time>2016-05-16T09:20:40Z</time>
      </trkpt>
      <trkpt lat="48.69117" lon="1.91759">
        <ele>185</ele>
        <time>2016-05-16T09:20:41Z</time>
      </trkpt>
      <trkpt lat="48.69121" lon="1.91748">
        <ele>184</ele>
        <time>2016-05-16T09:20:47Z</time>
      </trkpt>
      <trkpt lat="48.69124" lon="1.91749">
        <ele>183</ele>
        <time>2016-05-16T09:20:48Z</time>
      </trkpt>
      <trkpt lat="48.6913" lon="1.91741">
        <ele>178</ele>
        <time>2016-05-16T09:20:52Z</time>
      </trkpt>
      <trkpt lat="48.6913" lon="1.9174">
        <ele>179</ele>
        <time>2016-05-16T09:20:53Z</time>
      </trkpt>
      <trkpt lat="48.69134" lon="1.91738">
        <ele>178</ele>
        <time>2016-05-16T09:20:55Z</time>
      </trkpt>
      <trkpt lat="48.69135" lon="1.91737">
        <ele>178</ele>
        <time>2016-05-16T09:20:56Z</time>
      </trkpt>
      <trkpt lat="48.69136" lon="1.91736">
        <ele>178</ele>
        <time>2016-05-16T09:20:57Z</time>
      </trkpt>
      <trkpt lat="48.69136" lon="1.91732">
        <ele>179</ele>
        <time>2016-05-16T09:20:58Z</time>
      </trkpt>
      <trkpt lat="48.69139" lon="1.91724">
        <ele>179</ele>
        <time>2016-05-16T09:21:02Z</time>
      </trkpt>
      <trkpt lat="48.6914" lon="1.91719">
        <ele>181</ele>
        <time>2016-05-16T09:21:03Z</time>
      </trkpt>
      <trkpt lat="48.69142" lon="1.91708">
        <ele>177</ele>
        <time>2016-05-16T09:21:08Z</time>
      </trkpt>
      <trkpt lat="48.69143" lon="1.91704">
        <ele>176</ele>
        <time>2016-05-16T09:21:09Z</time>
      </trkpt>
      <trkpt lat="48.69152" lon="1.91704">
        <ele>173</ele>
        <time>2016-05-16T09:21:13Z</time>
      </trkpt>
      <trkpt lat="48.69154" lon="1.91703">
        <ele>171</ele>
        <time>2016-05-16T09:21:14Z</time>
      </trkpt>
      <trkpt lat="48.6916" lon="1.91693">
        <ele>171</ele>
        <time>2016-05-16T09:21:19Z</time>
      </trkpt>
      <trkpt lat="48.6916" lon="1.91692">
        <ele>171</ele>
        <time>2016-05-16T09:21:20Z</time>
      </trkpt>
      <trkpt lat="48.69165" lon="1.91684">
        <ele>173</ele>
        <time>2016-05-16T09:21:29Z</time>
      </trkpt>
      <trkpt lat="48.69168" lon="1.91684">
        <ele>173</ele>
        <time>2016-05-16T09:21:30Z</time>
      </trkpt>
      <trkpt lat="48.69168" lon="1.91684">
        <ele>173</ele>
        <time>2016-05-16T09:21:30Z</time>
      </trkpt>
      <trkpt lat="48.69169" lon="1.91682">
        <ele>174</ele>
        <time>2016-05-16T09:21:31Z</time>
      </trkpt>
      <trkpt lat="48.69172" lon="1.9167">
        <ele>176</ele>
        <time>2016-05-16T09:21:37Z</time>
      </trkpt>
      <trkpt lat="48.6917" lon="1.91665">
        <ele>176</ele>
        <time>2016-05-16T09:21:38Z</time>
      </trkpt>
      <trkpt lat="48.69177" lon="1.91665">
        <ele>176</ele>
        <time>2016-05-16T09:21:39Z</time>
      </trkpt>
      <trkpt lat="48.69181" lon="1.91663">
        <ele>176</ele>
        <time>2016-05-16T09:21:40Z</time>
      </trkpt>
      <trkpt lat="48.69188" lon="1.91671">
        <ele>176</ele>
        <time>2016-05-16T09:21:44Z</time>
      </trkpt>
      <trkpt lat="48.69189" lon="1.91672">
        <ele>175</ele>
        <time>2016-05-16T09:21:45Z</time>
      </trkpt>
      <trkpt lat="48.69189" lon="1.91672">
        <ele>175</ele>
        <time>2016-05-16T09:21:45Z</time>
      </trkpt>
      <trkpt lat="48.69188" lon="1.9167">
        <ele>175</ele>
        <time>2016-05-16T09:21:46Z</time>
      </trkpt>
      <trkpt lat="48.69197" lon="1.91669">
        <ele>177</ele>
        <time>2016-05-16T09:21:54Z</time>
      </trkpt>
      <trkpt lat="48.69198" lon="1.91669">
        <ele>178</ele>
        <time>2016-05-16T09:21:55Z</time>
      </trkpt>
      <trkpt lat="48.69206" lon="1.91669">
        <ele>180</ele>
        <time>2016-05-16T09:22:17Z</time>
      </trkpt>
      <trkpt lat="48.69207" lon="1.91669">
        <ele>179</ele>
        <time>2016-05-16T09:22:18Z</time>
      </trkpt>
      <trkpt lat="48.69214" lon="1.9167">
        <ele>180</ele>
        <time>2016-05-16T09:22:20Z</time>
      </trkpt>
      <trkpt lat="48.69217" lon="1.91669">
        <ele>180</ele>
        <time>2016-05-16T09:22:21Z</time>
      </trkpt>
      <trkpt lat="48.69222" lon="1.91661">
        <ele>181</ele>
        <time>2016-05-16T09:22:25Z</time>
      </trkpt>
      <trkpt lat="48.69225" lon="1.91659">
        <ele>183</ele>
        <time>2016-05-16T09:22:26Z</time>
      </trkpt>
      <trkpt lat="48.6923" lon="1.91653">
        <ele>177</ele>
        <time>2016-05-16T09:22:35Z</time>
      </trkpt>
      <trkpt lat="48.69233" lon="1.91652">
        <ele>175</ele>
        <time>2016-05-16T09:22:36Z</time>
      </trkpt>
      <trkpt lat="48.69232" lon="1.91653">
        <ele>175</ele>
        <time>2016-05-16T09:22:37Z</time>
      </trkpt>
      <trkpt lat="48.69232" lon="1.91652">
        <ele>174</ele>
        <time>2016-05-16T09:22:38Z</time>
      </trkpt>
      <trkpt lat="48.69241" lon="1.91648">
        <ele>178</ele>
        <time>2016-05-16T09:22:57Z</time>
      </trkpt>
      <trkpt lat="48.69241" lon="1.91648">
        <ele>178</ele>
        <time>2016-05-16T09:22:58Z</time>
      </trkpt>
      <trkpt lat="48.69249" lon="1.91646">
        <ele>178</ele>
        <time>2016-05-16T09:23:24Z</time>
      </trkpt>
      <trkpt lat="48.69252" lon="1.91644">
        <ele>176</ele>
        <time>2016-05-16T09:23:25Z</time>
      </trkpt>
      <trkpt lat="48.69259" lon="1.91649">
        <ele>178</ele>
        <time>2016-05-16T09:23:31Z</time>
      </trkpt>
      <trkpt lat="48.6926" lon="1.91647">
        <ele>178</ele>
        <time>2016-05-16T09:23:32Z</time>
      </trkpt>
      <trkpt lat="48.69266" lon="1.91639">
        <ele>172</ele>
        <time>2016-05-16T09:23:39Z</time>
      </trkpt>
      <trkpt lat="48.69268" lon="1.91637">
        <ele>174</ele>
        <time>2016-05-16T09:23:40Z</time>
      </trkpt>
      <trkpt lat="48.6927" lon="1.91626">
        <ele>168</ele>
        <time>2016-05-16T09:23:47Z</time>
      </trkpt>
      <trkpt lat="48.69271" lon="1.91626">
        <ele>167</ele>
        <time>2016-05-16T09:23:48Z</time>
      </trkpt>
      <trkpt lat="48.69271" lon="1.91626">
        <ele>167</ele>
        <time>2016-05-16T09:23:48Z</time>
      </trkpt>
      <trkpt lat="48.69272" lon="1.91623">
        <ele>168</ele>
        <time>2016-05-16T09:23:49Z</time>
      </trkpt>
      <trkpt lat="48.69277" lon="1.9162">
        <ele>169</ele>
        <time>2016-05-16T09:23:53Z</time>
      </trkpt>
      <trkpt lat="48.6928" lon="1.91613">
        <ele>169</ele>
        <time>2016-05-16T09:23:54Z</time>
      </trkpt>
      <trkpt lat="48.69283" lon="1.91608">
        <ele>168</ele>
        <time>2016-05-16T09:23:55Z</time>
      </trkpt>
      <trkpt lat="48.69287" lon="1.91604">
        <ele>168</ele>
        <time>2016-05-16T09:23:56Z</time>
      </trkpt>
      <trkpt lat="48.69293" lon="1.91596">
        <ele>169</ele>
        <time>2016-05-16T09:24:06Z</time>
      </trkpt>
      <trkpt lat="48.69296" lon="1.91598">
        <ele>168</ele>
        <time>2016-05-16T09:24:07Z</time>
      </trkpt>
      <trkpt lat="48.69294" lon="1.91591">
        <ele>170</ele>
        <time>2016-05-16T09:24:12Z</time>
      </trkpt>
      <trkpt lat="48.69294" lon="1.91583">
        <ele>172</ele>
        <time>2016-05-16T09:24:13Z</time>
      </trkpt>
      <trkpt lat="48.69296" lon="1.91571">
        <ele>171</ele>
        <time>2016-05-16T09:24:16Z</time>
      </trkpt>
      <trkpt lat="48.69296" lon="1.9157">
        <ele>173</ele>
        <time>2016-05-16T09:24:17Z</time>
      </trkpt>
      <trkpt lat="48.693" lon="1.91557">
        <ele>180</ele>
        <time>2016-05-16T09:24:23Z</time>
      </trkpt>
      <trkpt lat="48.69302" lon="1.91559">
        <ele>182</ele>
        <time>2016-05-16T09:24:24Z</time>
      </trkpt>
      <trkpt lat="48.69303" lon="1.91551">
        <ele>184</ele>
        <time>2016-05-16T09:24:29Z</time>
      </trkpt>
      <trkpt lat="48.693" lon="1.91545">
        <ele>181</ele>
        <time>2016-05-16T09:24:30Z</time>
      </trkpt>
      <trkpt lat="48.69306" lon="1.91539">
        <ele>178</ele>
        <time>2016-05-16T09:24:46Z</time>
      </trkpt>
      <trkpt lat="48.69308" lon="1.91538">
        <ele>179</ele>
        <time>2016-05-16T09:24:47Z</time>
      </trkpt>
      <trkpt lat="48.69312" lon="1.91537">
        <ele>179</ele>
        <time>2016-05-16T09:24:49Z</time>
      </trkpt>
      <trkpt lat="48.69318" lon="1.91537">
        <ele>177</ele>
        <time>2016-05-16T09:24:50Z</time>
      </trkpt>
      <trkpt lat="48.69325" lon="1.91538">
        <ele>176</ele>
        <time>2016-05-16T09:24:59Z</time>
      </trkpt>
      <trkpt lat="48.69327" lon="1.91539">
        <ele>176</ele>
        <time>2016-05-16T09:25:00Z</time>
      </trkpt>
      <trkpt lat="48.69328" lon="1.91525">
        <ele>174</ele>
        <time>2016-05-16T09:25:13Z</time>
      </trkpt>
      <trkpt lat="48.6933" lon="1.91526">
        <ele>173</ele>
        <time>2016-05-16T09:25:14Z</time>
      </trkpt>
      <trkpt lat="48.69335" lon="1.91515">
        <ele>174</ele>
        <time>2016-05-16T09:25:45Z</time>
      </trkpt>
      <trkpt lat="48.69335" lon="1.91515">
        <ele>174</ele>
        <time>2016-05-16T09:25:46Z</time>
      </trkpt>
      <trkpt lat="48.6934" lon="1.91513">
        <ele>174</ele>
        <time>2016-05-16T09:25:50Z</time>
      </trkpt>
      <trkpt lat="48.69344" lon="1.9151">
        <ele>173</ele>
        <time>2016-05-16T09:25:52Z</time>
      </trkpt>
      <trkpt lat="48.69349" lon="1.91506">
        <ele>178</ele>
        <time>2016-05-16T09:25:56Z</time>
      </trkpt>
      <trkpt lat="48.69353" lon="1.91507">
        <ele>180</ele>
        <time>2016-05-16T09:25:57Z</time>
      </trkpt>
      <trkpt lat="48.69358" lon="1.91505">
        <ele>179</ele>
        <time>2016-05-16T09:25:59Z</time>
      </trkpt>
      <trkpt lat="48.69363" lon="1.91505">
        <ele>178</ele>
        <time>2016-05-16T09:26:00Z</time>
      </trkpt>
      <trkpt lat="48.69371" lon="1.91501">
        <ele>178</ele>
        <time>2016-05-16T09:26:08Z</time>
      </trkpt>
      <trkpt lat="48.69371" lon="1.91501">
        <ele>178</ele>
        <time>2016-05-16T09:26:09Z</time>
      </trkpt>
      <trkpt lat="48.6937" lon="1.91489">
        <ele>174</ele>
        <time>2016-05-16T09:26:33Z</time>
      </trkpt>
      <trkpt lat="48.69373" lon="1.91482">
        <ele>174</ele>
        <time>2016-05-16T09:26:34Z</time>
      </trkpt>
      <trkpt lat="48.69379" lon="1.91472">
        <ele>174</ele>
        <time>2016-05-16T09:27:35Z</time>
      </trkpt>
      <trkpt lat="48.69383" lon="1.91474">
        <ele>176</ele>
        <time>2016-05-16T09:27:36Z</time>
      </trkpt>
      <trkpt lat="48.69391" lon="1.91478">
        <ele>179</ele>
        <time>2016-05-16T09:27:45Z</time>
      </trkpt>
      <trkpt lat="48.69392" lon="1.91478">
        <ele>180</ele>
        <time>2016-05-16T09:27:46Z</time>
      </trkpt>
      <trkpt lat="48.69398" lon="1.91484">
        <ele>182</ele>
        <time>2016-05-16T09:28:09Z</time>
      </trkpt>
      <trkpt lat="48.69399" lon="1.91487">
        <ele>184</ele>
        <time>2016-05-16T09:28:10Z</time>
      </trkpt>
      <trkpt lat="48.69405" lon="1.91486">
        <ele>181</ele>
        <time>2016-05-16T09:28:12Z</time>
      </trkpt>
      <trkpt lat="48.69409" lon="1.91486">
        <ele>182</ele>
        <time>2016-05-16T09:28:13Z</time>
      </trkpt>
      <trkpt lat="48.69416" lon="1.91491">
        <ele>180</ele>
        <time>2016-05-16T09:28:17Z</time>
      </trkpt>
      <trkpt lat="48.69418" lon="1.91493">
        <ele>180</ele>
        <time>2016-05-16T09:28:18Z</time>
      </trkpt>
      <trkpt lat="48.69426" lon="1.91492">
        <ele>180</ele>
        <time>2016-05-16T09:28:23Z</time>
      </trkpt>
      <trkpt lat="48.69429" lon="1.91493">
        <ele>182</ele>
        <time>2016-05-16T09:28:24Z</time>
      </trkpt>
      <trkpt lat="48.69437" lon="1.91492">
        <ele>181</ele>
        <time>2016-05-16T09:28:37Z</time>
      </trkpt>
      <trkpt lat="48.69438" lon="1.91491">
        <ele>181</ele>
        <time>2016-05-16T09:28:38Z</time>
      </trkpt>
      <trkpt lat="48.69444" lon="1.91491">
        <ele>186</ele>
        <time>2016-05-16T09:28:52Z</time>
      </trkpt>
      <trkpt lat="48.69447" lon="1.91493">
        <ele>187</ele>
        <time>2016-05-16T09:28:53Z</time>
      </trkpt>
      <trkpt lat="48.69454" lon="1.91497">
        <ele>181</ele>
        <time>2016-05-16T09:28:59Z</time>
      </trkpt>
      <trkpt lat="48.69456" lon="1.91497">
        <ele>181</ele>
        <time>2016-05-16T09:29:00Z</time>
      </trkpt>
      <trkpt lat="48.69464" lon="1.91494">
        <ele>175</ele>
        <time>2016-05-16T09:29:09Z</time>
      </trkpt>
      <trkpt lat="48.69468" lon="1.91494">
        <ele>175</ele>
        <time>2016-05-16T09:29:10Z</time>
      </trkpt>
      <trkpt lat="48.69475" lon="1.91493">
        <ele>179</ele>
        <time>2016-05-16T09:29:13Z</time>
      </trkpt>
      <trkpt lat="48.69477" lon="1.91492">
        <ele>178</ele>
        <time>2016-05-16T09:29:14Z</time>
      </trkpt>
      <trkpt lat="48.6948" lon="1.91483">
        <ele>178</ele>
        <time>2016-05-16T09:29:17Z</time>
      </trkpt>
      <trkpt lat="48.69482" lon="1.91479">
        <ele>181</ele>
        <time>2016-05-16T09:29:18Z</time>
      </trkpt>
      <trkpt lat="48.69482" lon="1.91479">
        <ele>181</ele>
        <time>2016-05-16T09:29:18Z</time>
      </trkpt>
      <trkpt lat="48.69484" lon="1.91478">
        <ele>182</ele>
        <time>2016-05-16T09:29:19Z</time>
      </trkpt>
      <trkpt lat="48.69484" lon="1.91478">
        <ele>182</ele>
        <time>2016-05-16T09:29:19Z</time>
      </trkpt>
      <trkpt lat="48.69484" lon="1.91474">
        <ele>184</ele>
        <time>2016-05-16T09:29:20Z</time>
      </trkpt>
      <trkpt lat="48.69484" lon="1.91474">
        <ele>184</ele>
        <time>2016-05-16T09:29:21Z</time>
      </trkpt>
      <trkpt lat="48.69485" lon="1.91472">
        <ele>185</ele>
        <time>2016-05-16T09:29:22Z</time>
      </trkpt>
      <trkpt lat="48.69485" lon="1.91472">
        <ele>185</ele>
        <time>2016-05-16T09:29:22Z</time>
      </trkpt>
      <trkpt lat="48.69483" lon="1.91468">
        <ele>184</ele>
        <time>2016-05-16T09:29:23Z</time>
      </trkpt>
      <trkpt lat="48.69481" lon="1.91458">
        <ele>180</ele>
        <time>2016-05-16T09:29:30Z</time>
      </trkpt>
      <trkpt lat="48.6948" lon="1.91455">
        <ele>180</ele>
        <time>2016-05-16T09:29:31Z</time>
      </trkpt>
      <trkpt lat="48.6948" lon="1.91455">
        <ele>180</ele>
        <time>2016-05-16T09:29:31Z</time>
      </trkpt>
      <trkpt lat="48.6948" lon="1.91453">
        <ele>180</ele>
        <time>2016-05-16T09:29:32Z</time>
      </trkpt>
      <trkpt lat="48.6948" lon="1.91453">
        <ele>180</ele>
        <time>2016-05-16T09:29:32Z</time>
      </trkpt>
      <trkpt lat="48.6948" lon="1.9145">
        <ele>181</ele>
        <time>2016-05-16T09:29:33Z</time>
      </trkpt>
      <trkpt lat="48.6948" lon="1.91448">
        <ele>181</ele>
        <time>2016-05-16T09:29:34Z</time>
      </trkpt>
      <trkpt lat="48.69479" lon="1.91445">
        <ele>182</ele>
        <time>2016-05-16T09:29:35Z</time>
      </trkpt>
      <trkpt lat="48.69479" lon="1.91445">
        <ele>182</ele>
        <time>2016-05-16T09:29:35Z</time>
      </trkpt>
      <trkpt lat="48.69477" lon="1.91443">
        <ele>181</ele>
        <time>2016-05-16T09:29:36Z</time>
      </trkpt>
      <trkpt lat="48.69478" lon="1.9143">
        <ele>180</ele>
        <time>2016-05-16T09:29:40Z</time>
      </trkpt>
      <trkpt lat="48.69479" lon="1.91429">
        <ele>181</ele>
        <time>2016-05-16T09:29:41Z</time>
      </trkpt>
      <trkpt lat="48.69481" lon="1.91417">
        <ele>176</ele>
        <time>2016-05-16T09:29:48Z</time>
      </trkpt>
      <trkpt lat="48.69482" lon="1.91416">
        <ele>176</ele>
        <time>2016-05-16T09:29:49Z</time>
      </trkpt>
      <trkpt lat="48.69489" lon="1.91409">
        <ele>171</ele>
        <time>2016-05-16T09:29:58Z</time>
      </trkpt>
      <trkpt lat="48.69489" lon="1.91409">
        <ele>171</ele>
        <time>2016-05-16T09:29:59Z</time>
      </trkpt>
      <trkpt lat="48.69489" lon="1.91409">
        <ele>171</ele>
        <time>2016-05-16T09:29:59Z</time>
      </trkpt>
      <trkpt lat="48.6949" lon="1.91408">
        <ele>170</ele>
        <time>2016-05-16T09:30:00Z</time>
      </trkpt>
      <trkpt lat="48.69498" lon="1.91407">
        <ele>169</ele>
        <time>2016-05-16T09:30:06Z</time>
      </trkpt>
      <trkpt lat="48.69501" lon="1.91406">
        <ele>168</ele>
        <time>2016-05-16T09:30:07Z</time>
      </trkpt>
      <trkpt lat="48.69508" lon="1.91406">
        <ele>168</ele>
        <time>2016-05-16T09:30:11Z</time>
      </trkpt>
      <trkpt lat="48.69512" lon="1.91407">
        <ele>168</ele>
        <time>2016-05-16T09:30:12Z</time>
      </trkpt>
      <trkpt lat="48.69521" lon="1.91404">
        <ele>171</ele>
        <time>2016-05-16T09:30:20Z</time>
      </trkpt>
      <trkpt lat="48.69521" lon="1.91402">
        <ele>171</ele>
        <time>2016-05-16T09:30:21Z</time>
      </trkpt>
      <trkpt lat="48.69527" lon="1.91395">
        <ele>173</ele>
        <time>2016-05-16T09:30:27Z</time>
      </trkpt>
      <trkpt lat="48.69529" lon="1.91395">
        <ele>173</ele>
        <time>2016-05-16T09:30:28Z</time>
      </trkpt>
      <trkpt lat="48.69537" lon="1.91391">
        <ele>177</ele>
        <time>2016-05-16T09:30:35Z</time>
      </trkpt>
      <trkpt lat="48.69538" lon="1.91391">
        <ele>180</ele>
        <time>2016-05-16T09:30:36Z</time>
      </trkpt>
      <trkpt lat="48.69538" lon="1.91392">
        <ele>174</ele>
        <time>2016-05-16T09:30:40Z</time>
      </trkpt>
      <trkpt lat="48.69539" lon="1.9139">
        <ele>174</ele>
        <time>2016-05-16T09:30:41Z</time>
      </trkpt>
      <trkpt lat="48.69539" lon="1.91387">
        <ele>176</ele>
        <time>2016-05-16T09:30:43Z</time>
      </trkpt>
      <trkpt lat="48.6954" lon="1.9139">
        <ele>177</ele>
        <time>2016-05-16T09:30:44Z</time>
      </trkpt>
      <trkpt lat="48.69544" lon="1.91379">
        <ele>176</ele>
        <time>2016-05-16T09:30:53Z</time>
      </trkpt>
      <trkpt lat="48.69544" lon="1.91378">
        <ele>176</ele>
        <time>2016-05-16T09:30:54Z</time>
      </trkpt>
      <trkpt lat="48.69547" lon="1.91377">
        <ele>175</ele>
        <time>2016-05-16T09:30:56Z</time>
      </trkpt>
      <trkpt lat="48.69547" lon="1.91378">
        <ele>176</ele>
        <time>2016-05-16T09:30:57Z</time>
      </trkpt>
      <trkpt lat="48.69549" lon="1.91375">
        <ele>175</ele>
        <time>2016-05-16T09:30:58Z</time>
      </trkpt>
      <trkpt lat="48.6955" lon="1.91375">
        <ele>174</ele>
        <time>2016-05-16T09:30:59Z</time>
      </trkpt>
      <trkpt lat="48.69558" lon="1.91373">
        <ele>174</ele>
        <time>2016-05-16T09:31:07Z</time>
      </trkpt>
      <trkpt lat="48.69558" lon="1.91369">
        <ele>173</ele>
        <time>2016-05-16T09:31:08Z</time>
      </trkpt>
      <trkpt lat="48.69566" lon="1.91369">
        <ele>176</ele>
        <time>2016-05-16T09:32:46Z</time>
      </trkpt>
      <trkpt lat="48.69571" lon="1.91373">
        <ele>176</ele>
        <time>2016-05-16T09:32:47Z</time>
      </trkpt>
      <trkpt lat="48.69576" lon="1.9138">
        <ele>179</ele>
        <time>2016-05-16T09:32:49Z</time>
      </trkpt>
      <trkpt lat="48.69578" lon="1.91383">
        <ele>179</ele>
        <time>2016-05-16T09:32:50Z</time>
      </trkpt>
      <trkpt lat="48.69583" lon="1.91388">
        <ele>182</ele>
        <time>2016-05-16T09:32:53Z</time>
      </trkpt>
      <trkpt lat="48.69587" lon="1.91391">
        <ele>183</ele>
        <time>2016-05-16T09:32:54Z</time>
      </trkpt>
      <trkpt lat="48.69595" lon="1.91394">
        <ele>188</ele>
        <time>2016-05-16T09:32:57Z</time>
      </trkpt>
      <trkpt lat="48.69598" lon="1.91395">
        <ele>187</ele>
        <time>2016-05-16T09:32:58Z</time>
      </trkpt>
      <trkpt lat="48.69604" lon="1.914">
        <ele>188</ele>
        <time>2016-05-16T09:33:02Z</time>
      </trkpt>
      <trkpt lat="48.69608" lon="1.91402">
        <ele>190</ele>
        <time>2016-05-16T09:33:03Z</time>
      </trkpt>
      <trkpt lat="48.69614" lon="1.91408">
        <ele>192</ele>
        <time>2016-05-16T09:33:05Z</time>
      </trkpt>
      <trkpt lat="48.69616" lon="1.9141">
        <ele>193</ele>
        <time>2016-05-16T09:33:06Z</time>
      </trkpt>
      <trkpt lat="48.69625" lon="1.9141">
        <ele>187</ele>
        <time>2016-05-16T09:33:11Z</time>
      </trkpt>
      <trkpt lat="48.69626" lon="1.9141">
        <ele>186</ele>
        <time>2016-05-16T09:33:12Z</time>
      </trkpt>
      <trkpt lat="48.69633" lon="1.91413">
        <ele>186</ele>
        <time>2016-05-16T09:33:15Z</time>
      </trkpt>
      <trkpt lat="48.69636" lon="1.91411">
        <ele>187</ele>
        <time>2016-05-16T09:33:16Z</time>
      </trkpt>
      <trkpt lat="48.69643" lon="1.91405">
        <ele>189</ele>
        <time>2016-05-16T09:33:27Z</time>
      </trkpt>
      <trkpt lat="48.69644" lon="1.91404">
        <ele>188</ele>
        <time>2016-05-16T09:33:28Z</time>
      </trkpt>
      <trkpt lat="48.69653" lon="1.91403">
        <ele>190</ele>
        <time>2016-05-16T09:33:59Z</time>
      </trkpt>
      <trkpt lat="48.69653" lon="1.91401">
        <ele>187</ele>
        <time>2016-05-16T09:34:00Z</time>
      </trkpt>
      <trkpt lat="48.69653" lon="1.91401">
        <ele>187</ele>
        <time>2016-05-16T09:34:00Z</time>
      </trkpt>
      <trkpt lat="48.69654" lon="1.91399">
        <ele>190</ele>
        <time>2016-05-16T09:34:01Z</time>
      </trkpt>
      <trkpt lat="48.69654" lon="1.91399">
        <ele>190</ele>
        <time>2016-05-16T09:34:01Z</time>
      </trkpt>
      <trkpt lat="48.69657" lon="1.91401">
        <ele>191</ele>
        <time>2016-05-16T09:34:02Z</time>
      </trkpt>
      <trkpt lat="48.69665" lon="1.91398">
        <ele>188</ele>
        <time>2016-05-16T09:34:06Z</time>
      </trkpt>
      <trkpt lat="48.69667" lon="1.914">
        <ele>186</ele>
        <time>2016-05-16T09:34:07Z</time>
      </trkpt>
      <trkpt lat="48.69676" lon="1.914">
        <ele>187</ele>
        <time>2016-05-16T09:34:10Z</time>
      </trkpt>
      <trkpt lat="48.69678" lon="1.914">
        <ele>187</ele>
        <time>2016-05-16T09:34:11Z</time>
      </trkpt>
      <trkpt lat="48.69686" lon="1.914">
        <ele>187</ele>
        <time>2016-05-16T09:34:15Z</time>
      </trkpt>
      <trkpt lat="48.69688" lon="1.914">
        <ele>186</ele>
        <time>2016-05-16T09:34:16Z</time>
      </trkpt>
      <trkpt lat="48.69694" lon="1.91405">
        <ele>183</ele>
        <time>2016-05-16T09:34:19Z</time>
      </trkpt>
      <trkpt lat="48.69696" lon="1.91407">
        <ele>183</ele>
        <time>2016-05-16T09:34:20Z</time>
      </trkpt>
      <trkpt lat="48.69702" lon="1.91406">
        <ele>185</ele>
        <time>2016-05-16T09:34:27Z</time>
      </trkpt>
      <trkpt lat="48.69706" lon="1.91405">
        <ele>186</ele>
        <time>2016-05-16T09:34:28Z</time>
      </trkpt>
      <trkpt lat="48.69714" lon="1.91403">
        <ele>180</ele>
        <time>2016-05-16T09:34:36Z</time>
      </trkpt>
      <trkpt lat="48.69716" lon="1.91401">
        <ele>180</ele>
        <time>2016-05-16T09:34:37Z</time>
      </trkpt>
      <trkpt lat="48.69724" lon="1.914">
        <ele>184</ele>
        <time>2016-05-16T09:34:51Z</time>
      </trkpt>
      <trkpt lat="48.69726" lon="1.91401">
        <ele>184</ele>
        <time>2016-05-16T09:34:52Z</time>
      </trkpt>
      <trkpt lat="48.69735" lon="1.91401">
        <ele>188</ele>
        <time>2016-05-16T09:35:17Z</time>
      </trkpt>
      <trkpt lat="48.69735" lon="1.91401">
        <ele>188</ele>
        <time>2016-05-16T09:35:18Z</time>
      </trkpt>
      <trkpt lat="48.69744" lon="1.91401">
        <ele>192</ele>
        <time>2016-05-16T09:35:25Z</time>
      </trkpt>
      <trkpt lat="48.69745" lon="1.91401">
        <ele>193</ele>
        <time>2016-05-16T09:35:26Z</time>
      </trkpt>
      <trkpt lat="48.6975" lon="1.91408">
        <ele>190</ele>
        <time>2016-05-16T09:35:29Z</time>
      </trkpt>
      <trkpt lat="48.69753" lon="1.91411">
        <ele>188</ele>
        <time>2016-05-16T09:35:30Z</time>
      </trkpt>
      <trkpt lat="48.6976" lon="1.91415">
        <ele>189</ele>
        <time>2016-05-16T09:35:34Z</time>
      </trkpt>
      <trkpt lat="48.69761" lon="1.91416">
        <ele>189</ele>
        <time>2016-05-16T09:35:35Z</time>
      </trkpt>
      <trkpt lat="48.6977" lon="1.91419">
        <ele>185</ele>
        <time>2016-05-16T09:35:39Z</time>
      </trkpt>
      <trkpt lat="48.69769" lon="1.91422">
        <ele>187</ele>
        <time>2016-05-16T09:35:40Z</time>
      </trkpt>
      <trkpt lat="48.69777" lon="1.91421">
        <ele>191</ele>
        <time>2016-05-16T09:35:44Z</time>
      </trkpt>
      <trkpt lat="48.6978" lon="1.91423">
        <ele>194</ele>
        <time>2016-05-16T09:35:45Z</time>
      </trkpt>
      <trkpt lat="48.69786" lon="1.91426">
        <ele>194</ele>
        <time>2016-05-16T09:35:50Z</time>
      </trkpt>
      <trkpt lat="48.6979" lon="1.91424">
        <ele>194</ele>
        <time>2016-05-16T09:35:51Z</time>
      </trkpt>
      <trkpt lat="48.69795" lon="1.9143">
        <ele>194</ele>
        <time>2016-05-16T09:35:56Z</time>
      </trkpt>
      <trkpt lat="48.69798" lon="1.91433">
        <ele>197</ele>
        <time>2016-05-16T09:35:57Z</time>
      </trkpt>
      <trkpt lat="48.69803" lon="1.91436">
        <ele>198</ele>
        <time>2016-05-16T09:35:59Z</time>
      </trkpt>
      <trkpt lat="48.69807" lon="1.9144">
        <ele>201</ele>
        <time>2016-05-16T09:36:00Z</time>
      </trkpt>
      <trkpt lat="48.69815" lon="1.91445">
        <ele>199</ele>
        <time>2016-05-16T09:36:06Z</time>
      </trkpt>
      <trkpt lat="48.69816" lon="1.91445">
        <ele>198</ele>
        <time>2016-05-16T09:36:07Z</time>
      </trkpt>
      <trkpt lat="48.69819" lon="1.91442">
        <ele>187</ele>
        <time>2016-05-16T09:36:16Z</time>
      </trkpt>
      <trkpt lat="48.6982" lon="1.91444">
        <ele>189</ele>
        <time>2016-05-16T09:36:17Z</time>
      </trkpt>
      <trkpt lat="48.6982" lon="1.91444">
        <ele>189</ele>
        <time>2016-05-16T09:36:17Z</time>
      </trkpt>
      <trkpt lat="48.6982" lon="1.91445">
        <ele>189</ele>
        <time>2016-05-16T09:36:18Z</time>
      </trkpt>
      <trkpt lat="48.69829" lon="1.91443">
        <ele>186</ele>
        <time>2016-05-16T09:36:30Z</time>
      </trkpt>
      <trkpt lat="48.69829" lon="1.91443">
        <ele>186</ele>
        <time>2016-05-16T09:36:31Z</time>
      </trkpt>
      <trkpt lat="48.69837" lon="1.9144">
        <ele>187</ele>
        <time>2016-05-16T09:36:41Z</time>
      </trkpt>
      <trkpt lat="48.69839" lon="1.9144">
        <ele>186</ele>
        <time>2016-05-16T09:36:42Z</time>
      </trkpt>
      <trkpt lat="48.69846" lon="1.91433">
        <ele>184</ele>
        <time>2016-05-16T09:36:50Z</time>
      </trkpt>
      <trkpt lat="48.69846" lon="1.9143">
        <ele>183</ele>
        <time>2016-05-16T09:36:51Z</time>
      </trkpt>
      <trkpt lat="48.6985" lon="1.91419">
        <ele>187</ele>
        <time>2016-05-16T09:36:56Z</time>
      </trkpt>
      <trkpt lat="48.6985" lon="1.91415">
        <ele>187</ele>
        <time>2016-05-16T09:36:57Z</time>
      </trkpt>
      <trkpt lat="48.69854" lon="1.91405">
        <ele>189</ele>
        <time>2016-05-16T09:37:03Z</time>
      </trkpt>
      <trkpt lat="48.69857" lon="1.91405">
        <ele>189</ele>
        <time>2016-05-16T09:37:04Z</time>
      </trkpt>
      <trkpt lat="48.69862" lon="1.91397">
        <ele>185</ele>
        <time>2016-05-16T09:37:11Z</time>
      </trkpt>
      <trkpt lat="48.69864" lon="1.91395">
        <ele>185</ele>
        <time>2016-05-16T09:37:12Z</time>
      </trkpt>
      <trkpt lat="48.69863" lon="1.91383">
        <ele>183</ele>
        <time>2016-05-16T09:37:15Z</time>
      </trkpt>
      <trkpt lat="48.69869" lon="1.91376">
        <ele>182</ele>
        <time>2016-05-16T09:37:16Z</time>
      </trkpt>
      <trkpt lat="48.6987" lon="1.91365">
        <ele>184</ele>
        <time>2016-05-16T09:37:28Z</time>
      </trkpt>
      <trkpt lat="48.69871" lon="1.91362">
        <ele>185</ele>
        <time>2016-05-16T09:37:29Z</time>
      </trkpt>
      <trkpt lat="48.69876" lon="1.91354">
        <ele>186</ele>
        <time>2016-05-16T09:37:34Z</time>
      </trkpt>
      <trkpt lat="48.69878" lon="1.91352">
        <ele>185</ele>
        <time>2016-05-16T09:37:35Z</time>
      </trkpt>
      <trkpt lat="48.69881" lon="1.91348">
        <ele>183</ele>
        <time>2016-05-16T09:37:40Z</time>
      </trkpt>
      <trkpt lat="48.69871" lon="1.91337">
        <ele>182</ele>
        <time>2016-05-16T09:37:41Z</time>
      </trkpt>
      <trkpt lat="48.69871" lon="1.91325">
        <ele>184</ele>
        <time>2016-05-16T09:37:50Z</time>
      </trkpt>
      <trkpt lat="48.69874" lon="1.91322">
        <ele>183</ele>
        <time>2016-05-16T09:37:51Z</time>
      </trkpt>
      <trkpt lat="48.69875" lon="1.91313">
        <ele>185</ele>
        <time>2016-05-16T09:37:54Z</time>
      </trkpt>
      <trkpt lat="48.69873" lon="1.91308">
        <ele>184</ele>
        <time>2016-05-16T09:37:55Z</time>
      </trkpt>
      <trkpt lat="48.6987" lon="1.91305">
        <ele>187</ele>
        <time>2016-05-16T09:37:59Z</time>
      </trkpt>
      <trkpt lat="48.69869" lon="1.91306">
        <ele>187</ele>
        <time>2016-05-16T09:38:00Z</time>
      </trkpt>
      <trkpt lat="48.69869" lon="1.91306">
        <ele>187</ele>
        <time>2016-05-16T09:38:00Z</time>
      </trkpt>
      <trkpt lat="48.6987" lon="1.91306">
        <ele>187</ele>
        <time>2016-05-16T09:38:01Z</time>
      </trkpt>
      <trkpt lat="48.69874" lon="1.91311">
        <ele>187</ele>
        <time>2016-05-16T09:38:04Z</time>
      </trkpt>
      <trkpt lat="48.69878" lon="1.91316">
        <ele>187</ele>
        <time>2016-05-16T09:38:05Z</time>
      </trkpt>
      <trkpt lat="48.69886" lon="1.91319">
        <ele>189</ele>
        <time>2016-05-16T09:38:10Z</time>
      </trkpt>
      <trkpt lat="48.6989" lon="1.9132">
        <ele>188</ele>
        <time>2016-05-16T09:38:11Z</time>
      </trkpt>
      <trkpt lat="48.69888" lon="1.91311">
        <ele>191</ele>
        <time>2016-05-16T09:38:16Z</time>
      </trkpt>
      <trkpt lat="48.69885" lon="1.91306">
        <ele>191</ele>
        <time>2016-05-16T09:38:17Z</time>
      </trkpt>
      <trkpt lat="48.69887" lon="1.91303">
        <ele>187</ele>
        <time>2016-05-16T09:38:23Z</time>
      </trkpt>
      <trkpt lat="48.69879" lon="1.91293">
        <ele>186</ele>
        <time>2016-05-16T09:38:24Z</time>
      </trkpt>
      <trkpt lat="48.69875" lon="1.91291">
        <ele>186</ele>
        <time>2016-05-16T09:38:25Z</time>
      </trkpt>
      <trkpt lat="48.69868" lon="1.9129">
        <ele>184</ele>
        <time>2016-05-16T09:38:26Z</time>
      </trkpt>
      <trkpt lat="48.69868" lon="1.91276">
        <ele>178</ele>
        <time>2016-05-16T09:38:41Z</time>
      </trkpt>
      <trkpt lat="48.69868" lon="1.91275">
        <ele>178</ele>
        <time>2016-05-16T09:38:42Z</time>
      </trkpt>
      <trkpt lat="48.69865" lon="1.91271">
        <ele>176</ele>
        <time>2016-05-16T09:38:46Z</time>
      </trkpt>
      <trkpt lat="48.69864" lon="1.91269">
        <ele>177</ele>
        <time>2016-05-16T09:38:47Z</time>
      </trkpt>
      <trkpt lat="48.69864" lon="1.91269">
        <ele>177</ele>
        <time>2016-05-16T09:38:47Z</time>
      </trkpt>
      <trkpt lat="48.69863" lon="1.91267">
        <ele>177</ele>
        <time>2016-05-16T09:38:48Z</time>
      </trkpt>
      <trkpt lat="48.69869" lon="1.91263">
        <ele>176</ele>
        <time>2016-05-16T09:38:50Z</time>
      </trkpt>
      <trkpt lat="48.69869" lon="1.91265">
        <ele>176</ele>
        <time>2016-05-16T09:38:51Z</time>
      </trkpt>
      <trkpt lat="48.69867" lon="1.91258">
        <ele>178</ele>
        <time>2016-05-16T09:38:54Z</time>
      </trkpt>
      <trkpt lat="48.69869" lon="1.91258">
        <ele>177</ele>
        <time>2016-05-16T09:38:55Z</time>
      </trkpt>
      <trkpt lat="48.69877" lon="1.91253">
        <ele>179</ele>
        <time>2016-05-16T09:39:01Z</time>
      </trkpt>
      <trkpt lat="48.69881" lon="1.91253">
        <ele>178</ele>
        <time>2016-05-16T09:39:02Z</time>
      </trkpt>
      <trkpt lat="48.69888" lon="1.91251">
        <ele>179</ele>
        <time>2016-05-16T09:39:10Z</time>
      </trkpt>
      <trkpt lat="48.69889" lon="1.91249">
        <ele>179</ele>
        <time>2016-05-16T09:39:11Z</time>
      </trkpt>
      <trkpt lat="48.69898" lon="1.91249">
        <ele>180</ele>
        <time>2016-05-16T09:39:15Z</time>
      </trkpt>
      <trkpt lat="48.69901" lon="1.91249">
        <ele>180</ele>
        <time>2016-05-16T09:39:16Z</time>
      </trkpt>
      <trkpt lat="48.69909" lon="1.91249">
        <ele>181</ele>
        <time>2016-05-16T09:39:23Z</time>
      </trkpt>
      <trkpt lat="48.69912" lon="1.91248">
        <ele>181</ele>
        <time>2016-05-16T09:39:24Z</time>
      </trkpt>
      <trkpt lat="48.69917" lon="1.91238">
        <ele>180</ele>
        <time>2016-05-16T09:39:29Z</time>
      </trkpt>
      <trkpt lat="48.69919" lon="1.91238">
        <ele>181</ele>
        <time>2016-05-16T09:39:30Z</time>
      </trkpt>
      <trkpt lat="48.69928" lon="1.91235">
        <ele>183</ele>
        <time>2016-05-16T09:39:35Z</time>
      </trkpt>
      <trkpt lat="48.69929" lon="1.91231">
        <ele>183</ele>
        <time>2016-05-16T09:39:36Z</time>
      </trkpt>
      <trkpt lat="48.69928" lon="1.91218">
        <ele>183</ele>
        <time>2016-05-16T09:39:40Z</time>
      </trkpt>
      <trkpt lat="48.69925" lon="1.91215">
        <ele>183</ele>
        <time>2016-05-16T09:39:41Z</time>
      </trkpt>
      <trkpt lat="48.69926" lon="1.91202">
        <ele>183</ele>
        <time>2016-05-16T09:39:47Z</time>
      </trkpt>
      <trkpt lat="48.69925" lon="1.912">
        <ele>184</ele>
        <time>2016-05-16T09:39:48Z</time>
      </trkpt>
      <trkpt lat="48.69924" lon="1.91193">
        <ele>184</ele>
        <time>2016-05-16T09:39:52Z</time>
      </trkpt>
      <trkpt lat="48.69925" lon="1.91191">
        <ele>185</ele>
        <time>2016-05-16T09:39:53Z</time>
      </trkpt>
      <trkpt lat="48.69925" lon="1.91191">
        <ele>185</ele>
        <time>2016-05-16T09:39:53Z</time>
      </trkpt>
      <trkpt lat="48.69926" lon="1.9119">
        <ele>187</ele>
        <time>2016-05-16T09:39:54Z</time>
      </trkpt>
      <trkpt lat="48.69926" lon="1.9119">
        <ele>187</ele>
        <time>2016-05-16T09:39:54Z</time>
      </trkpt>
      <trkpt lat="48.69925" lon="1.91188">
        <ele>187</ele>
        <time>2016-05-16T09:39:55Z</time>
      </trkpt>
      <trkpt lat="48.69925" lon="1.91188">
        <ele>187</ele>
        <time>2016-05-16T09:39:55Z</time>
      </trkpt>
      <trkpt lat="48.69925" lon="1.91187">
        <ele>186</ele>
        <time>2016-05-16T09:39:56Z</time>
      </trkpt>
      <trkpt lat="48.69925" lon="1.91187">
        <ele>186</ele>
        <time>2016-05-16T09:39:57Z</time>
      </trkpt>
      <trkpt lat="48.69926" lon="1.91186">
        <ele>186</ele>
        <time>2016-05-16T09:39:58Z</time>
      </trkpt>
      <trkpt lat="48.69926" lon="1.91186">
        <ele>186</ele>
        <time>2016-05-16T09:39:58Z</time>
      </trkpt>
      <trkpt lat="48.69925" lon="1.91184">
        <ele>188</ele>
        <time>2016-05-16T09:39:59Z</time>
      </trkpt>
      <trkpt lat="48.69925" lon="1.91171">
        <ele>188</ele>
        <time>2016-05-16T09:40:08Z</time>
      </trkpt>
      <trkpt lat="48.69924" lon="1.91169">
        <ele>187</ele>
        <time>2016-05-16T09:40:09Z</time>
      </trkpt>
      <trkpt lat="48.69925" lon="1.91157">
        <ele>186</ele>
        <time>2016-05-16T09:40:14Z</time>
      </trkpt>
      <trkpt lat="48.69919" lon="1.91152">
        <ele>186</ele>
        <time>2016-05-16T09:40:15Z</time>
      </trkpt>
      <trkpt lat="48.69916" lon="1.9114">
        <ele>190</ele>
        <time>2016-05-16T09:40:18Z</time>
      </trkpt>
      <trkpt lat="48.69916" lon="1.91137">
        <ele>188</ele>
        <time>2016-05-16T09:40:19Z</time>
      </trkpt>
      <trkpt lat="48.69915" lon="1.91126">
        <ele>189</ele>
        <time>2016-05-16T09:40:24Z</time>
      </trkpt>
      <trkpt lat="48.69914" lon="1.91125">
        <ele>188</ele>
        <time>2016-05-16T09:40:25Z</time>
      </trkpt>
      <trkpt lat="48.69914" lon="1.91125">
        <ele>188</ele>
        <time>2016-05-16T09:40:25Z</time>
      </trkpt>
      <trkpt lat="48.69914" lon="1.91125">
        <ele>188</ele>
        <time>2016-05-16T09:40:26Z</time>
      </trkpt>
      <trkpt lat="48.69914" lon="1.91123">
        <ele>188</ele>
        <time>2016-05-16T09:40:27Z</time>
      </trkpt>
      <trkpt lat="48.69914" lon="1.91122">
        <ele>188</ele>
        <time>2016-05-16T09:40:28Z</time>
      </trkpt>
      <trkpt lat="48.69914" lon="1.91122">
        <ele>188</ele>
        <time>2016-05-16T09:40:28Z</time>
      </trkpt>
      <trkpt lat="48.69914" lon="1.91121">
        <ele>189</ele>
        <time>2016-05-16T09:40:29Z</time>
      </trkpt>
      <trkpt lat="48.69914" lon="1.91108">
        <ele>190</ele>
        <time>2016-05-16T09:40:52Z</time>
      </trkpt>
      <trkpt lat="48.69914" lon="1.91107">
        <ele>190</ele>
        <time>2016-05-16T09:40:53Z</time>
      </trkpt>
      <trkpt lat="48.6991" lon="1.91095">
        <ele>191</ele>
        <time>2016-05-16T09:41:06Z</time>
      </trkpt>
      <trkpt lat="48.69911" lon="1.91093">
        <ele>190</ele>
        <time>2016-05-16T09:41:07Z</time>
      </trkpt>
      <trkpt lat="48.69915" lon="1.91084">
        <ele>189</ele>
        <time>2016-05-16T09:41:11Z</time>
      </trkpt>
      <trkpt lat="48.69917" lon="1.91079">
        <ele>189</ele>
        <time>2016-05-16T09:41:12Z</time>
      </trkpt>
      <trkpt lat="48.69917" lon="1.91066">
        <ele>193</ele>
        <time>2016-05-16T09:41:16Z</time>
      </trkpt>
      <trkpt lat="48.69917" lon="1.91061">
        <ele>193</ele>
        <time>2016-05-16T09:41:17Z</time>
      </trkpt>
      <trkpt lat="48.69917" lon="1.91061">
        <ele>193</ele>
        <time>2016-05-16T09:41:17Z</time>
      </trkpt>
      <trkpt lat="48.69917" lon="1.91059">
        <ele>194</ele>
        <time>2016-05-16T09:41:18Z</time>
      </trkpt>
      <trkpt lat="48.69917" lon="1.91059">
        <ele>194</ele>
        <time>2016-05-16T09:41:18Z</time>
      </trkpt>
      <trkpt lat="48.69919" lon="1.91058">
        <ele>193</ele>
        <time>2016-05-16T09:41:19Z</time>
      </trkpt>
      <trkpt lat="48.69921" lon="1.91046">
        <ele>189</ele>
        <time>2016-05-16T09:41:28Z</time>
      </trkpt>
      <trkpt lat="48.69921" lon="1.91044">
        <ele>188</ele>
        <time>2016-05-16T09:41:29Z</time>
      </trkpt>
      <trkpt lat="48.69923" lon="1.91033">
        <ele>189</ele>
        <time>2016-05-16T09:41:45Z</time>
      </trkpt>
      <trkpt lat="48.69924" lon="1.9103">
        <ele>188</ele>
        <time>2016-05-16T09:41:46Z</time>
      </trkpt>
      <trkpt lat="48.69928" lon="1.91023">
        <ele>188</ele>
        <time>2016-05-16T09:41:49Z</time>
      </trkpt>
      <trkpt lat="48.69927" lon="1.91014">
        <ele>189</ele>
        <time>2016-05-16T09:41:50Z</time>
      </trkpt>
      <trkpt lat="48.69927" lon="1.91011">
        <ele>188</ele>
        <time>2016-05-16T09:41:51Z</time>
      </trkpt>
      <trkpt lat="48.69924" lon="1.90999">
        <ele>188</ele>
        <time>2016-05-16T09:41:52Z</time>
      </trkpt>
      <trkpt lat="48.69929" lon="1.90992">
        <ele>192</ele>
        <time>2016-05-16T09:41:55Z</time>
      </trkpt>
      <trkpt lat="48.6993" lon="1.90989">
        <ele>191</ele>
        <time>2016-05-16T09:41:56Z</time>
      </trkpt>
      <trkpt lat="48.6993" lon="1.90978">
        <ele>193</ele>
        <time>2016-05-16T09:42:01Z</time>
      </trkpt>
      <trkpt lat="48.69931" lon="1.90975">
        <ele>193</ele>
        <time>2016-05-16T09:42:02Z</time>
      </trkpt>
      <trkpt lat="48.69937" lon="1.90974">
        <ele>194</ele>
        <time>2016-05-16T09:42:04Z</time>
      </trkpt>
      <trkpt lat="48.6994" lon="1.90972">
        <ele>193</ele>
        <time>2016-05-16T09:42:05Z</time>
      </trkpt>
      <trkpt lat="48.69945" lon="1.90962">
        <ele>194</ele>
        <time>2016-05-16T09:42:13Z</time>
      </trkpt>
      <trkpt lat="48.69943" lon="1.90958">
        <ele>195</ele>
        <time>2016-05-16T09:42:14Z</time>
      </trkpt>
      <trkpt lat="48.69939" lon="1.90949">
        <ele>193</ele>
        <time>2016-05-16T09:42:16Z</time>
      </trkpt>
      <trkpt lat="48.69938" lon="1.90944">
        <ele>193</ele>
        <time>2016-05-16T09:42:17Z</time>
      </trkpt>
      <trkpt lat="48.69946" lon="1.90944">
        <ele>189</ele>
        <time>2016-05-16T09:42:20Z</time>
      </trkpt>
      <trkpt lat="48.6995" lon="1.90943">
        <ele>189</ele>
        <time>2016-05-16T09:42:21Z</time>
      </trkpt>
      <trkpt lat="48.6995" lon="1.90933">
        <ele>192</ele>
        <time>2016-05-16T09:42:31Z</time>
      </trkpt>
      <trkpt lat="48.6995" lon="1.90929">
        <ele>190</ele>
        <time>2016-05-16T09:42:32Z</time>
      </trkpt>
      <trkpt lat="48.6995" lon="1.90929">
        <ele>190</ele>
        <time>2016-05-16T09:42:32Z</time>
      </trkpt>
      <trkpt lat="48.6995" lon="1.90926">
        <ele>190</ele>
        <time>2016-05-16T09:42:33Z</time>
      </trkpt>
      <trkpt lat="48.69954" lon="1.90917">
        <ele>187</ele>
        <time>2016-05-16T09:42:41Z</time>
      </trkpt>
      <trkpt lat="48.69954" lon="1.90914">
        <ele>187</ele>
        <time>2016-05-16T09:42:42Z</time>
      </trkpt>
      <trkpt lat="48.6996" lon="1.90904">
        <ele>186</ele>
        <time>2016-05-16T09:42:52Z</time>
      </trkpt>
      <trkpt lat="48.69962" lon="1.90903">
        <ele>188</ele>
        <time>2016-05-16T09:42:53Z</time>
      </trkpt>
      <trkpt lat="48.69967" lon="1.90897">
        <ele>188</ele>
        <time>2016-05-16T09:42:59Z</time>
      </trkpt>
      <trkpt lat="48.69967" lon="1.90896">
        <ele>187</ele>
        <time>2016-05-16T09:43:00Z</time>
      </trkpt>
      <trkpt lat="48.69967" lon="1.90896">
        <ele>187</ele>
        <time>2016-05-16T09:43:00Z</time>
      </trkpt>
      <trkpt lat="48.69968" lon="1.90895">
        <ele>187</ele>
        <time>2016-05-16T09:43:01Z</time>
      </trkpt>
      <trkpt lat="48.6997" lon="1.90886">
        <ele>185</ele>
        <time>2016-05-16T09:43:07Z</time>
      </trkpt>
      <trkpt lat="48.69972" lon="1.90882">
        <ele>186</ele>
        <time>2016-05-16T09:43:08Z</time>
      </trkpt>
      <trkpt lat="48.69972" lon="1.9088">
        <ele>186</ele>
        <time>2016-05-16T09:43:09Z</time>
      </trkpt>
      <trkpt lat="48.69972" lon="1.90878">
        <ele>187</ele>
        <time>2016-05-16T09:43:10Z</time>
      </trkpt>
      <trkpt lat="48.69972" lon="1.90878">
        <ele>187</ele>
        <time>2016-05-16T09:43:10Z</time>
      </trkpt>
      <trkpt lat="48.69971" lon="1.90876">
        <ele>187</ele>
        <time>2016-05-16T09:43:11Z</time>
      </trkpt>
      <trkpt lat="48.69974" lon="1.90863">
        <ele>189</ele>
        <time>2016-05-16T09:43:20Z</time>
      </trkpt>
      <trkpt lat="48.69974" lon="1.90859">
        <ele>190</ele>
        <time>2016-05-16T09:43:21Z</time>
      </trkpt>
      <trkpt lat="48.69978" lon="1.90849">
        <ele>189</ele>
        <time>2016-05-16T09:43:26Z</time>
      </trkpt>
      <trkpt lat="48.69978" lon="1.90847">
        <ele>190</ele>
        <time>2016-05-16T09:43:27Z</time>
      </trkpt>
      <trkpt lat="48.69986" lon="1.90839">
        <ele>192</ele>
        <time>2016-05-16T09:43:50Z</time>
      </trkpt>
      <trkpt lat="48.69986" lon="1.90838">
        <ele>192</ele>
        <time>2016-05-16T09:43:51Z</time>
      </trkpt>
      <trkpt lat="48.69986" lon="1.90838">
        <ele>192</ele>
        <time>2016-05-16T09:43:51Z</time>
      </trkpt>
      <trkpt lat="48.69986" lon="1.90835">
        <ele>191</ele>
        <time>2016-05-16T09:43:52Z</time>
      </trkpt>
      <trkpt lat="48.69987" lon="1.90832">
        <ele>192</ele>
        <time>2016-05-16T09:43:54Z</time>
      </trkpt>
      <trkpt lat="48.69987" lon="1.90832">
        <ele>191</ele>
        <time>2016-05-16T09:43:55Z</time>
      </trkpt>
      <trkpt lat="48.69994" lon="1.90824">
        <ele>193</ele>
        <time>2016-05-16T09:44:02Z</time>
      </trkpt>
      <trkpt lat="48.69995" lon="1.90821">
        <ele>194</ele>
        <time>2016-05-16T09:44:03Z</time>
      </trkpt>
      <trkpt lat="48.7" lon="1.9081">
        <ele>193</ele>
        <time>2016-05-16T09:44:08Z</time>
      </trkpt>
      <trkpt lat="48.69997" lon="1.90804">
        <ele>193</ele>
        <time>2016-05-16T09:44:09Z</time>
      </trkpt>
      <trkpt lat="48.70003" lon="1.90793">
        <ele>189</ele>
        <time>2016-05-16T09:44:13Z</time>
      </trkpt>
      <trkpt lat="48.70003" lon="1.90789">
        <ele>187</ele>
        <time>2016-05-16T09:44:14Z</time>
      </trkpt>
      <trkpt lat="48.70007" lon="1.90789">
        <ele>185</ele>
        <time>2016-05-16T09:44:15Z</time>
      </trkpt>
      <trkpt lat="48.70008" lon="1.90788">
        <ele>188</ele>
        <time>2016-05-16T09:44:16Z</time>
      </trkpt>
      <trkpt lat="48.70008" lon="1.90786">
        <ele>185</ele>
        <time>2016-05-16T09:44:17Z</time>
      </trkpt>
      <trkpt lat="48.70009" lon="1.90786">
        <ele>185</ele>
        <time>2016-05-16T09:44:18Z</time>
      </trkpt>
      <trkpt lat="48.70011" lon="1.90774">
        <ele>183</ele>
        <time>2016-05-16T09:44:25Z</time>
      </trkpt>
      <trkpt lat="48.70011" lon="1.90772">
        <ele>182</ele>
        <time>2016-05-16T09:44:26Z</time>
      </trkpt>
      <trkpt lat="48.70011" lon="1.90772">
        <ele>182</ele>
        <time>2016-05-16T09:44:26Z</time>
      </trkpt>
      <trkpt lat="48.70011" lon="1.9077">
        <ele>182</ele>
        <time>2016-05-16T09:44:27Z</time>
      </trkpt>
      <trkpt lat="48.70011" lon="1.9077">
        <ele>182</ele>
        <time>2016-05-16T09:44:27Z</time>
      </trkpt>
      <trkpt lat="48.70012" lon="1.9077">
        <ele>182</ele>
        <time>2016-05-16T09:44:28Z</time>
      </trkpt>
      <trkpt lat="48.70015" lon="1.90758">
        <ele>179</ele>
        <time>2016-05-16T09:44:34Z</time>
      </trkpt>
      <trkpt lat="48.70016" lon="1.90755">
        <ele>179</ele>
        <time>2016-05-16T09:44:35Z</time>
      </trkpt>
      <trkpt lat="48.70023" lon="1.90751">
        <ele>180</ele>
        <time>2016-05-16T09:44:39Z</time>
      </trkpt>
      <trkpt lat="48.70024" lon="1.90749">
        <ele>179</ele>
        <time>2016-05-16T09:44:40Z</time>
      </trkpt>
      <trkpt lat="48.70027" lon="1.90737">
        <ele>177</ele>
        <time>2016-05-16T09:44:46Z</time>
      </trkpt>
      <trkpt lat="48.70026" lon="1.90734">
        <ele>178</ele>
        <time>2016-05-16T09:44:47Z</time>
      </trkpt>
      <trkpt lat="48.70026" lon="1.90724">
        <ele>178</ele>
        <time>2016-05-16T09:44:51Z</time>
      </trkpt>
      <trkpt lat="48.70027" lon="1.90724">
        <ele>179</ele>
        <time>2016-05-16T09:44:52Z</time>
      </trkpt>
      <trkpt lat="48.70027" lon="1.90724">
        <ele>179</ele>
        <time>2016-05-16T09:44:52Z</time>
      </trkpt>
      <trkpt lat="48.70029" lon="1.90723">
        <ele>180</ele>
        <time>2016-05-16T09:44:53Z</time>
      </trkpt>
      <trkpt lat="48.70035" lon="1.90715">
        <ele>183</ele>
        <time>2016-05-16T09:45:01Z</time>
      </trkpt>
      <trkpt lat="48.70038" lon="1.90712">
        <ele>183</ele>
        <time>2016-05-16T09:45:02Z</time>
      </trkpt>
      <trkpt lat="48.70044" lon="1.90704">
        <ele>182</ele>
        <time>2016-05-16T09:45:11Z</time>
      </trkpt>
      <trkpt lat="48.70044" lon="1.90701">
        <ele>182</ele>
        <time>2016-05-16T09:45:12Z</time>
      </trkpt>
      <trkpt lat="48.70046" lon="1.90688">
        <ele>181</ele>
        <time>2016-05-16T09:45:23Z</time>
      </trkpt>
      <trkpt lat="48.70051" lon="1.90687">
        <ele>182</ele>
        <time>2016-05-16T09:45:24Z</time>
      </trkpt>
      <trkpt lat="48.70053" lon="1.90675">
        <ele>183</ele>
        <time>2016-05-16T09:45:27Z</time>
      </trkpt>
      <trkpt lat="48.70057" lon="1.90675">
        <ele>182</ele>
        <time>2016-05-16T09:45:28Z</time>
      </trkpt>
      <trkpt lat="48.7006" lon="1.90668">
        <ele>184</ele>
        <time>2016-05-16T09:45:31Z</time>
      </trkpt>
      <trkpt lat="48.70054" lon="1.90662">
        <ele>184</ele>
        <time>2016-05-16T09:45:32Z</time>
      </trkpt>
      <trkpt lat="48.70057" lon="1.90668">
        <ele>178</ele>
        <time>2016-05-16T09:45:34Z</time>
      </trkpt>
      <trkpt lat="48.70058" lon="1.90675">
        <ele>175</ele>
        <time>2016-05-16T09:45:35Z</time>
      </trkpt>
      <trkpt lat="48.70064" lon="1.90669">
        <ele>181</ele>
        <time>2016-05-16T09:45:49Z</time>
      </trkpt>
      <trkpt lat="48.70068" lon="1.90664">
        <ele>181</ele>
        <time>2016-05-16T09:45:50Z</time>
      </trkpt>
      <trkpt lat="48.70068" lon="1.90664">
        <ele>181</ele>
        <time>2016-05-16T09:45:50Z</time>
      </trkpt>
      <trkpt lat="48.70064" lon="1.90618">
        <ele>191</ele>
        <time>2016-05-16T09:46:26Z</time>
      </trkpt>
      <trkpt lat="48.70064" lon="1.90618">
        <ele>191</ele>
        <time>2016-05-16T09:46:26Z</time>
      </trkpt>
      <trkpt lat="48.7006" lon="1.90601">
        <ele>196</ele>
        <time>2016-05-16T09:46:27Z</time>
      </trkpt>
      <trkpt lat="48.70059" lon="1.90613">
        <ele>193</ele>
        <time>2016-05-16T09:46:28Z</time>
      </trkpt>
      <trkpt lat="48.70064" lon="1.90618">
        <ele>187</ele>
        <time>2016-05-16T09:46:29Z</time>
      </trkpt>
      <trkpt lat="48.70065" lon="1.90619">
        <ele>187</ele>
        <time>2016-05-16T09:46:30Z</time>
      </trkpt>
      <trkpt lat="48.70069" lon="1.90604">
        <ele>168</ele>
        <time>2016-05-16T09:46:31Z</time>
      </trkpt>
      <trkpt lat="48.70066" lon="1.906">
        <ele>166</ele>
        <time>2016-05-16T09:46:34Z</time>
      </trkpt>
      <trkpt lat="48.70061" lon="1.90589">
        <ele>179</ele>
        <time>2016-05-16T09:46:35Z</time>
      </trkpt>
      <trkpt lat="48.70059" lon="1.9058">
        <ele>181</ele>
        <time>2016-05-16T09:46:45Z</time>
      </trkpt>
      <trkpt lat="48.70058" lon="1.90578">
        <ele>183</ele>
        <time>2016-05-16T09:46:46Z</time>
      </trkpt>
      <trkpt lat="48.70058" lon="1.90578">
        <ele>183</ele>
        <time>2016-05-16T09:46:46Z</time>
      </trkpt>
      <trkpt lat="48.70058" lon="1.90576">
        <ele>183</ele>
        <time>2016-05-16T09:46:47Z</time>
      </trkpt>
      <trkpt lat="48.70052" lon="1.90574">
        <ele>184</ele>
        <time>2016-05-16T09:46:53Z</time>
      </trkpt>
      <trkpt lat="48.70051" lon="1.90574">
        <ele>183</ele>
        <time>2016-05-16T09:46:54Z</time>
      </trkpt>
      <trkpt lat="48.70051" lon="1.90574">
        <ele>183</ele>
        <time>2016-05-16T09:46:54Z</time>
      </trkpt>
      <trkpt lat="48.7005" lon="1.90572">
        <ele>184</ele>
        <time>2016-05-16T09:46:55Z</time>
      </trkpt>
      <trkpt lat="48.70044" lon="1.90563">
        <ele>183</ele>
        <time>2016-05-16T09:47:01Z</time>
      </trkpt>
      <trkpt lat="48.70043" lon="1.90562">
        <ele>183</ele>
        <time>2016-05-16T09:47:02Z</time>
      </trkpt>
      <trkpt lat="48.70041" lon="1.90567">
        <ele>182</ele>
        <time>2016-05-16T09:47:06Z</time>
      </trkpt>
      <trkpt lat="48.70039" lon="1.90569">
        <ele>183</ele>
        <time>2016-05-16T09:47:07Z</time>
      </trkpt>
      <trkpt lat="48.70038" lon="1.90565">
        <ele>182</ele>
        <time>2016-05-16T09:47:09Z</time>
      </trkpt>
      <trkpt lat="48.70037" lon="1.90562">
        <ele>183</ele>
        <time>2016-05-16T09:47:10Z</time>
      </trkpt>
      <trkpt lat="48.70039" lon="1.9055">
        <ele>181</ele>
        <time>2016-05-16T09:47:20Z</time>
      </trkpt>
      <trkpt lat="48.7004" lon="1.90549">
        <ele>182</ele>
        <time>2016-05-16T09:47:20Z</time>
      </trkpt>
      <trkpt lat="48.70036" lon="1.90538">
        <ele>185</ele>
        <time>2016-05-16T09:47:31Z</time>
      </trkpt>
      <trkpt lat="48.70036" lon="1.90535">
        <ele>186</ele>
        <time>2016-05-16T09:47:32Z</time>
      </trkpt>
      <trkpt lat="48.70034" lon="1.90524">
        <ele>186</ele>
        <time>2016-05-16T09:47:39Z</time>
      </trkpt>
      <trkpt lat="48.70036" lon="1.90512">
        <ele>185</ele>
        <time>2016-05-16T09:47:40Z</time>
      </trkpt>
      <trkpt lat="48.70029" lon="1.90506">
        <ele>185</ele>
        <time>2016-05-16T09:47:41Z</time>
      </trkpt>
      <trkpt lat="48.70029" lon="1.90501">
        <ele>185</ele>
        <time>2016-05-16T09:47:42Z</time>
      </trkpt>
      <trkpt lat="48.7003" lon="1.90499">
        <ele>186</ele>
        <time>2016-05-16T09:47:43Z</time>
      </trkpt>
      <trkpt lat="48.7003" lon="1.905">
        <ele>187</ele>
        <time>2016-05-16T09:47:44Z</time>
      </trkpt>
      <trkpt lat="48.7003" lon="1.905">
        <ele>187</ele>
        <time>2016-05-16T09:47:44Z</time>
      </trkpt>
      <trkpt lat="48.70033" lon="1.90501">
        <ele>187</ele>
        <time>2016-05-16T09:47:45Z</time>
      </trkpt>
      <trkpt lat="48.70026" lon="1.90493">
        <ele>186</ele>
        <time>2016-05-16T09:47:52Z</time>
      </trkpt>
      <trkpt lat="48.70024" lon="1.90492">
        <ele>187</ele>
        <time>2016-05-16T09:47:53Z</time>
      </trkpt>
      <trkpt lat="48.70024" lon="1.90492">
        <ele>187</ele>
        <time>2016-05-16T09:47:53Z</time>
      </trkpt>
      <trkpt lat="48.70024" lon="1.90491">
        <ele>185</ele>
        <time>2016-05-16T09:47:54Z</time>
      </trkpt>
      <trkpt lat="48.70025" lon="1.9049">
        <ele>184</ele>
        <time>2016-05-16T09:47:55Z</time>
      </trkpt>
      <trkpt lat="48.70025" lon="1.90476">
        <ele>189</ele>
        <time>2016-05-16T09:48:03Z</time>
      </trkpt>
      <trkpt lat="48.70026" lon="1.90475">
        <ele>190</ele>
        <time>2016-05-16T09:48:04Z</time>
      </trkpt>
      <trkpt lat="48.70026" lon="1.90475">
        <ele>190</ele>
        <time>2016-05-16T09:48:04Z</time>
      </trkpt>
      <trkpt lat="48.70026" lon="1.90473">
        <ele>191</ele>
        <time>2016-05-16T09:48:05Z</time>
      </trkpt>
      <trkpt lat="48.70026" lon="1.90473">
        <ele>191</ele>
        <time>2016-05-16T09:48:05Z</time>
      </trkpt>
      <trkpt lat="48.70026" lon="1.90471">
        <ele>191</ele>
        <time>2016-05-16T09:48:06Z</time>
      </trkpt>
      <trkpt lat="48.70026" lon="1.9046">
        <ele>182</ele>
        <time>2016-05-16T09:48:17Z</time>
      </trkpt>
      <trkpt lat="48.70026" lon="1.90455">
        <ele>183</ele>
        <time>2016-05-16T09:48:18Z</time>
      </trkpt>
      <trkpt lat="48.70027" lon="1.90441">
        <ele>183</ele>
        <time>2016-05-16T09:48:25Z</time>
      </trkpt>
      <trkpt lat="48.70026" lon="1.90441">
        <ele>182</ele>
        <time>2016-05-16T09:48:26Z</time>
      </trkpt>
      <trkpt lat="48.70026" lon="1.90441">
        <ele>182</ele>
        <time>2016-05-16T09:48:26Z</time>
      </trkpt>
      <trkpt lat="48.70027" lon="1.90442">
        <ele>182</ele>
        <time>2016-05-16T09:48:27Z</time>
      </trkpt>
      <trkpt lat="48.70027" lon="1.90442">
        <ele>182</ele>
        <time>2016-05-16T09:48:27Z</time>
      </trkpt>
      <trkpt lat="48.70029" lon="1.90441">
        <ele>181</ele>
        <time>2016-05-16T09:48:28Z</time>
      </trkpt>
      <trkpt lat="48.70024" lon="1.90433">
        <ele>180</ele>
        <time>2016-05-16T09:48:34Z</time>
      </trkpt>
      <trkpt lat="48.70023" lon="1.90431">
        <ele>180</ele>
        <time>2016-05-16T09:48:35Z</time>
      </trkpt>
      <trkpt lat="48.70023" lon="1.90431">
        <ele>180</ele>
        <time>2016-05-16T09:48:35Z</time>
      </trkpt>
      <trkpt lat="48.70023" lon="1.90429">
        <ele>182</ele>
        <time>2016-05-16T09:48:36Z</time>
      </trkpt>
      <trkpt lat="48.7002" lon="1.90424">
        <ele>181</ele>
        <time>2016-05-16T09:48:39Z</time>
      </trkpt>
      <trkpt lat="48.70019" lon="1.90422">
        <ele>181</ele>
        <time>2016-05-16T09:48:40Z</time>
      </trkpt>
      <trkpt lat="48.70019" lon="1.90422">
        <ele>181</ele>
        <time>2016-05-16T09:48:40Z</time>
      </trkpt>
      <trkpt lat="48.70021" lon="1.90421">
        <ele>179</ele>
        <time>2016-05-16T09:48:41Z</time>
      </trkpt>
      <trkpt lat="48.70014" lon="1.90414">
        <ele>177</ele>
        <time>2016-05-16T09:48:46Z</time>
      </trkpt>
      <trkpt lat="48.70013" lon="1.90411">
        <ele>178</ele>
        <time>2016-05-16T09:48:47Z</time>
      </trkpt>
      <trkpt lat="48.70011" lon="1.90399">
        <ele>180</ele>
        <time>2016-05-16T09:48:55Z</time>
      </trkpt>
      <trkpt lat="48.70011" lon="1.90397">
        <ele>181</ele>
        <time>2016-05-16T09:48:56Z</time>
      </trkpt>
      <trkpt lat="48.70011" lon="1.90397">
        <ele>181</ele>
        <time>2016-05-16T09:48:56Z</time>
      </trkpt>
      <trkpt lat="48.7001" lon="1.90384">
        <ele>184</ele>
        <time>2016-05-16T09:49:11Z</time>
      </trkpt>
      <trkpt lat="48.7001" lon="1.90383">
        <ele>184</ele>
        <time>2016-05-16T09:49:12Z</time>
      </trkpt>
      <trkpt lat="48.70005" lon="1.90373">
        <ele>184</ele>
        <time>2016-05-16T09:49:27Z</time>
      </trkpt>
      <trkpt lat="48.70004" lon="1.90371">
        <ele>186</ele>
        <time>2016-05-16T09:49:28Z</time>
      </trkpt>
      <trkpt lat="48.70006" lon="1.90359">
        <ele>179</ele>
        <time>2016-05-16T09:49:33Z</time>
      </trkpt>
      <trkpt lat="48.70004" lon="1.90355">
        <ele>178</ele>
        <time>2016-05-16T09:49:34Z</time>
      </trkpt>
      <trkpt lat="48.70004" lon="1.90354">
        <ele>177</ele>
        <time>2016-05-16T09:49:36Z</time>
      </trkpt>
      <trkpt lat="48.70003" lon="1.90352">
        <ele>178</ele>
        <time>2016-05-16T09:49:37Z</time>
      </trkpt>
      <trkpt lat="48.70004" lon="1.90349">
        <ele>176</ele>
        <time>2016-05-16T09:49:39Z</time>
      </trkpt>
      <trkpt lat="48.70003" lon="1.90348">
        <ele>176</ele>
        <time>2016-05-16T09:49:40Z</time>
      </trkpt>
      <trkpt lat="48.7" lon="1.90337">
        <ele>177</ele>
        <time>2016-05-16T09:49:44Z</time>
      </trkpt>
      <trkpt lat="48.7" lon="1.90334">
        <ele>177</ele>
        <time>2016-05-16T09:49:45Z</time>
      </trkpt>
      <trkpt lat="48.70003" lon="1.90324">
        <ele>177</ele>
        <time>2016-05-16T09:49:49Z</time>
      </trkpt>
      <trkpt lat="48.70003" lon="1.90321">
        <ele>178</ele>
        <time>2016-05-16T09:49:50Z</time>
      </trkpt>
      <trkpt lat="48.70003" lon="1.90309">
        <ele>176</ele>
        <time>2016-05-16T09:49:56Z</time>
      </trkpt>
      <trkpt lat="48.70002" lon="1.90305">
        <ele>174</ele>
        <time>2016-05-16T09:49:57Z</time>
      </trkpt>
      <trkpt lat="48.70003" lon="1.90293">
        <ele>176</ele>
        <time>2016-05-16T09:50:03Z</time>
      </trkpt>
      <trkpt lat="48.70001" lon="1.9029">
        <ele>176</ele>
        <time>2016-05-16T09:50:04Z</time>
      </trkpt>
      <trkpt lat="48.70006" lon="1.90281">
        <ele>168</ele>
        <time>2016-05-16T09:50:11Z</time>
      </trkpt>
      <trkpt lat="48.70008" lon="1.9028">
        <ele>168</ele>
        <time>2016-05-16T09:50:12Z</time>
      </trkpt>
      <trkpt lat="48.70008" lon="1.9028">
        <ele>168</ele>
        <time>2016-05-16T09:50:12Z</time>
      </trkpt>
      <trkpt lat="48.70006" lon="1.90277">
        <ele>169</ele>
        <time>2016-05-16T09:50:13Z</time>
      </trkpt>
      <trkpt lat="48.70006" lon="1.90277">
        <ele>169</ele>
        <time>2016-05-16T09:50:13Z</time>
      </trkpt>
      <trkpt lat="48.70006" lon="1.90272">
        <ele>170</ele>
        <time>2016-05-16T09:50:14Z</time>
      </trkpt>
      <trkpt lat="48.7001" lon="1.90261">
        <ele>171</ele>
        <time>2016-05-16T09:50:18Z</time>
      </trkpt>
      <trkpt lat="48.70009" lon="1.90257">
        <ele>170</ele>
        <time>2016-05-16T09:50:19Z</time>
      </trkpt>
      <trkpt lat="48.70009" lon="1.90244">
        <ele>177</ele>
        <time>2016-05-16T09:50:25Z</time>
      </trkpt>
      <trkpt lat="48.7001" lon="1.90241">
        <ele>178</ele>
        <time>2016-05-16T09:50:26Z</time>
      </trkpt>
      <trkpt lat="48.7001" lon="1.90229">
        <ele>178</ele>
        <time>2016-05-16T09:50:31Z</time>
      </trkpt>
      <trkpt lat="48.7001" lon="1.90225">
        <ele>176</ele>
        <time>2016-05-16T09:50:32Z</time>
      </trkpt>
      <trkpt lat="48.70011" lon="1.90219">
        <ele>175</ele>
        <time>2016-05-16T09:50:34Z</time>
      </trkpt>
      <trkpt lat="48.70011" lon="1.90219">
        <ele>175</ele>
        <time>2016-05-16T09:50:35Z</time>
      </trkpt>
      <trkpt lat="48.7001" lon="1.90216">
        <ele>175</ele>
        <time>2016-05-16T09:50:37Z</time>
      </trkpt>
      <trkpt lat="48.70011" lon="1.90214">
        <ele>176</ele>
        <time>2016-05-16T09:50:38Z</time>
      </trkpt>
      <trkpt lat="48.7001" lon="1.90203">
        <ele>179</ele>
        <time>2016-05-16T09:50:42Z</time>
      </trkpt>
      <trkpt lat="48.7001" lon="1.902">
        <ele>178</ele>
        <time>2016-05-16T09:50:43Z</time>
      </trkpt>
      <trkpt lat="48.70013" lon="1.9019">
        <ele>176</ele>
        <time>2016-05-16T09:50:52Z</time>
      </trkpt>
      <trkpt lat="48.70013" lon="1.90188">
        <ele>176</ele>
        <time>2016-05-16T09:50:53Z</time>
      </trkpt>
      <trkpt lat="48.70015" lon="1.90187">
        <ele>173</ele>
        <time>2016-05-16T09:50:54Z</time>
      </trkpt>
      <trkpt lat="48.70014" lon="1.90187">
        <ele>173</ele>
        <time>2016-05-16T09:50:55Z</time>
      </trkpt>
      <trkpt lat="48.70014" lon="1.90182">
        <ele>174</ele>
        <time>2016-05-16T09:50:59Z</time>
      </trkpt>
      <trkpt lat="48.70014" lon="1.90181">
        <ele>172</ele>
        <time>2016-05-16T09:51:00Z</time>
      </trkpt>
      <trkpt lat="48.70014" lon="1.90181">
        <ele>172</ele>
        <time>2016-05-16T09:51:00Z</time>
      </trkpt>
      <trkpt lat="48.70015" lon="1.90179">
        <ele>173</ele>
        <time>2016-05-16T09:51:01Z</time>
      </trkpt>
      <trkpt lat="48.70016" lon="1.90167">
        <ele>172</ele>
        <time>2016-05-16T09:51:08Z</time>
      </trkpt>
      <trkpt lat="48.70014" lon="1.90165">
        <ele>172</ele>
        <time>2016-05-16T09:51:09Z</time>
      </trkpt>
      <trkpt lat="48.70017" lon="1.90154">
        <ele>175</ele>
        <time>2016-05-16T09:51:14Z</time>
      </trkpt>
      <trkpt lat="48.70018" lon="1.90153">
        <ele>174</ele>
        <time>2016-05-16T09:51:15Z</time>
      </trkpt>
      <trkpt lat="48.70017" lon="1.90148">
        <ele>176</ele>
        <time>2016-05-16T09:51:17Z</time>
      </trkpt>
      <trkpt lat="48.70016" lon="1.90146">
        <ele>174</ele>
        <time>2016-05-16T09:51:18Z</time>
      </trkpt>
      <trkpt lat="48.70016" lon="1.90146">
        <ele>174</ele>
        <time>2016-05-16T09:51:18Z</time>
      </trkpt>
      <trkpt lat="48.70016" lon="1.90145">
        <ele>174</ele>
        <time>2016-05-16T09:51:19Z</time>
      </trkpt>
      <trkpt lat="48.70013" lon="1.90133">
        <ele>174</ele>
        <time>2016-05-16T09:51:29Z</time>
      </trkpt>
      <trkpt lat="48.70013" lon="1.90132">
        <ele>175</ele>
        <time>2016-05-16T09:51:30Z</time>
      </trkpt>
      <trkpt lat="48.70011" lon="1.90119">
        <ele>176</ele>
        <time>2016-05-16T09:51:56Z</time>
      </trkpt>
      <trkpt lat="48.70011" lon="1.90117">
        <ele>174</ele>
        <time>2016-05-16T09:51:57Z</time>
      </trkpt>
      <trkpt lat="48.70011" lon="1.90104">
        <ele>168</ele>
        <time>2016-05-16T09:52:03Z</time>
      </trkpt>
      <trkpt lat="48.70011" lon="1.90101">
        <ele>166</ele>
        <time>2016-05-16T09:52:04Z</time>
      </trkpt>
      <trkpt lat="48.70013" lon="1.90089">
        <ele>166</ele>
        <time>2016-05-16T09:52:09Z</time>
      </trkpt>
      <trkpt lat="48.70013" lon="1.90087">
        <ele>165</ele>
        <time>2016-05-16T09:52:10Z</time>
      </trkpt>
      <trkpt lat="48.70013" lon="1.90086">
        <ele>167</ele>
        <time>2016-05-16T09:52:11Z</time>
      </trkpt>
      <trkpt lat="48.70012" lon="1.90083">
        <ele>168</ele>
        <time>2016-05-16T09:52:12Z</time>
      </trkpt>
      <trkpt lat="48.70012" lon="1.90083">
        <ele>168</ele>
        <time>2016-05-16T09:52:12Z</time>
      </trkpt>
      <trkpt lat="48.70012" lon="1.90079">
        <ele>167</ele>
        <time>2016-05-16T09:52:13Z</time>
      </trkpt>
      <trkpt lat="48.70013" lon="1.90079">
        <ele>166</ele>
        <time>2016-05-16T09:52:14Z</time>
      </trkpt>
      <trkpt lat="48.70011" lon="1.90077">
        <ele>167</ele>
        <time>2016-05-16T09:52:15Z</time>
      </trkpt>
      <trkpt lat="48.70011" lon="1.90077">
        <ele>167</ele>
        <time>2016-05-16T09:52:15Z</time>
      </trkpt>
      <trkpt lat="48.70012" lon="1.90074">
        <ele>167</ele>
        <time>2016-05-16T09:52:16Z</time>
      </trkpt>
      <trkpt lat="48.7001" lon="1.90064">
        <ele>166</ele>
        <time>2016-05-16T09:52:20Z</time>
      </trkpt>
      <trkpt lat="48.70012" lon="1.90062">
        <ele>167</ele>
        <time>2016-05-16T09:52:21Z</time>
      </trkpt>
      <trkpt lat="48.70009" lon="1.90049">
        <ele>169</ele>
        <time>2016-05-16T09:52:28Z</time>
      </trkpt>
      <trkpt lat="48.70009" lon="1.90047">
        <ele>169</ele>
        <time>2016-05-16T09:52:29Z</time>
      </trkpt>
      <trkpt lat="48.70004" lon="1.90035">
        <ele>174</ele>
        <time>2016-05-16T09:52:40Z</time>
      </trkpt>
      <trkpt lat="48.70005" lon="1.90031">
        <ele>174</ele>
        <time>2016-05-16T09:52:41Z</time>
      </trkpt>
      <trkpt lat="48.70007" lon="1.90021">
        <ele>175</ele>
        <time>2016-05-16T09:52:43Z</time>
      </trkpt>
      <trkpt lat="48.70005" lon="1.90017">
        <ele>175</ele>
        <time>2016-05-16T09:52:44Z</time>
      </trkpt>
      <trkpt lat="48.70002" lon="1.90009">
        <ele>175</ele>
        <time>2016-05-16T09:52:45Z</time>
      </trkpt>
      <trkpt lat="48.70001" lon="1.90002">
        <ele>175</ele>
        <time>2016-05-16T09:52:46Z</time>
      </trkpt>
      <trkpt lat="48.70006" lon="1.89991">
        <ele>175</ele>
        <time>2016-05-16T09:52:51Z</time>
      </trkpt>
      <trkpt lat="48.70007" lon="1.89988">
        <ele>175</ele>
        <time>2016-05-16T09:52:52Z</time>
      </trkpt>
      <trkpt lat="48.70009" lon="1.89976">
        <ele>178</ele>
        <time>2016-05-16T09:52:57Z</time>
      </trkpt>
      <trkpt lat="48.7001" lon="1.89973">
        <ele>179</ele>
        <time>2016-05-16T09:52:58Z</time>
      </trkpt>
      <trkpt lat="48.70008" lon="1.89961">
        <ele>180</ele>
        <time>2016-05-16T09:53:03Z</time>
      </trkpt>
      <trkpt lat="48.70006" lon="1.89959">
        <ele>180</ele>
        <time>2016-05-16T09:53:04Z</time>
      </trkpt>
      <trkpt lat="48.70009" lon="1.89947">
        <ele>182</ele>
        <time>2016-05-16T09:53:10Z</time>
      </trkpt>
      <trkpt lat="48.70009" lon="1.89944">
        <ele>183</ele>
        <time>2016-05-16T09:53:11Z</time>
      </trkpt>
      <trkpt lat="48.70011" lon="1.89931">
        <ele>180</ele>
        <time>2016-05-16T09:53:17Z</time>
      </trkpt>
      <trkpt lat="48.70011" lon="1.8993">
        <ele>181</ele>
        <time>2016-05-16T09:53:18Z</time>
      </trkpt>
      <trkpt lat="48.7001" lon="1.89917">
        <ele>181</ele>
        <time>2016-05-16T09:53:24Z</time>
      </trkpt>
      <trkpt lat="48.7001" lon="1.89916">
        <ele>181</ele>
        <time>2016-05-16T09:53:25Z</time>
      </trkpt>
      <trkpt lat="48.7001" lon="1.89916">
        <ele>181</ele>
        <time>2016-05-16T09:53:25Z</time>
      </trkpt>
      <trkpt lat="48.7001" lon="1.89916">
        <ele>181</ele>
        <time>2016-05-16T09:53:26Z</time>
      </trkpt>
      <trkpt lat="48.7001" lon="1.89916">
        <ele>181</ele>
        <time>2016-05-16T09:53:26Z</time>
      </trkpt>
      <trkpt lat="48.7001" lon="1.89914">
        <ele>182</ele>
        <time>2016-05-16T09:53:27Z</time>
      </trkpt>
      <trkpt lat="48.7001" lon="1.89914">
        <ele>182</ele>
        <time>2016-05-16T09:53:27Z</time>
      </trkpt>
      <trkpt lat="48.7001" lon="1.89913">
        <ele>182</ele>
        <time>2016-05-16T09:53:28Z</time>
      </trkpt>
      <trkpt lat="48.7001" lon="1.89913">
        <ele>182</ele>
        <time>2016-05-16T09:53:28Z</time>
      </trkpt>
      <trkpt lat="48.70011" lon="1.8991">
        <ele>180</ele>
        <time>2016-05-16T09:53:29Z</time>
      </trkpt>
      <trkpt lat="48.70017" lon="1.89903">
        <ele>180</ele>
        <time>2016-05-16T09:53:35Z</time>
      </trkpt>
      <trkpt lat="48.70018" lon="1.899">
        <ele>181</ele>
        <time>2016-05-16T09:53:36Z</time>
      </trkpt>
      <trkpt lat="48.70023" lon="1.89894">
        <ele>179</ele>
        <time>2016-05-16T09:53:42Z</time>
      </trkpt>
      <trkpt lat="48.70027" lon="1.8989">
        <ele>180</ele>
        <time>2016-05-16T09:53:43Z</time>
      </trkpt>
      <trkpt lat="48.70034" lon="1.89887">
        <ele>185</ele>
        <time>2016-05-16T09:53:46Z</time>
      </trkpt>
      <trkpt lat="48.70036" lon="1.89887">
        <ele>186</ele>
        <time>2016-05-16T09:53:47Z</time>
      </trkpt>
      <trkpt lat="48.70041" lon="1.8988">
        <ele>187</ele>
        <time>2016-05-16T09:53:54Z</time>
      </trkpt>
      <trkpt lat="48.70042" lon="1.89881">
        <ele>186</ele>
        <time>2016-05-16T09:53:55Z</time>
      </trkpt>
      <trkpt lat="48.70041" lon="1.8988">
        <ele>186</ele>
        <time>2016-05-16T09:53:56Z</time>
      </trkpt>
      <trkpt lat="48.70041" lon="1.89877">
        <ele>186</ele>
        <time>2016-05-16T09:53:57Z</time>
      </trkpt>
      <trkpt lat="48.7004" lon="1.89876">
        <ele>186</ele>
        <time>2016-05-16T09:53:59Z</time>
      </trkpt>
      <trkpt lat="48.70042" lon="1.89876">
        <ele>185</ele>
        <time>2016-05-16T09:54:00Z</time>
      </trkpt>
      <trkpt lat="48.70044" lon="1.89878">
        <ele>184</ele>
        <time>2016-05-16T09:54:02Z</time>
      </trkpt>
      <trkpt lat="48.70044" lon="1.89876">
        <ele>184</ele>
        <time>2016-05-16T09:54:03Z</time>
      </trkpt>
      <trkpt lat="48.70043" lon="1.89875">
        <ele>185</ele>
        <time>2016-05-16T09:54:04Z</time>
      </trkpt>
      <trkpt lat="48.70045" lon="1.89874">
        <ele>187</ele>
        <time>2016-05-16T09:54:05Z</time>
      </trkpt>
      <trkpt lat="48.70045" lon="1.89874">
        <ele>187</ele>
        <time>2016-05-16T09:54:05Z</time>
      </trkpt>
      <trkpt lat="48.70045" lon="1.89873">
        <ele>186</ele>
        <time>2016-05-16T09:54:06Z</time>
      </trkpt>
      <trkpt lat="48.70051" lon="1.89867">
        <ele>185</ele>
        <time>2016-05-16T09:54:12Z</time>
      </trkpt>
      <trkpt lat="48.70054" lon="1.89866">
        <ele>183</ele>
        <time>2016-05-16T09:54:13Z</time>
      </trkpt>
      <trkpt lat="48.70061" lon="1.8986">
        <ele>184</ele>
        <time>2016-05-16T09:54:18Z</time>
      </trkpt>
      <trkpt lat="48.70064" lon="1.89858">
        <ele>185</ele>
        <time>2016-05-16T09:54:19Z</time>
      </trkpt>
      <trkpt lat="48.70064" lon="1.89845">
        <ele>183</ele>
        <time>2016-05-16T09:54:23Z</time>
      </trkpt>
      <trkpt lat="48.70066" lon="1.89844">
        <ele>183</ele>
        <time>2016-05-16T09:54:24Z</time>
      </trkpt>
      <trkpt lat="48.70072" lon="1.89836">
        <ele>183</ele>
        <time>2016-05-16T09:54:28Z</time>
      </trkpt>
      <trkpt lat="48.70073" lon="1.89834">
        <ele>183</ele>
        <time>2016-05-16T09:54:29Z</time>
      </trkpt>
      <trkpt lat="48.70079" lon="1.89831">
        <ele>185</ele>
        <time>2016-05-16T09:54:35Z</time>
      </trkpt>
      <trkpt lat="48.70081" lon="1.89831">
        <ele>186</ele>
        <time>2016-05-16T09:54:36Z</time>
      </trkpt>
      <trkpt lat="48.70084" lon="1.89832">
        <ele>187</ele>
        <time>2016-05-16T09:54:39Z</time>
      </trkpt>
      <trkpt lat="48.70086" lon="1.89828">
        <ele>188</ele>
        <time>2016-05-16T09:54:40Z</time>
      </trkpt>
      <trkpt lat="48.70086" lon="1.89828">
        <ele>188</ele>
        <time>2016-05-16T09:54:40Z</time>
      </trkpt>
      <trkpt lat="48.70086" lon="1.89827">
        <ele>189</ele>
        <time>2016-05-16T09:54:41Z</time>
      </trkpt>
      <trkpt lat="48.70092" lon="1.89819">
        <ele>188</ele>
        <time>2016-05-16T09:54:45Z</time>
      </trkpt>
      <trkpt lat="48.70095" lon="1.89816">
        <ele>189</ele>
        <time>2016-05-16T09:54:46Z</time>
      </trkpt>
      <trkpt lat="48.70094" lon="1.89804">
        <ele>191</ele>
        <time>2016-05-16T09:54:51Z</time>
      </trkpt>
      <trkpt lat="48.70093" lon="1.89801">
        <ele>191</ele>
        <time>2016-05-16T09:54:52Z</time>
      </trkpt>
      <trkpt lat="48.70092" lon="1.89788">
        <ele>181</ele>
        <time>2016-05-16T09:55:10Z</time>
      </trkpt>
      <trkpt lat="48.70091" lon="1.89787">
        <ele>181</ele>
        <time>2016-05-16T09:55:11Z</time>
      </trkpt>
      <trkpt lat="48.70096" lon="1.89776">
        <ele>179</ele>
        <time>2016-05-16T09:55:19Z</time>
      </trkpt>
      <trkpt lat="48.70096" lon="1.89773">
        <ele>180</ele>
        <time>2016-05-16T09:55:20Z</time>
      </trkpt>
      <trkpt lat="48.70101" lon="1.89766">
        <ele>178</ele>
        <time>2016-05-16T09:55:26Z</time>
      </trkpt>
      <trkpt lat="48.70105" lon="1.89765">
        <ele>178</ele>
        <time>2016-05-16T09:55:27Z</time>
      </trkpt>
      <trkpt lat="48.70107" lon="1.89763">
        <ele>177</ele>
        <time>2016-05-16T09:55:29Z</time>
      </trkpt>
      <trkpt lat="48.70109" lon="1.89764">
        <ele>176</ele>
        <time>2016-05-16T09:55:30Z</time>
      </trkpt>
      <trkpt lat="48.70109" lon="1.89764">
        <ele>176</ele>
        <time>2016-05-16T09:55:30Z</time>
      </trkpt>
      <trkpt lat="48.70109" lon="1.89763">
        <ele>176</ele>
        <time>2016-05-16T09:55:31Z</time>
      </trkpt>
      <trkpt lat="48.70112" lon="1.89762">
        <ele>175</ele>
        <time>2016-05-16T09:55:33Z</time>
      </trkpt>
      <trkpt lat="48.70111" lon="1.8976">
        <ele>177</ele>
        <time>2016-05-16T09:55:34Z</time>
      </trkpt>
      <trkpt lat="48.70111" lon="1.8976">
        <ele>177</ele>
        <time>2016-05-16T09:55:34Z</time>
      </trkpt>
      <trkpt lat="48.70112" lon="1.89761">
        <ele>177</ele>
        <time>2016-05-16T09:55:35Z</time>
      </trkpt>
      <trkpt lat="48.70119" lon="1.89756">
        <ele>179</ele>
        <time>2016-05-16T09:56:12Z</time>
      </trkpt>
      <trkpt lat="48.70122" lon="1.89754">
        <ele>180</ele>
        <time>2016-05-16T09:56:13Z</time>
      </trkpt>
      <trkpt lat="48.70124" lon="1.89754">
        <ele>181</ele>
        <time>2016-05-16T09:56:15Z</time>
      </trkpt>
      <trkpt lat="48.70127" lon="1.89756">
        <ele>182</ele>
        <time>2016-05-16T09:56:16Z</time>
      </trkpt>
      <trkpt lat="48.70127" lon="1.89756">
        <ele>182</ele>
        <time>2016-05-16T09:56:16Z</time>
      </trkpt>
      <trkpt lat="48.70128" lon="1.89755">
        <ele>183</ele>
        <time>2016-05-16T09:56:17Z</time>
      </trkpt>
      <trkpt lat="48.70137" lon="1.89753">
        <ele>186</ele>
        <time>2016-05-16T09:56:21Z</time>
      </trkpt>
      <trkpt lat="48.70138" lon="1.89754">
        <ele>187</ele>
        <time>2016-05-16T09:56:22Z</time>
      </trkpt>
      <trkpt lat="48.70142" lon="1.89746">
        <ele>186</ele>
        <time>2016-05-16T09:56:29Z</time>
      </trkpt>
      <trkpt lat="48.70142" lon="1.8974">
        <ele>187</ele>
        <time>2016-05-16T09:56:30Z</time>
      </trkpt>
      <trkpt lat="48.70147" lon="1.89731">
        <ele>185</ele>
        <time>2016-05-16T09:56:34Z</time>
      </trkpt>
      <trkpt lat="48.70152" lon="1.89734">
        <ele>185</ele>
        <time>2016-05-16T09:56:35Z</time>
      </trkpt>
      <trkpt lat="48.70158" lon="1.89734">
        <ele>185</ele>
        <time>2016-05-16T09:56:37Z</time>
      </trkpt>
      <trkpt lat="48.70163" lon="1.89735">
        <ele>186</ele>
        <time>2016-05-16T09:56:38Z</time>
      </trkpt>
      <trkpt lat="48.70167" lon="1.89727">
        <ele>184</ele>
        <time>2016-05-16T09:56:42Z</time>
      </trkpt>
      <trkpt lat="48.70171" lon="1.89729">
        <ele>184</ele>
        <time>2016-05-16T09:56:43Z</time>
      </trkpt>
      <trkpt lat="48.70179" lon="1.89722">
        <ele>184</ele>
        <time>2016-05-16T09:56:48Z</time>
      </trkpt>
      <trkpt lat="48.70181" lon="1.89718">
        <ele>185</ele>
        <time>2016-05-16T09:56:49Z</time>
      </trkpt>
      <trkpt lat="48.70181" lon="1.89718">
        <ele>185</ele>
        <time>2016-05-16T09:56:49Z</time>
      </trkpt>
      <trkpt lat="48.70182" lon="1.89716">
        <ele>185</ele>
        <time>2016-05-16T09:56:50Z</time>
      </trkpt>
      <trkpt lat="48.70182" lon="1.89716">
        <ele>185</ele>
        <time>2016-05-16T09:56:50Z</time>
      </trkpt>
      <trkpt lat="48.70185" lon="1.89715">
        <ele>186</ele>
        <time>2016-05-16T09:56:51Z</time>
      </trkpt>
      <trkpt lat="48.70189" lon="1.89704">
        <ele>185</ele>
        <time>2016-05-16T09:56:55Z</time>
      </trkpt>
      <trkpt lat="48.70191" lon="1.89701">
        <ele>186</ele>
        <time>2016-05-16T09:56:56Z</time>
      </trkpt>
      <trkpt lat="48.70199" lon="1.89696">
        <ele>189</ele>
        <time>2016-05-16T09:57:01Z</time>
      </trkpt>
      <trkpt lat="48.702" lon="1.89691">
        <ele>188</ele>
        <time>2016-05-16T09:57:02Z</time>
      </trkpt>
      <trkpt lat="48.70203" lon="1.89683">
        <ele>188</ele>
        <time>2016-05-16T09:57:06Z</time>
      </trkpt>
      <trkpt lat="48.70204" lon="1.89681">
        <ele>189</ele>
        <time>2016-05-16T09:57:07Z</time>
      </trkpt>
      <trkpt lat="48.70204" lon="1.89676">
        <ele>190</ele>
        <time>2016-05-16T09:57:08Z</time>
      </trkpt>
      <trkpt lat="48.70205" lon="1.89675">
        <ele>189</ele>
        <time>2016-05-16T09:57:09Z</time>
      </trkpt>
      <trkpt lat="48.7021" lon="1.89668">
        <ele>192</ele>
        <time>2016-05-16T09:57:18Z</time>
      </trkpt>
      <trkpt lat="48.70212" lon="1.89665">
        <ele>192</ele>
        <time>2016-05-16T09:57:19Z</time>
      </trkpt>
      <trkpt lat="48.70218" lon="1.89657">
        <ele>192</ele>
        <time>2016-05-16T09:57:24Z</time>
      </trkpt>
      <trkpt lat="48.70219" lon="1.89656">
        <ele>192</ele>
        <time>2016-05-16T09:57:25Z</time>
      </trkpt>
      <trkpt lat="48.70227" lon="1.89652">
        <ele>196</ele>
        <time>2016-05-16T09:57:31Z</time>
      </trkpt>
      <trkpt lat="48.70229" lon="1.89653">
        <ele>196</ele>
        <time>2016-05-16T09:57:32Z</time>
      </trkpt>
      <trkpt lat="48.70233" lon="1.89643">
        <ele>197</ele>
        <time>2016-05-16T09:57:36Z</time>
      </trkpt>
      <trkpt lat="48.70234" lon="1.89639">
        <ele>197</ele>
        <time>2016-05-16T09:57:37Z</time>
      </trkpt>
      <trkpt lat="48.70242" lon="1.89633">
        <ele>194</ele>
        <time>2016-05-16T09:57:45Z</time>
      </trkpt>
      <trkpt lat="48.70244" lon="1.89635">
        <ele>194</ele>
        <time>2016-05-16T09:57:46Z</time>
      </trkpt>
      <trkpt lat="48.70249" lon="1.89628">
        <ele>193</ele>
        <time>2016-05-16T09:57:51Z</time>
      </trkpt>
      <trkpt lat="48.70252" lon="1.89625">
        <ele>193</ele>
        <time>2016-05-16T09:57:52Z</time>
      </trkpt>
      <trkpt lat="48.70256" lon="1.89616">
        <ele>194</ele>
        <time>2016-05-16T09:57:58Z</time>
      </trkpt>
      <trkpt lat="48.70257" lon="1.89613">
        <ele>194</ele>
        <time>2016-05-16T09:57:59Z</time>
      </trkpt>
      <trkpt lat="48.70262" lon="1.89603">
        <ele>193</ele>
        <time>2016-05-16T09:58:06Z</time>
      </trkpt>
      <trkpt lat="48.70264" lon="1.89602">
        <ele>193</ele>
        <time>2016-05-16T09:58:07Z</time>
      </trkpt>
      <trkpt lat="48.70264" lon="1.89602">
        <ele>193</ele>
        <time>2016-05-16T09:58:07Z</time>
      </trkpt>
      <trkpt lat="48.70264" lon="1.89602">
        <ele>193</ele>
        <time>2016-05-16T09:58:08Z</time>
      </trkpt>
      <trkpt lat="48.70264" lon="1.89602">
        <ele>193</ele>
        <time>2016-05-16T09:58:08Z</time>
      </trkpt>
      <trkpt lat="48.70263" lon="1.89601">
        <ele>194</ele>
        <time>2016-05-16T09:58:09Z</time>
      </trkpt>
      <trkpt lat="48.70263" lon="1.89601">
        <ele>194</ele>
        <time>2016-05-16T09:58:11Z</time>
      </trkpt>
      <trkpt lat="48.70265" lon="1.89601">
        <ele>193</ele>
        <time>2016-05-16T09:58:12Z</time>
      </trkpt>
      <trkpt lat="48.70265" lon="1.89601">
        <ele>193</ele>
        <time>2016-05-16T09:58:12Z</time>
      </trkpt>
      <trkpt lat="48.70266" lon="1.89599">
        <ele>193</ele>
        <time>2016-05-16T09:58:13Z</time>
      </trkpt>
      <trkpt lat="48.70268" lon="1.89586">
        <ele>191</ele>
        <time>2016-05-16T09:58:19Z</time>
      </trkpt>
      <trkpt lat="48.70272" lon="1.89586">
        <ele>192</ele>
        <time>2016-05-16T09:58:20Z</time>
      </trkpt>
      <trkpt lat="48.70272" lon="1.89586">
        <ele>192</ele>
        <time>2016-05-16T09:58:20Z</time>
      </trkpt>
      <trkpt lat="48.70272" lon="1.89585">
        <ele>192</ele>
        <time>2016-05-16T09:58:21Z</time>
      </trkpt>
      <trkpt lat="48.70272" lon="1.89585">
        <ele>192</ele>
        <time>2016-05-16T09:58:21Z</time>
      </trkpt>
      <trkpt lat="48.70273" lon="1.89585">
        <ele>192</ele>
        <time>2016-05-16T09:58:22Z</time>
      </trkpt>
      <trkpt lat="48.7028" lon="1.89581">
        <ele>191</ele>
        <time>2016-05-16T09:58:29Z</time>
      </trkpt>
      <trkpt lat="48.70281" lon="1.89579">
        <ele>191</ele>
        <time>2016-05-16T09:58:30Z</time>
      </trkpt>
      <trkpt lat="48.70288" lon="1.89573">
        <ele>188</ele>
        <time>2016-05-16T09:58:37Z</time>
      </trkpt>
      <trkpt lat="48.70289" lon="1.89572">
        <ele>188</ele>
        <time>2016-05-16T09:58:38Z</time>
      </trkpt>
      <trkpt lat="48.70294" lon="1.89575">
        <ele>187</ele>
        <time>2016-05-16T09:58:44Z</time>
      </trkpt>
      <trkpt lat="48.70298" lon="1.89574">
        <ele>188</ele>
        <time>2016-05-16T09:58:45Z</time>
      </trkpt>
      <trkpt lat="48.70306" lon="1.89572">
        <ele>184</ele>
        <time>2016-05-16T09:58:57Z</time>
      </trkpt>
      <trkpt lat="48.70309" lon="1.89571">
        <ele>185</ele>
        <time>2016-05-16T09:58:58Z</time>
      </trkpt>
      <trkpt lat="48.70313" lon="1.89561">
        <ele>186</ele>
        <time>2016-05-16T09:59:02Z</time>
      </trkpt>
      <trkpt lat="48.70314" lon="1.89559">
        <ele>186</ele>
        <time>2016-05-16T09:59:03Z</time>
      </trkpt>
      <trkpt lat="48.7032" lon="1.8955">
        <ele>189</ele>
        <time>2016-05-16T09:59:11Z</time>
      </trkpt>
      <trkpt lat="48.70324" lon="1.89552">
        <ele>189</ele>
        <time>2016-05-16T09:59:12Z</time>
      </trkpt>
      <trkpt lat="48.70329" lon="1.89542">
        <ele>194</ele>
        <time>2016-05-16T09:59:20Z</time>
      </trkpt>
      <trkpt lat="48.70329" lon="1.89538">
        <ele>192</ele>
        <time>2016-05-16T09:59:21Z</time>
      </trkpt>
      <trkpt lat="48.70335" lon="1.89532">
        <ele>193</ele>
        <time>2016-05-16T09:59:25Z</time>
      </trkpt>
      <trkpt lat="48.70335" lon="1.89532">
        <ele>192</ele>
        <time>2016-05-16T09:59:26Z</time>
      </trkpt>
      <trkpt lat="48.70335" lon="1.89532">
        <ele>192</ele>
        <time>2016-05-16T09:59:26Z</time>
      </trkpt>
      <trkpt lat="48.70335" lon="1.8953">
        <ele>193</ele>
        <time>2016-05-16T09:59:27Z</time>
      </trkpt>
      <trkpt lat="48.70335" lon="1.89517">
        <ele>197</ele>
        <time>2016-05-16T09:59:52Z</time>
      </trkpt>
      <trkpt lat="48.70335" lon="1.89516">
        <ele>197</ele>
        <time>2016-05-16T09:59:53Z</time>
      </trkpt>
      <trkpt lat="48.70332" lon="1.89507">
        <ele>195</ele>
        <time>2016-05-16T10:00:03Z</time>
      </trkpt>
      <trkpt lat="48.7033" lon="1.89503">
        <ele>196</ele>
        <time>2016-05-16T10:00:04Z</time>
      </trkpt>
      <trkpt lat="48.70326" lon="1.89495">
        <ele>193</ele>
        <time>2016-05-16T10:00:07Z</time>
      </trkpt>
      <trkpt lat="48.70325" lon="1.89491">
        <ele>191</ele>
        <time>2016-05-16T10:00:08Z</time>
      </trkpt>
      <trkpt lat="48.70322" lon="1.89483">
        <ele>192</ele>
        <time>2016-05-16T10:00:11Z</time>
      </trkpt>
      <trkpt lat="48.7032" lon="1.89474">
        <ele>191</ele>
        <time>2016-05-16T10:00:12Z</time>
      </trkpt>
      <trkpt lat="48.70313" lon="1.89471">
        <ele>191</ele>
        <time>2016-05-16T10:00:15Z</time>
      </trkpt>
      <trkpt lat="48.70312" lon="1.89468">
        <ele>191</ele>
        <time>2016-05-16T10:00:16Z</time>
      </trkpt>
      <trkpt lat="48.70307" lon="1.89462">
        <ele>189</ele>
        <time>2016-05-16T10:00:22Z</time>
      </trkpt>
      <trkpt lat="48.70304" lon="1.89461">
        <ele>191</ele>
        <time>2016-05-16T10:00:23Z</time>
      </trkpt>
      <trkpt lat="48.70304" lon="1.89448">
        <ele>188</ele>
        <time>2016-05-16T10:00:28Z</time>
      </trkpt>
      <trkpt lat="48.70304" lon="1.89446">
        <ele>188</ele>
        <time>2016-05-16T10:00:29Z</time>
      </trkpt>
      <trkpt lat="48.70302" lon="1.89435">
        <ele>180</ele>
        <time>2016-05-16T10:00:39Z</time>
      </trkpt>
      <trkpt lat="48.70304" lon="1.89431">
        <ele>180</ele>
        <time>2016-05-16T10:00:40Z</time>
      </trkpt>
      <trkpt lat="48.70301" lon="1.8942">
        <ele>177</ele>
        <time>2016-05-16T10:00:45Z</time>
      </trkpt>
      <trkpt lat="48.70299" lon="1.89419">
        <ele>177</ele>
        <time>2016-05-16T10:00:46Z</time>
      </trkpt>
      <trkpt lat="48.70296" lon="1.89407">
        <ele>181</ele>
        <time>2016-05-16T10:01:09Z</time>
      </trkpt>
      <trkpt lat="48.70296" lon="1.89405">
        <ele>182</ele>
        <time>2016-05-16T10:01:10Z</time>
      </trkpt>
      <trkpt lat="48.70298" lon="1.89392">
        <ele>185</ele>
        <time>2016-05-16T10:01:23Z</time>
      </trkpt>
      <trkpt lat="48.70296" lon="1.8939">
        <ele>185</ele>
        <time>2016-05-16T10:01:24Z</time>
      </trkpt>
      <trkpt lat="48.70291" lon="1.89379">
        <ele>182</ele>
        <time>2016-05-16T10:01:28Z</time>
      </trkpt>
      <trkpt lat="48.70292" lon="1.89376">
        <ele>183</ele>
        <time>2016-05-16T10:01:29Z</time>
      </trkpt>
      <trkpt lat="48.70292" lon="1.89364">
        <ele>185</ele>
        <time>2016-05-16T10:01:35Z</time>
      </trkpt>
      <trkpt lat="48.70291" lon="1.89362">
        <ele>185</ele>
        <time>2016-05-16T10:01:36Z</time>
      </trkpt>
      <trkpt lat="48.70286" lon="1.8935">
        <ele>188</ele>
        <time>2016-05-16T10:01:52Z</time>
      </trkpt>
      <trkpt lat="48.70286" lon="1.89349">
        <ele>188</ele>
        <time>2016-05-16T10:01:53Z</time>
      </trkpt>
      <trkpt lat="48.7028" lon="1.89339">
        <ele>183</ele>
        <time>2016-05-16T10:02:00Z</time>
      </trkpt>
      <trkpt lat="48.70279" lon="1.89336">
        <ele>183</ele>
        <time>2016-05-16T10:02:01Z</time>
      </trkpt>
      <trkpt lat="48.70275" lon="1.89327">
        <ele>177</ele>
        <time>2016-05-16T10:02:05Z</time>
      </trkpt>
      <trkpt lat="48.70273" lon="1.89323">
        <ele>178</ele>
        <time>2016-05-16T10:02:06Z</time>
      </trkpt>
      <trkpt lat="48.70266" lon="1.89315">
        <ele>175</ele>
        <time>2016-05-16T10:02:12Z</time>
      </trkpt>
      <trkpt lat="48.70265" lon="1.89311">
        <ele>175</ele>
        <time>2016-05-16T10:02:13Z</time>
      </trkpt>
      <trkpt lat="48.70258" lon="1.89303">
        <ele>176</ele>
        <time>2016-05-16T10:02:17Z</time>
      </trkpt>
      <trkpt lat="48.70256" lon="1.893">
        <ele>175</ele>
        <time>2016-05-16T10:02:18Z</time>
      </trkpt>
      <trkpt lat="48.70253" lon="1.8929">
        <ele>176</ele>
        <time>2016-05-16T10:02:24Z</time>
      </trkpt>
      <trkpt lat="48.70251" lon="1.89288">
        <ele>177</ele>
        <time>2016-05-16T10:02:25Z</time>
      </trkpt>
      <trkpt lat="48.70248" lon="1.89277">
        <ele>180</ele>
        <time>2016-05-16T10:02:29Z</time>
      </trkpt>
      <trkpt lat="48.70247" lon="1.89273">
        <ele>181</ele>
        <time>2016-05-16T10:02:30Z</time>
      </trkpt>
      <trkpt lat="48.70241" lon="1.89263">
        <ele>183</ele>
        <time>2016-05-16T10:02:36Z</time>
      </trkpt>
      <trkpt lat="48.7024" lon="1.89263">
        <ele>183</ele>
        <time>2016-05-16T10:02:37Z</time>
      </trkpt>
      <trkpt lat="48.70232" lon="1.89258">
        <ele>185</ele>
        <time>2016-05-16T10:02:43Z</time>
      </trkpt>
      <trkpt lat="48.70232" lon="1.89256">
        <ele>186</ele>
        <time>2016-05-16T10:02:44Z</time>
      </trkpt>
      <trkpt lat="48.70231" lon="1.89243">
        <ele>187</ele>
        <time>2016-05-16T10:03:06Z</time>
      </trkpt>
      <trkpt lat="48.70226" lon="1.89243">
        <ele>187</ele>
        <time>2016-05-16T10:03:07Z</time>
      </trkpt>
      <trkpt lat="48.70219" lon="1.89237">
        <ele>185</ele>
        <time>2016-05-16T10:03:14Z</time>
      </trkpt>
      <trkpt lat="48.70218" lon="1.89234">
        <ele>186</ele>
        <time>2016-05-16T10:03:15Z</time>
      </trkpt>
      <trkpt lat="48.70212" lon="1.89227">
        <ele>188</ele>
        <time>2016-05-16T10:03:22Z</time>
      </trkpt>
      <trkpt lat="48.70211" lon="1.89225">
        <ele>188</ele>
        <time>2016-05-16T10:03:23Z</time>
      </trkpt>
      <trkpt lat="48.70207" lon="1.89216">
        <ele>186</ele>
        <time>2016-05-16T10:03:29Z</time>
      </trkpt>
      <trkpt lat="48.70205" lon="1.89215">
        <ele>187</ele>
        <time>2016-05-16T10:03:30Z</time>
      </trkpt>
      <trkpt lat="48.70198" lon="1.89207">
        <ele>186</ele>
        <time>2016-05-16T10:03:41Z</time>
      </trkpt>
      <trkpt lat="48.70196" lon="1.89206">
        <ele>186</ele>
        <time>2016-05-16T10:03:42Z</time>
      </trkpt>
      <trkpt lat="48.70189" lon="1.89201">
        <ele>186</ele>
        <time>2016-05-16T10:03:48Z</time>
      </trkpt>
      <trkpt lat="48.70187" lon="1.89201">
        <ele>186</ele>
        <time>2016-05-16T10:03:49Z</time>
      </trkpt>
      <trkpt lat="48.70183" lon="1.89189">
        <ele>188</ele>
        <time>2016-05-16T10:03:57Z</time>
      </trkpt>
      <trkpt lat="48.70184" lon="1.89186">
        <ele>187</ele>
        <time>2016-05-16T10:03:58Z</time>
      </trkpt>
      <trkpt lat="48.70188" lon="1.89175">
        <ele>186</ele>
        <time>2016-05-16T10:04:04Z</time>
      </trkpt>
      <trkpt lat="48.70188" lon="1.89174">
        <ele>186</ele>
        <time>2016-05-16T10:04:05Z</time>
      </trkpt>
      <trkpt lat="48.70191" lon="1.89161">
        <ele>187</ele>
        <time>2016-05-16T10:04:13Z</time>
      </trkpt>
      <trkpt lat="48.70193" lon="1.8916">
        <ele>186</ele>
        <time>2016-05-16T10:04:14Z</time>
      </trkpt>
      <trkpt lat="48.70195" lon="1.89157">
        <ele>187</ele>
        <time>2016-05-16T10:04:16Z</time>
      </trkpt>
      <trkpt lat="48.70194" lon="1.89158">
        <ele>187</ele>
        <time>2016-05-16T10:04:17Z</time>
      </trkpt>
      <trkpt lat="48.70194" lon="1.89158">
        <ele>187</ele>
        <time>2016-05-16T10:04:17Z</time>
      </trkpt>
      <trkpt lat="48.70193" lon="1.89158">
        <ele>187</ele>
        <time>2016-05-16T10:04:18Z</time>
      </trkpt>
      <trkpt lat="48.70193" lon="1.89145">
        <ele>190</ele>
        <time>2016-05-16T10:04:22Z</time>
      </trkpt>
      <trkpt lat="48.70195" lon="1.89143">
        <ele>190</ele>
        <time>2016-05-16T10:04:23Z</time>
      </trkpt>
      <trkpt lat="48.70198" lon="1.8913">
        <ele>190</ele>
        <time>2016-05-16T10:04:30Z</time>
      </trkpt>
      <trkpt lat="48.70199" lon="1.89129">
        <ele>190</ele>
        <time>2016-05-16T10:04:31Z</time>
      </trkpt>
      <trkpt lat="48.70199" lon="1.89115">
        <ele>189</ele>
        <time>2016-05-16T10:04:38Z</time>
      </trkpt>
      <trkpt lat="48.70198" lon="1.89114">
        <ele>190</ele>
        <time>2016-05-16T10:04:39Z</time>
      </trkpt>
      <trkpt lat="48.702" lon="1.89103">
        <ele>190</ele>
        <time>2016-05-16T10:04:45Z</time>
      </trkpt>
      <trkpt lat="48.70201" lon="1.89098">
        <ele>191</ele>
        <time>2016-05-16T10:04:46Z</time>
      </trkpt>
      <trkpt lat="48.70204" lon="1.89089">
        <ele>192</ele>
        <time>2016-05-16T10:04:51Z</time>
      </trkpt>
      <trkpt lat="48.70207" lon="1.89087">
        <ele>193</ele>
        <time>2016-05-16T10:04:52Z</time>
      </trkpt>
      <trkpt lat="48.70204" lon="1.89077">
        <ele>194</ele>
        <time>2016-05-16T10:04:55Z</time>
      </trkpt>
      <trkpt lat="48.70202" lon="1.89076">
        <ele>194</ele>
        <time>2016-05-16T10:04:56Z</time>
      </trkpt>
      <trkpt lat="48.70205" lon="1.89064">
        <ele>198</ele>
        <time>2016-05-16T10:05:21Z</time>
      </trkpt>
      <trkpt lat="48.70205" lon="1.89062">
        <ele>200</ele>
        <time>2016-05-16T10:05:22Z</time>
      </trkpt>
      <trkpt lat="48.70208" lon="1.89058">
        <ele>200</ele>
        <time>2016-05-16T10:05:23Z</time>
      </trkpt>
      <trkpt lat="48.70211" lon="1.89053">
        <ele>201</ele>
        <time>2016-05-16T10:05:24Z</time>
      </trkpt>
      <trkpt lat="48.70219" lon="1.89052">
        <ele>197</ele>
        <time>2016-05-16T10:05:27Z</time>
      </trkpt>
      <trkpt lat="48.7022" lon="1.89044">
        <ele>199</ele>
        <time>2016-05-16T10:05:28Z</time>
      </trkpt>
      <trkpt lat="48.70223" lon="1.89032">
        <ele>195</ele>
        <time>2016-05-16T10:05:33Z</time>
      </trkpt>
      <trkpt lat="48.70224" lon="1.89032">
        <ele>193</ele>
        <time>2016-05-16T10:05:34Z</time>
      </trkpt>
      <trkpt lat="48.70229" lon="1.89021">
        <ele>195</ele>
        <time>2016-05-16T10:05:37Z</time>
      </trkpt>
      <trkpt lat="48.7023" lon="1.89018">
        <ele>194</ele>
        <time>2016-05-16T10:05:38Z</time>
      </trkpt>
      <trkpt lat="48.70234" lon="1.89008">
        <ele>193</ele>
        <time>2016-05-16T10:05:46Z</time>
      </trkpt>
      <trkpt lat="48.70235" lon="1.89004">
        <ele>194</ele>
        <time>2016-05-16T10:05:47Z</time>
      </trkpt>
      <trkpt lat="48.70239" lon="1.88992">
        <ele>192</ele>
        <time>2016-05-16T10:05:55Z</time>
      </trkpt>
      <trkpt lat="48.7024" lon="1.88991">
        <ele>192</ele>
        <time>2016-05-16T10:05:56Z</time>
      </trkpt>
      <trkpt lat="48.70244" lon="1.88982">
        <ele>195</ele>
        <time>2016-05-16T10:06:03Z</time>
      </trkpt>
      <trkpt lat="48.70247" lon="1.88981">
        <ele>195</ele>
        <time>2016-05-16T10:06:04Z</time>
      </trkpt>
      <trkpt lat="48.7025" lon="1.88978">
        <ele>193</ele>
        <time>2016-05-16T10:08:37Z</time>
      </trkpt>
      <trkpt lat="48.70249" lon="1.88982">
        <ele>196</ele>
        <time>2016-05-16T10:08:38Z</time>
      </trkpt>
      <trkpt lat="48.70258" lon="1.88984">
        <ele>190</ele>
        <time>2016-05-16T10:08:49Z</time>
      </trkpt>
      <trkpt lat="48.70258" lon="1.88985">
        <ele>190</ele>
        <time>2016-05-16T10:08:50Z</time>
      </trkpt>
      <trkpt lat="48.70257" lon="1.88986">
        <ele>190</ele>
        <time>2016-05-16T10:40:52Z</time>
      </trkpt>
      <trkpt lat="48.70265" lon="1.8898">
        <ele>184</ele>
        <time>2016-05-16T10:40:58Z</time>
      </trkpt>
      <trkpt lat="48.70257" lon="1.88986">
        <ele>190</ele>
        <time>2016-05-16T10:42:03Z</time>
      </trkpt>
      <trkpt lat="48.70252" lon="1.88978">
        <ele>187</ele>
        <time>2016-05-16T10:42:04Z</time>
      </trkpt>
      <trkpt lat="48.70252" lon="1.88978">
        <ele>187</ele>
        <time>2016-05-16T10:42:04Z</time>
      </trkpt>
      <trkpt lat="48.70248" lon="1.88974">
        <ele>185</ele>
        <time>2016-05-16T10:42:05Z</time>
      </trkpt>
      <trkpt lat="48.70242" lon="1.88983">
        <ele>186</ele>
        <time>2016-05-16T10:43:20Z</time>
      </trkpt>
      <trkpt lat="48.70242" lon="1.88986">
        <ele>184</ele>
        <time>2016-05-16T10:43:21Z</time>
      </trkpt>
      <trkpt lat="48.70239" lon="1.88995">
        <ele>186</ele>
        <time>2016-05-16T10:43:28Z</time>
      </trkpt>
      <trkpt lat="48.70237" lon="1.88997">
        <ele>186</ele>
        <time>2016-05-16T10:43:29Z</time>
      </trkpt>
      <trkpt lat="48.70233" lon="1.89008">
        <ele>176</ele>
        <time>2016-05-16T10:43:36Z</time>
      </trkpt>
      <trkpt lat="48.70232" lon="1.8901">
        <ele>176</ele>
        <time>2016-05-16T10:43:37Z</time>
      </trkpt>
      <trkpt lat="48.70224" lon="1.89017">
        <ele>172</ele>
        <time>2016-05-16T10:43:50Z</time>
      </trkpt>
      <trkpt lat="48.70223" lon="1.89016">
        <ele>172</ele>
        <time>2016-05-16T10:43:51Z</time>
      </trkpt>
      <trkpt lat="48.70222" lon="1.89016">
        <ele>172</ele>
        <time>2016-05-16T10:43:52Z</time>
      </trkpt>
      <trkpt lat="48.70219" lon="1.89018">
        <ele>175</ele>
        <time>2016-05-16T10:44:18Z</time>
      </trkpt>
      <trkpt lat="48.70217" lon="1.8902">
        <ele>175</ele>
        <time>2016-05-16T10:44:19Z</time>
      </trkpt>
      <trkpt lat="48.70217" lon="1.89032">
        <ele>172</ele>
        <time>2016-05-16T10:44:23Z</time>
      </trkpt>
      <trkpt lat="48.70214" lon="1.89034">
        <ele>173</ele>
        <time>2016-05-16T10:44:24Z</time>
      </trkpt>
      <trkpt lat="48.70209" lon="1.89028">
        <ele>170</ele>
        <time>2016-05-16T10:44:27Z</time>
      </trkpt>
      <trkpt lat="48.70206" lon="1.89027">
        <ele>169</ele>
        <time>2016-05-16T10:44:28Z</time>
      </trkpt>
      <trkpt lat="48.70198" lon="1.89025">
        <ele>166</ele>
        <time>2016-05-16T10:44:33Z</time>
      </trkpt>
      <trkpt lat="48.70188" lon="1.89025">
        <ele>169</ele>
        <time>2016-05-16T10:44:34Z</time>
      </trkpt>
      <trkpt lat="48.70186" lon="1.89026">
        <ele>171</ele>
        <time>2016-05-16T10:44:35Z</time>
      </trkpt>
      <trkpt lat="48.70178" lon="1.89026">
        <ele>172</ele>
        <time>2016-05-16T10:44:36Z</time>
      </trkpt>
      <trkpt lat="48.7017" lon="1.8903">
        <ele>172</ele>
        <time>2016-05-16T10:44:45Z</time>
      </trkpt>
      <trkpt lat="48.70168" lon="1.8903">
        <ele>172</ele>
        <time>2016-05-16T10:44:46Z</time>
      </trkpt>
      <trkpt lat="48.70159" lon="1.89032">
        <ele>178</ele>
        <time>2016-05-16T10:44:53Z</time>
      </trkpt>
      <trkpt lat="48.70154" lon="1.89032">
        <ele>178</ele>
        <time>2016-05-16T10:44:54Z</time>
      </trkpt>
      <trkpt lat="48.70149" lon="1.8904">
        <ele>179</ele>
        <time>2016-05-16T10:45:22Z</time>
      </trkpt>
      <trkpt lat="48.70142" lon="1.89038">
        <ele>179</ele>
        <time>2016-05-16T10:45:23Z</time>
      </trkpt>
      <trkpt lat="48.70135" lon="1.8904">
        <ele>179</ele>
        <time>2016-05-16T10:45:26Z</time>
      </trkpt>
      <trkpt lat="48.70132" lon="1.89042">
        <ele>179</ele>
        <time>2016-05-16T10:45:27Z</time>
      </trkpt>
      <trkpt lat="48.70124" lon="1.8904">
        <ele>175</ele>
        <time>2016-05-16T10:45:29Z</time>
      </trkpt>
      <trkpt lat="48.70121" lon="1.8904">
        <ele>174</ele>
        <time>2016-05-16T10:45:30Z</time>
      </trkpt>
      <trkpt lat="48.70114" lon="1.89035">
        <ele>170</ele>
        <time>2016-05-16T10:45:34Z</time>
      </trkpt>
      <trkpt lat="48.7011" lon="1.89038">
        <ele>171</ele>
        <time>2016-05-16T10:45:35Z</time>
      </trkpt>
      <trkpt lat="48.70105" lon="1.8904">
        <ele>178</ele>
        <time>2016-05-16T10:45:45Z</time>
      </trkpt>
      <trkpt lat="48.70098" lon="1.89039">
        <ele>179</ele>
        <time>2016-05-16T10:45:46Z</time>
      </trkpt>
      <trkpt lat="48.70091" lon="1.89036">
        <ele>179</ele>
        <time>2016-05-16T10:45:51Z</time>
      </trkpt>
      <trkpt lat="48.70089" lon="1.89035">
        <ele>179</ele>
        <time>2016-05-16T10:45:52Z</time>
      </trkpt>
      <trkpt lat="48.70081" lon="1.89035">
        <ele>178</ele>
        <time>2016-05-16T10:46:00Z</time>
      </trkpt>
      <trkpt lat="48.70079" lon="1.89036">
        <ele>178</ele>
        <time>2016-05-16T10:46:01Z</time>
      </trkpt>
      <trkpt lat="48.70072" lon="1.89037">
        <ele>179</ele>
        <time>2016-05-16T10:46:04Z</time>
      </trkpt>
      <trkpt lat="48.70067" lon="1.89037">
        <ele>179</ele>
        <time>2016-05-16T10:46:05Z</time>
      </trkpt>
      <trkpt lat="48.70075" lon="1.89043">
        <ele>179</ele>
        <time>2016-05-16T10:46:07Z</time>
      </trkpt>
      <trkpt lat="48.70077" lon="1.89043">
        <ele>178</ele>
        <time>2016-05-16T10:46:08Z</time>
      </trkpt>
      <trkpt lat="48.70072" lon="1.89043">
        <ele>180</ele>
        <time>2016-05-16T10:46:24Z</time>
      </trkpt>
      <trkpt lat="48.70063" lon="1.89042">
        <ele>181</ele>
        <time>2016-05-16T10:46:25Z</time>
      </trkpt>
      <trkpt lat="48.70063" lon="1.89049">
        <ele>185</ele>
        <time>2016-05-16T10:46:28Z</time>
      </trkpt>
      <trkpt lat="48.70052" lon="1.8905">
        <ele>187</ele>
        <time>2016-05-16T10:46:29Z</time>
      </trkpt>
      <trkpt lat="48.70047" lon="1.89047">
        <ele>188</ele>
        <time>2016-05-16T10:46:30Z</time>
      </trkpt>
      <trkpt lat="48.70039" lon="1.89042">
        <ele>188</ele>
        <time>2016-05-16T10:46:31Z</time>
      </trkpt>
      <trkpt lat="48.70035" lon="1.89041">
        <ele>189</ele>
        <time>2016-05-16T10:46:34Z</time>
      </trkpt>
      <trkpt lat="48.7003" lon="1.8904">
        <ele>190</ele>
        <time>2016-05-16T10:46:35Z</time>
      </trkpt>
      <trkpt lat="48.70024" lon="1.89037">
        <ele>191</ele>
        <time>2016-05-16T10:46:37Z</time>
      </trkpt>
      <trkpt lat="48.70021" lon="1.89035">
        <ele>190</ele>
        <time>2016-05-16T10:46:38Z</time>
      </trkpt>
      <trkpt lat="48.70019" lon="1.89031">
        <ele>192</ele>
        <time>2016-05-16T10:46:57Z</time>
      </trkpt>
      <trkpt lat="48.70019" lon="1.89032">
        <ele>193</ele>
        <time>2016-05-16T10:46:58Z</time>
      </trkpt>
      <trkpt lat="48.70017" lon="1.89033">
        <ele>193</ele>
        <time>2016-05-16T10:47:05Z</time>
      </trkpt>
      <trkpt lat="48.70016" lon="1.89032">
        <ele>192</ele>
        <time>2016-05-16T10:47:06Z</time>
      </trkpt>
      <trkpt lat="48.70012" lon="1.89027">
        <ele>193</ele>
        <time>2016-05-16T10:47:11Z</time>
      </trkpt>
      <trkpt lat="48.70006" lon="1.89027">
        <ele>194</ele>
        <time>2016-05-16T10:47:12Z</time>
      </trkpt>
      <trkpt lat="48.70006" lon="1.89027">
        <ele>194</ele>
        <time>2016-05-16T10:47:12Z</time>
      </trkpt>
      <trkpt lat="48.70016" lon="1.8903">
        <ele>189</ele>
        <time>2016-05-16T10:47:13Z</time>
      </trkpt>
      <trkpt lat="48.70016" lon="1.8903">
        <ele>189</ele>
        <time>2016-05-16T10:47:13Z</time>
      </trkpt>
      <trkpt lat="48.70018" lon="1.8903">
        <ele>189</ele>
        <time>2016-05-16T10:47:14Z</time>
      </trkpt>
      <trkpt lat="48.70009" lon="1.89032">
        <ele>188</ele>
        <time>2016-05-16T10:47:23Z</time>
      </trkpt>
      <trkpt lat="48.70006" lon="1.89029">
        <ele>189</ele>
        <time>2016-05-16T10:47:24Z</time>
      </trkpt>
      <trkpt lat="48.70007" lon="1.89028">
        <ele>189</ele>
        <time>2016-05-16T10:47:33Z</time>
      </trkpt>
      <trkpt lat="48.70007" lon="1.89025">
        <ele>188</ele>
        <time>2016-05-16T10:47:34Z</time>
      </trkpt>
      <trkpt lat="48.70002" lon="1.89024">
        <ele>188</ele>
        <time>2016-05-16T10:47:35Z</time>
      </trkpt>
      <trkpt lat="48.70002" lon="1.89024">
        <ele>188</ele>
        <time>2016-05-16T10:47:35Z</time>
      </trkpt>
      <trkpt lat="48.70008" lon="1.89036">
        <ele>187</ele>
        <time>2016-05-16T10:47:36Z</time>
      </trkpt>
      <trkpt lat="48.70001" lon="1.89027">
        <ele>187</ele>
        <time>2016-05-16T10:47:48Z</time>
      </trkpt>
      <trkpt lat="48.70001" lon="1.89027">
        <ele>187</ele>
        <time>2016-05-16T10:47:49Z</time>
      </trkpt>
      <trkpt lat="48.69994" lon="1.89024">
        <ele>187</ele>
        <time>2016-05-16T10:47:53Z</time>
      </trkpt>
      <trkpt lat="48.6999" lon="1.89021">
        <ele>187</ele>
        <time>2016-05-16T10:47:54Z</time>
      </trkpt>
      <trkpt lat="48.69984" lon="1.89012">
        <ele>190</ele>
        <time>2016-05-16T10:48:00Z</time>
      </trkpt>
      <trkpt lat="48.69978" lon="1.8901">
        <ele>193</ele>
        <time>2016-05-16T10:48:01Z</time>
      </trkpt>
      <trkpt lat="48.69975" lon="1.89008">
        <ele>190</ele>
        <time>2016-05-16T10:48:03Z</time>
      </trkpt>
      <trkpt lat="48.69968" lon="1.89006">
        <ele>190</ele>
        <time>2016-05-16T10:48:04Z</time>
      </trkpt>
      <trkpt lat="48.6996" lon="1.89002">
        <ele>194</ele>
        <time>2016-05-16T10:48:08Z</time>
      </trkpt>
      <trkpt lat="48.69958" lon="1.89003">
        <ele>194</ele>
        <time>2016-05-16T10:48:09Z</time>
      </trkpt>
      <trkpt lat="48.69955" lon="1.89016">
        <ele>194</ele>
        <time>2016-05-16T10:48:15Z</time>
      </trkpt>
      <trkpt lat="48.69954" lon="1.89017">
        <ele>193</ele>
        <time>2016-05-16T10:48:16Z</time>
      </trkpt>
      <trkpt lat="48.69953" lon="1.89029">
        <ele>189</ele>
        <time>2016-05-16T10:48:22Z</time>
      </trkpt>
      <trkpt lat="48.69951" lon="1.89031">
        <ele>190</ele>
        <time>2016-05-16T10:48:23Z</time>
      </trkpt>
      <trkpt lat="48.69953" lon="1.89027">
        <ele>186</ele>
        <time>2016-05-16T10:48:27Z</time>
      </trkpt>
      <trkpt lat="48.69954" lon="1.89023">
        <ele>186</ele>
        <time>2016-05-16T10:48:28Z</time>
      </trkpt>
      <trkpt lat="48.69955" lon="1.89023">
        <ele>184</ele>
        <time>2016-05-16T10:48:29Z</time>
      </trkpt>
      <trkpt lat="48.69956" lon="1.8903">
        <ele>181</ele>
        <time>2016-05-16T10:48:30Z</time>
      </trkpt>
      <trkpt lat="48.69953" lon="1.89038">
        <ele>180</ele>
        <time>2016-05-16T10:48:34Z</time>
      </trkpt>
      <trkpt lat="48.69952" lon="1.89045">
        <ele>180</ele>
        <time>2016-05-16T10:48:35Z</time>
      </trkpt>
      <trkpt lat="48.6995" lon="1.89055">
        <ele>177</ele>
        <time>2016-05-16T10:48:40Z</time>
      </trkpt>
      <trkpt lat="48.69949" lon="1.8906">
        <ele>177</ele>
        <time>2016-05-16T10:48:41Z</time>
      </trkpt>
      <trkpt lat="48.69947" lon="1.89072">
        <ele>175</ele>
        <time>2016-05-16T10:48:50Z</time>
      </trkpt>
      <trkpt lat="48.69948" lon="1.89077">
        <ele>173</ele>
        <time>2016-05-16T10:48:51Z</time>
      </trkpt>
      <trkpt lat="48.69943" lon="1.89088">
        <ele>172</ele>
        <time>2016-05-16T10:49:07Z</time>
      </trkpt>
      <trkpt lat="48.69942" lon="1.89092">
        <ele>173</ele>
        <time>2016-05-16T10:49:08Z</time>
      </trkpt>
      <trkpt lat="48.69941" lon="1.89099">
        <ele>170</ele>
        <time>2016-05-16T10:49:11Z</time>
      </trkpt>
      <trkpt lat="48.69939" lon="1.89105">
        <ele>170</ele>
        <time>2016-05-16T10:49:14Z</time>
      </trkpt>
      <trkpt lat="48.69933" lon="1.89113">
        <ele>174</ele>
        <time>2016-05-16T10:49:20Z</time>
      </trkpt>
      <trkpt lat="48.69932" lon="1.89116">
        <ele>173</ele>
        <time>2016-05-16T10:49:21Z</time>
      </trkpt>
      <trkpt lat="48.69929" lon="1.89127">
        <ele>172</ele>
        <time>2016-05-16T10:49:30Z</time>
      </trkpt>
      <trkpt lat="48.69928" lon="1.89129">
        <ele>173</ele>
        <time>2016-05-16T10:49:31Z</time>
      </trkpt>
      <trkpt lat="48.69922" lon="1.89138">
        <ele>165</ele>
        <time>2016-05-16T10:49:37Z</time>
      </trkpt>
      <trkpt lat="48.69922" lon="1.89139">
        <ele>164</ele>
        <time>2016-05-16T10:49:38Z</time>
      </trkpt>
      <trkpt lat="48.69918" lon="1.89148">
        <ele>166</ele>
        <time>2016-05-16T10:49:43Z</time>
      </trkpt>
      <trkpt lat="48.69916" lon="1.89152">
        <ele>166</ele>
        <time>2016-05-16T10:49:44Z</time>
      </trkpt>
      <trkpt lat="48.69914" lon="1.89164">
        <ele>169</ele>
        <time>2016-05-16T10:49:52Z</time>
      </trkpt>
      <trkpt lat="48.69915" lon="1.89167">
        <ele>169</ele>
        <time>2016-05-16T10:49:53Z</time>
      </trkpt>
      <trkpt lat="48.69911" lon="1.89175">
        <ele>170</ele>
        <time>2016-05-16T10:49:57Z</time>
      </trkpt>
      <trkpt lat="48.69909" lon="1.89182">
        <ele>171</ele>
        <time>2016-05-16T10:49:58Z</time>
      </trkpt>
      <trkpt lat="48.69904" lon="1.89192">
        <ele>176</ele>
        <time>2016-05-16T10:50:09Z</time>
      </trkpt>
      <trkpt lat="48.69902" lon="1.89194">
        <ele>177</ele>
        <time>2016-05-16T10:50:10Z</time>
      </trkpt>
      <trkpt lat="48.69905" lon="1.89205">
        <ele>171</ele>
        <time>2016-05-16T10:50:18Z</time>
      </trkpt>
      <trkpt lat="48.69905" lon="1.89212">
        <ele>173</ele>
        <time>2016-05-16T10:50:19Z</time>
      </trkpt>
      <trkpt lat="48.69905" lon="1.8922">
        <ele>169</ele>
        <time>2016-05-16T10:50:25Z</time>
      </trkpt>
      <trkpt lat="48.69905" lon="1.89226">
        <ele>169</ele>
        <time>2016-05-16T10:50:26Z</time>
      </trkpt>
      <trkpt lat="48.69901" lon="1.89238">
        <ele>170</ele>
        <time>2016-05-16T10:50:36Z</time>
      </trkpt>
      <trkpt lat="48.69899" lon="1.89239">
        <ele>170</ele>
        <time>2016-05-16T10:50:37Z</time>
      </trkpt>
      <trkpt lat="48.69895" lon="1.89247">
        <ele>172</ele>
        <time>2016-05-16T10:50:42Z</time>
      </trkpt>
      <trkpt lat="48.69893" lon="1.8925">
        <ele>174</ele>
        <time>2016-05-16T10:50:43Z</time>
      </trkpt>
      <trkpt lat="48.69887" lon="1.8926">
        <ele>177</ele>
        <time>2016-05-16T10:50:48Z</time>
      </trkpt>
      <trkpt lat="48.69887" lon="1.89262">
        <ele>178</ele>
        <time>2016-05-16T10:50:49Z</time>
      </trkpt>
      <trkpt lat="48.69888" lon="1.89275">
        <ele>177</ele>
        <time>2016-05-16T10:50:54Z</time>
      </trkpt>
      <trkpt lat="48.69888" lon="1.89278">
        <ele>178</ele>
        <time>2016-05-16T10:50:55Z</time>
      </trkpt>
      <trkpt lat="48.69881" lon="1.89285">
        <ele>180</ele>
        <time>2016-05-16T10:51:02Z</time>
      </trkpt>
      <trkpt lat="48.69879" lon="1.89287">
        <ele>181</ele>
        <time>2016-05-16T10:51:03Z</time>
      </trkpt>
      <trkpt lat="48.69879" lon="1.89299">
        <ele>179</ele>
        <time>2016-05-16T10:51:08Z</time>
      </trkpt>
      <trkpt lat="48.69878" lon="1.89302">
        <ele>178</ele>
        <time>2016-05-16T10:51:09Z</time>
      </trkpt>
      <trkpt lat="48.69875" lon="1.89313">
        <ele>176</ele>
        <time>2016-05-16T10:51:23Z</time>
      </trkpt>
      <trkpt lat="48.69874" lon="1.89315">
        <ele>176</ele>
        <time>2016-05-16T10:51:24Z</time>
      </trkpt>
      <trkpt lat="48.69871" lon="1.89327">
        <ele>177</ele>
        <time>2016-05-16T10:51:27Z</time>
      </trkpt>
      <trkpt lat="48.69872" lon="1.89338">
        <ele>177</ele>
        <time>2016-05-16T10:51:28Z</time>
      </trkpt>
      <trkpt lat="48.69869" lon="1.89347">
        <ele>179</ele>
        <time>2016-05-16T10:51:37Z</time>
      </trkpt>
      <trkpt lat="48.69868" lon="1.89354">
        <ele>182</ele>
        <time>2016-05-16T10:51:38Z</time>
      </trkpt>
      <trkpt lat="48.69868" lon="1.89366">
        <ele>176</ele>
        <time>2016-05-16T10:51:43Z</time>
      </trkpt>
      <trkpt lat="48.69868" lon="1.89371">
        <ele>176</ele>
        <time>2016-05-16T10:51:44Z</time>
      </trkpt>
      <trkpt lat="48.69865" lon="1.89379">
        <ele>178</ele>
        <time>2016-05-16T10:51:48Z</time>
      </trkpt>
      <trkpt lat="48.69864" lon="1.89384">
        <ele>179</ele>
        <time>2016-05-16T10:51:49Z</time>
      </trkpt>
      <trkpt lat="48.69863" lon="1.89397">
        <ele>175</ele>
        <time>2016-05-16T10:52:02Z</time>
      </trkpt>
      <trkpt lat="48.69861" lon="1.89399">
        <ele>174</ele>
        <time>2016-05-16T10:52:03Z</time>
      </trkpt>
      <trkpt lat="48.69857" lon="1.89411">
        <ele>177</ele>
        <time>2016-05-16T10:52:08Z</time>
      </trkpt>
      <trkpt lat="48.69855" lon="1.89416">
        <ele>178</ele>
        <time>2016-05-16T10:52:09Z</time>
      </trkpt>
      <trkpt lat="48.69854" lon="1.89427">
        <ele>171</ele>
        <time>2016-05-16T10:52:20Z</time>
      </trkpt>
      <trkpt lat="48.69853" lon="1.89432">
        <ele>172</ele>
        <time>2016-05-16T10:52:21Z</time>
      </trkpt>
      <trkpt lat="48.69854" lon="1.89445">
        <ele>172</ele>
        <time>2016-05-16T10:52:26Z</time>
      </trkpt>
      <trkpt lat="48.69855" lon="1.89449">
        <ele>171</ele>
        <time>2016-05-16T10:52:27Z</time>
      </trkpt>
      <trkpt lat="48.6985" lon="1.8946">
        <ele>173</ele>
        <time>2016-05-16T10:52:46Z</time>
      </trkpt>
      <trkpt lat="48.69848" lon="1.89462">
        <ele>174</ele>
        <time>2016-05-16T10:52:47Z</time>
      </trkpt>
      <trkpt lat="48.69842" lon="1.8947">
        <ele>175</ele>
        <time>2016-05-16T10:52:51Z</time>
      </trkpt>
      <trkpt lat="48.69842" lon="1.89472">
        <ele>175</ele>
        <time>2016-05-16T10:52:52Z</time>
      </trkpt>
      <trkpt lat="48.69845" lon="1.89485">
        <ele>170</ele>
        <time>2016-05-16T10:53:02Z</time>
      </trkpt>
      <trkpt lat="48.69843" lon="1.89489">
        <ele>169</ele>
        <time>2016-05-16T10:53:03Z</time>
      </trkpt>
      <trkpt lat="48.69843" lon="1.89499">
        <ele>172</ele>
        <time>2016-05-16T10:53:07Z</time>
      </trkpt>
      <trkpt lat="48.69843" lon="1.89502">
        <ele>171</ele>
        <time>2016-05-16T10:53:08Z</time>
      </trkpt>
      <trkpt lat="48.69844" lon="1.89513">
        <ele>169</ele>
        <time>2016-05-16T10:53:14Z</time>
      </trkpt>
      <trkpt lat="48.69845" lon="1.89516">
        <ele>169</ele>
        <time>2016-05-16T10:53:15Z</time>
      </trkpt>
      <trkpt lat="48.69843" lon="1.89526">
        <ele>168</ele>
        <time>2016-05-16T10:53:20Z</time>
      </trkpt>
      <trkpt lat="48.69839" lon="1.89527">
        <ele>167</ele>
        <time>2016-05-16T10:53:21Z</time>
      </trkpt>
      <trkpt lat="48.69837" lon="1.8954">
        <ele>168</ele>
        <time>2016-05-16T10:53:24Z</time>
      </trkpt>
      <trkpt lat="48.69838" lon="1.89547">
        <ele>169</ele>
        <time>2016-05-16T10:53:25Z</time>
      </trkpt>
      <trkpt lat="48.69837" lon="1.89556">
        <ele>168</ele>
        <time>2016-05-16T10:53:27Z</time>
      </trkpt>
      <trkpt lat="48.69827" lon="1.89551">
        <ele>169</ele>
        <time>2016-05-16T10:53:28Z</time>
      </trkpt>
      <trkpt lat="48.69831" lon="1.89562">
        <ele>172</ele>
        <time>2016-05-16T10:53:43Z</time>
      </trkpt>
      <trkpt lat="48.69833" lon="1.89566">
        <ele>172</ele>
        <time>2016-05-16T10:53:44Z</time>
      </trkpt>
      <trkpt lat="48.69845" lon="1.89568">
        <ele>167</ele>
        <time>2016-05-16T10:53:45Z</time>
      </trkpt>
      <trkpt lat="48.6984" lon="1.89575">
        <ele>168</ele>
        <time>2016-05-16T10:53:47Z</time>
      </trkpt>
      <trkpt lat="48.69835" lon="1.89581">
        <ele>169</ele>
        <time>2016-05-16T10:53:48Z</time>
      </trkpt>
      <trkpt lat="48.69838" lon="1.89589">
        <ele>170</ele>
        <time>2016-05-16T10:53:49Z</time>
      </trkpt>
      <trkpt lat="48.69833" lon="1.89599">
        <ele>170</ele>
        <time>2016-05-16T10:53:50Z</time>
      </trkpt>
      <trkpt lat="48.69828" lon="1.89606">
        <ele>170</ele>
        <time>2016-05-16T10:53:55Z</time>
      </trkpt>
      <trkpt lat="48.69825" lon="1.89607">
        <ele>169</ele>
        <time>2016-05-16T10:53:56Z</time>
      </trkpt>
      <trkpt lat="48.69817" lon="1.89612">
        <ele>169</ele>
        <time>2016-05-16T10:54:00Z</time>
      </trkpt>
      <trkpt lat="48.69812" lon="1.89614">
        <ele>170</ele>
        <time>2016-05-16T10:54:01Z</time>
      </trkpt>
      <trkpt lat="48.69808" lon="1.89617">
        <ele>172</ele>
        <time>2016-05-16T10:54:05Z</time>
      </trkpt>
      <trkpt lat="48.69804" lon="1.89627">
        <ele>172</ele>
        <time>2016-05-16T10:54:06Z</time>
      </trkpt>
      <trkpt lat="48.69803" lon="1.89624">
        <ele>173</ele>
        <time>2016-05-16T10:54:09Z</time>
      </trkpt>
      <trkpt lat="48.69801" lon="1.89627">
        <ele>175</ele>
        <time>2016-05-16T10:54:10Z</time>
      </trkpt>
      <trkpt lat="48.69801" lon="1.89627">
        <ele>175</ele>
        <time>2016-05-16T10:54:10Z</time>
      </trkpt>
      <trkpt lat="48.698" lon="1.89629">
        <ele>175</ele>
        <time>2016-05-16T10:54:11Z</time>
      </trkpt>
      <trkpt lat="48.69798" lon="1.89641">
        <ele>181</ele>
        <time>2016-05-16T10:55:20Z</time>
      </trkpt>
      <trkpt lat="48.69799" lon="1.89643">
        <ele>180</ele>
        <time>2016-05-16T10:55:21Z</time>
      </trkpt>
      <trkpt lat="48.69791" lon="1.89649">
        <ele>173</ele>
        <time>2016-05-16T10:55:26Z</time>
      </trkpt>
      <trkpt lat="48.69791" lon="1.89651">
        <ele>173</ele>
        <time>2016-05-16T10:55:27Z</time>
      </trkpt>
      <trkpt lat="48.6979" lon="1.89662">
        <ele>171</ele>
        <time>2016-05-16T10:55:31Z</time>
      </trkpt>
      <trkpt lat="48.69789" lon="1.89664">
        <ele>172</ele>
        <time>2016-05-16T10:55:32Z</time>
      </trkpt>
      <trkpt lat="48.69789" lon="1.89671">
        <ele>170</ele>
        <time>2016-05-16T10:55:34Z</time>
      </trkpt>
      <trkpt lat="48.6979" lon="1.89673">
        <ele>172</ele>
        <time>2016-05-16T10:55:35Z</time>
      </trkpt>
      <trkpt lat="48.6979" lon="1.89673">
        <ele>172</ele>
        <time>2016-05-16T10:55:35Z</time>
      </trkpt>
      <trkpt lat="48.69789" lon="1.89678">
        <ele>174</ele>
        <time>2016-05-16T10:55:36Z</time>
      </trkpt>
      <trkpt lat="48.69788" lon="1.89691">
        <ele>171</ele>
        <time>2016-05-16T10:55:44Z</time>
      </trkpt>
      <trkpt lat="48.69789" lon="1.89692">
        <ele>171</ele>
        <time>2016-05-16T10:55:45Z</time>
      </trkpt>
      <trkpt lat="48.6979" lon="1.89705">
        <ele>175</ele>
        <time>2016-05-16T10:56:02Z</time>
      </trkpt>
      <trkpt lat="48.6979" lon="1.89706">
        <ele>176</ele>
        <time>2016-05-16T10:56:03Z</time>
      </trkpt>
      <trkpt lat="48.69787" lon="1.89715">
        <ele>179</ele>
        <time>2016-05-16T10:56:29Z</time>
      </trkpt>
      <trkpt lat="48.69788" lon="1.89721">
        <ele>181</ele>
        <time>2016-05-16T10:56:30Z</time>
      </trkpt>
      <trkpt lat="48.69781" lon="1.89728">
        <ele>184</ele>
        <time>2016-05-16T10:56:32Z</time>
      </trkpt>
      <trkpt lat="48.6978" lon="1.89729">
        <ele>184</ele>
        <time>2016-05-16T10:56:33Z</time>
      </trkpt>
      <trkpt lat="48.69777" lon="1.89738">
        <ele>183</ele>
        <time>2016-05-16T10:56:37Z</time>
      </trkpt>
      <trkpt lat="48.69775" lon="1.89742">
        <ele>184</ele>
        <time>2016-05-16T10:56:38Z</time>
      </trkpt>
      <trkpt lat="48.69772" lon="1.89753">
        <ele>178</ele>
        <time>2016-05-16T10:56:43Z</time>
      </trkpt>
      <trkpt lat="48.69772" lon="1.89757">
        <ele>178</ele>
        <time>2016-05-16T10:56:44Z</time>
      </trkpt>
      <trkpt lat="48.69767" lon="1.89766">
        <ele>175</ele>
        <time>2016-05-16T10:56:48Z</time>
      </trkpt>
      <trkpt lat="48.69767" lon="1.89769">
        <ele>176</ele>
        <time>2016-05-16T10:56:49Z</time>
      </trkpt>
      <trkpt lat="48.69767" lon="1.89781">
        <ele>174</ele>
        <time>2016-05-16T10:56:53Z</time>
      </trkpt>
      <trkpt lat="48.69767" lon="1.89785">
        <ele>174</ele>
        <time>2016-05-16T10:56:54Z</time>
      </trkpt>
      <trkpt lat="48.69768" lon="1.89792">
        <ele>171</ele>
        <time>2016-05-16T10:56:56Z</time>
      </trkpt>
      <trkpt lat="48.69767" lon="1.89799">
        <ele>173</ele>
        <time>2016-05-16T10:56:57Z</time>
      </trkpt>
      <trkpt lat="48.69764" lon="1.89806">
        <ele>174</ele>
        <time>2016-05-16T10:56:59Z</time>
      </trkpt>
      <trkpt lat="48.69764" lon="1.89814">
        <ele>175</ele>
        <time>2016-05-16T10:57:00Z</time>
      </trkpt>
      <trkpt lat="48.69764" lon="1.89814">
        <ele>175</ele>
        <time>2016-05-16T10:57:00Z</time>
      </trkpt>
      <trkpt lat="48.69763" lon="1.89816">
        <ele>177</ele>
        <time>2016-05-16T10:57:01Z</time>
      </trkpt>
      <trkpt lat="48.69763" lon="1.89816">
        <ele>177</ele>
        <time>2016-05-16T10:57:01Z</time>
      </trkpt>
      <trkpt lat="48.6976" lon="1.89817">
        <ele>177</ele>
        <time>2016-05-16T10:57:02Z</time>
      </trkpt>
      <trkpt lat="48.69757" lon="1.89829">
        <ele>179</ele>
        <time>2016-05-16T10:57:05Z</time>
      </trkpt>
      <trkpt lat="48.69755" lon="1.8983">
        <ele>181</ele>
        <time>2016-05-16T10:57:06Z</time>
      </trkpt>
      <trkpt lat="48.69751" lon="1.89836">
        <ele>184</ele>
        <time>2016-05-16T10:57:11Z</time>
      </trkpt>
      <trkpt lat="48.69749" lon="1.89844">
        <ele>185</ele>
        <time>2016-05-16T10:57:12Z</time>
      </trkpt>
      <trkpt lat="48.69746" lon="1.89855">
        <ele>186</ele>
        <time>2016-05-16T10:57:47Z</time>
      </trkpt>
      <trkpt lat="48.69743" lon="1.89858">
        <ele>186</ele>
        <time>2016-05-16T10:57:48Z</time>
      </trkpt>
      <trkpt lat="48.69739" lon="1.89869">
        <ele>187</ele>
        <time>2016-05-16T10:57:52Z</time>
      </trkpt>
      <trkpt lat="48.69736" lon="1.89878">
        <ele>184</ele>
        <time>2016-05-16T10:57:53Z</time>
      </trkpt>
      <trkpt lat="48.69736" lon="1.8988">
        <ele>184</ele>
        <time>2016-05-16T10:57:54Z</time>
      </trkpt>
      <trkpt lat="48.69736" lon="1.89884">
        <ele>183</ele>
        <time>2016-05-16T10:57:55Z</time>
      </trkpt>
      <trkpt lat="48.69736" lon="1.89884">
        <ele>183</ele>
        <time>2016-05-16T10:57:55Z</time>
      </trkpt>
      <trkpt lat="48.69734" lon="1.89888">
        <ele>183</ele>
        <time>2016-05-16T10:57:56Z</time>
      </trkpt>
      <trkpt lat="48.6973" lon="1.89896">
        <ele>186</ele>
        <time>2016-05-16T10:57:59Z</time>
      </trkpt>
      <trkpt lat="48.69727" lon="1.899">
        <ele>187</ele>
        <time>2016-05-16T10:58:00Z</time>
      </trkpt>
      <trkpt lat="48.69725" lon="1.8991">
        <ele>186</ele>
        <time>2016-05-16T10:58:04Z</time>
      </trkpt>
      <trkpt lat="48.69723" lon="1.89912">
        <ele>187</ele>
        <time>2016-05-16T10:58:05Z</time>
      </trkpt>
      <trkpt lat="48.6972" lon="1.89924">
        <ele>187</ele>
        <time>2016-05-16T10:58:09Z</time>
      </trkpt>
      <trkpt lat="48.69717" lon="1.89927">
        <ele>185</ele>
        <time>2016-05-16T10:58:10Z</time>
      </trkpt>
      <trkpt lat="48.69714" lon="1.8994">
        <ele>187</ele>
        <time>2016-05-16T10:58:17Z</time>
      </trkpt>
      <trkpt lat="48.69714" lon="1.89941">
        <ele>186</ele>
        <time>2016-05-16T10:58:18Z</time>
      </trkpt>
      <trkpt lat="48.69711" lon="1.89946">
        <ele>186</ele>
        <time>2016-05-16T10:58:39Z</time>
      </trkpt>
      <trkpt lat="48.69701" lon="1.89951">
        <ele>175</ele>
        <time>2016-05-16T10:58:40Z</time>
      </trkpt>
      <trkpt lat="48.69711" lon="1.89946">
        <ele>186</ele>
        <time>2016-05-16T10:58:42Z</time>
      </trkpt>
      <trkpt lat="48.69709" lon="1.89959">
        <ele>186</ele>
        <time>2016-05-16T10:59:05Z</time>
      </trkpt>
      <trkpt lat="48.69708" lon="1.89966">
        <ele>185</ele>
        <time>2016-05-16T10:59:06Z</time>
      </trkpt>
      <trkpt lat="48.69706" lon="1.89976">
        <ele>182</ele>
        <time>2016-05-16T10:59:08Z</time>
      </trkpt>
      <trkpt lat="48.69705" lon="1.89983">
        <ele>182</ele>
        <time>2016-05-16T10:59:09Z</time>
      </trkpt>
      <trkpt lat="48.69704" lon="1.89992">
        <ele>182</ele>
        <time>2016-05-16T10:59:11Z</time>
      </trkpt>
      <trkpt lat="48.69704" lon="1.89998">
        <ele>182</ele>
        <time>2016-05-16T10:59:12Z</time>
      </trkpt>
      <trkpt lat="48.69698" lon="1.90005">
        <ele>182</ele>
        <time>2016-05-16T10:59:17Z</time>
      </trkpt>
      <trkpt lat="48.69694" lon="1.90005">
        <ele>182</ele>
        <time>2016-05-16T10:59:18Z</time>
      </trkpt>
      <trkpt lat="48.69688" lon="1.90012">
        <ele>182</ele>
        <time>2016-05-16T10:59:20Z</time>
      </trkpt>
      <trkpt lat="48.69679" lon="1.90017">
        <ele>183</ele>
        <time>2016-05-16T10:59:21Z</time>
      </trkpt>
      <trkpt lat="48.69676" lon="1.90018">
        <ele>183</ele>
        <time>2016-05-16T10:59:22Z</time>
      </trkpt>
      <trkpt lat="48.69672" lon="1.90026">
        <ele>181</ele>
        <time>2016-05-16T10:59:23Z</time>
      </trkpt>
      <trkpt lat="48.69667" lon="1.90033">
        <ele>184</ele>
        <time>2016-05-16T10:59:27Z</time>
      </trkpt>
      <trkpt lat="48.69666" lon="1.90035">
        <ele>183</ele>
        <time>2016-05-16T10:59:28Z</time>
      </trkpt>
      <trkpt lat="48.6966" lon="1.90042">
        <ele>185</ele>
        <time>2016-05-16T10:59:34Z</time>
      </trkpt>
      <trkpt lat="48.69658" lon="1.90044">
        <ele>184</ele>
        <time>2016-05-16T10:59:35Z</time>
      </trkpt>
      <trkpt lat="48.6965" lon="1.90047">
        <ele>185</ele>
        <time>2016-05-16T10:59:36Z</time>
      </trkpt>
      <trkpt lat="48.69647" lon="1.90051">
        <ele>185</ele>
        <time>2016-05-16T10:59:37Z</time>
      </trkpt>
      <trkpt lat="48.69644" lon="1.90064">
        <ele>185</ele>
        <time>2016-05-16T10:59:40Z</time>
      </trkpt>
      <trkpt lat="48.69643" lon="1.90067">
        <ele>185</ele>
        <time>2016-05-16T10:59:41Z</time>
      </trkpt>
      <trkpt lat="48.69641" lon="1.90077">
        <ele>186</ele>
        <time>2016-05-16T10:59:43Z</time>
      </trkpt>
      <trkpt lat="48.6964" lon="1.90082">
        <ele>187</ele>
        <time>2016-05-16T10:59:44Z</time>
      </trkpt>
      <trkpt lat="48.69643" lon="1.90078">
        <ele>182</ele>
        <time>2016-05-16T10:59:45Z</time>
      </trkpt>
      <trkpt lat="48.69642" lon="1.9008">
        <ele>186</ele>
        <time>2016-05-16T10:59:46Z</time>
      </trkpt>
      <trkpt lat="48.69642" lon="1.9008">
        <ele>186</ele>
        <time>2016-05-16T10:59:46Z</time>
      </trkpt>
      <trkpt lat="48.69639" lon="1.90082">
        <ele>186</ele>
        <time>2016-05-16T10:59:47Z</time>
      </trkpt>
      <trkpt lat="48.69641" lon="1.90083">
        <ele>183</ele>
        <time>2016-05-16T10:59:50Z</time>
      </trkpt>
      <trkpt lat="48.69641" lon="1.90085">
        <ele>188</ele>
        <time>2016-05-16T10:59:51Z</time>
      </trkpt>
      <trkpt lat="48.69641" lon="1.90085">
        <ele>188</ele>
        <time>2016-05-16T10:59:51Z</time>
      </trkpt>
      <trkpt lat="48.6964" lon="1.90088">
        <ele>189</ele>
        <time>2016-05-16T10:59:52Z</time>
      </trkpt>
      <trkpt lat="48.69635" lon="1.90097">
        <ele>192</ele>
        <time>2016-05-16T10:59:56Z</time>
      </trkpt>
      <trkpt lat="48.69636" lon="1.90101">
        <ele>190</ele>
        <time>2016-05-16T10:59:57Z</time>
      </trkpt>
      <trkpt lat="48.69634" lon="1.90111">
        <ele>190</ele>
        <time>2016-05-16T11:00:36Z</time>
      </trkpt>
      <trkpt lat="48.6963" lon="1.90113">
        <ele>191</ele>
        <time>2016-05-16T11:00:37Z</time>
      </trkpt>
      <trkpt lat="48.6963" lon="1.90113">
        <ele>191</ele>
        <time>2016-05-16T11:00:37Z</time>
      </trkpt>
      <trkpt lat="48.69629" lon="1.90113">
        <ele>192</ele>
        <time>2016-05-16T11:00:38Z</time>
      </trkpt>
      <trkpt lat="48.69628" lon="1.90125">
        <ele>191</ele>
        <time>2016-05-16T11:00:44Z</time>
      </trkpt>
      <trkpt lat="48.69628" lon="1.90128">
        <ele>192</ele>
        <time>2016-05-16T11:00:45Z</time>
      </trkpt>
      <trkpt lat="48.69624" lon="1.90138">
        <ele>195</ele>
        <time>2016-05-16T11:00:51Z</time>
      </trkpt>
      <trkpt lat="48.69622" lon="1.90143">
        <ele>194</ele>
        <time>2016-05-16T11:00:52Z</time>
      </trkpt>
      <trkpt lat="48.69619" lon="1.90153">
        <ele>192</ele>
        <time>2016-05-16T11:00:55Z</time>
      </trkpt>
      <trkpt lat="48.69619" lon="1.90157">
        <ele>194</ele>
        <time>2016-05-16T11:00:56Z</time>
      </trkpt>
      <trkpt lat="48.69613" lon="1.90162">
        <ele>191</ele>
        <time>2016-05-16T11:00:59Z</time>
      </trkpt>
      <trkpt lat="48.69609" lon="1.90166">
        <ele>193</ele>
        <time>2016-05-16T11:01:00Z</time>
      </trkpt>
      <trkpt lat="48.69605" lon="1.9017">
        <ele>195</ele>
        <time>2016-05-16T11:01:02Z</time>
      </trkpt>
      <trkpt lat="48.69601" lon="1.90175">
        <ele>194</ele>
        <time>2016-05-16T11:01:03Z</time>
      </trkpt>
      <trkpt lat="48.69596" lon="1.90185">
        <ele>196</ele>
        <time>2016-05-16T11:01:12Z</time>
      </trkpt>
      <trkpt lat="48.69595" lon="1.90187">
        <ele>195</ele>
        <time>2016-05-16T11:01:13Z</time>
      </trkpt>
      <trkpt lat="48.69594" lon="1.9019">
        <ele>196</ele>
        <time>2016-05-16T11:01:15Z</time>
      </trkpt>
      <trkpt lat="48.69592" lon="1.902">
        <ele>194</ele>
        <time>2016-05-16T11:01:16Z</time>
      </trkpt>
      <trkpt lat="48.69613" lon="1.90212">
        <ele>195</ele>
        <time>2016-05-16T11:01:23Z</time>
      </trkpt>
      <trkpt lat="48.6962" lon="1.90215">
        <ele>195</ele>
        <time>2016-05-16T11:01:24Z</time>
      </trkpt>
      <trkpt lat="48.69626" lon="1.90215">
        <ele>197</ele>
        <time>2016-05-16T11:01:25Z</time>
      </trkpt>
      <trkpt lat="48.69614" lon="1.902">
        <ele>191</ele>
        <time>2016-05-16T11:01:26Z</time>
      </trkpt>
      <trkpt lat="48.69619" lon="1.90209">
        <ele>186</ele>
        <time>2016-05-16T11:01:33Z</time>
      </trkpt>
      <trkpt lat="48.6962" lon="1.90213">
        <ele>185</ele>
        <time>2016-05-16T11:01:34Z</time>
      </trkpt>
      <trkpt lat="48.69612" lon="1.90215">
        <ele>182</ele>
        <time>2016-05-16T11:01:39Z</time>
      </trkpt>
      <trkpt lat="48.69611" lon="1.90211">
        <ele>180</ele>
        <time>2016-05-16T11:01:40Z</time>
      </trkpt>
      <trkpt lat="48.69608" lon="1.90224">
        <ele>181</ele>
        <time>2016-05-16T11:01:42Z</time>
      </trkpt>
      <trkpt lat="48.69607" lon="1.90227">
        <ele>179</ele>
        <time>2016-05-16T11:01:43Z</time>
      </trkpt>
      <trkpt lat="48.69609" lon="1.90229">
        <ele>180</ele>
        <time>2016-05-16T11:01:45Z</time>
      </trkpt>
      <trkpt lat="48.69612" lon="1.90243">
        <ele>185</ele>
        <time>2016-05-16T11:01:56Z</time>
      </trkpt>
      <trkpt lat="48.69608" lon="1.90247">
        <ele>186</ele>
        <time>2016-05-16T11:01:57Z</time>
      </trkpt>
      <trkpt lat="48.69603" lon="1.90252">
        <ele>187</ele>
        <time>2016-05-16T11:01:58Z</time>
      </trkpt>
      <trkpt lat="48.69597" lon="1.90253">
        <ele>188</ele>
        <time>2016-05-16T11:02:00Z</time>
      </trkpt>
      <trkpt lat="48.69602" lon="1.90252">
        <ele>184</ele>
        <time>2016-05-16T11:02:01Z</time>
      </trkpt>
      <trkpt lat="48.69602" lon="1.90252">
        <ele>184</ele>
        <time>2016-05-16T11:02:01Z</time>
      </trkpt>
      <trkpt lat="48.696" lon="1.90254">
        <ele>187</ele>
        <time>2016-05-16T11:02:02Z</time>
      </trkpt>
      <trkpt lat="48.69594" lon="1.90263">
        <ele>191</ele>
        <time>2016-05-16T11:02:06Z</time>
      </trkpt>
      <trkpt lat="48.69596" lon="1.90267">
        <ele>191</ele>
        <time>2016-05-16T11:02:07Z</time>
      </trkpt>
      <trkpt lat="48.69596" lon="1.90278">
        <ele>190</ele>
        <time>2016-05-16T11:02:52Z</time>
      </trkpt>
      <trkpt lat="48.69591" lon="1.90282">
        <ele>190</ele>
        <time>2016-05-16T11:02:53Z</time>
      </trkpt>
      <trkpt lat="48.69592" lon="1.90286">
        <ele>191</ele>
        <time>2016-05-16T11:02:54Z</time>
      </trkpt>
      <trkpt lat="48.69591" lon="1.9029">
        <ele>191</ele>
        <time>2016-05-16T11:02:55Z</time>
      </trkpt>
      <trkpt lat="48.69591" lon="1.9029">
        <ele>191</ele>
        <time>2016-05-16T11:02:55Z</time>
      </trkpt>
      <trkpt lat="48.69592" lon="1.90293">
        <ele>193</ele>
        <time>2016-05-16T11:02:56Z</time>
      </trkpt>
      <trkpt lat="48.69592" lon="1.90293">
        <ele>193</ele>
        <time>2016-05-16T11:02:56Z</time>
      </trkpt>
      <trkpt lat="48.69589" lon="1.90294">
        <ele>191</ele>
        <time>2016-05-16T11:02:57Z</time>
      </trkpt>
      <trkpt lat="48.69585" lon="1.90302">
        <ele>191</ele>
        <time>2016-05-16T11:03:03Z</time>
      </trkpt>
      <trkpt lat="48.69583" lon="1.90306">
        <ele>191</ele>
        <time>2016-05-16T11:03:04Z</time>
      </trkpt>
      <trkpt lat="48.69578" lon="1.90314">
        <ele>192</ele>
        <time>2016-05-16T11:03:07Z</time>
      </trkpt>
      <trkpt lat="48.69576" lon="1.90317">
        <ele>192</ele>
        <time>2016-05-16T11:03:08Z</time>
      </trkpt>
      <trkpt lat="48.69576" lon="1.90328">
        <ele>192</ele>
        <time>2016-05-16T11:03:13Z</time>
      </trkpt>
      <trkpt lat="48.69575" lon="1.90331">
        <ele>192</ele>
        <time>2016-05-16T11:03:14Z</time>
      </trkpt>
      <trkpt lat="48.69573" lon="1.90342">
        <ele>188</ele>
        <time>2016-05-16T11:03:20Z</time>
      </trkpt>
      <trkpt lat="48.69574" lon="1.90346">
        <ele>188</ele>
        <time>2016-05-16T11:03:21Z</time>
      </trkpt>
      <trkpt lat="48.69574" lon="1.90357">
        <ele>186</ele>
        <time>2016-05-16T11:03:27Z</time>
      </trkpt>
      <trkpt lat="48.69573" lon="1.9036">
        <ele>185</ele>
        <time>2016-05-16T11:03:28Z</time>
      </trkpt>
      <trkpt lat="48.69569" lon="1.9037">
        <ele>183</ele>
        <time>2016-05-16T11:03:34Z</time>
      </trkpt>
      <trkpt lat="48.69568" lon="1.90372">
        <ele>183</ele>
        <time>2016-05-16T11:03:35Z</time>
      </trkpt>
      <trkpt lat="48.69563" lon="1.90383">
        <ele>181</ele>
        <time>2016-05-16T11:03:43Z</time>
      </trkpt>
      <trkpt lat="48.69564" lon="1.90384">
        <ele>181</ele>
        <time>2016-05-16T11:03:44Z</time>
      </trkpt>
      <trkpt lat="48.69562" lon="1.90396">
        <ele>177</ele>
        <time>2016-05-16T11:03:52Z</time>
      </trkpt>
      <trkpt lat="48.6956" lon="1.904">
        <ele>177</ele>
        <time>2016-05-16T11:03:53Z</time>
      </trkpt>
      <trkpt lat="48.69563" lon="1.90412">
        <ele>179</ele>
        <time>2016-05-16T11:03:58Z</time>
      </trkpt>
      <trkpt lat="48.69563" lon="1.90413">
        <ele>179</ele>
        <time>2016-05-16T11:03:59Z</time>
      </trkpt>
      <trkpt lat="48.69563" lon="1.90413">
        <ele>179</ele>
        <time>2016-05-16T11:03:59Z</time>
      </trkpt>
      <trkpt lat="48.69564" lon="1.90414">
        <ele>178</ele>
        <time>2016-05-16T11:04:00Z</time>
      </trkpt>
      <trkpt lat="48.69564" lon="1.90414">
        <ele>178</ele>
        <time>2016-05-16T11:04:00Z</time>
      </trkpt>
      <trkpt lat="48.69565" lon="1.90415">
        <ele>178</ele>
        <time>2016-05-16T11:04:01Z</time>
      </trkpt>
      <trkpt lat="48.69565" lon="1.90415">
        <ele>178</ele>
        <time>2016-05-16T11:04:01Z</time>
      </trkpt>
      <trkpt lat="48.69565" lon="1.90418">
        <ele>178</ele>
        <time>2016-05-16T11:04:02Z</time>
      </trkpt>
      <trkpt lat="48.69565" lon="1.90418">
        <ele>178</ele>
        <time>2016-05-16T11:04:02Z</time>
      </trkpt>
      <trkpt lat="48.69567" lon="1.90418">
        <ele>178</ele>
        <time>2016-05-16T11:04:03Z</time>
      </trkpt>
      <trkpt lat="48.69564" lon="1.90429">
        <ele>178</ele>
        <time>2016-05-16T11:04:07Z</time>
      </trkpt>
      <trkpt lat="48.69561" lon="1.9043">
        <ele>178</ele>
        <time>2016-05-16T11:04:08Z</time>
      </trkpt>
      <trkpt lat="48.69558" lon="1.90439">
        <ele>173</ele>
        <time>2016-05-16T11:04:14Z</time>
      </trkpt>
      <trkpt lat="48.69557" lon="1.90442">
        <ele>172</ele>
        <time>2016-05-16T11:04:15Z</time>
      </trkpt>
      <trkpt lat="48.69556" lon="1.90451">
        <ele>173</ele>
        <time>2016-05-16T11:04:20Z</time>
      </trkpt>
      <trkpt lat="48.69555" lon="1.90452">
        <ele>174</ele>
        <time>2016-05-16T11:04:21Z</time>
      </trkpt>
      <trkpt lat="48.69552" lon="1.90465">
        <ele>176</ele>
        <time>2016-05-16T11:04:46Z</time>
      </trkpt>
      <trkpt lat="48.69551" lon="1.90465">
        <ele>176</ele>
        <time>2016-05-16T11:04:47Z</time>
      </trkpt>
      <trkpt lat="48.69548" lon="1.90475">
        <ele>180</ele>
        <time>2016-05-16T11:05:01Z</time>
      </trkpt>
      <trkpt lat="48.69546" lon="1.90479">
        <ele>180</ele>
        <time>2016-05-16T11:05:02Z</time>
      </trkpt>
      <trkpt lat="48.6954" lon="1.90488">
        <ele>177</ele>
        <time>2016-05-16T11:05:08Z</time>
      </trkpt>
      <trkpt lat="48.69539" lon="1.90489">
        <ele>179</ele>
        <time>2016-05-16T11:05:09Z</time>
      </trkpt>
      <trkpt lat="48.69538" lon="1.90495">
        <ele>178</ele>
        <time>2016-05-16T11:05:10Z</time>
      </trkpt>
      <trkpt lat="48.69538" lon="1.90498">
        <ele>180</ele>
        <time>2016-05-16T11:05:11Z</time>
      </trkpt>
      <trkpt lat="48.69538" lon="1.90498">
        <ele>180</ele>
        <time>2016-05-16T11:05:11Z</time>
      </trkpt>
      <trkpt lat="48.69538" lon="1.90498">
        <ele>181</ele>
        <time>2016-05-16T11:05:12Z</time>
      </trkpt>
      <trkpt lat="48.69531" lon="1.90507">
        <ele>182</ele>
        <time>2016-05-16T11:05:23Z</time>
      </trkpt>
      <trkpt lat="48.6953" lon="1.90508">
        <ele>181</ele>
        <time>2016-05-16T11:05:24Z</time>
      </trkpt>
      <trkpt lat="48.69525" lon="1.90518">
        <ele>183</ele>
        <time>2016-05-16T11:05:37Z</time>
      </trkpt>
      <trkpt lat="48.69523" lon="1.90523">
        <ele>185</ele>
        <time>2016-05-16T11:05:38Z</time>
      </trkpt>
      <trkpt lat="48.6952" lon="1.90534">
        <ele>182</ele>
        <time>2016-05-16T11:05:41Z</time>
      </trkpt>
      <trkpt lat="48.69521" lon="1.90537">
        <ele>182</ele>
        <time>2016-05-16T11:05:42Z</time>
      </trkpt>
      <trkpt lat="48.69515" lon="1.90547">
        <ele>186</ele>
        <time>2016-05-16T11:05:45Z</time>
      </trkpt>
      <trkpt lat="48.69513" lon="1.90549">
        <ele>189</ele>
        <time>2016-05-16T11:05:46Z</time>
      </trkpt>
      <trkpt lat="48.6951" lon="1.90559">
        <ele>194</ele>
        <time>2016-05-16T11:05:50Z</time>
      </trkpt>
      <trkpt lat="48.69508" lon="1.90564">
        <ele>194</ele>
        <time>2016-05-16T11:05:51Z</time>
      </trkpt>
      <trkpt lat="48.69508" lon="1.90564">
        <ele>194</ele>
        <time>2016-05-16T11:05:51Z</time>
      </trkpt>
      <trkpt lat="48.69502" lon="1.90572">
        <ele>194</ele>
        <time>2016-05-16T11:05:57Z</time>
      </trkpt>
      <trkpt lat="48.69501" lon="1.90574">
        <ele>192</ele>
        <time>2016-05-16T11:05:58Z</time>
      </trkpt>
      <trkpt lat="48.69495" lon="1.90584">
        <ele>195</ele>
        <time>2016-05-16T11:06:04Z</time>
      </trkpt>
      <trkpt lat="48.69495" lon="1.90584">
        <ele>196</ele>
        <time>2016-05-16T11:06:05Z</time>
      </trkpt>
      <trkpt lat="48.69491" lon="1.90596">
        <ele>197</ele>
        <time>2016-05-16T11:06:18Z</time>
      </trkpt>
      <trkpt lat="48.69492" lon="1.90598">
        <ele>197</ele>
        <time>2016-05-16T11:06:19Z</time>
      </trkpt>
      <trkpt lat="48.69488" lon="1.90608">
        <ele>193</ele>
        <time>2016-05-16T11:06:24Z</time>
      </trkpt>
      <trkpt lat="48.69487" lon="1.90611">
        <ele>191</ele>
        <time>2016-05-16T11:06:25Z</time>
      </trkpt>
      <trkpt lat="48.6948" lon="1.90618">
        <ele>182</ele>
        <time>2016-05-16T11:06:32Z</time>
      </trkpt>
      <trkpt lat="48.69479" lon="1.90618">
        <ele>183</ele>
        <time>2016-05-16T11:06:33Z</time>
      </trkpt>
      <trkpt lat="48.69474" lon="1.90623">
        <ele>176</ele>
        <time>2016-05-16T11:06:39Z</time>
      </trkpt>
      <trkpt lat="48.69472" lon="1.90628">
        <ele>174</ele>
        <time>2016-05-16T11:06:40Z</time>
      </trkpt>
      <trkpt lat="48.69468" lon="1.90637">
        <ele>170</ele>
        <time>2016-05-16T11:06:44Z</time>
      </trkpt>
      <trkpt lat="48.69467" lon="1.90643">
        <ele>169</ele>
        <time>2016-05-16T11:06:45Z</time>
      </trkpt>
      <trkpt lat="48.6946" lon="1.90649">
        <ele>169</ele>
        <time>2016-05-16T11:06:51Z</time>
      </trkpt>
      <trkpt lat="48.69459" lon="1.9065">
        <ele>168</ele>
        <time>2016-05-16T11:06:52Z</time>
      </trkpt>
      <trkpt lat="48.69453" lon="1.90653">
        <ele>171</ele>
        <time>2016-05-16T11:06:54Z</time>
      </trkpt>
      <trkpt lat="48.6945" lon="1.90653">
        <ele>172</ele>
        <time>2016-05-16T11:06:55Z</time>
      </trkpt>
      <trkpt lat="48.69443" lon="1.90659">
        <ele>173</ele>
        <time>2016-05-16T11:06:59Z</time>
      </trkpt>
      <trkpt lat="48.6944" lon="1.90662">
        <ele>174</ele>
        <time>2016-05-16T11:07:00Z</time>
      </trkpt>
      <trkpt lat="48.69436" lon="1.9067">
        <ele>174</ele>
        <time>2016-05-16T11:07:04Z</time>
      </trkpt>
      <trkpt lat="48.69434" lon="1.90673">
        <ele>174</ele>
        <time>2016-05-16T11:07:05Z</time>
      </trkpt>
      <trkpt lat="48.69431" lon="1.90685">
        <ele>176</ele>
        <time>2016-05-16T11:07:08Z</time>
      </trkpt>
      <trkpt lat="48.69429" lon="1.90688">
        <ele>177</ele>
        <time>2016-05-16T11:07:09Z</time>
      </trkpt>
      <trkpt lat="48.6942" lon="1.9069">
        <ele>178</ele>
        <time>2016-05-16T11:07:15Z</time>
      </trkpt>
      <trkpt lat="48.69417" lon="1.90689">
        <ele>179</ele>
        <time>2016-05-16T11:07:16Z</time>
      </trkpt>
      <trkpt lat="48.69413" lon="1.90699">
        <ele>180</ele>
        <time>2016-05-16T11:07:25Z</time>
      </trkpt>
      <trkpt lat="48.69413" lon="1.90703">
        <ele>180</ele>
        <time>2016-05-16T11:07:26Z</time>
      </trkpt>
      <trkpt lat="48.69415" lon="1.90698">
        <ele>180</ele>
        <time>2016-05-16T11:07:27Z</time>
      </trkpt>
      <trkpt lat="48.69417" lon="1.90689">
        <ele>180</ele>
        <time>2016-05-16T11:07:28Z</time>
      </trkpt>
      <trkpt lat="48.69409" lon="1.90688">
        <ele>178</ele>
        <time>2016-05-16T11:07:32Z</time>
      </trkpt>
      <trkpt lat="48.69406" lon="1.90687">
        <ele>179</ele>
        <time>2016-05-16T11:07:33Z</time>
      </trkpt>
      <trkpt lat="48.69401" lon="1.90694">
        <ele>182</ele>
        <time>2016-05-16T11:07:37Z</time>
      </trkpt>
      <trkpt lat="48.69398" lon="1.90693">
        <ele>182</ele>
        <time>2016-05-16T11:07:38Z</time>
      </trkpt>
      <trkpt lat="48.69394" lon="1.90705">
        <ele>185</ele>
        <time>2016-05-16T11:07:45Z</time>
      </trkpt>
      <trkpt lat="48.69393" lon="1.90706">
        <ele>185</ele>
        <time>2016-05-16T11:07:46Z</time>
      </trkpt>
      <trkpt lat="48.69389" lon="1.90717">
        <ele>188</ele>
        <time>2016-05-16T11:07:49Z</time>
      </trkpt>
      <trkpt lat="48.69386" lon="1.9072">
        <ele>188</ele>
        <time>2016-05-16T11:07:50Z</time>
      </trkpt>
      <trkpt lat="48.6938" lon="1.90725">
        <ele>190</ele>
        <time>2016-05-16T11:07:59Z</time>
      </trkpt>
      <trkpt lat="48.69376" lon="1.90727">
        <ele>191</ele>
        <time>2016-05-16T11:08:00Z</time>
      </trkpt>
      <trkpt lat="48.69377" lon="1.90731">
        <ele>194</ele>
        <time>2016-05-16T11:08:04Z</time>
      </trkpt>
      <trkpt lat="48.69376" lon="1.90729">
        <ele>194</ele>
        <time>2016-05-16T11:08:05Z</time>
      </trkpt>
      <trkpt lat="48.69376" lon="1.90731">
        <ele>194</ele>
        <time>2016-05-16T11:08:06Z</time>
      </trkpt>
      <trkpt lat="48.69374" lon="1.90732">
        <ele>193</ele>
        <time>2016-05-16T11:08:07Z</time>
      </trkpt>
      <trkpt lat="48.6937" lon="1.90737">
        <ele>196</ele>
        <time>2016-05-16T11:08:10Z</time>
      </trkpt>
      <trkpt lat="48.69369" lon="1.90738">
        <ele>197</ele>
        <time>2016-05-16T11:08:11Z</time>
      </trkpt>
      <trkpt lat="48.69369" lon="1.90738">
        <ele>197</ele>
        <time>2016-05-16T11:08:11Z</time>
      </trkpt>
      <trkpt lat="48.6937" lon="1.90738">
        <ele>198</ele>
        <time>2016-05-16T11:08:12Z</time>
      </trkpt>
      <trkpt lat="48.69361" lon="1.90739">
        <ele>195</ele>
        <time>2016-05-16T11:08:41Z</time>
      </trkpt>
      <trkpt lat="48.6936" lon="1.90738">
        <ele>195</ele>
        <time>2016-05-16T11:08:42Z</time>
      </trkpt>
      <trkpt lat="48.69352" lon="1.90739">
        <ele>196</ele>
        <time>2016-05-16T11:08:46Z</time>
      </trkpt>
      <trkpt lat="48.69351" lon="1.90739">
        <ele>195</ele>
        <time>2016-05-16T11:08:47Z</time>
      </trkpt>
      <trkpt lat="48.69344" lon="1.90745">
        <ele>192</ele>
        <time>2016-05-16T11:08:51Z</time>
      </trkpt>
      <trkpt lat="48.69341" lon="1.90743">
        <ele>193</ele>
        <time>2016-05-16T11:08:52Z</time>
      </trkpt>
      <trkpt lat="48.69337" lon="1.90747">
        <ele>192</ele>
        <time>2016-05-16T11:08:53Z</time>
      </trkpt>
      <trkpt lat="48.69331" lon="1.90751">
        <ele>192</ele>
        <time>2016-05-16T11:08:54Z</time>
      </trkpt>
      <trkpt lat="48.6933" lon="1.90761">
        <ele>187</ele>
        <time>2016-05-16T11:09:01Z</time>
      </trkpt>
      <trkpt lat="48.69328" lon="1.90764">
        <ele>187</ele>
        <time>2016-05-16T11:09:02Z</time>
      </trkpt>
      <trkpt lat="48.6932" lon="1.90759">
        <ele>184</ele>
        <time>2016-05-16T11:09:06Z</time>
      </trkpt>
      <trkpt lat="48.69315" lon="1.90761">
        <ele>186</ele>
        <time>2016-05-16T11:09:07Z</time>
      </trkpt>
      <trkpt lat="48.69308" lon="1.90766">
        <ele>186</ele>
        <time>2016-05-16T11:09:10Z</time>
      </trkpt>
      <trkpt lat="48.69305" lon="1.90768">
        <ele>185</ele>
        <time>2016-05-16T11:09:11Z</time>
      </trkpt>
      <trkpt lat="48.69297" lon="1.90773">
        <ele>185</ele>
        <time>2016-05-16T11:09:25Z</time>
      </trkpt>
      <trkpt lat="48.69293" lon="1.90773">
        <ele>186</ele>
        <time>2016-05-16T11:09:26Z</time>
      </trkpt>
      <trkpt lat="48.69301" lon="1.90781">
        <ele>182</ele>
        <time>2016-05-16T11:09:38Z</time>
      </trkpt>
      <trkpt lat="48.69301" lon="1.90782">
        <ele>183</ele>
        <time>2016-05-16T11:09:39Z</time>
      </trkpt>
      <trkpt lat="48.69295" lon="1.9079">
        <ele>176</ele>
        <time>2016-05-16T11:09:53Z</time>
      </trkpt>
      <trkpt lat="48.69292" lon="1.9079">
        <ele>174</ele>
        <time>2016-05-16T11:09:54Z</time>
      </trkpt>
      <trkpt lat="48.69285" lon="1.90795">
        <ele>174</ele>
        <time>2016-05-16T11:10:00Z</time>
      </trkpt>
      <trkpt lat="48.69284" lon="1.90797">
        <ele>174</ele>
        <time>2016-05-16T11:10:01Z</time>
      </trkpt>
      <trkpt lat="48.69278" lon="1.90805">
        <ele>181</ele>
        <time>2016-05-16T11:11:12Z</time>
      </trkpt>
      <trkpt lat="48.69276" lon="1.90807">
        <ele>180</ele>
        <time>2016-05-16T11:11:13Z</time>
      </trkpt>
      <trkpt lat="48.69271" lon="1.90806">
        <ele>180</ele>
        <time>2016-05-16T11:11:20Z</time>
      </trkpt>
      <trkpt lat="48.69271" lon="1.90809">
        <ele>180</ele>
        <time>2016-05-16T11:11:21Z</time>
      </trkpt>
      <trkpt lat="48.69271" lon="1.90809">
        <ele>180</ele>
        <time>2016-05-16T11:11:21Z</time>
      </trkpt>
      <trkpt lat="48.6927" lon="1.90809">
        <ele>180</ele>
        <time>2016-05-16T11:11:22Z</time>
      </trkpt>
      <trkpt lat="48.69264" lon="1.90817">
        <ele>181</ele>
        <time>2016-05-16T11:11:28Z</time>
      </trkpt>
      <trkpt lat="48.69265" lon="1.90814">
        <ele>181</ele>
        <time>2016-05-16T11:11:29Z</time>
      </trkpt>
      <trkpt lat="48.69265" lon="1.90814">
        <ele>181</ele>
        <time>2016-05-16T11:11:29Z</time>
      </trkpt>
      <trkpt lat="48.69262" lon="1.90814">
        <ele>178</ele>
        <time>2016-05-16T11:11:30Z</time>
      </trkpt>
      <trkpt lat="48.6926" lon="1.90812">
        <ele>173</ele>
        <time>2016-05-16T11:11:37Z</time>
      </trkpt>
      <trkpt lat="48.69259" lon="1.90815">
        <ele>174</ele>
        <time>2016-05-16T11:11:38Z</time>
      </trkpt>
      <trkpt lat="48.69259" lon="1.90815">
        <ele>174</ele>
        <time>2016-05-16T11:11:38Z</time>
      </trkpt>
      <trkpt lat="48.69258" lon="1.90815">
        <ele>174</ele>
        <time>2016-05-16T11:11:39Z</time>
      </trkpt>
      <trkpt lat="48.69251" lon="1.90816">
        <ele>173</ele>
        <time>2016-05-16T11:12:17Z</time>
      </trkpt>
      <trkpt lat="48.69248" lon="1.90814">
        <ele>173</ele>
        <time>2016-05-16T11:12:18Z</time>
      </trkpt>
      <trkpt lat="48.69239" lon="1.90817">
        <ele>171</ele>
        <time>2016-05-16T11:12:22Z</time>
      </trkpt>
      <trkpt lat="48.69238" lon="1.90815">
        <ele>171</ele>
        <time>2016-05-16T11:12:23Z</time>
      </trkpt>
      <trkpt lat="48.6923" lon="1.90821">
        <ele>175</ele>
        <time>2016-05-16T11:12:30Z</time>
      </trkpt>
      <trkpt lat="48.69229" lon="1.90823">
        <ele>176</ele>
        <time>2016-05-16T11:12:31Z</time>
      </trkpt>
      <trkpt lat="48.69223" lon="1.90827">
        <ele>177</ele>
        <time>2016-05-16T11:12:36Z</time>
      </trkpt>
      <trkpt lat="48.69221" lon="1.90829">
        <ele>177</ele>
        <time>2016-05-16T11:12:37Z</time>
      </trkpt>
      <trkpt lat="48.69215" lon="1.90832">
        <ele>176</ele>
        <time>2016-05-16T11:12:40Z</time>
      </trkpt>
      <trkpt lat="48.69216" lon="1.90832">
        <ele>176</ele>
        <time>2016-05-16T11:12:41Z</time>
      </trkpt>
      <trkpt lat="48.69214" lon="1.90833">
        <ele>173</ele>
        <time>2016-05-16T11:12:42Z</time>
      </trkpt>
      <trkpt lat="48.69209" lon="1.90835">
        <ele>171</ele>
        <time>2016-05-16T11:12:43Z</time>
      </trkpt>
      <trkpt lat="48.69203" lon="1.90839">
        <ele>170</ele>
        <time>2016-05-16T11:12:50Z</time>
      </trkpt>
      <trkpt lat="48.69201" lon="1.9084">
        <ele>170</ele>
        <time>2016-05-16T11:12:51Z</time>
      </trkpt>
      <trkpt lat="48.69192" lon="1.90842">
        <ele>170</ele>
        <time>2016-05-16T11:12:57Z</time>
      </trkpt>
      <trkpt lat="48.69188" lon="1.90843">
        <ele>170</ele>
        <time>2016-05-16T11:12:58Z</time>
      </trkpt>
      <trkpt lat="48.69185" lon="1.90855">
        <ele>169</ele>
        <time>2016-05-16T11:13:03Z</time>
      </trkpt>
      <trkpt lat="48.69182" lon="1.90859">
        <ele>166</ele>
        <time>2016-05-16T11:13:04Z</time>
      </trkpt>
      <trkpt lat="48.69181" lon="1.90858">
        <ele>167</ele>
        <time>2016-05-16T11:13:05Z</time>
      </trkpt>
      <trkpt lat="48.69182" lon="1.90856">
        <ele>165</ele>
        <time>2016-05-16T11:13:06Z</time>
      </trkpt>
      <trkpt lat="48.69182" lon="1.90856">
        <ele>165</ele>
        <time>2016-05-16T11:13:06Z</time>
      </trkpt>
      <trkpt lat="48.69178" lon="1.90855">
        <ele>165</ele>
        <time>2016-05-16T11:13:07Z</time>
      </trkpt>
      <trkpt lat="48.69169" lon="1.90855">
        <ele>170</ele>
        <time>2016-05-16T11:13:14Z</time>
      </trkpt>
      <trkpt lat="48.69168" lon="1.90855">
        <ele>172</ele>
        <time>2016-05-16T11:13:15Z</time>
      </trkpt>
      <trkpt lat="48.69168" lon="1.90855">
        <ele>172</ele>
        <time>2016-05-16T11:13:15Z</time>
      </trkpt>
      <trkpt lat="48.69166" lon="1.90855">
        <ele>173</ele>
        <time>2016-05-16T11:13:16Z</time>
      </trkpt>
      <trkpt lat="48.69164" lon="1.90855">
        <ele>175</ele>
        <time>2016-05-16T11:13:17Z</time>
      </trkpt>
      <trkpt lat="48.69157" lon="1.90862">
        <ele>182</ele>
        <time>2016-05-16T11:13:50Z</time>
      </trkpt>
      <trkpt lat="48.69156" lon="1.90862">
        <ele>183</ele>
        <time>2016-05-16T11:13:51Z</time>
      </trkpt>
      <trkpt lat="48.69149" lon="1.90869">
        <ele>179</ele>
        <time>2016-05-16T11:14:02Z</time>
      </trkpt>
      <trkpt lat="48.69148" lon="1.90868">
        <ele>178</ele>
        <time>2016-05-16T11:14:03Z</time>
      </trkpt>
      <trkpt lat="48.69142" lon="1.90865">
        <ele>181</ele>
        <time>2016-05-16T11:14:07Z</time>
      </trkpt>
      <trkpt lat="48.69139" lon="1.90863">
        <ele>182</ele>
        <time>2016-05-16T11:14:08Z</time>
      </trkpt>
      <trkpt lat="48.69133" lon="1.9087">
        <ele>184</ele>
        <time>2016-05-16T11:14:15Z</time>
      </trkpt>
      <trkpt lat="48.69128" lon="1.90873">
        <ele>186</ele>
        <time>2016-05-16T11:14:16Z</time>
      </trkpt>
      <trkpt lat="48.6912" lon="1.90875">
        <ele>191</ele>
        <time>2016-05-16T11:14:22Z</time>
      </trkpt>
      <trkpt lat="48.6912" lon="1.90876">
        <ele>190</ele>
        <time>2016-05-16T11:14:23Z</time>
      </trkpt>
      <trkpt lat="48.6912" lon="1.90876">
        <ele>190</ele>
        <time>2016-05-16T11:14:23Z</time>
      </trkpt>
      <trkpt lat="48.69119" lon="1.90876">
        <ele>190</ele>
        <time>2016-05-16T11:14:24Z</time>
      </trkpt>
      <trkpt lat="48.69112" lon="1.90881">
        <ele>188</ele>
        <time>2016-05-16T11:14:29Z</time>
      </trkpt>
      <trkpt lat="48.69111" lon="1.90881">
        <ele>189</ele>
        <time>2016-05-16T11:14:30Z</time>
      </trkpt>
      <trkpt lat="48.69104" lon="1.90884">
        <ele>191</ele>
        <time>2016-05-16T11:14:35Z</time>
      </trkpt>
      <trkpt lat="48.69101" lon="1.90884">
        <ele>191</ele>
        <time>2016-05-16T11:14:36Z</time>
      </trkpt>
      <trkpt lat="48.69094" lon="1.90887">
        <ele>193</ele>
        <time>2016-05-16T11:14:41Z</time>
      </trkpt>
      <trkpt lat="48.69091" lon="1.90884">
        <ele>192</ele>
        <time>2016-05-16T11:14:42Z</time>
      </trkpt>
      <trkpt lat="48.69085" lon="1.90875">
        <ele>190</ele>
        <time>2016-05-16T11:14:48Z</time>
      </trkpt>
      <trkpt lat="48.69083" lon="1.90874">
        <ele>191</ele>
        <time>2016-05-16T11:14:49Z</time>
      </trkpt>
      <trkpt lat="48.6908" lon="1.90879">
        <ele>190</ele>
        <time>2016-05-16T11:14:53Z</time>
      </trkpt>
      <trkpt lat="48.6908" lon="1.90879">
        <ele>190</ele>
        <time>2016-05-16T11:14:54Z</time>
      </trkpt>
      <trkpt lat="48.6908" lon="1.90879">
        <ele>190</ele>
        <time>2016-05-16T11:14:54Z</time>
      </trkpt>
      <trkpt lat="48.6908" lon="1.90876">
        <ele>192</ele>
        <time>2016-05-16T11:14:55Z</time>
      </trkpt>
      <trkpt lat="48.69076" lon="1.90868">
        <ele>185</ele>
        <time>2016-05-16T11:15:28Z</time>
      </trkpt>
      <trkpt lat="48.69075" lon="1.90863">
        <ele>184</ele>
        <time>2016-05-16T11:15:29Z</time>
      </trkpt>
      <trkpt lat="48.69068" lon="1.90863">
        <ele>184</ele>
        <time>2016-05-16T11:15:31Z</time>
      </trkpt>
      <trkpt lat="48.69063" lon="1.90859">
        <ele>185</ele>
        <time>2016-05-16T11:15:32Z</time>
      </trkpt>
      <trkpt lat="48.6906" lon="1.90853">
        <ele>186</ele>
        <time>2016-05-16T11:15:34Z</time>
      </trkpt>
      <trkpt lat="48.69056" lon="1.90848">
        <ele>188</ele>
        <time>2016-05-16T11:15:35Z</time>
      </trkpt>
      <trkpt lat="48.69052" lon="1.90837">
        <ele>185</ele>
        <time>2016-05-16T11:15:42Z</time>
      </trkpt>
      <trkpt lat="48.6905" lon="1.90837">
        <ele>186</ele>
        <time>2016-05-16T11:15:43Z</time>
      </trkpt>
      <trkpt lat="48.69044" lon="1.90828">
        <ele>187</ele>
        <time>2016-05-16T11:16:05Z</time>
      </trkpt>
      <trkpt lat="48.6904" lon="1.90826">
        <ele>187</ele>
        <time>2016-05-16T11:16:06Z</time>
      </trkpt>
      <trkpt lat="48.6904" lon="1.90826">
        <ele>187</ele>
        <time>2016-05-16T11:16:06Z</time>
      </trkpt>
      <trkpt lat="48.69043" lon="1.90813">
        <ele>180</ele>
        <time>2016-05-16T11:16:07Z</time>
      </trkpt>
      <trkpt lat="48.69036" lon="1.90805">
        <ele>180</ele>
        <time>2016-05-16T11:16:12Z</time>
      </trkpt>
      <trkpt lat="48.69034" lon="1.90803">
        <ele>180</ele>
        <time>2016-05-16T11:16:13Z</time>
      </trkpt>
      <trkpt lat="48.69029" lon="1.90796">
        <ele>180</ele>
        <time>2016-05-16T11:16:19Z</time>
      </trkpt>
      <trkpt lat="48.69029" lon="1.90793">
        <ele>178</ele>
        <time>2016-05-16T11:16:20Z</time>
      </trkpt>
      <trkpt lat="48.69022" lon="1.90784">
        <ele>174</ele>
        <time>2016-05-16T11:16:29Z</time>
      </trkpt>
      <trkpt lat="48.69022" lon="1.90783">
        <ele>174</ele>
        <time>2016-05-16T11:16:30Z</time>
      </trkpt>
      <trkpt lat="48.69015" lon="1.90779">
        <ele>180</ele>
        <time>2016-05-16T11:16:40Z</time>
      </trkpt>
      <trkpt lat="48.69012" lon="1.90777">
        <ele>179</ele>
        <time>2016-05-16T11:16:41Z</time>
      </trkpt>
      <trkpt lat="48.69003" lon="1.90775">
        <ele>182</ele>
        <time>2016-05-16T11:16:46Z</time>
      </trkpt>
      <trkpt lat="48.69003" lon="1.90773">
        <ele>182</ele>
        <time>2016-05-16T11:16:47Z</time>
      </trkpt>
      <trkpt lat="48.68999" lon="1.90767">
        <ele>173</ele>
        <time>2016-05-16T11:16:49Z</time>
      </trkpt>
      <trkpt lat="48.68995" lon="1.90766">
        <ele>173</ele>
        <time>2016-05-16T11:16:50Z</time>
      </trkpt>
      <trkpt lat="48.68988" lon="1.9076">
        <ele>174</ele>
        <time>2016-05-16T11:16:53Z</time>
      </trkpt>
      <trkpt lat="48.68986" lon="1.9076">
        <ele>173</ele>
        <time>2016-05-16T11:16:54Z</time>
      </trkpt>
      <trkpt lat="48.68978" lon="1.90761">
        <ele>174</ele>
        <time>2016-05-16T11:16:59Z</time>
      </trkpt>
      <trkpt lat="48.68976" lon="1.9076">
        <ele>173</ele>
        <time>2016-05-16T11:17:00Z</time>
      </trkpt>
      <trkpt lat="48.68973" lon="1.90764">
        <ele>174</ele>
        <time>2016-05-16T11:17:01Z</time>
      </trkpt>
      <trkpt lat="48.68972" lon="1.90761">
        <ele>170</ele>
        <time>2016-05-16T11:17:02Z</time>
      </trkpt>
      <trkpt lat="48.68972" lon="1.90761">
        <ele>170</ele>
        <time>2016-05-16T11:17:02Z</time>
      </trkpt>
      <trkpt lat="48.6897" lon="1.90761">
        <ele>172</ele>
        <time>2016-05-16T11:17:03Z</time>
      </trkpt>
      <trkpt lat="48.68967" lon="1.9076">
        <ele>172</ele>
        <time>2016-05-16T11:17:05Z</time>
      </trkpt>
      <trkpt lat="48.68967" lon="1.9076">
        <ele>172</ele>
        <time>2016-05-16T11:17:06Z</time>
      </trkpt>
      <trkpt lat="48.68967" lon="1.9076">
        <ele>172</ele>
        <time>2016-05-16T11:17:06Z</time>
      </trkpt>
      <trkpt lat="48.68965" lon="1.90761">
        <ele>173</ele>
        <time>2016-05-16T11:17:07Z</time>
      </trkpt>
      <trkpt lat="48.68959" lon="1.90759">
        <ele>177</ele>
        <time>2016-05-16T11:17:33Z</time>
      </trkpt>
      <trkpt lat="48.68956" lon="1.9076">
        <ele>178</ele>
        <time>2016-05-16T11:17:34Z</time>
      </trkpt>
      <trkpt lat="48.6895" lon="1.90763">
        <ele>178</ele>
        <time>2016-05-16T11:17:36Z</time>
      </trkpt>
      <trkpt lat="48.68947" lon="1.90764">
        <ele>178</ele>
        <time>2016-05-16T11:17:37Z</time>
      </trkpt>
      <trkpt lat="48.68941" lon="1.90763">
        <ele>178</ele>
        <time>2016-05-16T11:17:41Z</time>
      </trkpt>
      <trkpt lat="48.68937" lon="1.90767">
        <ele>177</ele>
        <time>2016-05-16T11:17:42Z</time>
      </trkpt>
      <trkpt lat="48.68933" lon="1.90771">
        <ele>179</ele>
        <time>2016-05-16T11:17:45Z</time>
      </trkpt>
      <trkpt lat="48.68931" lon="1.90771">
        <ele>179</ele>
        <time>2016-05-16T11:17:46Z</time>
      </trkpt>
      <trkpt lat="48.68931" lon="1.90771">
        <ele>179</ele>
        <time>2016-05-16T11:17:46Z</time>
      </trkpt>
      <trkpt lat="48.6893" lon="1.90772">
        <ele>178</ele>
        <time>2016-05-16T11:17:47Z</time>
      </trkpt>
      <trkpt lat="48.68922" lon="1.90778">
        <ele>181</ele>
        <time>2016-05-16T11:18:04Z</time>
      </trkpt>
      <trkpt lat="48.68921" lon="1.9078">
        <ele>182</ele>
        <time>2016-05-16T11:18:05Z</time>
      </trkpt>
      <trkpt lat="48.68913" lon="1.9078">
        <ele>182</ele>
        <time>2016-05-16T11:18:41Z</time>
      </trkpt>
      <trkpt lat="48.6891" lon="1.90777">
        <ele>183</ele>
        <time>2016-05-16T11:18:42Z</time>
      </trkpt>
      <trkpt lat="48.68905" lon="1.90783">
        <ele>179</ele>
        <time>2016-05-16T11:18:43Z</time>
      </trkpt>
      <trkpt lat="48.68901" lon="1.90783">
        <ele>182</ele>
        <time>2016-05-16T11:18:44Z</time>
      </trkpt>
      <trkpt lat="48.68896" lon="1.90777">
        <ele>188</ele>
        <time>2016-05-16T11:18:48Z</time>
      </trkpt>
      <trkpt lat="48.6889" lon="1.90772">
        <ele>189</ele>
        <time>2016-05-16T11:18:49Z</time>
      </trkpt>
      <trkpt lat="48.68883" lon="1.90773">
        <ele>192</ele>
        <time>2016-05-16T11:18:54Z</time>
      </trkpt>
      <trkpt lat="48.68881" lon="1.9077">
        <ele>189</ele>
        <time>2016-05-16T11:18:55Z</time>
      </trkpt>
      <trkpt lat="48.68876" lon="1.90768">
        <ele>186</ele>
        <time>2016-05-16T11:19:01Z</time>
      </trkpt>
      <trkpt lat="48.68876" lon="1.90768">
        <ele>185</ele>
        <time>2016-05-16T11:19:02Z</time>
      </trkpt>
      <trkpt lat="48.68876" lon="1.90768">
        <ele>185</ele>
        <time>2016-05-16T11:19:02Z</time>
      </trkpt>
      <trkpt lat="48.68876" lon="1.9077">
        <ele>184</ele>
        <time>2016-05-16T11:19:03Z</time>
      </trkpt>
      <trkpt lat="48.68867" lon="1.90769">
        <ele>190</ele>
        <time>2016-05-16T11:19:31Z</time>
      </trkpt>
      <trkpt lat="48.68865" lon="1.90768">
        <ele>190</ele>
        <time>2016-05-16T11:19:32Z</time>
      </trkpt>
      <trkpt lat="48.68857" lon="1.90764">
        <ele>190</ele>
        <time>2016-05-16T11:19:37Z</time>
      </trkpt>
      <trkpt lat="48.68857" lon="1.90765">
        <ele>189</ele>
        <time>2016-05-16T11:19:38Z</time>
      </trkpt>
      <trkpt lat="48.68856" lon="1.90764">
        <ele>189</ele>
        <time>2016-05-16T11:19:39Z</time>
      </trkpt>
      <trkpt lat="48.68855" lon="1.90763">
        <ele>189</ele>
        <time>2016-05-16T11:19:40Z</time>
      </trkpt>
      <trkpt lat="48.68846" lon="1.90763">
        <ele>191</ele>
        <time>2016-05-16T11:19:45Z</time>
      </trkpt>
      <trkpt lat="48.68844" lon="1.90762">
        <ele>191</ele>
        <time>2016-05-16T11:19:46Z</time>
      </trkpt>
      <trkpt lat="48.68836" lon="1.90758">
        <ele>188</ele>
        <time>2016-05-16T11:19:51Z</time>
      </trkpt>
      <trkpt lat="48.68836" lon="1.90755">
        <ele>189</ele>
        <time>2016-05-16T11:19:52Z</time>
      </trkpt>
      <trkpt lat="48.68829" lon="1.90755">
        <ele>191</ele>
        <time>2016-05-16T11:19:57Z</time>
      </trkpt>
      <trkpt lat="48.68826" lon="1.90753">
        <ele>189</ele>
        <time>2016-05-16T11:19:58Z</time>
      </trkpt>
      <trkpt lat="48.6882" lon="1.90757">
        <ele>191</ele>
        <time>2016-05-16T11:20:02Z</time>
      </trkpt>
      <trkpt lat="48.68817" lon="1.90761">
        <ele>193</ele>
        <time>2016-05-16T11:20:03Z</time>
      </trkpt>
      <trkpt lat="48.68811" lon="1.90752">
        <ele>193</ele>
        <time>2016-05-16T11:20:13Z</time>
      </trkpt>
      <trkpt lat="48.68808" lon="1.90753">
        <ele>194</ele>
        <time>2016-05-16T11:20:14Z</time>
      </trkpt>
      <trkpt lat="48.68802" lon="1.90757">
        <ele>192</ele>
        <time>2016-05-16T11:20:19Z</time>
      </trkpt>
      <trkpt lat="48.68798" lon="1.90753">
        <ele>192</ele>
        <time>2016-05-16T11:20:20Z</time>
      </trkpt>
      <trkpt lat="48.68795" lon="1.90765">
        <ele>193</ele>
        <time>2016-05-16T11:20:23Z</time>
      </trkpt>
      <trkpt lat="48.68795" lon="1.90767">
        <ele>192</ele>
        <time>2016-05-16T11:20:24Z</time>
      </trkpt>
      <trkpt lat="48.68788" lon="1.9076">
        <ele>201</ele>
        <time>2016-05-16T11:20:33Z</time>
      </trkpt>
      <trkpt lat="48.68789" lon="1.90757">
        <ele>199</ele>
        <time>2016-05-16T11:20:34Z</time>
      </trkpt>
      <trkpt lat="48.6878" lon="1.90761">
        <ele>197</ele>
        <time>2016-05-16T11:20:53Z</time>
      </trkpt>
      <trkpt lat="48.68779" lon="1.9076">
        <ele>197</ele>
        <time>2016-05-16T11:20:54Z</time>
      </trkpt>
      <trkpt lat="48.68772" lon="1.9076">
        <ele>199</ele>
        <time>2016-05-16T11:20:59Z</time>
      </trkpt>
      <trkpt lat="48.68771" lon="1.90767">
        <ele>200</ele>
        <time>2016-05-16T11:21:00Z</time>
      </trkpt>
      <trkpt lat="48.68765" lon="1.9076">
        <ele>200</ele>
        <time>2016-05-16T11:21:01Z</time>
      </trkpt>
      <trkpt lat="48.68762" lon="1.90761">
        <ele>203</ele>
        <time>2016-05-16T11:21:02Z</time>
      </trkpt>
      <trkpt lat="48.68759" lon="1.90758">
        <ele>202</ele>
        <time>2016-05-16T11:21:19Z</time>
      </trkpt>
      <trkpt lat="48.68759" lon="1.90756">
        <ele>202</ele>
        <time>2016-05-16T11:21:20Z</time>
      </trkpt>
      <trkpt lat="48.68759" lon="1.90756">
        <ele>202</ele>
        <time>2016-05-16T11:21:20Z</time>
      </trkpt>
      <trkpt lat="48.6876" lon="1.90756">
        <ele>201</ele>
        <time>2016-05-16T11:21:21Z</time>
      </trkpt>
      <trkpt lat="48.68754" lon="1.90759">
        <ele>204</ele>
        <time>2016-05-16T11:21:23Z</time>
      </trkpt>
      <trkpt lat="48.68757" lon="1.90758">
        <ele>201</ele>
        <time>2016-05-16T11:21:24Z</time>
      </trkpt>
      <trkpt lat="48.68749" lon="1.90758">
        <ele>206</ele>
        <time>2016-05-16T11:22:01Z</time>
      </trkpt>
      <trkpt lat="48.68745" lon="1.90755">
        <ele>207</ele>
        <time>2016-05-16T11:22:02Z</time>
      </trkpt>
      <trkpt lat="48.68745" lon="1.90755">
        <ele>207</ele>
        <time>2016-05-16T11:22:02Z</time>
      </trkpt>
      <trkpt lat="48.68735" lon="1.90756">
        <ele>200</ele>
        <time>2016-05-16T11:22:03Z</time>
      </trkpt>
      <trkpt lat="48.68729" lon="1.9075">
        <ele>198</ele>
        <time>2016-05-16T11:22:06Z</time>
      </trkpt>
      <trkpt lat="48.68728" lon="1.90747">
        <ele>200</ele>
        <time>2016-05-16T11:22:07Z</time>
      </trkpt>
      <trkpt lat="48.68729" lon="1.90745">
        <ele>201</ele>
        <time>2016-05-16T11:22:09Z</time>
      </trkpt>
      <trkpt lat="48.6873" lon="1.90746">
        <ele>203</ele>
        <time>2016-05-16T11:22:10Z</time>
      </trkpt>
      <trkpt lat="48.6873" lon="1.90746">
        <ele>203</ele>
        <time>2016-05-16T11:22:10Z</time>
      </trkpt>
      <trkpt lat="48.68731" lon="1.90747">
        <ele>204</ele>
        <time>2016-05-16T11:22:11Z</time>
      </trkpt>
      <trkpt lat="48.68728" lon="1.90749">
        <ele>205</ele>
        <time>2016-05-16T11:22:18Z</time>
      </trkpt>
      <trkpt lat="48.6873" lon="1.90746">
        <ele>205</ele>
        <time>2016-05-16T11:22:19Z</time>
      </trkpt>
      <trkpt lat="48.68727" lon="1.90748">
        <ele>207</ele>
        <time>2016-05-16T11:23:00Z</time>
      </trkpt>
      <trkpt lat="48.6872" lon="1.90747">
        <ele>204</ele>
        <time>2016-05-16T11:23:01Z</time>
      </trkpt>
      <trkpt lat="48.68712" lon="1.9075">
        <ele>202</ele>
        <time>2016-05-16T11:23:03Z</time>
      </trkpt>
      <trkpt lat="48.68709" lon="1.9075">
        <ele>203</ele>
        <time>2016-05-16T11:23:04Z</time>
      </trkpt>
      <trkpt lat="48.68709" lon="1.9075">
        <ele>204</ele>
        <time>2016-05-16T11:23:05Z</time>
      </trkpt>
      <trkpt lat="48.68706" lon="1.9075">
        <ele>205</ele>
        <time>2016-05-16T11:23:06Z</time>
      </trkpt>
      <trkpt lat="48.68706" lon="1.9075">
        <ele>205</ele>
        <time>2016-05-16T11:23:06Z</time>
      </trkpt>
      <trkpt lat="48.68707" lon="1.90745">
        <ele>205</ele>
        <time>2016-05-16T11:23:07Z</time>
      </trkpt>
      <trkpt lat="48.68698" lon="1.90747">
        <ele>206</ele>
        <time>2016-05-16T11:23:13Z</time>
      </trkpt>
      <trkpt lat="48.68697" lon="1.90749">
        <ele>206</ele>
        <time>2016-05-16T11:23:14Z</time>
      </trkpt>
      <trkpt lat="48.68695" lon="1.90749">
        <ele>206</ele>
        <time>2016-05-16T11:23:19Z</time>
      </trkpt>
      <trkpt lat="48.68694" lon="1.9075">
        <ele>206</ele>
        <time>2016-05-16T11:23:20Z</time>
      </trkpt>
      <trkpt lat="48.68694" lon="1.9075">
        <ele>206</ele>
        <time>2016-05-16T11:23:20Z</time>
      </trkpt>
      <trkpt lat="48.68691" lon="1.90751">
        <ele>207</ele>
        <time>2016-05-16T11:23:21Z</time>
      </trkpt>
      <trkpt lat="48.68684" lon="1.90746">
        <ele>207</ele>
        <time>2016-05-16T11:23:27Z</time>
      </trkpt>
      <trkpt lat="48.68682" lon="1.90746">
        <ele>207</ele>
        <time>2016-05-16T11:23:28Z</time>
      </trkpt>
      <trkpt lat="48.68673" lon="1.90746">
        <ele>206</ele>
        <time>2016-05-16T11:23:41Z</time>
      </trkpt>
      <trkpt lat="48.68673" lon="1.90747">
        <ele>206</ele>
        <time>2016-05-16T11:23:42Z</time>
      </trkpt>
      <trkpt lat="48.68667" lon="1.90749">
        <ele>210</ele>
        <time>2016-05-16T11:23:57Z</time>
      </trkpt>
      <trkpt lat="48.68662" lon="1.90751">
        <ele>210</ele>
        <time>2016-05-16T11:23:58Z</time>
      </trkpt>
      <trkpt lat="48.68653" lon="1.90755">
        <ele>205</ele>
        <time>2016-05-16T11:24:05Z</time>
      </trkpt>
      <trkpt lat="48.68651" lon="1.90758">
        <ele>208</ele>
        <time>2016-05-16T11:24:06Z</time>
      </trkpt>
      <trkpt lat="48.68651" lon="1.90758">
        <ele>208</ele>
        <time>2016-05-16T11:24:06Z</time>
      </trkpt>
      <trkpt lat="48.68649" lon="1.90758">
        <ele>208</ele>
        <time>2016-05-16T11:24:07Z</time>
      </trkpt>
      <trkpt lat="48.68643" lon="1.90756">
        <ele>210</ele>
        <time>2016-05-16T11:24:10Z</time>
      </trkpt>
      <trkpt lat="48.6864" lon="1.90755">
        <ele>211</ele>
        <time>2016-05-16T11:24:11Z</time>
      </trkpt>
      <trkpt lat="48.68632" lon="1.90754">
        <ele>210</ele>
        <time>2016-05-16T11:24:14Z</time>
      </trkpt>
      <trkpt lat="48.68629" lon="1.90756">
        <ele>209</ele>
        <time>2016-05-16T11:24:15Z</time>
      </trkpt>
      <trkpt lat="48.68626" lon="1.90755">
        <ele>210</ele>
        <time>2016-05-16T11:24:16Z</time>
      </trkpt>
      <trkpt lat="48.68619" lon="1.9076">
        <ele>210</ele>
        <time>2016-05-16T11:24:17Z</time>
      </trkpt>
      <trkpt lat="48.68618" lon="1.90752">
        <ele>211</ele>
        <time>2016-05-16T11:24:19Z</time>
      </trkpt>
      <trkpt lat="48.68616" lon="1.9074">
        <ele>211</ele>
        <time>2016-05-16T11:24:20Z</time>
      </trkpt>
      <trkpt lat="48.68612" lon="1.90735">
        <ele>211</ele>
        <time>2016-05-16T11:24:21Z</time>
      </trkpt>
      <trkpt lat="48.68604" lon="1.90733">
        <ele>211</ele>
        <time>2016-05-16T11:24:22Z</time>
      </trkpt>
      <trkpt lat="48.68603" lon="1.90743">
        <ele>210</ele>
        <time>2016-05-16T11:24:28Z</time>
      </trkpt>
      <trkpt lat="48.68602" lon="1.90746">
        <ele>213</ele>
        <time>2016-05-16T11:24:29Z</time>
      </trkpt>
      <trkpt lat="48.68595" lon="1.90738">
        <ele>211</ele>
        <time>2016-05-16T11:24:33Z</time>
      </trkpt>
      <trkpt lat="48.68594" lon="1.90737">
        <ele>211</ele>
        <time>2016-05-16T11:24:34Z</time>
      </trkpt>
      <trkpt lat="48.68599" lon="1.90726">
        <ele>215</ele>
        <time>2016-05-16T11:24:38Z</time>
      </trkpt>
      <trkpt lat="48.68598" lon="1.90724">
        <ele>216</ele>
        <time>2016-05-16T11:24:39Z</time>
      </trkpt>
      <trkpt lat="48.68596" lon="1.90721">
        <ele>215</ele>
        <time>2016-05-16T11:24:45Z</time>
      </trkpt>
      <trkpt lat="48.68596" lon="1.90721">
        <ele>213</ele>
        <time>2016-05-16T11:24:46Z</time>
      </trkpt>
      <trkpt lat="48.68595" lon="1.90716">
        <ele>213</ele>
        <time>2016-05-16T11:26:02Z</time>
      </trkpt>
      <trkpt lat="48.68595" lon="1.90713">
        <ele>212</ele>
        <time>2016-05-16T11:26:03Z</time>
      </trkpt>
      <trkpt lat="48.68593" lon="1.90701">
        <ele>210</ele>
        <time>2016-05-16T11:26:07Z</time>
      </trkpt>
      <trkpt lat="48.68592" lon="1.90696">
        <ele>211</ele>
        <time>2016-05-16T11:26:08Z</time>
      </trkpt>
      <trkpt lat="48.68593" lon="1.90685">
        <ele>214</ele>
        <time>2016-05-16T11:26:12Z</time>
      </trkpt>
      <trkpt lat="48.68595" lon="1.90683">
        <ele>214</ele>
        <time>2016-05-16T11:26:13Z</time>
      </trkpt>
      <trkpt lat="48.68597" lon="1.90673">
        <ele>217</ele>
        <time>2016-05-16T11:26:19Z</time>
      </trkpt>
      <trkpt lat="48.68598" lon="1.90669">
        <ele>217</ele>
        <time>2016-05-16T11:26:20Z</time>
      </trkpt>
      <trkpt lat="48.68597" lon="1.90657">
        <ele>216</ele>
        <time>2016-05-16T11:26:27Z</time>
      </trkpt>
      <trkpt lat="48.68597" lon="1.90655">
        <ele>216</ele>
        <time>2016-05-16T11:26:28Z</time>
      </trkpt>
      <trkpt lat="48.68599" lon="1.90643">
        <ele>215</ele>
        <time>2016-05-16T11:26:35Z</time>
      </trkpt>
      <trkpt lat="48.68599" lon="1.90642">
        <ele>216</ele>
        <time>2016-05-16T11:26:36Z</time>
      </trkpt>
      <trkpt lat="48.686" lon="1.90628">
        <ele>219</ele>
        <time>2016-05-16T11:26:44Z</time>
      </trkpt>
      <trkpt lat="48.686" lon="1.90627">
        <ele>219</ele>
        <time>2016-05-16T11:26:45Z</time>
      </trkpt>
      <trkpt lat="48.686" lon="1.90614">
        <ele>217</ele>
        <time>2016-05-16T11:26:52Z</time>
      </trkpt>
      <trkpt lat="48.68603" lon="1.90611">
        <ele>218</ele>
        <time>2016-05-16T11:26:53Z</time>
      </trkpt>
      <trkpt lat="48.68598" lon="1.90601">
        <ele>220</ele>
        <time>2016-05-16T11:26:59Z</time>
      </trkpt>
      <trkpt lat="48.68597" lon="1.90599">
        <ele>221</ele>
        <time>2016-05-16T11:27:00Z</time>
      </trkpt>
      <trkpt lat="48.68595" lon="1.90591">
        <ele>224</ele>
        <time>2016-05-16T11:27:05Z</time>
      </trkpt>
      <trkpt lat="48.68594" lon="1.90586">
        <ele>224</ele>
        <time>2016-05-16T11:27:06Z</time>
      </trkpt>
      <trkpt lat="48.68591" lon="1.90574">
        <ele>227</ele>
        <time>2016-05-16T11:27:17Z</time>
      </trkpt>
      <trkpt lat="48.68593" lon="1.9057">
        <ele>228</ele>
        <time>2016-05-16T11:27:18Z</time>
      </trkpt>
      <trkpt lat="48.68593" lon="1.90559">
        <ele>226</ele>
        <time>2016-05-16T11:27:25Z</time>
      </trkpt>
      <trkpt lat="48.68594" lon="1.90556">
        <ele>227</ele>
        <time>2016-05-16T11:27:26Z</time>
      </trkpt>
      <trkpt lat="48.68595" lon="1.90553">
        <ele>227</ele>
        <time>2016-05-16T11:27:28Z</time>
      </trkpt>
      <trkpt lat="48.68594" lon="1.90554">
        <ele>225</ele>
        <time>2016-05-16T11:27:29Z</time>
      </trkpt>
      <trkpt lat="48.68594" lon="1.90554">
        <ele>225</ele>
        <time>2016-05-16T11:27:29Z</time>
      </trkpt>
      <trkpt lat="48.68593" lon="1.90552">
        <ele>226</ele>
        <time>2016-05-16T11:27:30Z</time>
      </trkpt>
      <trkpt lat="48.68594" lon="1.90541">
        <ele>227</ele>
        <time>2016-05-16T11:27:33Z</time>
      </trkpt>
      <trkpt lat="48.68593" lon="1.90538">
        <ele>227</ele>
        <time>2016-05-16T11:27:34Z</time>
      </trkpt>
      <trkpt lat="48.6859" lon="1.90528">
        <ele>224</ele>
        <time>2016-05-16T11:27:42Z</time>
      </trkpt>
      <trkpt lat="48.68591" lon="1.90524">
        <ele>224</ele>
        <time>2016-05-16T11:27:43Z</time>
      </trkpt>
      <trkpt lat="48.68592" lon="1.9053">
        <ele>220</ele>
        <time>2016-05-16T11:27:51Z</time>
      </trkpt>
      <trkpt lat="48.68596" lon="1.90533">
        <ele>219</ele>
        <time>2016-05-16T11:27:52Z</time>
      </trkpt>
      <trkpt lat="48.68588" lon="1.90538">
        <ele>220</ele>
        <time>2016-05-16T11:28:13Z</time>
      </trkpt>
      <trkpt lat="48.68585" lon="1.9054">
        <ele>220</ele>
        <time>2016-05-16T11:28:14Z</time>
      </trkpt>
      <trkpt lat="48.68579" lon="1.90546">
        <ele>221</ele>
        <time>2016-05-16T11:28:19Z</time>
      </trkpt>
      <trkpt lat="48.68575" lon="1.90546">
        <ele>221</ele>
        <time>2016-05-16T11:28:20Z</time>
      </trkpt>
      <trkpt lat="48.68567" lon="1.9055">
        <ele>218</ele>
        <time>2016-05-16T11:28:25Z</time>
      </trkpt>
      <trkpt lat="48.68565" lon="1.90549">
        <ele>219</ele>
        <time>2016-05-16T11:28:26Z</time>
      </trkpt>
      <trkpt lat="48.6856" lon="1.9055">
        <ele>219</ele>
        <time>2016-05-16T11:28:27Z</time>
      </trkpt>
      <trkpt lat="48.68555" lon="1.90547">
        <ele>219</ele>
        <time>2016-05-16T11:28:28Z</time>
      </trkpt>
      <trkpt lat="48.68546" lon="1.90547">
        <ele>221</ele>
        <time>2016-05-16T11:28:35Z</time>
      </trkpt>
      <trkpt lat="48.68546" lon="1.90546">
        <ele>221</ele>
        <time>2016-05-16T11:28:36Z</time>
      </trkpt>
      <trkpt lat="48.68539" lon="1.90551">
        <ele>220</ele>
        <time>2016-05-16T11:28:41Z</time>
      </trkpt>
      <trkpt lat="48.68534" lon="1.90557">
        <ele>219</ele>
        <time>2016-05-16T11:28:42Z</time>
      </trkpt>
      <trkpt lat="48.68527" lon="1.9055">
        <ele>222</ele>
        <time>2016-05-16T11:28:51Z</time>
      </trkpt>
      <trkpt lat="48.68522" lon="1.90549">
        <ele>222</ele>
        <time>2016-05-16T11:28:52Z</time>
      </trkpt>
      <trkpt lat="48.68516" lon="1.90558">
        <ele>221</ele>
        <time>2016-05-16T11:28:59Z</time>
      </trkpt>
      <trkpt lat="48.68511" lon="1.90557">
        <ele>221</ele>
        <time>2016-05-16T11:29:00Z</time>
      </trkpt>
      <trkpt lat="48.68503" lon="1.90557">
        <ele>223</ele>
        <time>2016-05-16T11:29:04Z</time>
      </trkpt>
      <trkpt lat="48.68501" lon="1.90555">
        <ele>223</ele>
        <time>2016-05-16T11:29:05Z</time>
      </trkpt>
      <trkpt lat="48.685" lon="1.90564">
        <ele>221</ele>
        <time>2016-05-16T11:29:21Z</time>
      </trkpt>
      <trkpt lat="48.68484" lon="1.90574">
        <ele>220</ele>
        <time>2016-05-16T11:29:22Z</time>
      </trkpt>
      <trkpt lat="48.6848" lon="1.9058">
        <ele>221</ele>
        <time>2016-05-16T11:29:25Z</time>
      </trkpt>
      <trkpt lat="48.68474" lon="1.90583">
        <ele>221</ele>
        <time>2016-05-16T11:29:26Z</time>
      </trkpt>
      <trkpt lat="48.68467" lon="1.90584">
        <ele>221</ele>
        <time>2016-05-16T11:29:29Z</time>
      </trkpt>
      <trkpt lat="48.68462" lon="1.90587">
        <ele>223</ele>
        <time>2016-05-16T11:29:30Z</time>
      </trkpt>
      <trkpt lat="48.68459" lon="1.90593">
        <ele>224</ele>
        <time>2016-05-16T11:29:38Z</time>
      </trkpt>
      <trkpt lat="48.68455" lon="1.90596">
        <ele>224</ele>
        <time>2016-05-16T11:29:39Z</time>
      </trkpt>
      <trkpt lat="48.68464" lon="1.90595">
        <ele>217</ele>
        <time>2016-05-16T11:29:42Z</time>
      </trkpt>
      <trkpt lat="48.68465" lon="1.90595">
        <ele>217</ele>
        <time>2016-05-16T11:29:43Z</time>
      </trkpt>
      <trkpt lat="48.68457" lon="1.90598">
        <ele>219</ele>
        <time>2016-05-16T11:31:08Z</time>
      </trkpt>
      <trkpt lat="48.68454" lon="1.90597">
        <ele>218</ele>
        <time>2016-05-16T11:31:09Z</time>
      </trkpt>
      <trkpt lat="48.68447" lon="1.90602">
        <ele>217</ele>
        <time>2016-05-16T11:31:11Z</time>
      </trkpt>
      <trkpt lat="48.68443" lon="1.90605">
        <ele>217</ele>
        <time>2016-05-16T11:31:12Z</time>
      </trkpt>
      <trkpt lat="48.68438" lon="1.90608">
        <ele>216</ele>
        <time>2016-05-16T11:31:13Z</time>
      </trkpt>
      <trkpt lat="48.68435" lon="1.90612">
        <ele>216</ele>
        <time>2016-05-16T11:31:14Z</time>
      </trkpt>
      <trkpt lat="48.68429" lon="1.90615">
        <ele>215</ele>
        <time>2016-05-16T11:31:16Z</time>
      </trkpt>
      <trkpt lat="48.68426" lon="1.90617">
        <ele>216</ele>
        <time>2016-05-16T11:31:17Z</time>
      </trkpt>
      <trkpt lat="48.6842" lon="1.9062">
        <ele>217</ele>
        <time>2016-05-16T11:31:20Z</time>
      </trkpt>
      <trkpt lat="48.68417" lon="1.90622">
        <ele>217</ele>
        <time>2016-05-16T11:31:21Z</time>
      </trkpt>
      <trkpt lat="48.6841" lon="1.90629">
        <ele>219</ele>
        <time>2016-05-16T11:31:26Z</time>
      </trkpt>
      <trkpt lat="48.68409" lon="1.9063">
        <ele>219</ele>
        <time>2016-05-16T11:31:27Z</time>
      </trkpt>
      <trkpt lat="48.68401" lon="1.90633">
        <ele>222</ele>
        <time>2016-05-16T11:31:34Z</time>
      </trkpt>
      <trkpt lat="48.684" lon="1.90635">
        <ele>223</ele>
        <time>2016-05-16T11:31:34Z</time>
      </trkpt>
      <trkpt lat="48.68393" lon="1.90636">
        <ele>226</ele>
        <time>2016-05-16T11:31:40Z</time>
      </trkpt>
      <trkpt lat="48.68391" lon="1.90639">
        <ele>226</ele>
        <time>2016-05-16T11:31:41Z</time>
      </trkpt>
      <trkpt lat="48.68383" lon="1.9064">
        <ele>226</ele>
        <time>2016-05-16T11:31:48Z</time>
      </trkpt>
      <trkpt lat="48.68384" lon="1.90643">
        <ele>225</ele>
        <time>2016-05-16T11:31:49Z</time>
      </trkpt>
      <trkpt lat="48.68384" lon="1.90643">
        <ele>225</ele>
        <time>2016-05-16T11:31:49Z</time>
      </trkpt>
      <trkpt lat="48.68384" lon="1.90642">
        <ele>225</ele>
        <time>2016-05-16T11:31:50Z</time>
      </trkpt>
      <trkpt lat="48.68376" lon="1.90648">
        <ele>228</ele>
        <time>2016-05-16T11:31:56Z</time>
      </trkpt>
      <trkpt lat="48.68373" lon="1.90651">
        <ele>230</ele>
        <time>2016-05-16T11:31:57Z</time>
      </trkpt>
      <trkpt lat="48.68368" lon="1.90654">
        <ele>231</ele>
        <time>2016-05-16T11:32:01Z</time>
      </trkpt>
      <trkpt lat="48.68363" lon="1.90658">
        <ele>232</ele>
        <time>2016-05-16T11:32:02Z</time>
      </trkpt>
      <trkpt lat="48.68356" lon="1.9066">
        <ele>234</ele>
        <time>2016-05-16T11:32:08Z</time>
      </trkpt>
      <trkpt lat="48.68353" lon="1.90661">
        <ele>235</ele>
        <time>2016-05-16T11:32:09Z</time>
      </trkpt>
      <trkpt lat="48.68347" lon="1.90667">
        <ele>230</ele>
        <time>2016-05-16T11:32:22Z</time>
      </trkpt>
      <trkpt lat="48.68345" lon="1.90668">
        <ele>230</ele>
        <time>2016-05-16T11:32:23Z</time>
      </trkpt>
      <trkpt lat="48.68337" lon="1.90667">
        <ele>227</ele>
        <time>2016-05-16T11:32:30Z</time>
      </trkpt>
      <trkpt lat="48.68336" lon="1.9067">
        <ele>227</ele>
        <time>2016-05-16T11:32:31Z</time>
      </trkpt>
      <trkpt lat="48.6833" lon="1.90673">
        <ele>225</ele>
        <time>2016-05-16T11:32:42Z</time>
      </trkpt>
      <trkpt lat="48.6833" lon="1.90675">
        <ele>228</ele>
        <time>2016-05-16T11:32:43Z</time>
      </trkpt>
      <trkpt lat="48.6833" lon="1.90675">
        <ele>228</ele>
        <time>2016-05-16T11:32:43Z</time>
      </trkpt>
      <trkpt lat="48.68322" lon="1.90683">
        <ele>227</ele>
        <time>2016-05-16T11:32:44Z</time>
      </trkpt>
      <trkpt lat="48.68318" lon="1.90686">
        <ele>228</ele>
        <time>2016-05-16T11:32:46Z</time>
      </trkpt>
      <trkpt lat="48.68312" lon="1.90692">
        <ele>228</ele>
        <time>2016-05-16T11:32:47Z</time>
      </trkpt>
      <trkpt lat="48.68306" lon="1.9069">
        <ele>224</ele>
        <time>2016-05-16T11:33:01Z</time>
      </trkpt>
      <trkpt lat="48.68306" lon="1.90691">
        <ele>225</ele>
        <time>2016-05-16T11:33:02Z</time>
      </trkpt>
      <trkpt lat="48.68306" lon="1.90691">
        <ele>225</ele>
        <time>2016-05-16T11:33:02Z</time>
      </trkpt>
      <trkpt lat="48.68307" lon="1.90685">
        <ele>221</ele>
        <time>2016-05-16T11:33:03Z</time>
      </trkpt>
      <trkpt lat="48.683" lon="1.90695">
        <ele>222</ele>
        <time>2016-05-16T11:33:08Z</time>
      </trkpt>
      <trkpt lat="48.68298" lon="1.90698">
        <ele>222</ele>
        <time>2016-05-16T11:33:09Z</time>
      </trkpt>
      <trkpt lat="48.6829" lon="1.90703">
        <ele>222</ele>
        <time>2016-05-16T11:33:16Z</time>
      </trkpt>
      <trkpt lat="48.68289" lon="1.90701">
        <ele>223</ele>
        <time>2016-05-16T11:33:17Z</time>
      </trkpt>
      <trkpt lat="48.68284" lon="1.90707">
        <ele>219</ele>
        <time>2016-05-16T11:33:22Z</time>
      </trkpt>
      <trkpt lat="48.68281" lon="1.90709">
        <ele>219</ele>
        <time>2016-05-16T11:33:23Z</time>
      </trkpt>
      <trkpt lat="48.68274" lon="1.90712">
        <ele>218</ele>
        <time>2016-05-16T11:33:28Z</time>
      </trkpt>
      <trkpt lat="48.68273" lon="1.90714">
        <ele>219</ele>
        <time>2016-05-16T11:33:29Z</time>
      </trkpt>
      <trkpt lat="48.68265" lon="1.90721">
        <ele>222</ele>
        <time>2016-05-16T11:33:36Z</time>
      </trkpt>
      <trkpt lat="48.68265" lon="1.90721">
        <ele>223</ele>
        <time>2016-05-16T11:33:37Z</time>
      </trkpt>
      <trkpt lat="48.6826" lon="1.9073">
        <ele>224</ele>
        <time>2016-05-16T11:33:45Z</time>
      </trkpt>
      <trkpt lat="48.68257" lon="1.90733">
        <ele>224</ele>
        <time>2016-05-16T11:33:46Z</time>
      </trkpt>
      <trkpt lat="48.6825" lon="1.90739">
        <ele>221</ele>
        <time>2016-05-16T11:33:55Z</time>
      </trkpt>
      <trkpt lat="48.68249" lon="1.90742">
        <ele>221</ele>
        <time>2016-05-16T11:33:56Z</time>
      </trkpt>
      <trkpt lat="48.68243" lon="1.90752">
        <ele>222</ele>
        <time>2016-05-16T11:34:01Z</time>
      </trkpt>
      <trkpt lat="48.68242" lon="1.90754">
        <ele>223</ele>
        <time>2016-05-16T11:34:02Z</time>
      </trkpt>
      <trkpt lat="48.68238" lon="1.90765">
        <ele>222</ele>
        <time>2016-05-16T11:34:15Z</time>
      </trkpt>
      <trkpt lat="48.68238" lon="1.90766">
        <ele>222</ele>
        <time>2016-05-16T11:34:16Z</time>
      </trkpt>
      <trkpt lat="48.68232" lon="1.90775">
        <ele>225</ele>
        <time>2016-05-16T11:34:22Z</time>
      </trkpt>
      <trkpt lat="48.68231" lon="1.90777">
        <ele>226</ele>
        <time>2016-05-16T11:34:23Z</time>
      </trkpt>
      <trkpt lat="48.68224" lon="1.90785">
        <ele>225</ele>
        <time>2016-05-16T11:34:27Z</time>
      </trkpt>
      <trkpt lat="48.68223" lon="1.90786">
        <ele>226</ele>
        <time>2016-05-16T11:34:28Z</time>
      </trkpt>
      <trkpt lat="48.68218" lon="1.90791">
        <ele>221</ele>
        <time>2016-05-16T11:34:38Z</time>
      </trkpt>
      <trkpt lat="48.68214" lon="1.90794">
        <ele>220</ele>
        <time>2016-05-16T11:34:39Z</time>
      </trkpt>
      <trkpt lat="48.68209" lon="1.90802">
        <ele>217</ele>
        <time>2016-05-16T11:34:52Z</time>
      </trkpt>
      <trkpt lat="48.68207" lon="1.90804">
        <ele>216</ele>
        <time>2016-05-16T11:34:53Z</time>
      </trkpt>
      <trkpt lat="48.682" lon="1.90812">
        <ele>216</ele>
        <time>2016-05-16T11:35:13Z</time>
      </trkpt>
      <trkpt lat="48.68197" lon="1.90815">
        <ele>216</ele>
        <time>2016-05-16T11:35:14Z</time>
      </trkpt>
      <trkpt lat="48.68189" lon="1.9082">
        <ele>213</ele>
        <time>2016-05-16T11:35:17Z</time>
      </trkpt>
      <trkpt lat="48.68188" lon="1.90822">
        <ele>213</ele>
        <time>2016-05-16T11:35:18Z</time>
      </trkpt>
      <trkpt lat="48.68181" lon="1.90828">
        <ele>216</ele>
        <time>2016-05-16T11:35:25Z</time>
      </trkpt>
      <trkpt lat="48.68178" lon="1.90829">
        <ele>217</ele>
        <time>2016-05-16T11:35:26Z</time>
      </trkpt>
      <trkpt lat="48.68172" lon="1.9083">
        <ele>216</ele>
        <time>2016-05-16T11:35:29Z</time>
      </trkpt>
      <trkpt lat="48.68169" lon="1.90832">
        <ele>216</ele>
        <time>2016-05-16T11:35:30Z</time>
      </trkpt>
      <trkpt lat="48.68163" lon="1.9084">
        <ele>216</ele>
        <time>2016-05-16T11:35:41Z</time>
      </trkpt>
      <trkpt lat="48.68163" lon="1.90838">
        <ele>216</ele>
        <time>2016-05-16T11:35:42Z</time>
      </trkpt>
      <trkpt lat="48.68162" lon="1.90839">
        <ele>216</ele>
        <time>2016-05-16T11:35:43Z</time>
      </trkpt>
      <trkpt lat="48.68162" lon="1.9084">
        <ele>216</ele>
        <time>2016-05-16T11:35:44Z</time>
      </trkpt>
      <trkpt lat="48.68155" lon="1.90848">
        <ele>213</ele>
        <time>2016-05-16T11:35:48Z</time>
      </trkpt>
      <trkpt lat="48.68151" lon="1.9085">
        <ele>212</ele>
        <time>2016-05-16T11:35:49Z</time>
      </trkpt>
      <trkpt lat="48.68149" lon="1.90862">
        <ele>209</ele>
        <time>2016-05-16T11:36:01Z</time>
      </trkpt>
      <trkpt lat="48.68149" lon="1.90865">
        <ele>210</ele>
        <time>2016-05-16T11:36:02Z</time>
      </trkpt>
      <trkpt lat="48.68149" lon="1.90877">
        <ele>212</ele>
        <time>2016-05-16T11:36:08Z</time>
      </trkpt>
      <trkpt lat="48.68148" lon="1.9088">
        <ele>212</ele>
        <time>2016-05-16T11:36:09Z</time>
      </trkpt>
      <trkpt lat="48.68145" lon="1.90892">
        <ele>218</ele>
        <time>2016-05-16T11:36:18Z</time>
      </trkpt>
      <trkpt lat="48.68145" lon="1.90896">
        <ele>218</ele>
        <time>2016-05-16T11:36:19Z</time>
      </trkpt>
      <trkpt lat="48.68146" lon="1.9091">
        <ele>217</ele>
        <time>2016-05-16T11:36:37Z</time>
      </trkpt>
      <trkpt lat="48.68146" lon="1.9091">
        <ele>217</ele>
        <time>2016-05-16T11:36:38Z</time>
      </trkpt>
      <trkpt lat="48.68151" lon="1.90914">
        <ele>217</ele>
        <time>2016-05-16T11:36:55Z</time>
      </trkpt>
      <trkpt lat="48.6815" lon="1.90923">
        <ele>217</ele>
        <time>2016-05-16T11:36:56Z</time>
      </trkpt>
      <trkpt lat="48.68146" lon="1.90932">
        <ele>216</ele>
        <time>2016-05-16T11:36:57Z</time>
      </trkpt>
      <trkpt lat="48.68145" lon="1.90937">
        <ele>216</ele>
        <time>2016-05-16T11:36:58Z</time>
      </trkpt>
      <trkpt lat="48.68148" lon="1.90948">
        <ele>218</ele>
        <time>2016-05-16T11:37:04Z</time>
      </trkpt>
      <trkpt lat="48.68148" lon="1.90951">
        <ele>218</ele>
        <time>2016-05-16T11:37:05Z</time>
      </trkpt>
      <trkpt lat="48.68148" lon="1.9096">
        <ele>220</ele>
        <time>2016-05-16T11:37:07Z</time>
      </trkpt>
      <trkpt lat="48.68146" lon="1.90966">
        <ele>221</ele>
        <time>2016-05-16T11:37:08Z</time>
      </trkpt>
      <trkpt lat="48.68148" lon="1.90978">
        <ele>220</ele>
        <time>2016-05-16T11:37:18Z</time>
      </trkpt>
      <trkpt lat="48.68148" lon="1.90984">
        <ele>221</ele>
        <time>2016-05-16T11:37:19Z</time>
      </trkpt>
      <trkpt lat="48.68149" lon="1.90993">
        <ele>222</ele>
        <time>2016-05-16T11:37:22Z</time>
      </trkpt>
      <trkpt lat="48.6815" lon="1.90998">
        <ele>222</ele>
        <time>2016-05-16T11:37:23Z</time>
      </trkpt>
      <trkpt lat="48.68152" lon="1.91009">
        <ele>225</ele>
        <time>2016-05-16T11:37:30Z</time>
      </trkpt>
      <trkpt lat="48.68152" lon="1.91012">
        <ele>225</ele>
        <time>2016-05-16T11:37:31Z</time>
      </trkpt>
      <trkpt lat="48.6815" lon="1.91019">
        <ele>222</ele>
        <time>2016-05-16T11:37:35Z</time>
      </trkpt>
      <trkpt lat="48.68147" lon="1.91026">
        <ele>223</ele>
        <time>2016-05-16T11:37:36Z</time>
      </trkpt>
      <trkpt lat="48.68151" lon="1.91034">
        <ele>222</ele>
        <time>2016-05-16T11:37:43Z</time>
      </trkpt>
      <trkpt lat="48.68152" lon="1.91037">
        <ele>223</ele>
        <time>2016-05-16T11:37:44Z</time>
      </trkpt>
      <trkpt lat="48.68151" lon="1.91044">
        <ele>223</ele>
        <time>2016-05-16T11:37:46Z</time>
      </trkpt>
      <trkpt lat="48.68152" lon="1.91041">
        <ele>223</ele>
        <time>2016-05-16T11:37:47Z</time>
      </trkpt>
      <trkpt lat="48.68152" lon="1.91041">
        <ele>223</ele>
        <time>2016-05-16T11:37:47Z</time>
      </trkpt>
      <trkpt lat="48.68152" lon="1.91041">
        <ele>223</ele>
        <time>2016-05-16T11:37:48Z</time>
      </trkpt>
      <trkpt lat="48.68148" lon="1.91052">
        <ele>227</ele>
        <time>2016-05-16T11:37:56Z</time>
      </trkpt>
      <trkpt lat="48.68146" lon="1.91057">
        <ele>228</ele>
        <time>2016-05-16T11:37:57Z</time>
      </trkpt>
      <trkpt lat="48.68143" lon="1.91064">
        <ele>227</ele>
        <time>2016-05-16T11:38:01Z</time>
      </trkpt>
      <trkpt lat="48.68138" lon="1.91067">
        <ele>226</ele>
        <time>2016-05-16T11:38:02Z</time>
      </trkpt>
      <trkpt lat="48.68138" lon="1.91067">
        <ele>226</ele>
        <time>2016-05-16T11:38:02Z</time>
      </trkpt>
      <trkpt lat="48.68139" lon="1.91068">
        <ele>227</ele>
        <time>2016-05-16T11:38:03Z</time>
      </trkpt>
      <trkpt lat="48.68139" lon="1.91068">
        <ele>227</ele>
        <time>2016-05-16T11:38:03Z</time>
      </trkpt>
      <trkpt lat="48.68139" lon="1.91071">
        <ele>227</ele>
        <time>2016-05-16T11:38:04Z</time>
      </trkpt>
      <trkpt lat="48.68139" lon="1.91071">
        <ele>227</ele>
        <time>2016-05-16T11:38:04Z</time>
      </trkpt>
      <trkpt lat="48.68141" lon="1.91069">
        <ele>226</ele>
        <time>2016-05-16T11:38:05Z</time>
      </trkpt>
      <trkpt lat="48.68149" lon="1.91072">
        <ele>231</ele>
        <time>2016-05-16T11:39:41Z</time>
      </trkpt>
      <trkpt lat="48.6815" lon="1.91073">
        <ele>230</ele>
        <time>2016-05-16T11:39:42Z</time>
      </trkpt>
      <trkpt lat="48.68156" lon="1.91078">
        <ele>224</ele>
        <time>2016-05-16T11:39:47Z</time>
      </trkpt>
      <trkpt lat="48.68157" lon="1.91081">
        <ele>225</ele>
        <time>2016-05-16T11:39:48Z</time>
      </trkpt>
      <trkpt lat="48.6816" lon="1.91085">
        <ele>226</ele>
        <time>2016-05-16T11:39:50Z</time>
      </trkpt>
      <trkpt lat="48.68164" lon="1.91092">
        <ele>225</ele>
        <time>2016-05-16T11:39:51Z</time>
      </trkpt>
      <trkpt lat="48.68165" lon="1.91101">
        <ele>225</ele>
        <time>2016-05-16T11:39:53Z</time>
      </trkpt>
      <trkpt lat="48.68164" lon="1.91105">
        <ele>225</ele>
        <time>2016-05-16T11:39:54Z</time>
      </trkpt>
      <trkpt lat="48.68171" lon="1.91113">
        <ele>224</ele>
        <time>2016-05-16T11:39:57Z</time>
      </trkpt>
      <trkpt lat="48.68169" lon="1.9112">
        <ele>222</ele>
        <time>2016-05-16T11:39:58Z</time>
      </trkpt>
      <trkpt lat="48.68168" lon="1.91133">
        <ele>223</ele>
        <time>2016-05-16T11:40:01Z</time>
      </trkpt>
      <trkpt lat="48.6817" lon="1.91137">
        <ele>224</ele>
        <time>2016-05-16T11:40:02Z</time>
      </trkpt>
      <trkpt lat="48.68176" lon="1.91134">
        <ele>222</ele>
        <time>2016-05-16T11:40:12Z</time>
      </trkpt>
      <trkpt lat="48.68176" lon="1.91135">
        <ele>222</ele>
        <time>2016-05-16T11:40:13Z</time>
      </trkpt>
      <trkpt lat="48.68176" lon="1.91135">
        <ele>222</ele>
        <time>2016-05-16T11:40:13Z</time>
      </trkpt>
      <trkpt lat="48.68178" lon="1.91136">
        <ele>222</ele>
        <time>2016-05-16T11:40:14Z</time>
      </trkpt>
      <trkpt lat="48.68181" lon="1.91144">
        <ele>221</ele>
        <time>2016-05-16T11:40:20Z</time>
      </trkpt>
      <trkpt lat="48.68178" lon="1.9115">
        <ele>221</ele>
        <time>2016-05-16T11:40:21Z</time>
      </trkpt>
      <trkpt lat="48.68173" lon="1.91159">
        <ele>221</ele>
        <time>2016-05-16T11:40:22Z</time>
      </trkpt>
      <trkpt lat="48.68171" lon="1.9116">
        <ele>222</ele>
        <time>2016-05-16T11:40:23Z</time>
      </trkpt>
      <trkpt lat="48.68174" lon="1.9117">
        <ele>224</ele>
        <time>2016-05-16T11:40:27Z</time>
      </trkpt>
      <trkpt lat="48.68179" lon="1.9117">
        <ele>225</ele>
        <time>2016-05-16T11:40:28Z</time>
      </trkpt>
      <trkpt lat="48.68177" lon="1.91181">
        <ele>228</ele>
        <time>2016-05-16T11:40:31Z</time>
      </trkpt>
      <trkpt lat="48.68177" lon="1.91188">
        <ele>229</ele>
        <time>2016-05-16T11:40:32Z</time>
      </trkpt>
      <trkpt lat="48.68184" lon="1.91194">
        <ele>213</ele>
        <time>2016-05-16T11:40:38Z</time>
      </trkpt>
      <trkpt lat="48.68186" lon="1.91195">
        <ele>217</ele>
        <time>2016-05-16T11:40:39Z</time>
      </trkpt>
      <trkpt lat="48.68189" lon="1.91208">
        <ele>223</ele>
        <time>2016-05-16T11:40:47Z</time>
      </trkpt>
      <trkpt lat="48.68189" lon="1.9121">
        <ele>222</ele>
        <time>2016-05-16T11:40:48Z</time>
      </trkpt>
      <trkpt lat="48.68194" lon="1.9122">
        <ele>223</ele>
        <time>2016-05-16T11:40:52Z</time>
      </trkpt>
      <trkpt lat="48.68197" lon="1.91221">
        <ele>225</ele>
        <time>2016-05-16T11:40:53Z</time>
      </trkpt>
      <trkpt lat="48.68195" lon="1.91234">
        <ele>210</ele>
        <time>2016-05-16T11:41:09Z</time>
      </trkpt>
      <trkpt lat="48.68194" lon="1.91234">
        <ele>212</ele>
        <time>2016-05-16T11:41:10Z</time>
      </trkpt>
      <trkpt lat="48.68202" lon="1.91239">
        <ele>223</ele>
        <time>2016-05-16T11:42:09Z</time>
      </trkpt>
      <trkpt lat="48.68205" lon="1.91243">
        <ele>224</ele>
        <time>2016-05-16T11:42:10Z</time>
      </trkpt>
      <trkpt lat="48.68213" lon="1.91243">
        <ele>235</ele>
        <time>2016-05-16T11:42:15Z</time>
      </trkpt>
      <trkpt lat="48.68214" lon="1.91246">
        <ele>234</ele>
        <time>2016-05-16T11:42:16Z</time>
      </trkpt>
      <trkpt lat="48.68215" lon="1.91256">
        <ele>232</ele>
        <time>2016-05-16T11:42:20Z</time>
      </trkpt>
      <trkpt lat="48.68213" lon="1.9126">
        <ele>233</ele>
        <time>2016-05-16T11:42:21Z</time>
      </trkpt>
      <trkpt lat="48.68214" lon="1.9127">
        <ele>234</ele>
        <time>2016-05-16T11:42:23Z</time>
      </trkpt>
      <trkpt lat="48.68215" lon="1.91275">
        <ele>235</ele>
        <time>2016-05-16T11:42:24Z</time>
      </trkpt>
      <trkpt lat="48.68217" lon="1.91281">
        <ele>235</ele>
        <time>2016-05-16T11:42:30Z</time>
      </trkpt>
      <trkpt lat="48.68216" lon="1.91284">
        <ele>235</ele>
        <time>2016-05-16T11:42:31Z</time>
      </trkpt>
      <trkpt lat="48.68215" lon="1.91293">
        <ele>227</ele>
        <time>2016-05-16T11:42:55Z</time>
      </trkpt>
      <trkpt lat="48.68215" lon="1.91299">
        <ele>224</ele>
        <time>2016-05-16T11:42:56Z</time>
      </trkpt>
      <trkpt lat="48.6822" lon="1.91308">
        <ele>224</ele>
        <time>2016-05-16T11:43:00Z</time>
      </trkpt>
      <trkpt lat="48.68221" lon="1.91311">
        <ele>225</ele>
        <time>2016-05-16T11:43:01Z</time>
      </trkpt>
      <trkpt lat="48.68224" lon="1.91322">
        <ele>222</ele>
        <time>2016-05-16T11:43:05Z</time>
      </trkpt>
      <trkpt lat="48.68225" lon="1.91324">
        <ele>221</ele>
        <time>2016-05-16T11:43:06Z</time>
      </trkpt>
      <trkpt lat="48.68228" lon="1.91334">
        <ele>221</ele>
        <time>2016-05-16T11:43:12Z</time>
      </trkpt>
      <trkpt lat="48.68231" lon="1.91337">
        <ele>221</ele>
        <time>2016-05-16T11:43:13Z</time>
      </trkpt>
      <trkpt lat="48.68234" lon="1.91349">
        <ele>220</ele>
        <time>2016-05-16T11:43:20Z</time>
      </trkpt>
      <trkpt lat="48.68235" lon="1.91351">
        <ele>221</ele>
        <time>2016-05-16T11:43:21Z</time>
      </trkpt>
      <trkpt lat="48.68236" lon="1.91362">
        <ele>218</ele>
        <time>2016-05-16T11:43:28Z</time>
      </trkpt>
      <trkpt lat="48.68237" lon="1.91365">
        <ele>219</ele>
        <time>2016-05-16T11:43:29Z</time>
      </trkpt>
      <trkpt lat="48.68241" lon="1.91375">
        <ele>216</ele>
        <time>2016-05-16T11:43:36Z</time>
      </trkpt>
      <trkpt lat="48.68243" lon="1.91376">
        <ele>215</ele>
        <time>2016-05-16T11:43:37Z</time>
      </trkpt>
      <trkpt lat="48.68247" lon="1.91382">
        <ele>213</ele>
        <time>2016-05-16T11:43:41Z</time>
      </trkpt>
      <trkpt lat="48.68252" lon="1.91383">
        <ele>214</ele>
        <time>2016-05-16T11:43:42Z</time>
      </trkpt>
      <trkpt lat="48.68256" lon="1.91394">
        <ele>213</ele>
        <time>2016-05-16T11:44:04Z</time>
      </trkpt>
      <trkpt lat="48.6826" lon="1.91401">
        <ele>215</ele>
        <time>2016-05-16T11:44:05Z</time>
      </trkpt>
      <trkpt lat="48.68261" lon="1.91411">
        <ele>215</ele>
        <time>2016-05-16T11:44:07Z</time>
      </trkpt>
      <trkpt lat="48.68264" lon="1.9142">
        <ele>217</ele>
        <time>2016-05-16T11:44:08Z</time>
      </trkpt>
      <trkpt lat="48.68264" lon="1.91431">
        <ele>217</ele>
        <time>2016-05-16T11:44:12Z</time>
      </trkpt>
      <trkpt lat="48.68266" lon="1.91437">
        <ele>217</ele>
        <time>2016-05-16T11:44:13Z</time>
      </trkpt>
      <trkpt lat="48.68266" lon="1.91447">
        <ele>221</ele>
        <time>2016-05-16T11:44:16Z</time>
      </trkpt>
      <trkpt lat="48.68265" lon="1.91452">
        <ele>221</ele>
        <time>2016-05-16T11:44:17Z</time>
      </trkpt>
      <trkpt lat="48.68267" lon="1.91463">
        <ele>228</ele>
        <time>2016-05-16T11:44:55Z</time>
      </trkpt>
      <trkpt lat="48.68267" lon="1.91469">
        <ele>226</ele>
        <time>2016-05-16T11:44:56Z</time>
      </trkpt>
      <trkpt lat="48.68261" lon="1.91477">
        <ele>216</ele>
        <time>2016-05-16T11:44:58Z</time>
      </trkpt>
      <trkpt lat="48.68264" lon="1.91485">
        <ele>216</ele>
        <time>2016-05-16T11:44:59Z</time>
      </trkpt>
      <trkpt lat="48.6826" lon="1.91494">
        <ele>211</ele>
        <time>2016-05-16T11:45:03Z</time>
      </trkpt>
      <trkpt lat="48.6826" lon="1.91499">
        <ele>211</ele>
        <time>2016-05-16T11:45:04Z</time>
      </trkpt>
      <trkpt lat="48.68256" lon="1.91507">
        <ele>208</ele>
        <time>2016-05-16T11:45:06Z</time>
      </trkpt>
      <trkpt lat="48.68254" lon="1.91511">
        <ele>208</ele>
        <time>2016-05-16T11:45:07Z</time>
      </trkpt>
      <trkpt lat="48.68255" lon="1.91522">
        <ele>209</ele>
        <time>2016-05-16T11:45:12Z</time>
      </trkpt>
      <trkpt lat="48.68256" lon="1.91525">
        <ele>209</ele>
        <time>2016-05-16T11:45:13Z</time>
      </trkpt>
      <trkpt lat="48.68263" lon="1.91533">
        <ele>211</ele>
        <time>2016-05-16T11:45:22Z</time>
      </trkpt>
      <trkpt lat="48.68263" lon="1.91534">
        <ele>212</ele>
        <time>2016-05-16T11:45:23Z</time>
      </trkpt>
      <trkpt lat="48.68264" lon="1.91548">
        <ele>214</ele>
        <time>2016-05-16T11:45:32Z</time>
      </trkpt>
      <trkpt lat="48.68263" lon="1.9155">
        <ele>213</ele>
        <time>2016-05-16T11:45:33Z</time>
      </trkpt>
      <trkpt lat="48.68261" lon="1.9156">
        <ele>212</ele>
        <time>2016-05-16T11:45:37Z</time>
      </trkpt>
      <trkpt lat="48.68263" lon="1.91564">
        <ele>214</ele>
        <time>2016-05-16T11:45:38Z</time>
      </trkpt>
      <trkpt lat="48.68266" lon="1.91576">
        <ele>217</ele>
        <time>2016-05-16T11:45:46Z</time>
      </trkpt>
      <trkpt lat="48.68264" lon="1.9158">
        <ele>216</ele>
        <time>2016-05-16T11:45:47Z</time>
      </trkpt>
      <trkpt lat="48.68265" lon="1.91593">
        <ele>217</ele>
        <time>2016-05-16T11:46:01Z</time>
      </trkpt>
      <trkpt lat="48.68265" lon="1.91594">
        <ele>218</ele>
        <time>2016-05-16T11:46:02Z</time>
      </trkpt>
      <trkpt lat="48.68263" lon="1.91608">
        <ele>221</ele>
        <time>2016-05-16T11:46:14Z</time>
      </trkpt>
      <trkpt lat="48.68263" lon="1.91609">
        <ele>221</ele>
        <time>2016-05-16T11:46:15Z</time>
      </trkpt>
      <trkpt lat="48.68262" lon="1.91622">
        <ele>223</ele>
        <time>2016-05-16T11:46:19Z</time>
      </trkpt>
      <trkpt lat="48.68263" lon="1.91626">
        <ele>223</ele>
        <time>2016-05-16T11:46:20Z</time>
      </trkpt>
      <trkpt lat="48.68263" lon="1.91639">
        <ele>221</ele>
        <time>2016-05-16T11:46:28Z</time>
      </trkpt>
      <trkpt lat="48.68263" lon="1.91646">
        <ele>219</ele>
        <time>2016-05-16T11:46:29Z</time>
      </trkpt>
      <trkpt lat="48.68255" lon="1.91649">
        <ele>214</ele>
        <time>2016-05-16T11:46:33Z</time>
      </trkpt>
      <trkpt lat="48.68252" lon="1.91652">
        <ele>214</ele>
        <time>2016-05-16T11:46:34Z</time>
      </trkpt>
      <trkpt lat="48.68248" lon="1.91662">
        <ele>213</ele>
        <time>2016-05-16T11:46:40Z</time>
      </trkpt>
      <trkpt lat="48.68246" lon="1.91664">
        <ele>213</ele>
        <time>2016-05-16T11:46:41Z</time>
      </trkpt>
      <trkpt lat="48.68249" lon="1.91674">
        <ele>211</ele>
        <time>2016-05-16T11:46:52Z</time>
      </trkpt>
      <trkpt lat="48.68245" lon="1.91684">
        <ele>213</ele>
        <time>2016-05-16T11:46:53Z</time>
      </trkpt>
      <trkpt lat="48.68241" lon="1.91694">
        <ele>211</ele>
        <time>2016-05-16T11:46:55Z</time>
      </trkpt>
      <trkpt lat="48.68239" lon="1.91699">
        <ele>211</ele>
        <time>2016-05-16T11:46:56Z</time>
      </trkpt>
      <trkpt lat="48.68236" lon="1.9171">
        <ele>213</ele>
        <time>2016-05-16T11:47:01Z</time>
      </trkpt>
      <trkpt lat="48.68234" lon="1.91716">
        <ele>213</ele>
        <time>2016-05-16T11:47:02Z</time>
      </trkpt>
      <trkpt lat="48.68228" lon="1.91727">
        <ele>215</ele>
        <time>2016-05-16T11:47:15Z</time>
      </trkpt>
      <trkpt lat="48.68228" lon="1.91728">
        <ele>215</ele>
        <time>2016-05-16T11:47:16Z</time>
      </trkpt>
      <trkpt lat="48.68222" lon="1.91735">
        <ele>215</ele>
        <time>2016-05-16T11:47:49Z</time>
      </trkpt>
      <trkpt lat="48.68221" lon="1.91737">
        <ele>216</ele>
        <time>2016-05-16T11:47:50Z</time>
      </trkpt>
      <trkpt lat="48.68223" lon="1.91746">
        <ele>212</ele>
        <time>2016-05-16T11:48:04Z</time>
      </trkpt>
      <trkpt lat="48.68222" lon="1.91751">
        <ele>215</ele>
        <time>2016-05-16T11:48:05Z</time>
      </trkpt>
      <trkpt lat="48.68222" lon="1.91761">
        <ele>200</ele>
        <time>2016-05-16T11:48:14Z</time>
      </trkpt>
      <trkpt lat="48.68224" lon="1.9177">
        <ele>201</ele>
        <time>2016-05-16T11:48:15Z</time>
      </trkpt>
      <trkpt lat="48.68229" lon="1.91781">
        <ele>205</ele>
        <time>2016-05-16T11:48:24Z</time>
      </trkpt>
      <trkpt lat="48.68229" lon="1.91784">
        <ele>205</ele>
        <time>2016-05-16T11:48:25Z</time>
      </trkpt>
      <trkpt lat="48.68229" lon="1.91784">
        <ele>205</ele>
        <time>2016-05-16T11:48:25Z</time>
      </trkpt>
      <trkpt lat="48.68221" lon="1.91792">
        <ele>203</ele>
        <time>2016-05-16T11:48:26Z</time>
      </trkpt>
      <trkpt lat="48.68219" lon="1.91801">
        <ele>204</ele>
        <time>2016-05-16T11:48:28Z</time>
      </trkpt>
      <trkpt lat="48.6822" lon="1.91807">
        <ele>204</ele>
        <time>2016-05-16T11:48:29Z</time>
      </trkpt>
      <trkpt lat="48.68219" lon="1.9182">
        <ele>204</ele>
        <time>2016-05-16T11:48:32Z</time>
      </trkpt>
      <trkpt lat="48.68217" lon="1.91826">
        <ele>205</ele>
        <time>2016-05-16T11:48:33Z</time>
      </trkpt>
      <trkpt lat="48.68217" lon="1.91835">
        <ele>207</ele>
        <time>2016-05-16T11:48:37Z</time>
      </trkpt>
      <trkpt lat="48.68214" lon="1.91843">
        <ele>205</ele>
        <time>2016-05-16T11:48:38Z</time>
      </trkpt>
      <trkpt lat="48.68215" lon="1.91854">
        <ele>204</ele>
        <time>2016-05-16T11:48:41Z</time>
      </trkpt>
      <trkpt lat="48.68214" lon="1.91857">
        <ele>203</ele>
        <time>2016-05-16T11:48:42Z</time>
      </trkpt>
      <trkpt lat="48.68215" lon="1.91863">
        <ele>203</ele>
        <time>2016-05-16T11:48:44Z</time>
      </trkpt>
      <trkpt lat="48.68222" lon="1.91867">
        <ele>205</ele>
        <time>2016-05-16T11:48:45Z</time>
      </trkpt>
      <trkpt lat="48.68226" lon="1.9187">
        <ele>205</ele>
        <time>2016-05-16T11:48:47Z</time>
      </trkpt>
      <trkpt lat="48.68231" lon="1.91869">
        <ele>206</ele>
        <time>2016-05-16T11:48:48Z</time>
      </trkpt>
      <trkpt lat="48.68224" lon="1.91872">
        <ele>207</ele>
        <time>2016-05-16T11:48:49Z</time>
      </trkpt>
      <trkpt lat="48.68227" lon="1.91885">
        <ele>208</ele>
        <time>2016-05-16T11:48:50Z</time>
      </trkpt>
      <trkpt lat="48.68232" lon="1.91889">
        <ele>211</ele>
        <time>2016-05-16T11:48:52Z</time>
      </trkpt>
      <trkpt lat="48.68234" lon="1.91895">
        <ele>210</ele>
        <time>2016-05-16T11:48:53Z</time>
      </trkpt>
      <trkpt lat="48.68232" lon="1.91895">
        <ele>211</ele>
        <time>2016-05-16T11:48:59Z</time>
      </trkpt>
      <trkpt lat="48.68232" lon="1.91896">
        <ele>212</ele>
        <time>2016-05-16T11:49:00Z</time>
      </trkpt>
      <trkpt lat="48.68232" lon="1.91896">
        <ele>212</ele>
        <time>2016-05-16T11:49:00Z</time>
      </trkpt>
      <trkpt lat="48.68231" lon="1.91896">
        <ele>212</ele>
        <time>2016-05-16T11:49:01Z</time>
      </trkpt>
      <trkpt lat="48.68231" lon="1.91896">
        <ele>212</ele>
        <time>2016-05-16T11:49:01Z</time>
      </trkpt>
      <trkpt lat="48.68231" lon="1.91899">
        <ele>214</ele>
        <time>2016-05-16T11:49:02Z</time>
      </trkpt>
      <trkpt lat="48.68232" lon="1.919">
        <ele>214</ele>
        <time>2016-05-16T11:49:03Z</time>
      </trkpt>
      <trkpt lat="48.68229" lon="1.91911">
        <ele>217</ele>
        <time>2016-05-16T11:49:07Z</time>
      </trkpt>
      <trkpt lat="48.68226" lon="1.91913">
        <ele>218</ele>
        <time>2016-05-16T11:49:08Z</time>
      </trkpt>
      <trkpt lat="48.68228" lon="1.91923">
        <ele>217</ele>
        <time>2016-05-16T11:49:16Z</time>
      </trkpt>
      <trkpt lat="48.68224" lon="1.91927">
        <ele>218</ele>
        <time>2016-05-16T11:49:17Z</time>
      </trkpt>
      <trkpt lat="48.68222" lon="1.91933">
        <ele>219</ele>
        <time>2016-05-16T11:49:18Z</time>
      </trkpt>
      <trkpt lat="48.6822" lon="1.91944">
        <ele>221</ele>
        <time>2016-05-16T11:49:19Z</time>
      </trkpt>
      <trkpt lat="48.68222" lon="1.91953">
        <ele>222</ele>
        <time>2016-05-16T11:49:27Z</time>
      </trkpt>
      <trkpt lat="48.68226" lon="1.91957">
        <ele>225</ele>
        <time>2016-05-16T11:49:28Z</time>
      </trkpt>
      <trkpt lat="48.68229" lon="1.91967">
        <ele>223</ele>
        <time>2016-05-16T11:49:34Z</time>
      </trkpt>
      <trkpt lat="48.6823" lon="1.9197">
        <ele>223</ele>
        <time>2016-05-16T11:49:35Z</time>
      </trkpt>
      <trkpt lat="48.68223" lon="1.91976">
        <ele>218</ele>
        <time>2016-05-16T11:49:42Z</time>
      </trkpt>
      <trkpt lat="48.68221" lon="1.91979">
        <ele>216</ele>
        <time>2016-05-16T11:49:43Z</time>
      </trkpt>
      <trkpt lat="48.68219" lon="1.9199">
        <ele>217</ele>
        <time>2016-05-16T11:49:54Z</time>
      </trkpt>
      <trkpt lat="48.68218" lon="1.91993">
        <ele>217</ele>
        <time>2016-05-16T11:49:55Z</time>
      </trkpt>
      <trkpt lat="48.68212" lon="1.92001">
        <ele>214</ele>
        <time>2016-05-16T11:50:00Z</time>
      </trkpt>
      <trkpt lat="48.68212" lon="1.92005">
        <ele>216</ele>
        <time>2016-05-16T11:50:01Z</time>
      </trkpt>
      <trkpt lat="48.68215" lon="1.92017">
        <ele>213</ele>
        <time>2016-05-16T11:50:11Z</time>
      </trkpt>
      <trkpt lat="48.68217" lon="1.92023">
        <ele>213</ele>
        <time>2016-05-16T11:50:12Z</time>
      </trkpt>
      <trkpt lat="48.68215" lon="1.92035">
        <ele>210</ele>
        <time>2016-05-16T11:50:47Z</time>
      </trkpt>
      <trkpt lat="48.68211" lon="1.92044">
        <ele>212</ele>
        <time>2016-05-16T11:50:48Z</time>
      </trkpt>
      <trkpt lat="48.68212" lon="1.92057">
        <ele>215</ele>
        <time>2016-05-16T11:50:56Z</time>
      </trkpt>
      <trkpt lat="48.68214" lon="1.9206">
        <ele>215</ele>
        <time>2016-05-16T11:50:57Z</time>
      </trkpt>
      <trkpt lat="48.68218" lon="1.9207">
        <ele>215</ele>
        <time>2016-05-16T11:51:01Z</time>
      </trkpt>
      <trkpt lat="48.68221" lon="1.9207">
        <ele>215</ele>
        <time>2016-05-16T11:51:02Z</time>
      </trkpt>
      <trkpt lat="48.68219" lon="1.9208">
        <ele>213</ele>
        <time>2016-05-16T11:51:05Z</time>
      </trkpt>
      <trkpt lat="48.68219" lon="1.92082">
        <ele>213</ele>
        <time>2016-05-16T11:51:06Z</time>
      </trkpt>
      <trkpt lat="48.68219" lon="1.92082">
        <ele>213</ele>
        <time>2016-05-16T11:51:07Z</time>
      </trkpt>
      <trkpt lat="48.68217" lon="1.92093">
        <ele>214</ele>
        <time>2016-05-16T11:51:10Z</time>
      </trkpt>
      <trkpt lat="48.68216" lon="1.92098">
        <ele>213</ele>
        <time>2016-05-16T11:51:11Z</time>
      </trkpt>
      <trkpt lat="48.68214" lon="1.9211">
        <ele>212</ele>
        <time>2016-05-16T11:51:20Z</time>
      </trkpt>
      <trkpt lat="48.68215" lon="1.92113">
        <ele>212</ele>
        <time>2016-05-16T11:51:21Z</time>
      </trkpt>
      <trkpt lat="48.68211" lon="1.92125">
        <ele>214</ele>
        <time>2016-05-16T11:51:27Z</time>
      </trkpt>
      <trkpt lat="48.68211" lon="1.92126">
        <ele>214</ele>
        <time>2016-05-16T11:51:28Z</time>
      </trkpt>
      <trkpt lat="48.68211" lon="1.92131">
        <ele>216</ele>
        <time>2016-05-16T11:51:31Z</time>
      </trkpt>
      <trkpt lat="48.68211" lon="1.92143">
        <ele>222</ele>
        <time>2016-05-16T11:51:32Z</time>
      </trkpt>
      <trkpt lat="48.68211" lon="1.92156">
        <ele>220</ele>
        <time>2016-05-16T11:51:34Z</time>
      </trkpt>
      <trkpt lat="48.68211" lon="1.92159">
        <ele>222</ele>
        <time>2016-05-16T11:51:35Z</time>
      </trkpt>
      <trkpt lat="48.68213" lon="1.92162">
        <ele>222</ele>
        <time>2016-05-16T11:51:36Z</time>
      </trkpt>
      <trkpt lat="48.68211" lon="1.92161">
        <ele>219</ele>
        <time>2016-05-16T11:51:37Z</time>
      </trkpt>
      <trkpt lat="48.68211" lon="1.92161">
        <ele>219</ele>
        <time>2016-05-16T11:51:37Z</time>
      </trkpt>
      <trkpt lat="48.68209" lon="1.92163">
        <ele>220</ele>
        <time>2016-05-16T11:51:38Z</time>
      </trkpt>
      <trkpt lat="48.68203" lon="1.9217">
        <ele>221</ele>
        <time>2016-05-16T11:51:44Z</time>
      </trkpt>
      <trkpt lat="48.68201" lon="1.92173">
        <ele>221</ele>
        <time>2016-05-16T11:51:45Z</time>
      </trkpt>
      <trkpt lat="48.68201" lon="1.92187">
        <ele>220</ele>
        <time>2016-05-16T11:51:51Z</time>
      </trkpt>
      <trkpt lat="48.68202" lon="1.92191">
        <ele>221</ele>
        <time>2016-05-16T11:51:52Z</time>
      </trkpt>
      <trkpt lat="48.682" lon="1.92203">
        <ele>220</ele>
        <time>2016-05-16T11:51:56Z</time>
      </trkpt>
      <trkpt lat="48.682" lon="1.92211">
        <ele>220</ele>
        <time>2016-05-16T11:51:57Z</time>
      </trkpt>
      <trkpt lat="48.68193" lon="1.9222">
        <ele>217</ele>
        <time>2016-05-16T11:52:07Z</time>
      </trkpt>
      <trkpt lat="48.68191" lon="1.9222">
        <ele>217</ele>
        <time>2016-05-16T11:52:08Z</time>
      </trkpt>
      <trkpt lat="48.68186" lon="1.9223">
        <ele>216</ele>
        <time>2016-05-16T11:52:21Z</time>
      </trkpt>
      <trkpt lat="48.68187" lon="1.92233">
        <ele>215</ele>
        <time>2016-05-16T11:52:22Z</time>
      </trkpt>
      <trkpt lat="48.68181" lon="1.92238">
        <ele>214</ele>
        <time>2016-05-16T11:52:26Z</time>
      </trkpt>
      <trkpt lat="48.6818" lon="1.92244">
        <ele>213</ele>
        <time>2016-05-16T11:52:27Z</time>
      </trkpt>
      <trkpt lat="48.68183" lon="1.92253">
        <ele>214</ele>
        <time>2016-05-16T11:52:36Z</time>
      </trkpt>
      <trkpt lat="48.68184" lon="1.9226">
        <ele>214</ele>
        <time>2016-05-16T11:52:37Z</time>
      </trkpt>
      <trkpt lat="48.68181" lon="1.92267">
        <ele>214</ele>
        <time>2016-05-16T11:52:41Z</time>
      </trkpt>
      <trkpt lat="48.68179" lon="1.92271">
        <ele>215</ele>
        <time>2016-05-16T11:52:42Z</time>
      </trkpt>
      <trkpt lat="48.68177" lon="1.92277">
        <ele>216</ele>
        <time>2016-05-16T11:52:45Z</time>
      </trkpt>
      <trkpt lat="48.68174" lon="1.92284">
        <ele>216</ele>
        <time>2016-05-16T11:52:46Z</time>
      </trkpt>
      <trkpt lat="48.68169" lon="1.92294">
        <ele>213</ele>
        <time>2016-05-16T11:52:53Z</time>
      </trkpt>
      <trkpt lat="48.68171" lon="1.92298">
        <ele>212</ele>
        <time>2016-05-16T11:52:54Z</time>
      </trkpt>
      <trkpt lat="48.68163" lon="1.92305">
        <ele>211</ele>
        <time>2016-05-16T11:53:02Z</time>
      </trkpt>
      <trkpt lat="48.68165" lon="1.9231">
        <ele>211</ele>
        <time>2016-05-16T11:53:03Z</time>
      </trkpt>
      <trkpt lat="48.68161" lon="1.92315">
        <ele>213</ele>
        <time>2016-05-16T11:53:07Z</time>
      </trkpt>
      <trkpt lat="48.68159" lon="1.9232">
        <ele>213</ele>
        <time>2016-05-16T11:53:08Z</time>
      </trkpt>
      <trkpt lat="48.68161" lon="1.92333">
        <ele>214</ele>
        <time>2016-05-16T11:53:23Z</time>
      </trkpt>
      <trkpt lat="48.68162" lon="1.92334">
        <ele>215</ele>
        <time>2016-05-16T11:53:24Z</time>
      </trkpt>
      <trkpt lat="48.68157" lon="1.92343">
        <ele>214</ele>
        <time>2016-05-16T11:53:42Z</time>
      </trkpt>
      <trkpt lat="48.68154" lon="1.92346">
        <ele>212</ele>
        <time>2016-05-16T11:53:43Z</time>
      </trkpt>
      <trkpt lat="48.68149" lon="1.92355">
        <ele>214</ele>
        <time>2016-05-16T11:53:48Z</time>
      </trkpt>
      <trkpt lat="48.68147" lon="1.92358">
        <ele>214</ele>
        <time>2016-05-16T11:53:49Z</time>
      </trkpt>
      <trkpt lat="48.68146" lon="1.92371">
        <ele>212</ele>
        <time>2016-05-16T11:54:00Z</time>
      </trkpt>
      <trkpt lat="48.68146" lon="1.92372">
        <ele>211</ele>
        <time>2016-05-16T11:54:01Z</time>
      </trkpt>
      <trkpt lat="48.6814" lon="1.92378">
        <ele>215</ele>
        <time>2016-05-16T11:54:22Z</time>
      </trkpt>
      <trkpt lat="48.68139" lon="1.92383">
        <ele>216</ele>
        <time>2016-05-16T11:54:23Z</time>
      </trkpt>
      <trkpt lat="48.68143" lon="1.92392">
        <ele>215</ele>
        <time>2016-05-16T11:54:26Z</time>
      </trkpt>
      <trkpt lat="48.68143" lon="1.92396">
        <ele>214</ele>
        <time>2016-05-16T11:54:27Z</time>
      </trkpt>
      <trkpt lat="48.68142" lon="1.92404">
        <ele>215</ele>
        <time>2016-05-16T11:54:29Z</time>
      </trkpt>
      <trkpt lat="48.68141" lon="1.92404">
        <ele>212</ele>
        <time>2016-05-16T11:54:30Z</time>
      </trkpt>
      <trkpt lat="48.68141" lon="1.92404">
        <ele>212</ele>
        <time>2016-05-16T11:54:30Z</time>
      </trkpt>
      <trkpt lat="48.68141" lon="1.92407">
        <ele>213</ele>
        <time>2016-05-16T11:54:31Z</time>
      </trkpt>
      <trkpt lat="48.68142" lon="1.92416">
        <ele>210</ele>
        <time>2016-05-16T11:54:33Z</time>
      </trkpt>
      <trkpt lat="48.68142" lon="1.92418">
        <ele>209</ele>
        <time>2016-05-16T11:54:34Z</time>
      </trkpt>
      <trkpt lat="48.68139" lon="1.9242">
        <ele>209</ele>
        <time>2016-05-16T11:54:36Z</time>
      </trkpt>
      <trkpt lat="48.68137" lon="1.92418">
        <ele>207</ele>
        <time>2016-05-16T11:54:37Z</time>
      </trkpt>
      <trkpt lat="48.68132" lon="1.92429">
        <ele>210</ele>
        <time>2016-05-16T11:54:45Z</time>
      </trkpt>
      <trkpt lat="48.68131" lon="1.92431">
        <ele>211</ele>
        <time>2016-05-16T11:54:46Z</time>
      </trkpt>
      <trkpt lat="48.68126" lon="1.92442">
        <ele>211</ele>
        <time>2016-05-16T11:55:14Z</time>
      </trkpt>
      <trkpt lat="48.68126" lon="1.92442">
        <ele>212</ele>
        <time>2016-05-16T11:55:15Z</time>
      </trkpt>
      <trkpt lat="48.68128" lon="1.92455">
        <ele>207</ele>
        <time>2016-05-16T11:55:22Z</time>
      </trkpt>
      <trkpt lat="48.68127" lon="1.92458">
        <ele>209</ele>
        <time>2016-05-16T11:55:23Z</time>
      </trkpt>
      <trkpt lat="48.68124" lon="1.92467">
        <ele>210</ele>
        <time>2016-05-16T11:55:25Z</time>
      </trkpt>
      <trkpt lat="48.68121" lon="1.92473">
        <ele>208</ele>
        <time>2016-05-16T11:55:26Z</time>
      </trkpt>
      <trkpt lat="48.68121" lon="1.92481">
        <ele>207</ele>
        <time>2016-05-16T11:55:29Z</time>
      </trkpt>
      <trkpt lat="48.68122" lon="1.92485">
        <ele>207</ele>
        <time>2016-05-16T11:55:30Z</time>
      </trkpt>
      <trkpt lat="48.68122" lon="1.92485">
        <ele>207</ele>
        <time>2016-05-16T11:55:30Z</time>
      </trkpt>
      <trkpt lat="48.68122" lon="1.92487">
        <ele>207</ele>
        <time>2016-05-16T11:55:31Z</time>
      </trkpt>
      <trkpt lat="48.68122" lon="1.92487">
        <ele>207</ele>
        <time>2016-05-16T11:55:31Z</time>
      </trkpt>
      <trkpt lat="48.68119" lon="1.92492">
        <ele>207</ele>
        <time>2016-05-16T11:55:32Z</time>
      </trkpt>
      <trkpt lat="48.68121" lon="1.92495">
        <ele>208</ele>
        <time>2016-05-16T11:55:33Z</time>
      </trkpt>
      <trkpt lat="48.68121" lon="1.92507">
        <ele>210</ele>
        <time>2016-05-16T11:55:42Z</time>
      </trkpt>
      <trkpt lat="48.6812" lon="1.92509">
        <ele>210</ele>
        <time>2016-05-16T11:55:43Z</time>
      </trkpt>
      <trkpt lat="48.68121" lon="1.92522">
        <ele>212</ele>
        <time>2016-05-16T11:55:52Z</time>
      </trkpt>
      <trkpt lat="48.6812" lon="1.92522">
        <ele>212</ele>
        <time>2016-05-16T11:55:53Z</time>
      </trkpt>
      <trkpt lat="48.68121" lon="1.92532">
        <ele>215</ele>
        <time>2016-05-16T11:56:06Z</time>
      </trkpt>
      <trkpt lat="48.68121" lon="1.92536">
        <ele>217</ele>
        <time>2016-05-16T11:56:07Z</time>
      </trkpt>
      <trkpt lat="48.68121" lon="1.92548">
        <ele>218</ele>
        <time>2016-05-16T11:56:10Z</time>
      </trkpt>
      <trkpt lat="48.68121" lon="1.9255">
        <ele>216</ele>
        <time>2016-05-16T11:56:11Z</time>
      </trkpt>
      <trkpt lat="48.68125" lon="1.92557">
        <ele>220</ele>
        <time>2016-05-16T11:56:14Z</time>
      </trkpt>
      <trkpt lat="48.68128" lon="1.92561">
        <ele>220</ele>
        <time>2016-05-16T11:56:15Z</time>
      </trkpt>
      <trkpt lat="48.68126" lon="1.92569">
        <ele>221</ele>
        <time>2016-05-16T11:56:19Z</time>
      </trkpt>
      <trkpt lat="48.68124" lon="1.92574">
        <ele>221</ele>
        <time>2016-05-16T11:56:20Z</time>
      </trkpt>
      <trkpt lat="48.68122" lon="1.92587">
        <ele>226</ele>
        <time>2016-05-16T11:56:24Z</time>
      </trkpt>
      <trkpt lat="48.6812" lon="1.92588">
        <ele>226</ele>
        <time>2016-05-16T11:56:25Z</time>
      </trkpt>
      <trkpt lat="48.6812" lon="1.92593">
        <ele>226</ele>
        <time>2016-05-16T11:56:28Z</time>
      </trkpt>
      <trkpt lat="48.68119" lon="1.92592">
        <ele>226</ele>
        <time>2016-05-16T11:56:29Z</time>
      </trkpt>
      <trkpt lat="48.68119" lon="1.92592">
        <ele>226</ele>
        <time>2016-05-16T11:56:29Z</time>
      </trkpt>
      <trkpt lat="48.6812" lon="1.92596">
        <ele>225</ele>
        <time>2016-05-16T11:56:30Z</time>
      </trkpt>
      <trkpt lat="48.68115" lon="1.92607">
        <ele>224</ele>
        <time>2016-05-16T11:56:36Z</time>
      </trkpt>
      <trkpt lat="48.68115" lon="1.92609">
        <ele>224</ele>
        <time>2016-05-16T11:56:37Z</time>
      </trkpt>
      <trkpt lat="48.6811" lon="1.92621">
        <ele>228</ele>
        <time>2016-05-16T11:57:17Z</time>
      </trkpt>
      <trkpt lat="48.6811" lon="1.92621">
        <ele>228</ele>
        <time>2016-05-16T11:57:18Z</time>
      </trkpt>
      <trkpt lat="48.68111" lon="1.9263">
        <ele>224</ele>
        <time>2016-05-16T11:58:55Z</time>
      </trkpt>
      <trkpt lat="48.68117" lon="1.92636">
        <ele>223</ele>
        <time>2016-05-16T11:58:56Z</time>
      </trkpt>
      <trkpt lat="48.68115" lon="1.92636">
        <ele>225</ele>
        <time>2016-05-16T11:58:57Z</time>
      </trkpt>
      <trkpt lat="48.68115" lon="1.9264">
        <ele>223</ele>
        <time>2016-05-16T11:58:58Z</time>
      </trkpt>
      <trkpt lat="48.68115" lon="1.9264">
        <ele>223</ele>
        <time>2016-05-16T11:58:58Z</time>
      </trkpt>
      <trkpt lat="48.68114" lon="1.92643">
        <ele>220</ele>
        <time>2016-05-16T11:58:59Z</time>
      </trkpt>
      <trkpt lat="48.68115" lon="1.92655">
        <ele>216</ele>
        <time>2016-05-16T11:59:02Z</time>
      </trkpt>
      <trkpt lat="48.68116" lon="1.92658">
        <ele>214</ele>
        <time>2016-05-16T11:59:03Z</time>
      </trkpt>
      <trkpt lat="48.68118" lon="1.9267">
        <ele>215</ele>
        <time>2016-05-16T11:59:06Z</time>
      </trkpt>
      <trkpt lat="48.68116" lon="1.92679">
        <ele>212</ele>
        <time>2016-05-16T11:59:07Z</time>
      </trkpt>
      <trkpt lat="48.68117" lon="1.9269">
        <ele>211</ele>
        <time>2016-05-16T11:59:10Z</time>
      </trkpt>
      <trkpt lat="48.68118" lon="1.92693">
        <ele>211</ele>
        <time>2016-05-16T11:59:11Z</time>
      </trkpt>
      <trkpt lat="48.68123" lon="1.92704">
        <ele>214</ele>
        <time>2016-05-16T11:59:15Z</time>
      </trkpt>
      <trkpt lat="48.68125" lon="1.92704">
        <ele>214</ele>
        <time>2016-05-16T11:59:16Z</time>
      </trkpt>
      <trkpt lat="48.68125" lon="1.92704">
        <ele>214</ele>
        <time>2016-05-16T11:59:16Z</time>
      </trkpt>
      <trkpt lat="48.6812" lon="1.92712">
        <ele>213</ele>
        <time>2016-05-16T11:59:17Z</time>
      </trkpt>
      <trkpt lat="48.6812" lon="1.92712">
        <ele>213</ele>
        <time>2016-05-16T11:59:17Z</time>
      </trkpt>
      <trkpt lat="48.68123" lon="1.9271">
        <ele>214</ele>
        <time>2016-05-16T11:59:18Z</time>
      </trkpt>
      <trkpt lat="48.68127" lon="1.9272">
        <ele>216</ele>
        <time>2016-05-16T11:59:22Z</time>
      </trkpt>
      <trkpt lat="48.68128" lon="1.92722">
        <ele>216</ele>
        <time>2016-05-16T11:59:23Z</time>
      </trkpt>
      <trkpt lat="48.68129" lon="1.92733">
        <ele>213</ele>
        <time>2016-05-16T11:59:27Z</time>
      </trkpt>
      <trkpt lat="48.6813" lon="1.92737">
        <ele>213</ele>
        <time>2016-05-16T11:59:28Z</time>
      </trkpt>
      <trkpt lat="48.68131" lon="1.92744">
        <ele>216</ele>
        <time>2016-05-16T11:59:31Z</time>
      </trkpt>
      <trkpt lat="48.68131" lon="1.92745">
        <ele>216</ele>
        <time>2016-05-16T11:59:32Z</time>
      </trkpt>
      <trkpt lat="48.68131" lon="1.92745">
        <ele>216</ele>
        <time>2016-05-16T11:59:32Z</time>
      </trkpt>
      <trkpt lat="48.68128" lon="1.92752">
        <ele>217</ele>
        <time>2016-05-16T11:59:33Z</time>
      </trkpt>
      <trkpt lat="48.68129" lon="1.92764">
        <ele>215</ele>
        <time>2016-05-16T11:59:39Z</time>
      </trkpt>
      <trkpt lat="48.68131" lon="1.92765">
        <ele>214</ele>
        <time>2016-05-16T11:59:40Z</time>
      </trkpt>
      <trkpt lat="48.68134" lon="1.92777">
        <ele>215</ele>
        <time>2016-05-16T11:59:49Z</time>
      </trkpt>
      <trkpt lat="48.68135" lon="1.92781">
        <ele>216</ele>
        <time>2016-05-16T11:59:50Z</time>
      </trkpt>
      <trkpt lat="48.68133" lon="1.92786">
        <ele>217</ele>
        <time>2016-05-16T11:59:54Z</time>
      </trkpt>
      <trkpt lat="48.68132" lon="1.92792">
        <ele>218</ele>
        <time>2016-05-16T11:59:55Z</time>
      </trkpt>
      <trkpt lat="48.68132" lon="1.92792">
        <ele>218</ele>
        <time>2016-05-16T11:59:55Z</time>
      </trkpt>
      <trkpt lat="48.68134" lon="1.9279">
        <ele>215</ele>
        <time>2016-05-16T11:59:56Z</time>
      </trkpt>
      <trkpt lat="48.68134" lon="1.928">
        <ele>218</ele>
        <time>2016-05-16T12:00:04Z</time>
      </trkpt>
      <trkpt lat="48.68134" lon="1.92803">
        <ele>214</ele>
        <time>2016-05-16T12:00:05Z</time>
      </trkpt>
      <trkpt lat="48.6813" lon="1.92814">
        <ele>213</ele>
        <time>2016-05-16T12:00:11Z</time>
      </trkpt>
      <trkpt lat="48.68131" lon="1.92817">
        <ele>213</ele>
        <time>2016-05-16T12:00:12Z</time>
      </trkpt>
      <trkpt lat="48.68131" lon="1.92819">
        <ele>214</ele>
        <time>2016-05-16T12:00:13Z</time>
      </trkpt>
      <trkpt lat="48.68134" lon="1.92821">
        <ele>214</ele>
        <time>2016-05-16T12:00:14Z</time>
      </trkpt>
      <trkpt lat="48.68134" lon="1.92821">
        <ele>214</ele>
        <time>2016-05-16T12:00:14Z</time>
      </trkpt>
      <trkpt lat="48.68134" lon="1.92821">
        <ele>214</ele>
        <time>2016-05-16T12:00:15Z</time>
      </trkpt>
      <trkpt lat="48.68129" lon="1.92831">
        <ele>217</ele>
        <time>2016-05-16T12:00:26Z</time>
      </trkpt>
      <trkpt lat="48.68129" lon="1.92833">
        <ele>218</ele>
        <time>2016-05-16T12:00:27Z</time>
      </trkpt>
      <trkpt lat="48.68131" lon="1.92846">
        <ele>221</ele>
        <time>2016-05-16T12:00:49Z</time>
      </trkpt>
      <trkpt lat="48.68131" lon="1.92846">
        <ele>221</ele>
        <time>2016-05-16T12:00:50Z</time>
      </trkpt>
      <trkpt lat="48.68132" lon="1.92857">
        <ele>222</ele>
        <time>2016-05-16T12:00:52Z</time>
      </trkpt>
      <trkpt lat="48.68134" lon="1.92864">
        <ele>224</ele>
        <time>2016-05-16T12:00:53Z</time>
      </trkpt>
      <trkpt lat="48.68135" lon="1.92872">
        <ele>220</ele>
        <time>2016-05-16T12:00:55Z</time>
      </trkpt>
      <trkpt lat="48.6814" lon="1.92875">
        <ele>221</ele>
        <time>2016-05-16T12:00:56Z</time>
      </trkpt>
      <trkpt lat="48.68146" lon="1.92881">
        <ele>216</ele>
        <time>2016-05-16T12:01:01Z</time>
      </trkpt>
      <trkpt lat="48.68148" lon="1.92883">
        <ele>216</ele>
        <time>2016-05-16T12:01:02Z</time>
      </trkpt>
      <trkpt lat="48.68151" lon="1.92893">
        <ele>211</ele>
        <time>2016-05-16T12:01:08Z</time>
      </trkpt>
      <trkpt lat="48.6815" lon="1.92897">
        <ele>211</ele>
        <time>2016-05-16T12:01:09Z</time>
      </trkpt>
      <trkpt lat="48.6815" lon="1.92897">
        <ele>211</ele>
        <time>2016-05-16T12:01:09Z</time>
      </trkpt>
      <trkpt lat="48.6815" lon="1.92896">
        <ele>211</ele>
        <time>2016-05-16T12:01:10Z</time>
      </trkpt>
      <trkpt lat="48.6815" lon="1.92902">
        <ele>213</ele>
        <time>2016-05-16T12:01:11Z</time>
      </trkpt>
      <trkpt lat="48.68151" lon="1.92904">
        <ele>213</ele>
        <time>2016-05-16T12:01:12Z</time>
      </trkpt>
      <trkpt lat="48.68151" lon="1.92904">
        <ele>213</ele>
        <time>2016-05-16T12:01:12Z</time>
      </trkpt>
      <trkpt lat="48.6815" lon="1.92907">
        <ele>212</ele>
        <time>2016-05-16T12:01:13Z</time>
      </trkpt>
      <trkpt lat="48.6815" lon="1.92907">
        <ele>212</ele>
        <time>2016-05-16T12:01:13Z</time>
      </trkpt>
      <trkpt lat="48.68149" lon="1.92913">
        <ele>214</ele>
        <time>2016-05-16T12:01:14Z</time>
      </trkpt>
      <trkpt lat="48.6815" lon="1.92926">
        <ele>215</ele>
        <time>2016-05-16T12:01:29Z</time>
      </trkpt>
      <trkpt lat="48.6815" lon="1.92927">
        <ele>215</ele>
        <time>2016-05-16T12:01:30Z</time>
      </trkpt>
      <trkpt lat="48.68151" lon="1.92937">
        <ele>218</ele>
        <time>2016-05-16T12:01:52Z</time>
      </trkpt>
      <trkpt lat="48.68149" lon="1.92941">
        <ele>218</ele>
        <time>2016-05-16T12:01:53Z</time>
      </trkpt>
      <trkpt lat="48.68146" lon="1.92948">
        <ele>219</ele>
        <time>2016-05-16T12:01:55Z</time>
      </trkpt>
      <trkpt lat="48.68145" lon="1.92956">
        <ele>219</ele>
        <time>2016-05-16T12:01:56Z</time>
      </trkpt>
      <trkpt lat="48.68141" lon="1.92968">
        <ele>217</ele>
        <time>2016-05-16T12:02:02Z</time>
      </trkpt>
      <trkpt lat="48.68141" lon="1.92969">
        <ele>217</ele>
        <time>2016-05-16T12:02:03Z</time>
      </trkpt>
      <trkpt lat="48.68138" lon="1.92982">
        <ele>219</ele>
        <time>2016-05-16T12:02:17Z</time>
      </trkpt>
      <trkpt lat="48.68138" lon="1.92982">
        <ele>219</ele>
        <time>2016-05-16T12:02:18Z</time>
      </trkpt>
      <trkpt lat="48.68137" lon="1.92985">
        <ele>220</ele>
        <time>2016-05-16T12:02:32Z</time>
      </trkpt>
      <trkpt lat="48.68132" lon="1.92996">
        <ele>220</ele>
        <time>2016-05-16T12:02:33Z</time>
      </trkpt>
      <trkpt lat="48.68123" lon="1.92998">
        <ele>221</ele>
        <time>2016-05-16T12:02:36Z</time>
      </trkpt>
      <trkpt lat="48.68119" lon="1.92999">
        <ele>224</ele>
        <time>2016-05-16T12:02:37Z</time>
      </trkpt>
      <trkpt lat="48.68117" lon="1.93012">
        <ele>224</ele>
        <time>2016-05-16T12:02:39Z</time>
      </trkpt>
      <trkpt lat="48.68115" lon="1.93016">
        <ele>224</ele>
        <time>2016-05-16T12:02:40Z</time>
      </trkpt>
      <trkpt lat="48.68116" lon="1.93028">
        <ele>216</ele>
        <time>2016-05-16T12:02:43Z</time>
      </trkpt>
      <trkpt lat="48.68113" lon="1.9303">
        <ele>219</ele>
        <time>2016-05-16T12:02:44Z</time>
      </trkpt>
      <trkpt lat="48.68107" lon="1.93035">
        <ele>216</ele>
        <time>2016-05-16T12:02:47Z</time>
      </trkpt>
      <trkpt lat="48.68105" lon="1.93037">
        <ele>215</ele>
        <time>2016-05-16T12:02:48Z</time>
      </trkpt>
      <trkpt lat="48.681" lon="1.93044">
        <ele>216</ele>
        <time>2016-05-16T12:02:51Z</time>
      </trkpt>
      <trkpt lat="48.68098" lon="1.93047">
        <ele>217</ele>
        <time>2016-05-16T12:02:52Z</time>
      </trkpt>
      <trkpt lat="48.68098" lon="1.93047">
        <ele>217</ele>
        <time>2016-05-16T12:02:52Z</time>
      </trkpt>
      <trkpt lat="48.68097" lon="1.93052">
        <ele>215</ele>
        <time>2016-05-16T12:02:53Z</time>
      </trkpt>
      <trkpt lat="48.68097" lon="1.93052">
        <ele>215</ele>
        <time>2016-05-16T12:02:53Z</time>
      </trkpt>
      <trkpt lat="48.68097" lon="1.93044">
        <ele>215</ele>
        <time>2016-05-16T12:02:54Z</time>
      </trkpt>
      <trkpt lat="48.6809" lon="1.93048">
        <ele>214</ele>
        <time>2016-05-16T12:03:03Z</time>
      </trkpt>
      <trkpt lat="48.68087" lon="1.93048">
        <ele>214</ele>
        <time>2016-05-16T12:03:04Z</time>
      </trkpt>
      <trkpt lat="48.6808" lon="1.93046">
        <ele>214</ele>
        <time>2016-05-16T12:03:06Z</time>
      </trkpt>
      <trkpt lat="48.68079" lon="1.93041">
        <ele>214</ele>
        <time>2016-05-16T12:03:07Z</time>
      </trkpt>
      <trkpt lat="48.6807" lon="1.93044">
        <ele>213</ele>
        <time>2016-05-16T12:03:09Z</time>
      </trkpt>
      <trkpt lat="48.68068" lon="1.93047">
        <ele>213</ele>
        <time>2016-05-16T12:03:10Z</time>
      </trkpt>
      <trkpt lat="48.68061" lon="1.93055">
        <ele>214</ele>
        <time>2016-05-16T12:03:16Z</time>
      </trkpt>
      <trkpt lat="48.68061" lon="1.93055">
        <ele>214</ele>
        <time>2016-05-16T12:03:17Z</time>
      </trkpt>
      <trkpt lat="48.68054" lon="1.93056">
        <ele>214</ele>
        <time>2016-05-16T12:03:31Z</time>
      </trkpt>
      <trkpt lat="48.68051" lon="1.93056">
        <ele>216</ele>
        <time>2016-05-16T12:03:32Z</time>
      </trkpt>
      <trkpt lat="48.68044" lon="1.93047">
        <ele>217</ele>
        <time>2016-05-16T12:03:39Z</time>
      </trkpt>
      <trkpt lat="48.68042" lon="1.93048">
        <ele>217</ele>
        <time>2016-05-16T12:03:40Z</time>
      </trkpt>
      <trkpt lat="48.68035" lon="1.93046">
        <ele>218</ele>
        <time>2016-05-16T12:03:44Z</time>
      </trkpt>
      <trkpt lat="48.68033" lon="1.93048">
        <ele>219</ele>
        <time>2016-05-16T12:03:45Z</time>
      </trkpt>
      <trkpt lat="48.68027" lon="1.93051">
        <ele>218</ele>
        <time>2016-05-16T12:03:48Z</time>
      </trkpt>
      <trkpt lat="48.68024" lon="1.9305">
        <ele>218</ele>
        <time>2016-05-16T12:03:49Z</time>
      </trkpt>
      <trkpt lat="48.68019" lon="1.9304">
        <ele>218</ele>
        <time>2016-05-16T12:03:55Z</time>
      </trkpt>
      <trkpt lat="48.68018" lon="1.93039">
        <ele>217</ele>
        <time>2016-05-16T12:03:56Z</time>
      </trkpt>
      <trkpt lat="48.68009" lon="1.9304">
        <ele>221</ele>
        <time>2016-05-16T12:04:00Z</time>
      </trkpt>
      <trkpt lat="48.68004" lon="1.9304">
        <ele>226</ele>
        <time>2016-05-16T12:04:01Z</time>
      </trkpt>
      <trkpt lat="48.68006" lon="1.93041">
        <ele>220</ele>
        <time>2016-05-16T12:04:06Z</time>
      </trkpt>
      <trkpt lat="48.68007" lon="1.93043">
        <ele>221</ele>
        <time>2016-05-16T12:04:07Z</time>
      </trkpt>
      <trkpt lat="48.68005" lon="1.93043">
        <ele>224</ele>
        <time>2016-05-16T12:06:56Z</time>
      </trkpt>
      <trkpt lat="48.68005" lon="1.93044">
        <ele>223</ele>
        <time>2016-05-16T12:06:57Z</time>
      </trkpt>
      <trkpt lat="48.67997" lon="1.93041">
        <ele>228</ele>
        <time>2016-05-16T12:07:01Z</time>
      </trkpt>
      <trkpt lat="48.67997" lon="1.9304">
        <ele>228</ele>
        <time>2016-05-16T12:07:02Z</time>
      </trkpt>
      <trkpt lat="48.67997" lon="1.93042">
        <ele>226</ele>
        <time>2016-05-16T12:07:04Z</time>
      </trkpt>
      <trkpt lat="48.67998" lon="1.9304">
        <ele>226</ele>
        <time>2016-05-16T12:07:05Z</time>
      </trkpt>
      <trkpt lat="48.67996" lon="1.93039">
        <ele>223</ele>
        <time>2016-05-16T12:07:07Z</time>
      </trkpt>
      <trkpt lat="48.67993" lon="1.93041">
        <ele>221</ele>
        <time>2016-05-16T12:07:08Z</time>
      </trkpt>
      <trkpt lat="48.67993" lon="1.93041">
        <ele>221</ele>
        <time>2016-05-16T12:07:08Z</time>
      </trkpt>
      <trkpt lat="48.67992" lon="1.9304">
        <ele>221</ele>
        <time>2016-05-16T12:07:09Z</time>
      </trkpt>
      <trkpt lat="48.67992" lon="1.9304">
        <ele>221</ele>
        <time>2016-05-16T12:07:09Z</time>
      </trkpt>
      <trkpt lat="48.67992" lon="1.93039">
        <ele>221</ele>
        <time>2016-05-16T12:07:10Z</time>
      </trkpt>
      <trkpt lat="48.67992" lon="1.93039">
        <ele>221</ele>
        <time>2016-05-16T12:07:10Z</time>
      </trkpt>
      <trkpt lat="48.67991" lon="1.93044">
        <ele>220</ele>
        <time>2016-05-16T12:07:11Z</time>
      </trkpt>
      <trkpt lat="48.67989" lon="1.93055">
        <ele>220</ele>
        <time>2016-05-16T12:07:15Z</time>
      </trkpt>
      <trkpt lat="48.67988" lon="1.93059">
        <ele>222</ele>
        <time>2016-05-16T12:07:16Z</time>
      </trkpt>
      <trkpt lat="48.67989" lon="1.9306">
        <ele>222</ele>
        <time>2016-05-16T12:07:17Z</time>
      </trkpt>
      <trkpt lat="48.67989" lon="1.9306">
        <ele>221</ele>
        <time>2016-05-16T12:07:18Z</time>
      </trkpt>
      <trkpt lat="48.67989" lon="1.93053">
        <ele>218</ele>
        <time>2016-05-16T12:07:41Z</time>
      </trkpt>
      <trkpt lat="48.67985" lon="1.93052">
        <ele>217</ele>
        <time>2016-05-16T12:07:42Z</time>
      </trkpt>
      <trkpt lat="48.67982" lon="1.93042">
        <ele>216</ele>
        <time>2016-05-16T12:07:46Z</time>
      </trkpt>
      <trkpt lat="48.67982" lon="1.93034">
        <ele>216</ele>
        <time>2016-05-16T12:07:47Z</time>
      </trkpt>
      <trkpt lat="48.67974" lon="1.93032">
        <ele>218</ele>
        <time>2016-05-16T12:07:53Z</time>
      </trkpt>
      <trkpt lat="48.67971" lon="1.93031">
        <ele>221</ele>
        <time>2016-05-16T12:07:54Z</time>
      </trkpt>
      <trkpt lat="48.67971" lon="1.93031">
        <ele>221</ele>
        <time>2016-05-16T12:07:54Z</time>
      </trkpt>
      <trkpt lat="48.67968" lon="1.9303">
        <ele>223</ele>
        <time>2016-05-16T12:07:55Z</time>
      </trkpt>
      <trkpt lat="48.67966" lon="1.93036">
        <ele>222</ele>
        <time>2016-05-16T12:10:12Z</time>
      </trkpt>
      <trkpt lat="48.6797" lon="1.93035">
        <ele>223</ele>
        <time>2016-05-16T12:10:13Z</time>
      </trkpt>
      <trkpt lat="48.67976" lon="1.93036">
        <ele>222</ele>
        <time>2016-05-16T12:10:14Z</time>
      </trkpt>
      <trkpt lat="48.67983" lon="1.93035">
        <ele>227</ele>
        <time>2016-05-16T12:10:15Z</time>
      </trkpt>
      <trkpt lat="48.67992" lon="1.93033">
        <ele>230</ele>
        <time>2016-05-16T12:10:16Z</time>
      </trkpt>
      <trkpt lat="48.68002" lon="1.93031">
        <ele>234</ele>
        <time>2016-05-16T12:10:17Z</time>
      </trkpt>
      <trkpt lat="48.6801" lon="1.93037">
        <ele>232</ele>
        <time>2016-05-16T12:10:21Z</time>
      </trkpt>
      <trkpt lat="48.68012" lon="1.93037">
        <ele>232</ele>
        <time>2016-05-16T12:10:22Z</time>
      </trkpt>
      <trkpt lat="48.68005" lon="1.93044">
        <ele>229</ele>
        <time>2016-05-16T12:10:28Z</time>
      </trkpt>
      <trkpt lat="48.68004" lon="1.93046">
        <ele>228</ele>
        <time>2016-05-16T12:10:29Z</time>
      </trkpt>
      <trkpt lat="48.67996" lon="1.93047">
        <ele>226</ele>
        <time>2016-05-16T12:10:35Z</time>
      </trkpt>
      <trkpt lat="48.67995" lon="1.93049">
        <ele>226</ele>
        <time>2016-05-16T12:10:36Z</time>
      </trkpt>
      <trkpt lat="48.6799" lon="1.93056">
        <ele>226</ele>
        <time>2016-05-16T12:10:41Z</time>
      </trkpt>
      <trkpt lat="48.67991" lon="1.93058">
        <ele>225</ele>
        <time>2016-05-16T12:10:42Z</time>
      </trkpt>
      <trkpt lat="48.67989" lon="1.93059">
        <ele>224</ele>
        <time>2016-05-16T12:10:43Z</time>
      </trkpt>
      <trkpt lat="48.67987" lon="1.93057">
        <ele>223</ele>
        <time>2016-05-16T12:10:44Z</time>
      </trkpt>
      <trkpt lat="48.67984" lon="1.93069">
        <ele>221</ele>
        <time>2016-05-16T12:10:56Z</time>
      </trkpt>
      <trkpt lat="48.67983" lon="1.93069">
        <ele>220</ele>
        <time>2016-05-16T12:10:57Z</time>
      </trkpt>
      <trkpt lat="48.67975" lon="1.93074">
        <ele>223</ele>
        <time>2016-05-16T12:11:26Z</time>
      </trkpt>
      <trkpt lat="48.67972" lon="1.93075">
        <ele>223</ele>
        <time>2016-05-16T12:11:27Z</time>
      </trkpt>
      <trkpt lat="48.67969" lon="1.93088">
        <ele>221</ele>
        <time>2016-05-16T12:11:30Z</time>
      </trkpt>
      <trkpt lat="48.67969" lon="1.93095">
        <ele>222</ele>
        <time>2016-05-16T12:11:31Z</time>
      </trkpt>
      <trkpt lat="48.67964" lon="1.93106">
        <ele>220</ele>
        <time>2016-05-16T12:11:35Z</time>
      </trkpt>
      <trkpt lat="48.67958" lon="1.9311">
        <ele>216</ele>
        <time>2016-05-16T12:11:36Z</time>
      </trkpt>
      <trkpt lat="48.67953" lon="1.93111">
        <ele>212</ele>
        <time>2016-05-16T12:11:38Z</time>
      </trkpt>
      <trkpt lat="48.67952" lon="1.93112">
        <ele>211</ele>
        <time>2016-05-16T12:11:39Z</time>
      </trkpt>
      <trkpt lat="48.6795" lon="1.93111">
        <ele>211</ele>
        <time>2016-05-16T12:11:40Z</time>
      </trkpt>
      <trkpt lat="48.67949" lon="1.93112">
        <ele>211</ele>
        <time>2016-05-16T12:11:41Z</time>
      </trkpt>
      <trkpt lat="48.67942" lon="1.93117">
        <ele>217</ele>
        <time>2016-05-16T12:12:18Z</time>
      </trkpt>
      <trkpt lat="48.67941" lon="1.93119">
        <ele>217</ele>
        <time>2016-05-16T12:12:19Z</time>
      </trkpt>
      <trkpt lat="48.67941" lon="1.93119">
        <ele>217</ele>
        <time>2016-05-16T12:12:19Z</time>
      </trkpt>
      <trkpt lat="48.67942" lon="1.93122">
        <ele>219</ele>
        <time>2016-05-16T12:12:20Z</time>
      </trkpt>
      <trkpt lat="48.67939" lon="1.93128">
        <ele>219</ele>
        <time>2016-05-16T12:12:22Z</time>
      </trkpt>
      <trkpt lat="48.67938" lon="1.93131">
        <ele>218</ele>
        <time>2016-05-16T12:12:23Z</time>
      </trkpt>
      <trkpt lat="48.67933" lon="1.93141">
        <ele>220</ele>
        <time>2016-05-16T12:13:31Z</time>
      </trkpt>
      <trkpt lat="48.6793" lon="1.93144">
        <ele>220</ele>
        <time>2016-05-16T12:13:32Z</time>
      </trkpt>
      <trkpt lat="48.67922" lon="1.93151">
        <ele>221</ele>
        <time>2016-05-16T12:13:35Z</time>
      </trkpt>
      <trkpt lat="48.6792" lon="1.93153">
        <ele>220</ele>
        <time>2016-05-16T12:13:36Z</time>
      </trkpt>
      <trkpt lat="48.67919" lon="1.93166">
        <ele>215</ele>
        <time>2016-05-16T12:13:44Z</time>
      </trkpt>
      <trkpt lat="48.67916" lon="1.93169">
        <ele>214</ele>
        <time>2016-05-16T12:13:45Z</time>
      </trkpt>
      <trkpt lat="48.67914" lon="1.9318">
        <ele>214</ele>
        <time>2016-05-16T12:13:50Z</time>
      </trkpt>
      <trkpt lat="48.67911" lon="1.93182">
        <ele>214</ele>
        <time>2016-05-16T12:13:51Z</time>
      </trkpt>
      <trkpt lat="48.67909" lon="1.93194">
        <ele>212</ele>
        <time>2016-05-16T12:13:56Z</time>
      </trkpt>
      <trkpt lat="48.67909" lon="1.93196">
        <ele>212</ele>
        <time>2016-05-16T12:13:57Z</time>
      </trkpt>
      <trkpt lat="48.67911" lon="1.93197">
        <ele>211</ele>
        <time>2016-05-16T12:13:58Z</time>
      </trkpt>
      <trkpt lat="48.67914" lon="1.93199">
        <ele>216</ele>
        <time>2016-05-16T12:13:59Z</time>
      </trkpt>
      <trkpt lat="48.67914" lon="1.93199">
        <ele>216</ele>
        <time>2016-05-16T12:13:59Z</time>
      </trkpt>
      <trkpt lat="48.67913" lon="1.93198">
        <ele>216</ele>
        <time>2016-05-16T12:14:00Z</time>
      </trkpt>
      <trkpt lat="48.67916" lon="1.93209">
        <ele>215</ele>
        <time>2016-05-16T12:14:03Z</time>
      </trkpt>
      <trkpt lat="48.67917" lon="1.93213">
        <ele>215</ele>
        <time>2016-05-16T12:14:04Z</time>
      </trkpt>
      <trkpt lat="48.67913" lon="1.93225">
        <ele>212</ele>
        <time>2016-05-16T12:14:08Z</time>
      </trkpt>
      <trkpt lat="48.67911" lon="1.93227">
        <ele>212</ele>
        <time>2016-05-16T12:14:09Z</time>
      </trkpt>
      <trkpt lat="48.67911" lon="1.93227">
        <ele>212</ele>
        <time>2016-05-16T12:14:09Z</time>
      </trkpt>
      <trkpt lat="48.67912" lon="1.93232">
        <ele>214</ele>
        <time>2016-05-16T12:14:10Z</time>
      </trkpt>
      <trkpt lat="48.67912" lon="1.93232">
        <ele>214</ele>
        <time>2016-05-16T12:14:10Z</time>
      </trkpt>
      <trkpt lat="48.67912" lon="1.93233">
        <ele>214</ele>
        <time>2016-05-16T12:14:11Z</time>
      </trkpt>
      <trkpt lat="48.67903" lon="1.93238">
        <ele>213</ele>
        <time>2016-05-16T12:14:15Z</time>
      </trkpt>
      <trkpt lat="48.67904" lon="1.93242">
        <ele>216</ele>
        <time>2016-05-16T12:14:16Z</time>
      </trkpt>
      <trkpt lat="48.67903" lon="1.93255">
        <ele>211</ele>
        <time>2016-05-16T12:14:20Z</time>
      </trkpt>
      <trkpt lat="48.67901" lon="1.93256">
        <ele>214</ele>
        <time>2016-05-16T12:14:21Z</time>
      </trkpt>
      <trkpt lat="48.679" lon="1.93267">
        <ele>209</ele>
        <time>2016-05-16T12:14:30Z</time>
      </trkpt>
      <trkpt lat="48.679" lon="1.9327">
        <ele>208</ele>
        <time>2016-05-16T12:14:31Z</time>
      </trkpt>
      <trkpt lat="48.679" lon="1.93275">
        <ele>207</ele>
        <time>2016-05-16T12:14:33Z</time>
      </trkpt>
      <trkpt lat="48.67901" lon="1.93274">
        <ele>207</ele>
        <time>2016-05-16T12:14:34Z</time>
      </trkpt>
      <trkpt lat="48.67901" lon="1.93274">
        <ele>207</ele>
        <time>2016-05-16T12:14:34Z</time>
      </trkpt>
      <trkpt lat="48.67901" lon="1.93274">
        <ele>208</ele>
        <time>2016-05-16T12:14:35Z</time>
      </trkpt>
      <trkpt lat="48.67896" lon="1.93285">
        <ele>208</ele>
        <time>2016-05-16T12:14:39Z</time>
      </trkpt>
      <trkpt lat="48.67897" lon="1.93288">
        <ele>209</ele>
        <time>2016-05-16T12:14:40Z</time>
      </trkpt>
      <trkpt lat="48.67898" lon="1.93299">
        <ele>209</ele>
        <time>2016-05-16T12:14:46Z</time>
      </trkpt>
      <trkpt lat="48.67898" lon="1.93302">
        <ele>209</ele>
        <time>2016-05-16T12:14:47Z</time>
      </trkpt>
      <trkpt lat="48.67897" lon="1.93308">
        <ele>209</ele>
        <time>2016-05-16T12:14:51Z</time>
      </trkpt>
      <trkpt lat="48.67898" lon="1.9331">
        <ele>208</ele>
        <time>2016-05-16T12:14:52Z</time>
      </trkpt>
      <trkpt lat="48.67897" lon="1.93312">
        <ele>209</ele>
        <time>2016-05-16T12:14:53Z</time>
      </trkpt>
      <trkpt lat="48.67898" lon="1.93317">
        <ele>209</ele>
        <time>2016-05-16T12:14:54Z</time>
      </trkpt>
      <trkpt lat="48.67893" lon="1.93329">
        <ele>210</ele>
        <time>2016-05-16T12:15:06Z</time>
      </trkpt>
      <trkpt lat="48.67893" lon="1.93331">
        <ele>210</ele>
        <time>2016-05-16T12:15:07Z</time>
      </trkpt>
      <trkpt lat="48.67892" lon="1.93331">
        <ele>210</ele>
        <time>2016-05-16T12:15:08Z</time>
      </trkpt>
      <trkpt lat="48.67894" lon="1.93332">
        <ele>209</ele>
        <time>2016-05-16T12:15:09Z</time>
      </trkpt>
      <trkpt lat="48.67894" lon="1.93332">
        <ele>209</ele>
        <time>2016-05-16T12:15:09Z</time>
      </trkpt>
      <trkpt lat="48.67892" lon="1.93331">
        <ele>208</ele>
        <time>2016-05-16T12:15:10Z</time>
      </trkpt>
      <trkpt lat="48.67895" lon="1.9334">
        <ele>206</ele>
        <time>2016-05-16T12:15:19Z</time>
      </trkpt>
      <trkpt lat="48.67893" lon="1.93345">
        <ele>207</ele>
        <time>2016-05-16T12:15:20Z</time>
      </trkpt>
      <trkpt lat="48.67894" lon="1.93359">
        <ele>210</ele>
        <time>2016-05-16T12:15:24Z</time>
      </trkpt>
      <trkpt lat="48.67893" lon="1.9336">
        <ele>211</ele>
        <time>2016-05-16T12:15:25Z</time>
      </trkpt>
      <trkpt lat="48.6789" lon="1.93364">
        <ele>214</ele>
        <time>2016-05-16T12:15:28Z</time>
      </trkpt>
      <trkpt lat="48.67888" lon="1.93366">
        <ele>214</ele>
        <time>2016-05-16T12:15:29Z</time>
      </trkpt>
      <trkpt lat="48.67888" lon="1.93366">
        <ele>214</ele>
        <time>2016-05-16T12:15:29Z</time>
      </trkpt>
      <trkpt lat="48.67886" lon="1.93366">
        <ele>214</ele>
        <time>2016-05-16T12:15:31Z</time>
      </trkpt>
      <trkpt lat="48.67884" lon="1.93377">
        <ele>214</ele>
        <time>2016-05-16T12:15:37Z</time>
      </trkpt>
      <trkpt lat="48.67882" lon="1.93379">
        <ele>213</ele>
        <time>2016-05-16T12:15:38Z</time>
      </trkpt>
      <trkpt lat="48.67879" lon="1.93391">
        <ele>214</ele>
        <time>2016-05-16T12:15:46Z</time>
      </trkpt>
      <trkpt lat="48.67879" lon="1.93392">
        <ele>215</ele>
        <time>2016-05-16T12:15:47Z</time>
      </trkpt>
      <trkpt lat="48.67879" lon="1.93406">
        <ele>216</ele>
        <time>2016-05-16T12:16:15Z</time>
      </trkpt>
      <trkpt lat="48.67879" lon="1.93406">
        <ele>216</ele>
        <time>2016-05-16T12:16:16Z</time>
      </trkpt>
      <trkpt lat="48.67878" lon="1.93417">
        <ele>212</ele>
        <time>2016-05-16T12:16:23Z</time>
      </trkpt>
      <trkpt lat="48.67876" lon="1.93422">
        <ele>212</ele>
        <time>2016-05-16T12:16:24Z</time>
      </trkpt>
      <trkpt lat="48.67877" lon="1.93433">
        <ele>213</ele>
        <time>2016-05-16T12:16:29Z</time>
      </trkpt>
      <trkpt lat="48.67876" lon="1.93437">
        <ele>213</ele>
        <time>2016-05-16T12:16:30Z</time>
      </trkpt>
      <trkpt lat="48.67873" lon="1.93448">
        <ele>214</ele>
        <time>2016-05-16T12:16:35Z</time>
      </trkpt>
      <trkpt lat="48.67877" lon="1.93449">
        <ele>215</ele>
        <time>2016-05-16T12:16:36Z</time>
      </trkpt>
      <trkpt lat="48.67874" lon="1.93461">
        <ele>214</ele>
        <time>2016-05-16T12:16:47Z</time>
      </trkpt>
      <trkpt lat="48.67874" lon="1.93462">
        <ele>214</ele>
        <time>2016-05-16T12:16:48Z</time>
      </trkpt>
      <trkpt lat="48.67871" lon="1.93471">
        <ele>215</ele>
        <time>2016-05-16T12:17:02Z</time>
      </trkpt>
      <trkpt lat="48.67873" lon="1.93477">
        <ele>215</ele>
        <time>2016-05-16T12:17:03Z</time>
      </trkpt>
      <trkpt lat="48.67871" lon="1.93485">
        <ele>212</ele>
        <time>2016-05-16T12:17:07Z</time>
      </trkpt>
      <trkpt lat="48.67869" lon="1.93489">
        <ele>208</ele>
        <time>2016-05-16T12:17:08Z</time>
      </trkpt>
      <trkpt lat="48.67866" lon="1.93501">
        <ele>205</ele>
        <time>2016-05-16T12:17:11Z</time>
      </trkpt>
      <trkpt lat="48.67865" lon="1.93503">
        <ele>203</ele>
        <time>2016-05-16T12:17:12Z</time>
      </trkpt>
      <trkpt lat="48.67865" lon="1.93516">
        <ele>204</ele>
        <time>2016-05-16T12:17:24Z</time>
      </trkpt>
      <trkpt lat="48.67864" lon="1.9352">
        <ele>205</ele>
        <time>2016-05-16T12:17:25Z</time>
      </trkpt>
      <trkpt lat="48.67868" lon="1.93531">
        <ele>204</ele>
        <time>2016-05-16T12:17:30Z</time>
      </trkpt>
      <trkpt lat="48.67868" lon="1.93533">
        <ele>205</ele>
        <time>2016-05-16T12:17:31Z</time>
      </trkpt>
      <trkpt lat="48.67867" lon="1.93546">
        <ele>204</ele>
        <time>2016-05-16T12:17:36Z</time>
      </trkpt>
      <trkpt lat="48.67867" lon="1.93548">
        <ele>205</ele>
        <time>2016-05-16T12:17:37Z</time>
      </trkpt>
      <trkpt lat="48.67866" lon="1.9356">
        <ele>207</ele>
        <time>2016-05-16T12:17:44Z</time>
      </trkpt>
      <trkpt lat="48.67866" lon="1.93562">
        <ele>208</ele>
        <time>2016-05-16T12:17:45Z</time>
      </trkpt>
      <trkpt lat="48.67865" lon="1.93574">
        <ele>210</ele>
        <time>2016-05-16T12:18:00Z</time>
      </trkpt>
      <trkpt lat="48.67866" lon="1.93578">
        <ele>210</ele>
        <time>2016-05-16T12:18:01Z</time>
      </trkpt>
      <trkpt lat="48.67863" lon="1.9359">
        <ele>209</ele>
        <time>2016-05-16T12:18:05Z</time>
      </trkpt>
      <trkpt lat="48.67864" lon="1.93594">
        <ele>210</ele>
        <time>2016-05-16T12:18:06Z</time>
      </trkpt>
      <trkpt lat="48.67863" lon="1.93603">
        <ele>209</ele>
        <time>2016-05-16T12:18:09Z</time>
      </trkpt>
      <trkpt lat="48.67866" lon="1.93608">
        <ele>211</ele>
        <time>2016-05-16T12:18:10Z</time>
      </trkpt>
      <trkpt lat="48.67864" lon="1.9362">
        <ele>208</ele>
        <time>2016-05-16T12:18:14Z</time>
      </trkpt>
      <trkpt lat="48.67863" lon="1.9362">
        <ele>208</ele>
        <time>2016-05-16T12:18:15Z</time>
      </trkpt>
      <trkpt lat="48.6786" lon="1.9363">
        <ele>210</ele>
        <time>2016-05-16T12:18:22Z</time>
      </trkpt>
      <trkpt lat="48.6786" lon="1.93633">
        <ele>211</ele>
        <time>2016-05-16T12:18:23Z</time>
      </trkpt>
      <trkpt lat="48.67858" lon="1.93645">
        <ele>213</ele>
        <time>2016-05-16T12:18:29Z</time>
      </trkpt>
      <trkpt lat="48.67858" lon="1.93648">
        <ele>215</ele>
        <time>2016-05-16T12:18:30Z</time>
      </trkpt>
      <trkpt lat="48.67854" lon="1.93656">
        <ele>215</ele>
        <time>2016-05-16T12:18:44Z</time>
      </trkpt>
      <trkpt lat="48.67858" lon="1.93665">
        <ele>213</ele>
        <time>2016-05-16T12:18:45Z</time>
      </trkpt>
      <trkpt lat="48.67855" lon="1.93669">
        <ele>211</ele>
        <time>2016-05-16T12:18:48Z</time>
      </trkpt>
      <trkpt lat="48.67854" lon="1.93668">
        <ele>212</ele>
        <time>2016-05-16T12:18:49Z</time>
      </trkpt>
      <trkpt lat="48.67854" lon="1.93668">
        <ele>212</ele>
        <time>2016-05-16T12:18:49Z</time>
      </trkpt>
      <trkpt lat="48.67854" lon="1.93668">
        <ele>213</ele>
        <time>2016-05-16T12:18:50Z</time>
      </trkpt>
      <trkpt lat="48.67852" lon="1.9367">
        <ele>213</ele>
        <time>2016-05-16T12:18:51Z</time>
      </trkpt>
      <trkpt lat="48.6785" lon="1.93669">
        <ele>212</ele>
        <time>2016-05-16T12:18:52Z</time>
      </trkpt>
      <trkpt lat="48.67849" lon="1.93669">
        <ele>212</ele>
        <time>2016-05-16T12:18:53Z</time>
      </trkpt>
      <trkpt lat="48.67846" lon="1.9367">
        <ele>212</ele>
        <time>2016-05-16T12:18:54Z</time>
      </trkpt>
      <trkpt lat="48.67846" lon="1.93683">
        <ele>211</ele>
        <time>2016-05-16T12:19:03Z</time>
      </trkpt>
      <trkpt lat="48.67845" lon="1.93684">
        <ele>211</ele>
        <time>2016-05-16T12:19:04Z</time>
      </trkpt>
      <trkpt lat="48.67838" lon="1.93693">
        <ele>212</ele>
        <time>2016-05-16T12:19:22Z</time>
      </trkpt>
      <trkpt lat="48.67836" lon="1.93694">
        <ele>213</ele>
        <time>2016-05-16T12:19:23Z</time>
      </trkpt>
      <trkpt lat="48.67832" lon="1.93701">
        <ele>213</ele>
        <time>2016-05-16T12:19:26Z</time>
      </trkpt>
      <trkpt lat="48.67832" lon="1.93704">
        <ele>212</ele>
        <time>2016-05-16T12:19:27Z</time>
      </trkpt>
      <trkpt lat="48.67826" lon="1.93714">
        <ele>212</ele>
        <time>2016-05-16T12:19:33Z</time>
      </trkpt>
      <trkpt lat="48.67824" lon="1.93716">
        <ele>212</ele>
        <time>2016-05-16T12:19:34Z</time>
      </trkpt>
      <trkpt lat="48.67819" lon="1.93726">
        <ele>215</ele>
        <time>2016-05-16T12:19:48Z</time>
      </trkpt>
      <trkpt lat="48.67819" lon="1.93727">
        <ele>215</ele>
        <time>2016-05-16T12:19:49Z</time>
      </trkpt>
      <trkpt lat="48.67822" lon="1.93733">
        <ele>212</ele>
        <time>2016-05-16T12:19:52Z</time>
      </trkpt>
      <trkpt lat="48.67821" lon="1.93734">
        <ele>212</ele>
        <time>2016-05-16T12:19:53Z</time>
      </trkpt>
      <trkpt lat="48.67821" lon="1.93734">
        <ele>212</ele>
        <time>2016-05-16T12:19:53Z</time>
      </trkpt>
      <trkpt lat="48.67818" lon="1.93734">
        <ele>212</ele>
        <time>2016-05-16T12:19:54Z</time>
      </trkpt>
      <trkpt lat="48.67809" lon="1.93735">
        <ele>210</ele>
        <time>2016-05-16T12:19:57Z</time>
      </trkpt>
      <trkpt lat="48.67807" lon="1.93737">
        <ele>209</ele>
        <time>2016-05-16T12:19:58Z</time>
      </trkpt>
      <trkpt lat="48.678" lon="1.93745">
        <ele>206</ele>
        <time>2016-05-16T12:20:03Z</time>
      </trkpt>
      <trkpt lat="48.67798" lon="1.93746">
        <ele>206</ele>
        <time>2016-05-16T12:20:04Z</time>
      </trkpt>
      <trkpt lat="48.67791" lon="1.9375">
        <ele>203</ele>
        <time>2016-05-16T12:20:08Z</time>
      </trkpt>
      <trkpt lat="48.67788" lon="1.93753">
        <ele>204</ele>
        <time>2016-05-16T12:20:09Z</time>
      </trkpt>
      <trkpt lat="48.67783" lon="1.93762">
        <ele>201</ele>
        <time>2016-05-16T12:20:15Z</time>
      </trkpt>
      <trkpt lat="48.67781" lon="1.93763">
        <ele>201</ele>
        <time>2016-05-16T12:20:16Z</time>
      </trkpt>
      <trkpt lat="48.6778" lon="1.93773">
        <ele>203</ele>
        <time>2016-05-16T12:20:22Z</time>
      </trkpt>
      <trkpt lat="48.67779" lon="1.93776">
        <ele>204</ele>
        <time>2016-05-16T12:20:23Z</time>
      </trkpt>
      <trkpt lat="48.67777" lon="1.93788">
        <ele>207</ele>
        <time>2016-05-16T12:20:33Z</time>
      </trkpt>
      <trkpt lat="48.67778" lon="1.93789">
        <ele>208</ele>
        <time>2016-05-16T12:20:34Z</time>
      </trkpt>
      <trkpt lat="48.67774" lon="1.93796">
        <ele>209</ele>
        <time>2016-05-16T12:20:47Z</time>
      </trkpt>
      <trkpt lat="48.67773" lon="1.93802">
        <ele>209</ele>
        <time>2016-05-16T12:20:48Z</time>
      </trkpt>
      <trkpt lat="48.67765" lon="1.93806">
        <ele>207</ele>
        <time>2016-05-16T12:20:52Z</time>
      </trkpt>
      <trkpt lat="48.67762" lon="1.93807">
        <ele>207</ele>
        <time>2016-05-16T12:20:53Z</time>
      </trkpt>
      <trkpt lat="48.67761" lon="1.93814">
        <ele>207</ele>
        <time>2016-05-16T12:20:57Z</time>
      </trkpt>
      <trkpt lat="48.67761" lon="1.93813">
        <ele>207</ele>
        <time>2016-05-16T12:20:58Z</time>
      </trkpt>
      <trkpt lat="48.67757" lon="1.93817">
        <ele>207</ele>
        <time>2016-05-16T12:21:01Z</time>
      </trkpt>
      <trkpt lat="48.67758" lon="1.9382">
        <ele>208</ele>
        <time>2016-05-16T12:21:02Z</time>
      </trkpt>
      <trkpt lat="48.67751" lon="1.93818">
        <ele>204</ele>
        <time>2016-05-16T12:21:04Z</time>
      </trkpt>
      <trkpt lat="48.67748" lon="1.9382">
        <ele>200</ele>
        <time>2016-05-16T12:21:05Z</time>
      </trkpt>
      <trkpt lat="48.67748" lon="1.93824">
        <ele>202</ele>
        <time>2016-05-16T12:21:07Z</time>
      </trkpt>
      <trkpt lat="48.67753" lon="1.93831">
        <ele>200</ele>
        <time>2016-05-16T12:21:08Z</time>
      </trkpt>
      <trkpt lat="48.67747" lon="1.93837">
        <ele>199</ele>
        <time>2016-05-16T12:21:14Z</time>
      </trkpt>
      <trkpt lat="48.67745" lon="1.93842">
        <ele>199</ele>
        <time>2016-05-16T12:21:15Z</time>
      </trkpt>
      <trkpt lat="48.67746" lon="1.93854">
        <ele>200</ele>
        <time>2016-05-16T12:21:18Z</time>
      </trkpt>
      <trkpt lat="48.67746" lon="1.93857">
        <ele>200</ele>
        <time>2016-05-16T12:21:19Z</time>
      </trkpt>
      <trkpt lat="48.67743" lon="1.93868">
        <ele>202</ele>
        <time>2016-05-16T12:21:22Z</time>
      </trkpt>
      <trkpt lat="48.67742" lon="1.93869">
        <ele>202</ele>
        <time>2016-05-16T12:21:23Z</time>
      </trkpt>
      <trkpt lat="48.67736" lon="1.93876">
        <ele>200</ele>
        <time>2016-05-16T12:21:29Z</time>
      </trkpt>
      <trkpt lat="48.67736" lon="1.93881">
        <ele>201</ele>
        <time>2016-05-16T12:21:30Z</time>
      </trkpt>
      <trkpt lat="48.67731" lon="1.9389">
        <ele>191</ele>
        <time>2016-05-16T12:21:35Z</time>
      </trkpt>
      <trkpt lat="48.6773" lon="1.93892">
        <ele>192</ele>
        <time>2016-05-16T12:21:36Z</time>
      </trkpt>
      <trkpt lat="48.67727" lon="1.93902">
        <ele>194</ele>
        <time>2016-05-16T12:21:40Z</time>
      </trkpt>
      <trkpt lat="48.67727" lon="1.93906">
        <ele>193</ele>
        <time>2016-05-16T12:21:41Z</time>
      </trkpt>
      <trkpt lat="48.67722" lon="1.93915">
        <ele>196</ele>
        <time>2016-05-16T12:21:47Z</time>
      </trkpt>
      <trkpt lat="48.67719" lon="1.93917">
        <ele>197</ele>
        <time>2016-05-16T12:21:48Z</time>
      </trkpt>
      <trkpt lat="48.6772" lon="1.93919">
        <ele>196</ele>
        <time>2016-05-16T12:21:50Z</time>
      </trkpt>
      <trkpt lat="48.67719" lon="1.9392">
        <ele>196</ele>
        <time>2016-05-16T12:21:51Z</time>
      </trkpt>
      <trkpt lat="48.67718" lon="1.9392">
        <ele>197</ele>
        <time>2016-05-16T12:21:52Z</time>
      </trkpt>
      <trkpt lat="48.67714" lon="1.93927">
        <ele>198</ele>
        <time>2016-05-16T12:21:53Z</time>
      </trkpt>
      <trkpt lat="48.6771" lon="1.93932">
        <ele>199</ele>
        <time>2016-05-16T12:21:55Z</time>
      </trkpt>
      <trkpt lat="48.67705" lon="1.93934">
        <ele>199</ele>
        <time>2016-05-16T12:21:56Z</time>
      </trkpt>
      <trkpt lat="48.67704" lon="1.93944">
        <ele>200</ele>
        <time>2016-05-16T12:21:59Z</time>
      </trkpt>
      <trkpt lat="48.677" lon="1.93946">
        <ele>198</ele>
        <time>2016-05-16T12:22:00Z</time>
      </trkpt>
      <trkpt lat="48.67697" lon="1.93958">
        <ele>200</ele>
        <time>2016-05-16T12:22:06Z</time>
      </trkpt>
      <trkpt lat="48.67694" lon="1.93958">
        <ele>203</ele>
        <time>2016-05-16T12:22:07Z</time>
      </trkpt>
      <trkpt lat="48.67693" lon="1.93967">
        <ele>201</ele>
        <time>2016-05-16T12:22:10Z</time>
      </trkpt>
      <trkpt lat="48.67691" lon="1.93971">
        <ele>202</ele>
        <time>2016-05-16T12:22:11Z</time>
      </trkpt>
      <trkpt lat="48.67686" lon="1.93979">
        <ele>203</ele>
        <time>2016-05-16T12:22:16Z</time>
      </trkpt>
      <trkpt lat="48.67685" lon="1.93983">
        <ele>204</ele>
        <time>2016-05-16T12:22:17Z</time>
      </trkpt>
      <trkpt lat="48.67683" lon="1.93994">
        <ele>205</ele>
        <time>2016-05-16T12:22:21Z</time>
      </trkpt>
      <trkpt lat="48.67682" lon="1.93998">
        <ele>206</ele>
        <time>2016-05-16T12:22:22Z</time>
      </trkpt>
      <trkpt lat="48.67674" lon="1.94002">
        <ele>203</ele>
        <time>2016-05-16T12:22:29Z</time>
      </trkpt>
      <trkpt lat="48.67674" lon="1.94006">
        <ele>204</ele>
        <time>2016-05-16T12:22:30Z</time>
      </trkpt>
      <trkpt lat="48.67673" lon="1.94009">
        <ele>206</ele>
        <time>2016-05-16T12:22:32Z</time>
      </trkpt>
      <trkpt lat="48.67673" lon="1.9401">
        <ele>208</ele>
        <time>2016-05-16T12:22:33Z</time>
      </trkpt>
      <trkpt lat="48.67673" lon="1.9401">
        <ele>208</ele>
        <time>2016-05-16T12:22:33Z</time>
      </trkpt>
      <trkpt lat="48.67673" lon="1.9401">
        <ele>209</ele>
        <time>2016-05-16T12:22:34Z</time>
      </trkpt>
      <trkpt lat="48.67666" lon="1.94008">
        <ele>212</ele>
        <time>2016-05-16T12:22:39Z</time>
      </trkpt>
      <trkpt lat="48.67664" lon="1.94007">
        <ele>213</ele>
        <time>2016-05-16T12:22:40Z</time>
      </trkpt>
      <trkpt lat="48.6766" lon="1.94006">
        <ele>212</ele>
        <time>2016-05-16T12:22:44Z</time>
      </trkpt>
      <trkpt lat="48.67662" lon="1.94008">
        <ele>214</ele>
        <time>2016-05-16T12:22:45Z</time>
      </trkpt>
      <trkpt lat="48.67659" lon="1.94009">
        <ele>211</ele>
        <time>2016-05-16T12:22:48Z</time>
      </trkpt>
      <trkpt lat="48.67658" lon="1.94012">
        <ele>211</ele>
        <time>2016-05-16T12:22:49Z</time>
      </trkpt>
      <trkpt lat="48.67655" lon="1.94022">
        <ele>203</ele>
        <time>2016-05-16T12:22:53Z</time>
      </trkpt>
      <trkpt lat="48.67655" lon="1.94026">
        <ele>204</ele>
        <time>2016-05-16T12:22:54Z</time>
      </trkpt>
      <trkpt lat="48.67654" lon="1.94039">
        <ele>209</ele>
        <time>2016-05-16T12:23:01Z</time>
      </trkpt>
      <trkpt lat="48.67653" lon="1.94041">
        <ele>209</ele>
        <time>2016-05-16T12:23:02Z</time>
      </trkpt>
      <trkpt lat="48.67657" lon="1.94052">
        <ele>212</ele>
        <time>2016-05-16T12:23:06Z</time>
      </trkpt>
      <trkpt lat="48.67657" lon="1.94054">
        <ele>212</ele>
        <time>2016-05-16T12:23:07Z</time>
      </trkpt>
      <trkpt lat="48.67655" lon="1.94068">
        <ele>213</ele>
        <time>2016-05-16T12:23:27Z</time>
      </trkpt>
      <trkpt lat="48.67654" lon="1.94073">
        <ele>214</ele>
        <time>2016-05-16T12:23:28Z</time>
      </trkpt>
      <trkpt lat="48.67654" lon="1.94073">
        <ele>214</ele>
        <time>2016-05-16T12:23:28Z</time>
      </trkpt>
      <trkpt lat="48.67656" lon="1.94088">
        <ele>214</ele>
        <time>2016-05-16T12:23:29Z</time>
      </trkpt>
      <trkpt lat="48.67656" lon="1.94088">
        <ele>214</ele>
        <time>2016-05-16T12:23:29Z</time>
      </trkpt>
      <trkpt lat="48.67666" lon="1.94096">
        <ele>213</ele>
        <time>2016-05-16T12:23:30Z</time>
      </trkpt>
      <trkpt lat="48.67666" lon="1.94096">
        <ele>213</ele>
        <time>2016-05-16T12:23:30Z</time>
      </trkpt>
      <trkpt lat="48.67656" lon="1.94101">
        <ele>215</ele>
        <time>2016-05-16T12:23:31Z</time>
      </trkpt>
      <trkpt lat="48.67653" lon="1.94105">
        <ele>217</ele>
        <time>2016-05-16T12:23:32Z</time>
      </trkpt>
      <trkpt lat="48.67647" lon="1.9411">
        <ele>216</ele>
        <time>2016-05-16T12:23:33Z</time>
      </trkpt>
      <trkpt lat="48.67652" lon="1.94115">
        <ele>214</ele>
        <time>2016-05-16T12:23:36Z</time>
      </trkpt>
      <trkpt lat="48.67655" lon="1.94119">
        <ele>214</ele>
        <time>2016-05-16T12:23:37Z</time>
      </trkpt>
      <trkpt lat="48.67649" lon="1.94122">
        <ele>216</ele>
        <time>2016-05-16T12:23:38Z</time>
      </trkpt>
      <trkpt lat="48.67646" lon="1.94124">
        <ele>217</ele>
        <time>2016-05-16T12:23:39Z</time>
      </trkpt>
      <trkpt lat="48.67639" lon="1.94131">
        <ele>218</ele>
        <time>2016-05-16T12:23:42Z</time>
      </trkpt>
      <trkpt lat="48.6764" lon="1.94136">
        <ele>219</ele>
        <time>2016-05-16T12:23:43Z</time>
      </trkpt>
      <trkpt lat="48.67638" lon="1.94149">
        <ele>219</ele>
        <time>2016-05-16T12:23:48Z</time>
      </trkpt>
      <trkpt lat="48.6764" lon="1.94152">
        <ele>220</ele>
        <time>2016-05-16T12:23:49Z</time>
      </trkpt>
      <trkpt lat="48.67634" lon="1.94153">
        <ele>219</ele>
        <time>2016-05-16T12:23:51Z</time>
      </trkpt>
      <trkpt lat="48.6763" lon="1.94153">
        <ele>218</ele>
        <time>2016-05-16T12:23:52Z</time>
      </trkpt>
      <trkpt lat="48.6763" lon="1.94153">
        <ele>218</ele>
        <time>2016-05-16T12:23:52Z</time>
      </trkpt>
      <trkpt lat="48.6764" lon="1.94156">
        <ele>219</ele>
        <time>2016-05-16T12:23:53Z</time>
      </trkpt>
      <trkpt lat="48.67634" lon="1.94166">
        <ele>217</ele>
        <time>2016-05-16T12:23:58Z</time>
      </trkpt>
      <trkpt lat="48.67645" lon="1.94168">
        <ele>217</ele>
        <time>2016-05-16T12:23:59Z</time>
      </trkpt>
      <trkpt lat="48.67646" lon="1.94179">
        <ele>217</ele>
        <time>2016-05-16T12:24:06Z</time>
      </trkpt>
      <trkpt lat="48.67643" lon="1.94182">
        <ele>218</ele>
        <time>2016-05-16T12:24:07Z</time>
      </trkpt>
      <trkpt lat="48.67635" lon="1.94187">
        <ele>219</ele>
        <time>2016-05-16T12:24:15Z</time>
      </trkpt>
      <trkpt lat="48.67634" lon="1.94187">
        <ele>219</ele>
        <time>2016-05-16T12:24:16Z</time>
      </trkpt>
      <trkpt lat="48.67627" lon="1.94196">
        <ele>220</ele>
        <time>2016-05-16T12:24:20Z</time>
      </trkpt>
      <trkpt lat="48.67628" lon="1.94198">
        <ele>220</ele>
        <time>2016-05-16T12:24:21Z</time>
      </trkpt>
      <trkpt lat="48.67631" lon="1.94209">
        <ele>219</ele>
        <time>2016-05-16T12:24:30Z</time>
      </trkpt>
      <trkpt lat="48.6763" lon="1.94212">
        <ele>219</ele>
        <time>2016-05-16T12:24:31Z</time>
      </trkpt>
      <trkpt lat="48.67628" lon="1.94218">
        <ele>220</ele>
        <time>2016-05-16T12:24:37Z</time>
      </trkpt>
      <trkpt lat="48.67629" lon="1.94219">
        <ele>218</ele>
        <time>2016-05-16T12:24:38Z</time>
      </trkpt>
      <trkpt lat="48.67629" lon="1.94219">
        <ele>218</ele>
        <time>2016-05-16T12:24:38Z</time>
      </trkpt>
      <trkpt lat="48.67628" lon="1.94222">
        <ele>217</ele>
        <time>2016-05-16T12:24:39Z</time>
      </trkpt>
      <trkpt lat="48.67625" lon="1.94234">
        <ele>217</ele>
        <time>2016-05-16T12:24:46Z</time>
      </trkpt>
      <trkpt lat="48.67623" lon="1.94235">
        <ele>217</ele>
        <time>2016-05-16T12:24:47Z</time>
      </trkpt>
      <trkpt lat="48.6762" lon="1.94247">
        <ele>215</ele>
        <time>2016-05-16T12:25:16Z</time>
      </trkpt>
      <trkpt lat="48.6762" lon="1.94247">
        <ele>215</ele>
        <time>2016-05-16T12:25:17Z</time>
      </trkpt>
      <trkpt lat="48.67618" lon="1.94256">
        <ele>216</ele>
        <time>2016-05-16T12:25:27Z</time>
      </trkpt>
      <trkpt lat="48.67619" lon="1.94261">
        <ele>217</ele>
        <time>2016-05-16T12:25:28Z</time>
      </trkpt>
      <trkpt lat="48.67619" lon="1.94273">
        <ele>218</ele>
        <time>2016-05-16T12:25:33Z</time>
      </trkpt>
      <trkpt lat="48.6762" lon="1.94276">
        <ele>218</ele>
        <time>2016-05-16T12:25:34Z</time>
      </trkpt>
      <trkpt lat="48.67617" lon="1.94285">
        <ele>220</ele>
        <time>2016-05-16T12:25:39Z</time>
      </trkpt>
      <trkpt lat="48.67615" lon="1.94284">
        <ele>220</ele>
        <time>2016-05-16T12:25:40Z</time>
      </trkpt>
      <trkpt lat="48.67614" lon="1.94297">
        <ele>219</ele>
        <time>2016-05-16T12:25:49Z</time>
      </trkpt>
      <trkpt lat="48.67614" lon="1.94298">
        <ele>219</ele>
        <time>2016-05-16T12:25:50Z</time>
      </trkpt>
      <trkpt lat="48.67607" lon="1.94303">
        <ele>221</ele>
        <time>2016-05-16T12:26:00Z</time>
      </trkpt>
      <trkpt lat="48.67605" lon="1.94302">
        <ele>222</ele>
        <time>2016-05-16T12:26:01Z</time>
      </trkpt>
      <trkpt lat="48.67602" lon="1.94313">
        <ele>225</ele>
        <time>2016-05-16T12:26:08Z</time>
      </trkpt>
      <trkpt lat="48.67602" lon="1.94315">
        <ele>225</ele>
        <time>2016-05-16T12:26:09Z</time>
      </trkpt>
      <trkpt lat="48.67601" lon="1.94326">
        <ele>224</ele>
        <time>2016-05-16T12:26:14Z</time>
      </trkpt>
      <trkpt lat="48.676" lon="1.94328">
        <ele>221</ele>
        <time>2016-05-16T12:26:15Z</time>
      </trkpt>
      <trkpt lat="48.67596" lon="1.9434">
        <ele>217</ele>
        <time>2016-05-16T12:26:20Z</time>
      </trkpt>
      <trkpt lat="48.67595" lon="1.94342">
        <ele>218</ele>
        <time>2016-05-16T12:26:21Z</time>
      </trkpt>
      <trkpt lat="48.67591" lon="1.94355">
        <ele>216</ele>
        <time>2016-05-16T12:26:32Z</time>
      </trkpt>
      <trkpt lat="48.67591" lon="1.94355">
        <ele>216</ele>
        <time>2016-05-16T12:26:33Z</time>
      </trkpt>
      <trkpt lat="48.6759" lon="1.94366">
        <ele>217</ele>
        <time>2016-05-16T12:26:46Z</time>
      </trkpt>
      <trkpt lat="48.6759" lon="1.9437">
        <ele>216</ele>
        <time>2016-05-16T12:26:47Z</time>
      </trkpt>
      <trkpt lat="48.6759" lon="1.9437">
        <ele>216</ele>
        <time>2016-05-16T12:26:47Z</time>
      </trkpt>
      <trkpt lat="48.67588" lon="1.94373">
        <ele>217</ele>
        <time>2016-05-16T12:26:48Z</time>
      </trkpt>
      <trkpt lat="48.67586" lon="1.94385">
        <ele>215</ele>
        <time>2016-05-16T12:26:51Z</time>
      </trkpt>
      <trkpt lat="48.67586" lon="1.94386">
        <ele>216</ele>
        <time>2016-05-16T12:26:52Z</time>
      </trkpt>
      <trkpt lat="48.6758" lon="1.94394">
        <ele>216</ele>
        <time>2016-05-16T12:27:02Z</time>
      </trkpt>
      <trkpt lat="48.67579" lon="1.94395">
        <ele>216</ele>
        <time>2016-05-16T12:27:03Z</time>
      </trkpt>
      <trkpt lat="48.67576" lon="1.944">
        <ele>212</ele>
        <time>2016-05-16T12:27:04Z</time>
      </trkpt>
      <trkpt lat="48.67573" lon="1.94405">
        <ele>208</ele>
        <time>2016-05-16T12:27:05Z</time>
      </trkpt>
      <trkpt lat="48.67567" lon="1.94415">
        <ele>201</ele>
        <time>2016-05-16T12:27:12Z</time>
      </trkpt>
      <trkpt lat="48.67564" lon="1.94418">
        <ele>199</ele>
        <time>2016-05-16T12:27:13Z</time>
      </trkpt>
      <trkpt lat="48.6756" lon="1.9443">
        <ele>196</ele>
        <time>2016-05-16T12:27:17Z</time>
      </trkpt>
      <trkpt lat="48.6756" lon="1.94433">
        <ele>196</ele>
        <time>2016-05-16T12:27:18Z</time>
      </trkpt>
      <trkpt lat="48.6756" lon="1.94443">
        <ele>200</ele>
        <time>2016-05-16T12:27:22Z</time>
      </trkpt>
      <trkpt lat="48.6756" lon="1.94449">
        <ele>203</ele>
        <time>2016-05-16T12:27:23Z</time>
      </trkpt>
      <trkpt lat="48.6756" lon="1.9446">
        <ele>205</ele>
        <time>2016-05-16T12:27:29Z</time>
      </trkpt>
      <trkpt lat="48.67559" lon="1.94464">
        <ele>206</ele>
        <time>2016-05-16T12:27:30Z</time>
      </trkpt>
      <trkpt lat="48.67557" lon="1.94477">
        <ele>209</ele>
        <time>2016-05-16T12:27:33Z</time>
      </trkpt>
      <trkpt lat="48.67555" lon="1.94477">
        <ele>209</ele>
        <time>2016-05-16T12:27:34Z</time>
      </trkpt>
      <trkpt lat="48.67553" lon="1.94489">
        <ele>211</ele>
        <time>2016-05-16T12:27:39Z</time>
      </trkpt>
      <trkpt lat="48.67552" lon="1.94494">
        <ele>211</ele>
        <time>2016-05-16T12:27:40Z</time>
      </trkpt>
      <trkpt lat="48.67548" lon="1.94506">
        <ele>214</ele>
        <time>2016-05-16T12:27:46Z</time>
      </trkpt>
      <trkpt lat="48.67548" lon="1.94508">
        <ele>214</ele>
        <time>2016-05-16T12:27:47Z</time>
      </trkpt>
      <trkpt lat="48.67547" lon="1.94521">
        <ele>216</ele>
        <time>2016-05-16T12:27:58Z</time>
      </trkpt>
      <trkpt lat="48.67547" lon="1.94521">
        <ele>216</ele>
        <time>2016-05-16T12:27:59Z</time>
      </trkpt>
      <trkpt lat="48.67544" lon="1.94532">
        <ele>217</ele>
        <time>2016-05-16T12:28:25Z</time>
      </trkpt>
      <trkpt lat="48.67543" lon="1.94535">
        <ele>217</ele>
        <time>2016-05-16T12:28:26Z</time>
      </trkpt>
      <trkpt lat="48.67547" lon="1.94548">
        <ele>214</ele>
        <time>2016-05-16T12:28:29Z</time>
      </trkpt>
      <trkpt lat="48.67547" lon="1.94549">
        <ele>213</ele>
        <time>2016-05-16T12:28:30Z</time>
      </trkpt>
      <trkpt lat="48.67541" lon="1.9456">
        <ele>214</ele>
        <time>2016-05-16T12:28:34Z</time>
      </trkpt>
      <trkpt lat="48.6754" lon="1.94561">
        <ele>214</ele>
        <time>2016-05-16T12:28:35Z</time>
      </trkpt>
      <trkpt lat="48.67536" lon="1.94571">
        <ele>213</ele>
        <time>2016-05-16T12:28:42Z</time>
      </trkpt>
      <trkpt lat="48.67535" lon="1.94572">
        <ele>214</ele>
        <time>2016-05-16T12:28:43Z</time>
      </trkpt>
      <trkpt lat="48.67532" lon="1.94585">
        <ele>215</ele>
        <time>2016-05-16T12:28:57Z</time>
      </trkpt>
      <trkpt lat="48.67532" lon="1.94587">
        <ele>215</ele>
        <time>2016-05-16T12:28:58Z</time>
      </trkpt>
      <trkpt lat="48.67528" lon="1.94594">
        <ele>216</ele>
        <time>2016-05-16T12:29:09Z</time>
      </trkpt>
      <trkpt lat="48.67527" lon="1.94599">
        <ele>216</ele>
        <time>2016-05-16T12:29:10Z</time>
      </trkpt>
      <trkpt lat="48.67527" lon="1.94599">
        <ele>216</ele>
        <time>2016-05-16T12:29:10Z</time>
      </trkpt>
      <trkpt lat="48.67524" lon="1.94597">
        <ele>215</ele>
        <time>2016-05-16T12:29:11Z</time>
      </trkpt>
      <trkpt lat="48.67524" lon="1.94597">
        <ele>215</ele>
        <time>2016-05-16T12:29:11Z</time>
      </trkpt>
      <trkpt lat="48.67524" lon="1.946">
        <ele>213</ele>
        <time>2016-05-16T12:29:12Z</time>
      </trkpt>
      <trkpt lat="48.67522" lon="1.94601">
        <ele>213</ele>
        <time>2016-05-16T12:29:13Z</time>
      </trkpt>
      <trkpt lat="48.67518" lon="1.94601">
        <ele>214</ele>
        <time>2016-05-16T12:29:14Z</time>
      </trkpt>
      <trkpt lat="48.67518" lon="1.94601">
        <ele>214</ele>
        <time>2016-05-16T12:29:14Z</time>
      </trkpt>
      <trkpt lat="48.67519" lon="1.94606">
        <ele>213</ele>
        <time>2016-05-16T12:29:15Z</time>
      </trkpt>
      <trkpt lat="48.67521" lon="1.94611">
        <ele>211</ele>
        <time>2016-05-16T12:29:17Z</time>
      </trkpt>
      <trkpt lat="48.67524" lon="1.94621">
        <ele>214</ele>
        <time>2016-05-16T12:29:18Z</time>
      </trkpt>
      <trkpt lat="48.67519" lon="1.94631">
        <ele>215</ele>
        <time>2016-05-16T12:29:26Z</time>
      </trkpt>
      <trkpt lat="48.67516" lon="1.94628">
        <ele>215</ele>
        <time>2016-05-16T12:29:27Z</time>
      </trkpt>
      <trkpt lat="48.67517" lon="1.94639">
        <ele>213</ele>
        <time>2016-05-16T12:29:30Z</time>
      </trkpt>
      <trkpt lat="48.67517" lon="1.94646">
        <ele>214</ele>
        <time>2016-05-16T12:29:31Z</time>
      </trkpt>
      <trkpt lat="48.67511" lon="1.94655">
        <ele>213</ele>
        <time>2016-05-16T12:29:35Z</time>
      </trkpt>
      <trkpt lat="48.67509" lon="1.9465">
        <ele>213</ele>
        <time>2016-05-16T12:29:36Z</time>
      </trkpt>
      <trkpt lat="48.6751" lon="1.94656">
        <ele>214</ele>
        <time>2016-05-16T12:29:37Z</time>
      </trkpt>
      <trkpt lat="48.67505" lon="1.94667">
        <ele>215</ele>
        <time>2016-05-16T12:29:41Z</time>
      </trkpt>
      <trkpt lat="48.67503" lon="1.94667">
        <ele>216</ele>
        <time>2016-05-16T12:29:42Z</time>
      </trkpt>
      <trkpt lat="48.67505" lon="1.9468">
        <ele>214</ele>
        <time>2016-05-16T12:29:46Z</time>
      </trkpt>
      <trkpt lat="48.67503" lon="1.94684">
        <ele>214</ele>
        <time>2016-05-16T12:29:47Z</time>
      </trkpt>
      <trkpt lat="48.675" lon="1.94691">
        <ele>212</ele>
        <time>2016-05-16T12:29:53Z</time>
      </trkpt>
      <trkpt lat="48.675" lon="1.94692">
        <ele>211</ele>
        <time>2016-05-16T12:29:54Z</time>
      </trkpt>
      <trkpt lat="48.675" lon="1.94692">
        <ele>211</ele>
        <time>2016-05-16T12:29:54Z</time>
      </trkpt>
      <trkpt lat="48.67502" lon="1.94698">
        <ele>211</ele>
        <time>2016-05-16T12:29:55Z</time>
      </trkpt>
      <trkpt lat="48.67503" lon="1.94712">
        <ele>214</ele>
        <time>2016-05-16T12:29:58Z</time>
      </trkpt>
      <trkpt lat="48.67502" lon="1.94712">
        <ele>214</ele>
        <time>2016-05-16T12:29:59Z</time>
      </trkpt>
      <trkpt lat="48.67496" lon="1.94721">
        <ele>215</ele>
        <time>2016-05-16T12:30:09Z</time>
      </trkpt>
      <trkpt lat="48.67496" lon="1.94722">
        <ele>216</ele>
        <time>2016-05-16T12:30:10Z</time>
      </trkpt>
      <trkpt lat="48.6749" lon="1.94729">
        <ele>216</ele>
        <time>2016-05-16T12:31:21Z</time>
      </trkpt>
      <trkpt lat="48.67489" lon="1.94732">
        <ele>217</ele>
        <time>2016-05-16T12:31:22Z</time>
      </trkpt>
      <trkpt lat="48.67481" lon="1.94736">
        <ele>218</ele>
        <time>2016-05-16T12:31:25Z</time>
      </trkpt>
      <trkpt lat="48.6748" lon="1.94737">
        <ele>217</ele>
        <time>2016-05-16T12:31:26Z</time>
      </trkpt>
      <trkpt lat="48.67474" lon="1.94744">
        <ele>217</ele>
        <time>2016-05-16T12:31:30Z</time>
      </trkpt>
      <trkpt lat="48.67474" lon="1.94749">
        <ele>213</ele>
        <time>2016-05-16T12:31:31Z</time>
      </trkpt>
      <trkpt lat="48.67471" lon="1.94758">
        <ele>211</ele>
        <time>2016-05-16T12:31:36Z</time>
      </trkpt>
      <trkpt lat="48.6747" lon="1.94762">
        <ele>208</ele>
        <time>2016-05-16T12:31:37Z</time>
      </trkpt>
      <trkpt lat="48.67472" lon="1.94767">
        <ele>202</ele>
        <time>2016-05-16T12:31:39Z</time>
      </trkpt>
      <trkpt lat="48.67477" lon="1.94774">
        <ele>200</ele>
        <time>2016-05-16T12:31:40Z</time>
      </trkpt>
      <trkpt lat="48.67475" lon="1.94786">
        <ele>205</ele>
        <time>2016-05-16T12:31:47Z</time>
      </trkpt>
      <trkpt lat="48.67474" lon="1.94787">
        <ele>205</ele>
        <time>2016-05-16T12:31:48Z</time>
      </trkpt>
      <trkpt lat="48.67472" lon="1.94799">
        <ele>206</ele>
        <time>2016-05-16T12:32:04Z</time>
      </trkpt>
      <trkpt lat="48.6747" lon="1.94801">
        <ele>204</ele>
        <time>2016-05-16T12:32:05Z</time>
      </trkpt>
      <trkpt lat="48.67467" lon="1.94813">
        <ele>205</ele>
        <time>2016-05-16T12:32:08Z</time>
      </trkpt>
      <trkpt lat="48.67466" lon="1.94816">
        <ele>206</ele>
        <time>2016-05-16T12:32:09Z</time>
      </trkpt>
      <trkpt lat="48.67461" lon="1.94827">
        <ele>205</ele>
        <time>2016-05-16T12:32:15Z</time>
      </trkpt>
      <trkpt lat="48.67457" lon="1.94828">
        <ele>202</ele>
        <time>2016-05-16T12:32:16Z</time>
      </trkpt>
      <trkpt lat="48.6745" lon="1.94833">
        <ele>199</ele>
        <time>2016-05-16T12:32:19Z</time>
      </trkpt>
      <trkpt lat="48.67448" lon="1.94838">
        <ele>199</ele>
        <time>2016-05-16T12:32:20Z</time>
      </trkpt>
      <trkpt lat="48.67443" lon="1.94842">
        <ele>202</ele>
        <time>2016-05-16T12:32:24Z</time>
      </trkpt>
      <trkpt lat="48.6744" lon="1.94845">
        <ele>202</ele>
        <time>2016-05-16T12:32:25Z</time>
      </trkpt>
      <trkpt lat="48.67435" lon="1.94855">
        <ele>204</ele>
        <time>2016-05-16T12:32:29Z</time>
      </trkpt>
      <trkpt lat="48.67434" lon="1.94856">
        <ele>204</ele>
        <time>2016-05-16T12:32:30Z</time>
      </trkpt>
      <trkpt lat="48.67433" lon="1.94868">
        <ele>207</ele>
        <time>2016-05-16T12:32:36Z</time>
      </trkpt>
      <trkpt lat="48.67433" lon="1.9487">
        <ele>207</ele>
        <time>2016-05-16T12:32:37Z</time>
      </trkpt>
      <trkpt lat="48.67435" lon="1.94877">
        <ele>209</ele>
        <time>2016-05-16T12:32:40Z</time>
      </trkpt>
      <trkpt lat="48.67435" lon="1.94882">
        <ele>210</ele>
        <time>2016-05-16T12:32:41Z</time>
      </trkpt>
      <trkpt lat="48.67432" lon="1.94894">
        <ele>214</ele>
        <time>2016-05-16T12:32:50Z</time>
      </trkpt>
      <trkpt lat="48.67433" lon="1.94897">
        <ele>214</ele>
        <time>2016-05-16T12:32:51Z</time>
      </trkpt>
      <trkpt lat="48.67433" lon="1.9491">
        <ele>215</ele>
        <time>2016-05-16T12:33:04Z</time>
      </trkpt>
      <trkpt lat="48.67433" lon="1.94911">
        <ele>215</ele>
        <time>2016-05-16T12:33:05Z</time>
      </trkpt>
      <trkpt lat="48.67434" lon="1.94922">
        <ele>218</ele>
        <time>2016-05-16T12:33:21Z</time>
      </trkpt>
      <trkpt lat="48.67433" lon="1.94926">
        <ele>214</ele>
        <time>2016-05-16T12:33:22Z</time>
      </trkpt>
      <trkpt lat="48.67426" lon="1.94932">
        <ele>213</ele>
        <time>2016-05-16T12:33:25Z</time>
      </trkpt>
      <trkpt lat="48.67424" lon="1.94933">
        <ele>213</ele>
        <time>2016-05-16T12:33:26Z</time>
      </trkpt>
      <trkpt lat="48.6742" lon="1.94942">
        <ele>213</ele>
        <time>2016-05-16T12:33:29Z</time>
      </trkpt>
      <trkpt lat="48.6742" lon="1.94948">
        <ele>215</ele>
        <time>2016-05-16T12:33:30Z</time>
      </trkpt>
      <trkpt lat="48.67415" lon="1.94954">
        <ele>214</ele>
        <time>2016-05-16T12:33:33Z</time>
      </trkpt>
      <trkpt lat="48.67412" lon="1.94955">
        <ele>213</ele>
        <time>2016-05-16T12:33:34Z</time>
      </trkpt>
      <trkpt lat="48.67404" lon="1.94957">
        <ele>215</ele>
        <time>2016-05-16T12:33:37Z</time>
      </trkpt>
      <trkpt lat="48.67403" lon="1.9496">
        <ele>215</ele>
        <time>2016-05-16T12:33:38Z</time>
      </trkpt>
      <trkpt lat="48.67404" lon="1.94963">
        <ele>216</ele>
        <time>2016-05-16T12:33:39Z</time>
      </trkpt>
      <trkpt lat="48.67409" lon="1.94974">
        <ele>218</ele>
        <time>2016-05-16T12:33:40Z</time>
      </trkpt>
      <trkpt lat="48.67412" lon="1.94984">
        <ele>217</ele>
        <time>2016-05-16T12:33:43Z</time>
      </trkpt>
      <trkpt lat="48.67416" lon="1.94991">
        <ele>218</ele>
        <time>2016-05-16T12:33:44Z</time>
      </trkpt>
      <trkpt lat="48.67416" lon="1.94991">
        <ele>218</ele>
        <time>2016-05-16T12:33:44Z</time>
      </trkpt>
      <trkpt lat="48.67417" lon="1.94995">
        <ele>218</ele>
        <time>2016-05-16T12:33:45Z</time>
      </trkpt>
      <trkpt lat="48.67417" lon="1.94995">
        <ele>218</ele>
        <time>2016-05-16T12:33:45Z</time>
      </trkpt>
      <trkpt lat="48.67415" lon="1.94998">
        <ele>220</ele>
        <time>2016-05-16T12:33:46Z</time>
      </trkpt>
      <trkpt lat="48.67415" lon="1.94998">
        <ele>220</ele>
        <time>2016-05-16T12:33:46Z</time>
      </trkpt>
      <trkpt lat="48.67417" lon="1.95002">
        <ele>221</ele>
        <time>2016-05-16T12:33:47Z</time>
      </trkpt>
      <trkpt lat="48.67417" lon="1.95002">
        <ele>221</ele>
        <time>2016-05-16T12:33:47Z</time>
      </trkpt>
      <trkpt lat="48.67418" lon="1.95006">
        <ele>221</ele>
        <time>2016-05-16T12:33:48Z</time>
      </trkpt>
      <trkpt lat="48.67423" lon="1.95008">
        <ele>220</ele>
        <time>2016-05-16T12:33:52Z</time>
      </trkpt>
      <trkpt lat="48.67424" lon="1.95009">
        <ele>220</ele>
        <time>2016-05-16T12:33:53Z</time>
      </trkpt>
      <trkpt lat="48.67424" lon="1.95009">
        <ele>220</ele>
        <time>2016-05-16T12:33:53Z</time>
      </trkpt>
      <trkpt lat="48.67424" lon="1.95007">
        <ele>220</ele>
        <time>2016-05-16T12:33:54Z</time>
      </trkpt>
      <trkpt lat="48.6742" lon="1.95017">
        <ele>219</ele>
        <time>2016-05-16T12:34:12Z</time>
      </trkpt>
      <trkpt lat="48.67419" lon="1.95018">
        <ele>218</ele>
        <time>2016-05-16T12:34:13Z</time>
      </trkpt>
      <trkpt lat="48.67415" lon="1.95022">
        <ele>216</ele>
        <time>2016-05-16T12:34:33Z</time>
      </trkpt>
      <trkpt lat="48.67409" lon="1.95022">
        <ele>215</ele>
        <time>2016-05-16T12:34:34Z</time>
      </trkpt>
      <trkpt lat="48.6741" lon="1.95032">
        <ele>211</ele>
        <time>2016-05-16T12:34:36Z</time>
      </trkpt>
      <trkpt lat="48.67409" lon="1.95036">
        <ele>211</ele>
        <time>2016-05-16T12:34:37Z</time>
      </trkpt>
      <trkpt lat="48.67401" lon="1.95036">
        <ele>212</ele>
        <time>2016-05-16T12:34:41Z</time>
      </trkpt>
      <trkpt lat="48.674" lon="1.95037">
        <ele>210</ele>
        <time>2016-05-16T12:34:42Z</time>
      </trkpt>
      <trkpt lat="48.67393" lon="1.95042">
        <ele>209</ele>
        <time>2016-05-16T12:34:46Z</time>
      </trkpt>
      <trkpt lat="48.67392" lon="1.95044">
        <ele>208</ele>
        <time>2016-05-16T12:34:47Z</time>
      </trkpt>
      <trkpt lat="48.67385" lon="1.95053">
        <ele>211</ele>
        <time>2016-05-16T12:34:53Z</time>
      </trkpt>
      <trkpt lat="48.67383" lon="1.95055">
        <ele>211</ele>
        <time>2016-05-16T12:34:54Z</time>
      </trkpt>
      <trkpt lat="48.67376" lon="1.95065">
        <ele>215</ele>
        <time>2016-05-16T12:35:01Z</time>
      </trkpt>
      <trkpt lat="48.67376" lon="1.95066">
        <ele>215</ele>
        <time>2016-05-16T12:35:02Z</time>
      </trkpt>
      <trkpt lat="48.67372" lon="1.95076">
        <ele>216</ele>
        <time>2016-05-16T12:35:15Z</time>
      </trkpt>
      <trkpt lat="48.67371" lon="1.95079">
        <ele>213</ele>
        <time>2016-05-16T12:35:16Z</time>
      </trkpt>
      <trkpt lat="48.6737" lon="1.95087">
        <ele>207</ele>
        <time>2016-05-16T12:35:19Z</time>
      </trkpt>
      <trkpt lat="48.67366" lon="1.95088">
        <ele>210</ele>
        <time>2016-05-16T12:35:20Z</time>
      </trkpt>
      <trkpt lat="48.67366" lon="1.95088">
        <ele>210</ele>
        <time>2016-05-16T12:35:20Z</time>
      </trkpt>
      <trkpt lat="48.67366" lon="1.9509">
        <ele>209</ele>
        <time>2016-05-16T12:35:21Z</time>
      </trkpt>
      <trkpt lat="48.67361" lon="1.95101">
        <ele>208</ele>
        <time>2016-05-16T12:35:26Z</time>
      </trkpt>
      <trkpt lat="48.6736" lon="1.95104">
        <ele>207</ele>
        <time>2016-05-16T12:35:27Z</time>
      </trkpt>
      <trkpt lat="48.67354" lon="1.95115">
        <ele>208</ele>
        <time>2016-05-16T12:35:36Z</time>
      </trkpt>
      <trkpt lat="48.67354" lon="1.95119">
        <ele>208</ele>
        <time>2016-05-16T12:35:37Z</time>
      </trkpt>
      <trkpt lat="48.67349" lon="1.9513">
        <ele>208</ele>
        <time>2016-05-16T12:35:42Z</time>
      </trkpt>
      <trkpt lat="48.67346" lon="1.95129">
        <ele>209</ele>
        <time>2016-05-16T12:35:43Z</time>
      </trkpt>
      <trkpt lat="48.67339" lon="1.95138">
        <ele>209</ele>
        <time>2016-05-16T12:35:48Z</time>
      </trkpt>
      <trkpt lat="48.67337" lon="1.9514">
        <ele>210</ele>
        <time>2016-05-16T12:35:49Z</time>
      </trkpt>
      <trkpt lat="48.67336" lon="1.9514">
        <ele>211</ele>
        <time>2016-05-16T12:35:50Z</time>
      </trkpt>
      <trkpt lat="48.67337" lon="1.95142">
        <ele>209</ele>
        <time>2016-05-16T12:35:51Z</time>
      </trkpt>
      <trkpt lat="48.67337" lon="1.95142">
        <ele>209</ele>
        <time>2016-05-16T12:35:51Z</time>
      </trkpt>
      <trkpt lat="48.67334" lon="1.95142">
        <ele>209</ele>
        <time>2016-05-16T12:35:52Z</time>
      </trkpt>
      <trkpt lat="48.67331" lon="1.95155">
        <ele>208</ele>
        <time>2016-05-16T12:35:59Z</time>
      </trkpt>
      <trkpt lat="48.6733" lon="1.95156">
        <ele>208</ele>
        <time>2016-05-16T12:36:00Z</time>
      </trkpt>
      <trkpt lat="48.67321" lon="1.95158">
        <ele>206</ele>
        <time>2016-05-16T12:36:16Z</time>
      </trkpt>
      <trkpt lat="48.67321" lon="1.95158">
        <ele>206</ele>
        <time>2016-05-16T12:36:17Z</time>
      </trkpt>
      <trkpt lat="48.67316" lon="1.95163">
        <ele>208</ele>
        <time>2016-05-16T12:36:32Z</time>
      </trkpt>
      <trkpt lat="48.67314" lon="1.95167">
        <ele>209</ele>
        <time>2016-05-16T12:36:33Z</time>
      </trkpt>
      <trkpt lat="48.67306" lon="1.95175">
        <ele>208</ele>
        <time>2016-05-16T12:36:36Z</time>
      </trkpt>
      <trkpt lat="48.67306" lon="1.95179">
        <ele>205</ele>
        <time>2016-05-16T12:36:37Z</time>
      </trkpt>
      <trkpt lat="48.67299" lon="1.95187">
        <ele>207</ele>
        <time>2016-05-16T12:36:49Z</time>
      </trkpt>
      <trkpt lat="48.67297" lon="1.95187">
        <ele>208</ele>
        <time>2016-05-16T12:36:50Z</time>
      </trkpt>
      <trkpt lat="48.67291" lon="1.95195">
        <ele>208</ele>
        <time>2016-05-16T12:37:01Z</time>
      </trkpt>
      <trkpt lat="48.6729" lon="1.95195">
        <ele>208</ele>
        <time>2016-05-16T12:37:02Z</time>
      </trkpt>
      <trkpt lat="48.67282" lon="1.95201">
        <ele>211</ele>
        <time>2016-05-16T12:37:05Z</time>
      </trkpt>
      <trkpt lat="48.6728" lon="1.95201">
        <ele>211</ele>
        <time>2016-05-16T12:37:06Z</time>
      </trkpt>
      <trkpt lat="48.67272" lon="1.95206">
        <ele>210</ele>
        <time>2016-05-16T12:37:15Z</time>
      </trkpt>
      <trkpt lat="48.6727" lon="1.95205">
        <ele>211</ele>
        <time>2016-05-16T12:37:16Z</time>
      </trkpt>
      <trkpt lat="48.67263" lon="1.95213">
        <ele>210</ele>
        <time>2016-05-16T12:37:25Z</time>
      </trkpt>
      <trkpt lat="48.67263" lon="1.95218">
        <ele>210</ele>
        <time>2016-05-16T12:37:26Z</time>
      </trkpt>
      <trkpt lat="48.67265" lon="1.95223">
        <ele>208</ele>
        <time>2016-05-16T12:37:28Z</time>
      </trkpt>
      <trkpt lat="48.67265" lon="1.95233">
        <ele>204</ele>
        <time>2016-05-16T12:37:29Z</time>
      </trkpt>
      <trkpt lat="48.67265" lon="1.95233">
        <ele>204</ele>
        <time>2016-05-16T12:37:29Z</time>
      </trkpt>
      <trkpt lat="48.67265" lon="1.95235">
        <ele>204</ele>
        <time>2016-05-16T12:37:30Z</time>
      </trkpt>
      <trkpt lat="48.6726" lon="1.95242">
        <ele>204</ele>
        <time>2016-05-16T12:37:37Z</time>
      </trkpt>
      <trkpt lat="48.67257" lon="1.95243">
        <ele>204</ele>
        <time>2016-05-16T12:37:38Z</time>
      </trkpt>
      <trkpt lat="48.67251" lon="1.95252">
        <ele>209</ele>
        <time>2016-05-16T12:37:44Z</time>
      </trkpt>
      <trkpt lat="48.6725" lon="1.95254">
        <ele>208</ele>
        <time>2016-05-16T12:37:45Z</time>
      </trkpt>
      <trkpt lat="48.67246" lon="1.95265">
        <ele>201</ele>
        <time>2016-05-16T12:37:48Z</time>
      </trkpt>
      <trkpt lat="48.67244" lon="1.95266">
        <ele>202</ele>
        <time>2016-05-16T12:37:49Z</time>
      </trkpt>
      <trkpt lat="48.67237" lon="1.95273">
        <ele>200</ele>
        <time>2016-05-16T12:37:56Z</time>
      </trkpt>
      <trkpt lat="48.67236" lon="1.95273">
        <ele>200</ele>
        <time>2016-05-16T12:37:57Z</time>
      </trkpt>
      <trkpt lat="48.67229" lon="1.95279">
        <ele>201</ele>
        <time>2016-05-16T12:38:03Z</time>
      </trkpt>
      <trkpt lat="48.6723" lon="1.95283">
        <ele>197</ele>
        <time>2016-05-16T12:38:04Z</time>
      </trkpt>
      <trkpt lat="48.67224" lon="1.9529">
        <ele>203</ele>
        <time>2016-05-16T12:38:07Z</time>
      </trkpt>
      <trkpt lat="48.67221" lon="1.95294">
        <ele>202</ele>
        <time>2016-05-16T12:38:08Z</time>
      </trkpt>
      <trkpt lat="48.67213" lon="1.953">
        <ele>205</ele>
        <time>2016-05-16T12:38:16Z</time>
      </trkpt>
      <trkpt lat="48.67213" lon="1.95301">
        <ele>205</ele>
        <time>2016-05-16T12:38:17Z</time>
      </trkpt>
      <trkpt lat="48.67206" lon="1.9531">
        <ele>212</ele>
        <time>2016-05-16T12:38:30Z</time>
      </trkpt>
      <trkpt lat="48.67205" lon="1.9531">
        <ele>212</ele>
        <time>2016-05-16T12:38:31Z</time>
      </trkpt>
      <trkpt lat="48.67198" lon="1.95318">
        <ele>210</ele>
        <time>2016-05-16T12:39:01Z</time>
      </trkpt>
      <trkpt lat="48.67198" lon="1.9532">
        <ele>206</ele>
        <time>2016-05-16T12:39:02Z</time>
      </trkpt>
      <trkpt lat="48.67197" lon="1.95327">
        <ele>206</ele>
        <time>2016-05-16T12:39:04Z</time>
      </trkpt>
      <trkpt lat="48.67194" lon="1.95326">
        <ele>205</ele>
        <time>2016-05-16T12:39:05Z</time>
      </trkpt>
      <trkpt lat="48.67194" lon="1.95326">
        <ele>205</ele>
        <time>2016-05-16T12:39:05Z</time>
      </trkpt>
      <trkpt lat="48.67192" lon="1.95328">
        <ele>205</ele>
        <time>2016-05-16T12:39:06Z</time>
      </trkpt>
      <trkpt lat="48.67191" lon="1.95331">
        <ele>205</ele>
        <time>2016-05-16T12:39:09Z</time>
      </trkpt>
      <trkpt lat="48.67188" lon="1.95332">
        <ele>205</ele>
        <time>2016-05-16T12:39:10Z</time>
      </trkpt>
      <trkpt lat="48.67188" lon="1.95332">
        <ele>205</ele>
        <time>2016-05-16T12:39:10Z</time>
      </trkpt>
      <trkpt lat="48.67188" lon="1.95334">
        <ele>204</ele>
        <time>2016-05-16T12:39:11Z</time>
      </trkpt>
      <trkpt lat="48.6718" lon="1.95341">
        <ele>204</ele>
        <time>2016-05-16T12:39:20Z</time>
      </trkpt>
      <trkpt lat="48.6718" lon="1.95342">
        <ele>203</ele>
        <time>2016-05-16T12:39:21Z</time>
      </trkpt>
      <trkpt lat="48.67174" lon="1.95346">
        <ele>208</ele>
        <time>2016-05-16T12:39:57Z</time>
      </trkpt>
      <trkpt lat="48.6717" lon="1.95344">
        <ele>208</ele>
        <time>2016-05-16T12:39:58Z</time>
      </trkpt>
      <trkpt lat="48.67161" lon="1.95344">
        <ele>209</ele>
        <time>2016-05-16T12:40:03Z</time>
      </trkpt>
      <trkpt lat="48.6716" lon="1.95346">
        <ele>208</ele>
        <time>2016-05-16T12:40:04Z</time>
      </trkpt>
      <trkpt lat="48.67154" lon="1.95354">
        <ele>206</ele>
        <time>2016-05-16T12:40:06Z</time>
      </trkpt>
      <trkpt lat="48.67151" lon="1.95356">
        <ele>206</ele>
        <time>2016-05-16T12:40:07Z</time>
      </trkpt>
      <trkpt lat="48.67147" lon="1.95368">
        <ele>200</ele>
        <time>2016-05-16T12:40:13Z</time>
      </trkpt>
      <trkpt lat="48.67146" lon="1.9537">
        <ele>200</ele>
        <time>2016-05-16T12:40:14Z</time>
      </trkpt>
      <trkpt lat="48.6714" lon="1.95376">
        <ele>199</ele>
        <time>2016-05-16T12:40:23Z</time>
      </trkpt>
      <trkpt lat="48.67138" lon="1.95378">
        <ele>200</ele>
        <time>2016-05-16T12:40:24Z</time>
      </trkpt>
      <trkpt lat="48.67131" lon="1.95384">
        <ele>202</ele>
        <time>2016-05-16T12:40:38Z</time>
      </trkpt>
      <trkpt lat="48.67129" lon="1.95387">
        <ele>203</ele>
        <time>2016-05-16T12:40:39Z</time>
      </trkpt>
      <trkpt lat="48.67121" lon="1.95392">
        <ele>203</ele>
        <time>2016-05-16T12:40:43Z</time>
      </trkpt>
      <trkpt lat="48.67122" lon="1.95398">
        <ele>205</ele>
        <time>2016-05-16T12:40:44Z</time>
      </trkpt>
      <trkpt lat="48.67115" lon="1.95405">
        <ele>205</ele>
        <time>2016-05-16T12:40:55Z</time>
      </trkpt>
      <trkpt lat="48.67114" lon="1.95405">
        <ele>206</ele>
        <time>2016-05-16T12:40:56Z</time>
      </trkpt>
      <trkpt lat="48.67107" lon="1.95413">
        <ele>207</ele>
        <time>2016-05-16T12:41:29Z</time>
      </trkpt>
      <trkpt lat="48.67107" lon="1.95414">
        <ele>207</ele>
        <time>2016-05-16T12:41:30Z</time>
      </trkpt>
      <trkpt lat="48.67103" lon="1.95421">
        <ele>207</ele>
        <time>2016-05-16T12:41:33Z</time>
      </trkpt>
      <trkpt lat="48.67102" lon="1.9542">
        <ele>207</ele>
        <time>2016-05-16T12:41:34Z</time>
      </trkpt>
      <trkpt lat="48.67095" lon="1.95427">
        <ele>205</ele>
        <time>2016-05-16T12:41:40Z</time>
      </trkpt>
      <trkpt lat="48.67094" lon="1.95428">
        <ele>206</ele>
        <time>2016-05-16T12:41:41Z</time>
      </trkpt>
      <trkpt lat="48.67089" lon="1.95435">
        <ele>207</ele>
        <time>2016-05-16T12:41:48Z</time>
      </trkpt>
      <trkpt lat="48.67087" lon="1.95437">
        <ele>207</ele>
        <time>2016-05-16T12:41:49Z</time>
      </trkpt>
      <trkpt lat="48.67079" lon="1.95441">
        <ele>206</ele>
        <time>2016-05-16T12:41:54Z</time>
      </trkpt>
      <trkpt lat="48.67078" lon="1.95445">
        <ele>207</ele>
        <time>2016-05-16T12:41:55Z</time>
      </trkpt>
      <trkpt lat="48.67076" lon="1.95456">
        <ele>202</ele>
        <time>2016-05-16T12:41:59Z</time>
      </trkpt>
      <trkpt lat="48.67074" lon="1.95458">
        <ele>203</ele>
        <time>2016-05-16T12:42:00Z</time>
      </trkpt>
      <trkpt lat="48.6707" lon="1.9547">
        <ele>200</ele>
        <time>2016-05-16T12:42:02Z</time>
      </trkpt>
      <trkpt lat="48.67066" lon="1.9547">
        <ele>201</ele>
        <time>2016-05-16T12:42:03Z</time>
      </trkpt>
      <trkpt lat="48.67062" lon="1.9548">
        <ele>202</ele>
        <time>2016-05-16T12:42:07Z</time>
      </trkpt>
      <trkpt lat="48.67061" lon="1.95481">
        <ele>202</ele>
        <time>2016-05-16T12:42:08Z</time>
      </trkpt>
      <trkpt lat="48.67054" lon="1.95488">
        <ele>204</ele>
        <time>2016-05-16T12:42:12Z</time>
      </trkpt>
      <trkpt lat="48.67052" lon="1.95489">
        <ele>207</ele>
        <time>2016-05-16T12:42:13Z</time>
      </trkpt>
      <trkpt lat="48.67048" lon="1.95496">
        <ele>206</ele>
        <time>2016-05-16T12:42:17Z</time>
      </trkpt>
      <trkpt lat="48.67047" lon="1.95502">
        <ele>204</ele>
        <time>2016-05-16T12:42:18Z</time>
      </trkpt>
      <trkpt lat="48.67043" lon="1.9551">
        <ele>207</ele>
        <time>2016-05-16T12:42:30Z</time>
      </trkpt>
      <trkpt lat="48.67043" lon="1.95511">
        <ele>208</ele>
        <time>2016-05-16T12:42:31Z</time>
      </trkpt>
      <trkpt lat="48.67035" lon="1.95518">
        <ele>211</ele>
        <time>2016-05-16T12:42:45Z</time>
      </trkpt>
      <trkpt lat="48.67035" lon="1.95518">
        <ele>211</ele>
        <time>2016-05-16T12:42:46Z</time>
      </trkpt>
      <trkpt lat="48.67032" lon="1.9553">
        <ele>214</ele>
        <time>2016-05-16T12:43:06Z</time>
      </trkpt>
      <trkpt lat="48.67031" lon="1.95532">
        <ele>213</ele>
        <time>2016-05-16T12:43:07Z</time>
      </trkpt>
      <trkpt lat="48.67031" lon="1.95545">
        <ele>209</ele>
        <time>2016-05-16T12:43:10Z</time>
      </trkpt>
      <trkpt lat="48.6703" lon="1.95546">
        <ele>208</ele>
        <time>2016-05-16T12:43:11Z</time>
      </trkpt>
      <trkpt lat="48.67027" lon="1.95556">
        <ele>204</ele>
        <time>2016-05-16T12:43:14Z</time>
      </trkpt>
      <trkpt lat="48.67028" lon="1.9556">
        <ele>204</ele>
        <time>2016-05-16T12:43:15Z</time>
      </trkpt>
      <trkpt lat="48.67027" lon="1.95566">
        <ele>207</ele>
        <time>2016-05-16T12:43:16Z</time>
      </trkpt>
      <trkpt lat="48.67027" lon="1.95569">
        <ele>209</ele>
        <time>2016-05-16T12:43:17Z</time>
      </trkpt>
      <trkpt lat="48.67027" lon="1.95569">
        <ele>209</ele>
        <time>2016-05-16T12:43:17Z</time>
      </trkpt>
      <trkpt lat="48.67028" lon="1.95572">
        <ele>209</ele>
        <time>2016-05-16T12:43:18Z</time>
      </trkpt>
      <trkpt lat="48.67026" lon="1.95583">
        <ele>207</ele>
        <time>2016-05-16T12:43:28Z</time>
      </trkpt>
      <trkpt lat="48.67025" lon="1.95586">
        <ele>207</ele>
        <time>2016-05-16T12:43:29Z</time>
      </trkpt>
      <trkpt lat="48.67025" lon="1.95598">
        <ele>211</ele>
        <time>2016-05-16T12:43:45Z</time>
      </trkpt>
      <trkpt lat="48.67025" lon="1.95601">
        <ele>213</ele>
        <time>2016-05-16T12:43:46Z</time>
      </trkpt>
      <trkpt lat="48.67032" lon="1.95608">
        <ele>215</ele>
        <time>2016-05-16T12:45:19Z</time>
      </trkpt>
      <trkpt lat="48.67033" lon="1.95608">
        <ele>213</ele>
        <time>2016-05-16T12:45:20Z</time>
      </trkpt>
      <trkpt lat="48.67036" lon="1.95609">
        <ele>214</ele>
        <time>2016-05-16T12:45:21Z</time>
      </trkpt>
      <trkpt lat="48.67043" lon="1.956">
        <ele>215</ele>
        <time>2016-05-16T12:45:22Z</time>
      </trkpt>
      <trkpt lat="48.67043" lon="1.956">
        <ele>215</ele>
        <time>2016-05-16T12:45:22Z</time>
      </trkpt>
      <trkpt lat="48.67039" lon="1.95603">
        <ele>213</ele>
        <time>2016-05-16T12:45:23Z</time>
      </trkpt>
      <trkpt lat="48.67041" lon="1.95604">
        <ele>213</ele>
        <time>2016-05-16T12:45:25Z</time>
      </trkpt>
      <trkpt lat="48.67043" lon="1.95605">
        <ele>213</ele>
        <time>2016-05-16T12:45:26Z</time>
      </trkpt>
      <trkpt lat="48.67049" lon="1.95609">
        <ele>213</ele>
        <time>2016-05-16T12:45:29Z</time>
      </trkpt>
      <trkpt lat="48.67053" lon="1.95608">
        <ele>212</ele>
        <time>2016-05-16T12:45:30Z</time>
      </trkpt>
      <trkpt lat="48.6706" lon="1.95611">
        <ele>214</ele>
        <time>2016-05-16T12:45:35Z</time>
      </trkpt>
      <trkpt lat="48.67062" lon="1.95611">
        <ele>215</ele>
        <time>2016-05-16T12:45:36Z</time>
      </trkpt>
      <trkpt lat="48.67065" lon="1.9562">
        <ele>215</ele>
        <time>2016-05-16T12:45:39Z</time>
      </trkpt>
      <trkpt lat="48.6707" lon="1.95619">
        <ele>216</ele>
        <time>2016-05-16T12:45:40Z</time>
      </trkpt>
      <trkpt lat="48.67072" lon="1.95619">
        <ele>214</ele>
        <time>2016-05-16T12:45:41Z</time>
      </trkpt>
      <trkpt lat="48.67072" lon="1.95621">
        <ele>214</ele>
        <time>2016-05-16T12:45:42Z</time>
      </trkpt>
      <trkpt lat="48.67072" lon="1.95622">
        <ele>215</ele>
        <time>2016-05-16T12:45:43Z</time>
      </trkpt>
      <trkpt lat="48.67074" lon="1.95625">
        <ele>214</ele>
        <time>2016-05-16T12:45:44Z</time>
      </trkpt>
      <trkpt lat="48.67082" lon="1.95632">
        <ele>208</ele>
        <time>2016-05-16T12:45:53Z</time>
      </trkpt>
      <trkpt lat="48.67084" lon="1.95633">
        <ele>210</ele>
        <time>2016-05-16T12:45:54Z</time>
      </trkpt>
      <trkpt lat="48.67092" lon="1.95637">
        <ele>206</ele>
        <time>2016-05-16T12:45:58Z</time>
      </trkpt>
      <trkpt lat="48.67095" lon="1.95637">
        <ele>208</ele>
        <time>2016-05-16T12:45:59Z</time>
      </trkpt>
      <trkpt lat="48.67099" lon="1.95637">
        <ele>209</ele>
        <time>2016-05-16T12:46:00Z</time>
      </trkpt>
      <trkpt lat="48.67105" lon="1.95638">
        <ele>211</ele>
        <time>2016-05-16T12:46:01Z</time>
      </trkpt>
      <trkpt lat="48.67109" lon="1.95635">
        <ele>212</ele>
        <time>2016-05-16T12:46:02Z</time>
      </trkpt>
      <trkpt lat="48.67114" lon="1.95635">
        <ele>213</ele>
        <time>2016-05-16T12:46:03Z</time>
      </trkpt>
      <trkpt lat="48.6712" lon="1.95635">
        <ele>212</ele>
        <time>2016-05-16T12:46:07Z</time>
      </trkpt>
      <trkpt lat="48.67117" lon="1.95638">
        <ele>212</ele>
        <time>2016-05-16T12:46:08Z</time>
      </trkpt>
      <trkpt lat="48.67117" lon="1.95638">
        <ele>212</ele>
        <time>2016-05-16T12:46:08Z</time>
      </trkpt>
      <trkpt lat="48.67118" lon="1.95637">
        <ele>212</ele>
        <time>2016-05-16T12:46:09Z</time>
      </trkpt>
      <trkpt lat="48.67125" lon="1.95641">
        <ele>211</ele>
        <time>2016-05-16T12:46:13Z</time>
      </trkpt>
      <trkpt lat="48.67127" lon="1.95641">
        <ele>211</ele>
        <time>2016-05-16T12:46:14Z</time>
      </trkpt>
      <trkpt lat="48.67134" lon="1.95635">
        <ele>209</ele>
        <time>2016-05-16T12:46:18Z</time>
      </trkpt>
      <trkpt lat="48.67137" lon="1.95636">
        <ele>210</ele>
        <time>2016-05-16T12:46:19Z</time>
      </trkpt>
      <trkpt lat="48.67143" lon="1.95646">
        <ele>215</ele>
        <time>2016-05-16T12:46:39Z</time>
      </trkpt>
      <trkpt lat="48.67143" lon="1.95646">
        <ele>216</ele>
        <time>2016-05-16T12:46:40Z</time>
      </trkpt>
      <trkpt lat="48.67149" lon="1.95645">
        <ele>217</ele>
        <time>2016-05-16T12:47:01Z</time>
      </trkpt>
      <trkpt lat="48.67152" lon="1.95647">
        <ele>217</ele>
        <time>2016-05-16T12:47:02Z</time>
      </trkpt>
      <trkpt lat="48.67161" lon="1.9565">
        <ele>212</ele>
        <time>2016-05-16T12:47:04Z</time>
      </trkpt>
      <trkpt lat="48.67163" lon="1.95651">
        <ele>212</ele>
        <time>2016-05-16T12:47:05Z</time>
      </trkpt>
      <trkpt lat="48.67168" lon="1.95652">
        <ele>210</ele>
        <time>2016-05-16T12:47:06Z</time>
      </trkpt>
      <trkpt lat="48.67174" lon="1.95653">
        <ele>210</ele>
        <time>2016-05-16T12:47:07Z</time>
      </trkpt>
      <trkpt lat="48.67173" lon="1.95658">
        <ele>210</ele>
        <time>2016-05-16T12:47:08Z</time>
      </trkpt>
      <trkpt lat="48.67169" lon="1.95666">
        <ele>205</ele>
        <time>2016-05-16T12:47:09Z</time>
      </trkpt>
      <trkpt lat="48.67176" lon="1.95671">
        <ele>205</ele>
        <time>2016-05-16T12:47:11Z</time>
      </trkpt>
      <trkpt lat="48.67179" lon="1.95675">
        <ele>205</ele>
        <time>2016-05-16T12:47:12Z</time>
      </trkpt>
      <trkpt lat="48.67183" lon="1.95682">
        <ele>204</ele>
        <time>2016-05-16T12:47:13Z</time>
      </trkpt>
      <trkpt lat="48.67187" lon="1.9569">
        <ele>204</ele>
        <time>2016-05-16T12:47:14Z</time>
      </trkpt>
      <trkpt lat="48.67192" lon="1.95698">
        <ele>210</ele>
        <time>2016-05-16T12:47:18Z</time>
      </trkpt>
      <trkpt lat="48.67196" lon="1.95701">
        <ele>211</ele>
        <time>2016-05-16T12:47:19Z</time>
      </trkpt>
      <trkpt lat="48.67202" lon="1.95707">
        <ele>211</ele>
        <time>2016-05-16T12:47:24Z</time>
      </trkpt>
      <trkpt lat="48.67205" lon="1.95709">
        <ele>213</ele>
        <time>2016-05-16T12:47:25Z</time>
      </trkpt>
      <trkpt lat="48.6721" lon="1.95717">
        <ele>210</ele>
        <time>2016-05-16T12:47:34Z</time>
      </trkpt>
      <trkpt lat="48.67212" lon="1.95718">
        <ele>211</ele>
        <time>2016-05-16T12:47:35Z</time>
      </trkpt>
      <trkpt lat="48.67218" lon="1.95724">
        <ele>210</ele>
        <time>2016-05-16T12:47:42Z</time>
      </trkpt>
      <trkpt lat="48.6722" lon="1.95724">
        <ele>209</ele>
        <time>2016-05-16T12:47:43Z</time>
      </trkpt>
      <trkpt lat="48.67226" lon="1.95733">
        <ele>208</ele>
        <time>2016-05-16T12:47:54Z</time>
      </trkpt>
      <trkpt lat="48.67227" lon="1.95734">
        <ele>209</ele>
        <time>2016-05-16T12:47:55Z</time>
      </trkpt>
      <trkpt lat="48.67233" lon="1.95744">
        <ele>211</ele>
        <time>2016-05-16T12:48:07Z</time>
      </trkpt>
      <trkpt lat="48.67235" lon="1.95746">
        <ele>212</ele>
        <time>2016-05-16T12:48:08Z</time>
      </trkpt>
      <trkpt lat="48.67241" lon="1.95748">
        <ele>209</ele>
        <time>2016-05-16T12:48:17Z</time>
      </trkpt>
      <trkpt lat="48.67244" lon="1.95749">
        <ele>209</ele>
        <time>2016-05-16T12:48:18Z</time>
      </trkpt>
      <trkpt lat="48.67248" lon="1.95761">
        <ele>210</ele>
        <time>2016-05-16T12:48:24Z</time>
      </trkpt>
      <trkpt lat="48.67249" lon="1.95761">
        <ele>209</ele>
        <time>2016-05-16T12:48:25Z</time>
      </trkpt>
      <trkpt lat="48.67253" lon="1.95767">
        <ele>208</ele>
        <time>2016-05-16T12:48:29Z</time>
      </trkpt>
      <trkpt lat="48.67256" lon="1.95771">
        <ele>209</ele>
        <time>2016-05-16T12:48:30Z</time>
      </trkpt>
      <trkpt lat="48.67259" lon="1.95782">
        <ele>208</ele>
        <time>2016-05-16T12:48:38Z</time>
      </trkpt>
      <trkpt lat="48.67263" lon="1.95783">
        <ele>208</ele>
        <time>2016-05-16T12:48:39Z</time>
      </trkpt>
      <trkpt lat="48.67269" lon="1.95785">
        <ele>208</ele>
        <time>2016-05-16T12:48:43Z</time>
      </trkpt>
      <trkpt lat="48.67272" lon="1.95786">
        <ele>208</ele>
        <time>2016-05-16T12:48:44Z</time>
      </trkpt>
      <trkpt lat="48.67277" lon="1.95797">
        <ele>206</ele>
        <time>2016-05-16T12:48:52Z</time>
      </trkpt>
      <trkpt lat="48.6728" lon="1.958">
        <ele>207</ele>
        <time>2016-05-16T12:48:53Z</time>
      </trkpt>
      <trkpt lat="48.67286" lon="1.95807">
        <ele>209</ele>
        <time>2016-05-16T12:49:07Z</time>
      </trkpt>
      <trkpt lat="48.67289" lon="1.95808">
        <ele>209</ele>
        <time>2016-05-16T12:49:08Z</time>
      </trkpt>
      <trkpt lat="48.67297" lon="1.95811">
        <ele>207</ele>
        <time>2016-05-16T12:49:16Z</time>
      </trkpt>
      <trkpt lat="48.67296" lon="1.95812">
        <ele>207</ele>
        <time>2016-05-16T12:49:17Z</time>
      </trkpt>
      <trkpt lat="48.67296" lon="1.95812">
        <ele>207</ele>
        <time>2016-05-16T12:49:17Z</time>
      </trkpt>
      <trkpt lat="48.673" lon="1.95807">
        <ele>208</ele>
        <time>2016-05-16T12:49:18Z</time>
      </trkpt>
      <trkpt lat="48.67308" lon="1.95812">
        <ele>206</ele>
        <time>2016-05-16T12:49:24Z</time>
      </trkpt>
      <trkpt lat="48.6731" lon="1.95814">
        <ele>206</ele>
        <time>2016-05-16T12:49:25Z</time>
      </trkpt>
      <trkpt lat="48.67317" lon="1.95823">
        <ele>201</ele>
        <time>2016-05-16T12:49:46Z</time>
      </trkpt>
      <trkpt lat="48.67317" lon="1.95824">
        <ele>201</ele>
        <time>2016-05-16T12:49:47Z</time>
      </trkpt>
      <trkpt lat="48.67319" lon="1.95826">
        <ele>202</ele>
        <time>2016-05-16T12:50:12Z</time>
      </trkpt>
      <trkpt lat="48.67327" lon="1.95826">
        <ele>201</ele>
        <time>2016-05-16T12:50:13Z</time>
      </trkpt>
      <trkpt lat="48.67334" lon="1.95826">
        <ele>200</ele>
        <time>2016-05-16T12:50:14Z</time>
      </trkpt>
      <trkpt lat="48.67337" lon="1.95829">
        <ele>199</ele>
        <time>2016-05-16T12:50:15Z</time>
      </trkpt>
      <trkpt lat="48.67343" lon="1.95835">
        <ele>198</ele>
        <time>2016-05-16T12:50:16Z</time>
      </trkpt>
      <trkpt lat="48.6735" lon="1.95835">
        <ele>198</ele>
        <time>2016-05-16T12:50:17Z</time>
      </trkpt>
      <trkpt lat="48.67355" lon="1.95839">
        <ele>197</ele>
        <time>2016-05-16T12:50:18Z</time>
      </trkpt>
      <trkpt lat="48.67359" lon="1.95838">
        <ele>198</ele>
        <time>2016-05-16T12:50:19Z</time>
      </trkpt>
      <trkpt lat="48.67359" lon="1.95838">
        <ele>198</ele>
        <time>2016-05-16T12:50:19Z</time>
      </trkpt>
      <trkpt lat="48.67362" lon="1.95855">
        <ele>198</ele>
        <time>2016-05-16T12:50:20Z</time>
      </trkpt>
      <trkpt lat="48.67367" lon="1.95858">
        <ele>198</ele>
        <time>2016-05-16T12:50:21Z</time>
      </trkpt>
      <trkpt lat="48.6737" lon="1.95863">
        <ele>198</ele>
        <time>2016-05-16T12:50:22Z</time>
      </trkpt>
      <trkpt lat="48.67369" lon="1.95875">
        <ele>192</ele>
        <time>2016-05-16T12:50:32Z</time>
      </trkpt>
      <trkpt lat="48.67368" lon="1.95877">
        <ele>191</ele>
        <time>2016-05-16T12:50:33Z</time>
      </trkpt>
      <trkpt lat="48.67375" lon="1.95885">
        <ele>193</ele>
        <time>2016-05-16T12:50:40Z</time>
      </trkpt>
      <trkpt lat="48.67377" lon="1.9589">
        <ele>192</ele>
        <time>2016-05-16T12:50:41Z</time>
      </trkpt>
      <trkpt lat="48.67383" lon="1.95894">
        <ele>193</ele>
        <time>2016-05-16T12:50:54Z</time>
      </trkpt>
      <trkpt lat="48.67386" lon="1.95897">
        <ele>196</ele>
        <time>2016-05-16T12:50:55Z</time>
      </trkpt>
      <trkpt lat="48.67392" lon="1.95902">
        <ele>197</ele>
        <time>2016-05-16T12:50:57Z</time>
      </trkpt>
      <trkpt lat="48.67395" lon="1.95913">
        <ele>196</ele>
        <time>2016-05-16T12:50:58Z</time>
      </trkpt>
      <trkpt lat="48.67402" lon="1.95919">
        <ele>190</ele>
        <time>2016-05-16T12:51:15Z</time>
      </trkpt>
      <trkpt lat="48.67404" lon="1.9592">
        <ele>191</ele>
        <time>2016-05-16T12:51:16Z</time>
      </trkpt>
      <trkpt lat="48.67409" lon="1.95923">
        <ele>191</ele>
        <time>2016-05-16T12:51:18Z</time>
      </trkpt>
      <trkpt lat="48.67415" lon="1.95925">
        <ele>194</ele>
        <time>2016-05-16T12:51:19Z</time>
      </trkpt>
      <trkpt lat="48.67419" lon="1.95933">
        <ele>189</ele>
        <time>2016-05-16T12:51:25Z</time>
      </trkpt>
      <trkpt lat="48.67421" lon="1.95936">
        <ele>188</ele>
        <time>2016-05-16T12:51:26Z</time>
      </trkpt>
      <trkpt lat="48.67429" lon="1.9594">
        <ele>183</ele>
        <time>2016-05-16T12:54:18Z</time>
      </trkpt>
      <trkpt lat="48.6743" lon="1.95942">
        <ele>186</ele>
        <time>2016-05-16T12:54:19Z</time>
      </trkpt>
      <trkpt lat="48.67431" lon="1.95953">
        <ele>184</ele>
        <time>2016-05-16T12:54:26Z</time>
      </trkpt>
      <trkpt lat="48.6743" lon="1.95957">
        <ele>183</ele>
        <time>2016-05-16T12:54:27Z</time>
      </trkpt>
      <trkpt lat="48.6743" lon="1.95969">
        <ele>183</ele>
        <time>2016-05-16T12:54:36Z</time>
      </trkpt>
      <trkpt lat="48.67427" lon="1.95971">
        <ele>182</ele>
        <time>2016-05-16T12:54:37Z</time>
      </trkpt>
      <trkpt lat="48.67425" lon="1.95979">
        <ele>181</ele>
        <time>2016-05-16T12:54:42Z</time>
      </trkpt>
      <trkpt lat="48.67424" lon="1.95985">
        <ele>182</ele>
        <time>2016-05-16T12:54:43Z</time>
      </trkpt>
      <trkpt lat="48.6742" lon="1.9599">
        <ele>181</ele>
        <time>2016-05-16T12:54:50Z</time>
      </trkpt>
      <trkpt lat="48.67417" lon="1.95994">
        <ele>182</ele>
        <time>2016-05-16T12:54:51Z</time>
      </trkpt>
      <trkpt lat="48.67412" lon="1.96004">
        <ele>180</ele>
        <time>2016-05-16T12:54:59Z</time>
      </trkpt>
      <trkpt lat="48.67409" lon="1.96005">
        <ele>181</ele>
        <time>2016-05-16T12:55:00Z</time>
      </trkpt>
      <trkpt lat="48.67408" lon="1.96002">
        <ele>183</ele>
        <time>2016-05-16T12:55:04Z</time>
      </trkpt>
      <trkpt lat="48.6741" lon="1.96005">
        <ele>183</ele>
        <time>2016-05-16T12:55:05Z</time>
      </trkpt>
      <trkpt lat="48.6741" lon="1.96005">
        <ele>183</ele>
        <time>2016-05-16T12:55:06Z</time>
      </trkpt>
      <trkpt lat="48.6741" lon="1.96005">
        <ele>183</ele>
        <time>2016-05-16T12:55:07Z</time>
      </trkpt>
      <trkpt lat="48.67418" lon="1.96009">
        <ele>183</ele>
        <time>2016-05-16T12:55:11Z</time>
      </trkpt>
      <trkpt lat="48.6742" lon="1.9601">
        <ele>183</ele>
        <time>2016-05-16T12:55:12Z</time>
      </trkpt>
      <trkpt lat="48.67427" lon="1.96009">
        <ele>184</ele>
        <time>2016-05-16T12:55:15Z</time>
      </trkpt>
      <trkpt lat="48.67429" lon="1.9601">
        <ele>185</ele>
        <time>2016-05-16T12:55:16Z</time>
      </trkpt>
      <trkpt lat="48.67427" lon="1.96018">
        <ele>183</ele>
        <time>2016-05-16T12:55:19Z</time>
      </trkpt>
      <trkpt lat="48.67429" lon="1.96019">
        <ele>181</ele>
        <time>2016-05-16T12:55:20Z</time>
      </trkpt>
      <trkpt lat="48.67426" lon="1.96019">
        <ele>179</ele>
        <time>2016-05-16T12:55:21Z</time>
      </trkpt>
      <trkpt lat="48.67428" lon="1.9602">
        <ele>178</ele>
        <time>2016-05-16T12:55:22Z</time>
      </trkpt>
      <trkpt lat="48.67433" lon="1.96028">
        <ele>170</ele>
        <time>2016-05-16T12:55:34Z</time>
      </trkpt>
      <trkpt lat="48.67436" lon="1.96029">
        <ele>169</ele>
        <time>2016-05-16T12:55:35Z</time>
      </trkpt>
      <trkpt lat="48.67443" lon="1.96036">
        <ele>168</ele>
        <time>2016-05-16T12:55:55Z</time>
      </trkpt>
      <trkpt lat="48.67446" lon="1.96037">
        <ele>168</ele>
        <time>2016-05-16T12:55:56Z</time>
      </trkpt>
      <trkpt lat="48.6745" lon="1.96048">
        <ele>164</ele>
        <time>2016-05-16T12:56:01Z</time>
      </trkpt>
      <trkpt lat="48.6745" lon="1.96049">
        <ele>164</ele>
        <time>2016-05-16T12:56:02Z</time>
      </trkpt>
      <trkpt lat="48.67453" lon="1.96051">
        <ele>163</ele>
        <time>2016-05-16T12:56:03Z</time>
      </trkpt>
      <trkpt lat="48.6746" lon="1.96052">
        <ele>163</ele>
        <time>2016-05-16T12:56:04Z</time>
      </trkpt>
      <trkpt lat="48.67466" lon="1.96059">
        <ele>164</ele>
        <time>2016-05-16T12:56:09Z</time>
      </trkpt>
      <trkpt lat="48.67468" lon="1.96061">
        <ele>164</ele>
        <time>2016-05-16T12:56:10Z</time>
      </trkpt>
      <trkpt lat="48.67475" lon="1.96065">
        <ele>166</ele>
        <time>2016-05-16T12:56:14Z</time>
      </trkpt>
      <trkpt lat="48.67476" lon="1.96069">
        <ele>166</ele>
        <time>2016-05-16T12:56:15Z</time>
      </trkpt>
      <trkpt lat="48.67482" lon="1.96073">
        <ele>163</ele>
        <time>2016-05-16T12:56:18Z</time>
      </trkpt>
      <trkpt lat="48.67488" lon="1.96076">
        <ele>162</ele>
        <time>2016-05-16T12:56:19Z</time>
      </trkpt>
      <trkpt lat="48.6749" lon="1.96085">
        <ele>159</ele>
        <time>2016-05-16T12:56:25Z</time>
      </trkpt>
      <trkpt lat="48.6749" lon="1.96091">
        <ele>158</ele>
        <time>2016-05-16T12:56:26Z</time>
      </trkpt>
      <trkpt lat="48.67493" lon="1.96097">
        <ele>159</ele>
        <time>2016-05-16T12:56:27Z</time>
      </trkpt>
      <trkpt lat="48.67495" lon="1.96105">
        <ele>160</ele>
        <time>2016-05-16T12:56:28Z</time>
      </trkpt>
      <trkpt lat="48.675" lon="1.96108">
        <ele>160</ele>
        <time>2016-05-16T12:56:30Z</time>
      </trkpt>
      <trkpt lat="48.67496" lon="1.96101">
        <ele>160</ele>
        <time>2016-05-16T12:56:31Z</time>
      </trkpt>
      <trkpt lat="48.67497" lon="1.96099">
        <ele>160</ele>
        <time>2016-05-16T12:56:32Z</time>
      </trkpt>
      <trkpt lat="48.67493" lon="1.96106">
        <ele>158</ele>
        <time>2016-05-16T12:56:33Z</time>
      </trkpt>
      <trkpt lat="48.67499" lon="1.96116">
        <ele>157</ele>
        <time>2016-05-16T12:57:00Z</time>
      </trkpt>
      <trkpt lat="48.67499" lon="1.96116">
        <ele>157</ele>
        <time>2016-05-16T12:57:01Z</time>
      </trkpt>
      <trkpt lat="48.67508" lon="1.96117">
        <ele>158</ele>
        <time>2016-05-16T12:57:29Z</time>
      </trkpt>
      <trkpt lat="48.67511" lon="1.96115">
        <ele>159</ele>
        <time>2016-05-16T12:57:30Z</time>
      </trkpt>
      <trkpt lat="48.67517" lon="1.96114">
        <ele>160</ele>
        <time>2016-05-16T12:57:31Z</time>
      </trkpt>
      <trkpt lat="48.67526" lon="1.96111">
        <ele>163</ele>
        <time>2016-05-16T12:57:32Z</time>
      </trkpt>
      <trkpt lat="48.67531" lon="1.9611">
        <ele>166</ele>
        <time>2016-05-16T12:57:33Z</time>
      </trkpt>
      <trkpt lat="48.67537" lon="1.96113">
        <ele>169</ele>
        <time>2016-05-16T12:57:34Z</time>
      </trkpt>
      <trkpt lat="48.67544" lon="1.96117">
        <ele>167</ele>
        <time>2016-05-16T12:57:37Z</time>
      </trkpt>
      <trkpt lat="48.67543" lon="1.96121">
        <ele>167</ele>
        <time>2016-05-16T12:57:38Z</time>
      </trkpt>
      <trkpt lat="48.67543" lon="1.96121">
        <ele>167</ele>
        <time>2016-05-16T12:57:38Z</time>
      </trkpt>
      <trkpt lat="48.67543" lon="1.96126">
        <ele>164</ele>
        <time>2016-05-16T12:57:39Z</time>
      </trkpt>
      <trkpt lat="48.67552" lon="1.9613">
        <ele>161</ele>
        <time>2016-05-16T12:57:43Z</time>
      </trkpt>
      <trkpt lat="48.67552" lon="1.96135">
        <ele>162</ele>
        <time>2016-05-16T12:57:44Z</time>
      </trkpt>
      <trkpt lat="48.67552" lon="1.96141">
        <ele>162</ele>
        <time>2016-05-16T12:57:46Z</time>
      </trkpt>
      <trkpt lat="48.67555" lon="1.96149">
        <ele>161</ele>
        <time>2016-05-16T12:57:47Z</time>
      </trkpt>
      <trkpt lat="48.67563" lon="1.96155">
        <ele>162</ele>
        <time>2016-05-16T12:57:50Z</time>
      </trkpt>
      <trkpt lat="48.67565" lon="1.96156">
        <ele>162</ele>
        <time>2016-05-16T12:57:51Z</time>
      </trkpt>
      <trkpt lat="48.67572" lon="1.96149">
        <ele>161</ele>
        <time>2016-05-16T12:57:55Z</time>
      </trkpt>
      <trkpt lat="48.67574" lon="1.96147">
        <ele>159</ele>
        <time>2016-05-16T12:57:56Z</time>
      </trkpt>
      <trkpt lat="48.67579" lon="1.96145">
        <ele>157</ele>
        <time>2016-05-16T12:58:02Z</time>
      </trkpt>
      <trkpt lat="48.67578" lon="1.96145">
        <ele>157</ele>
        <time>2016-05-16T12:58:03Z</time>
      </trkpt>
      <trkpt lat="48.67579" lon="1.96145">
        <ele>157</ele>
        <time>2016-05-16T12:58:04Z</time>
      </trkpt>
      <trkpt lat="48.67586" lon="1.96154">
        <ele>161</ele>
        <time>2016-05-16T12:58:06Z</time>
      </trkpt>
      <trkpt lat="48.67587" lon="1.96155">
        <ele>160</ele>
        <time>2016-05-16T12:58:07Z</time>
      </trkpt>
      <trkpt lat="48.67587" lon="1.96168">
        <ele>160</ele>
        <time>2016-05-16T12:58:23Z</time>
      </trkpt>
      <trkpt lat="48.67587" lon="1.96169">
        <ele>160</ele>
        <time>2016-05-16T12:58:24Z</time>
      </trkpt>
      <trkpt lat="48.67592" lon="1.96173">
        <ele>163</ele>
        <time>2016-05-16T12:59:01Z</time>
      </trkpt>
      <trkpt lat="48.67596" lon="1.96175">
        <ele>164</ele>
        <time>2016-05-16T12:59:02Z</time>
      </trkpt>
      <trkpt lat="48.67599" lon="1.96175">
        <ele>164</ele>
        <time>2016-05-16T12:59:03Z</time>
      </trkpt>
      <trkpt lat="48.67606" lon="1.96175">
        <ele>164</ele>
        <time>2016-05-16T12:59:04Z</time>
      </trkpt>
      <trkpt lat="48.6761" lon="1.96177">
        <ele>167</ele>
        <time>2016-05-16T12:59:06Z</time>
      </trkpt>
      <trkpt lat="48.67617" lon="1.96182">
        <ele>169</ele>
        <time>2016-05-16T12:59:07Z</time>
      </trkpt>
      <trkpt lat="48.67621" lon="1.96183">
        <ele>171</ele>
        <time>2016-05-16T12:59:08Z</time>
      </trkpt>
      <trkpt lat="48.67627" lon="1.96187">
        <ele>171</ele>
        <time>2016-05-16T12:59:09Z</time>
      </trkpt>
      <trkpt lat="48.67634" lon="1.96195">
        <ele>168</ele>
        <time>2016-05-16T12:59:13Z</time>
      </trkpt>
      <trkpt lat="48.67633" lon="1.96198">
        <ele>167</ele>
        <time>2016-05-16T12:59:14Z</time>
      </trkpt>
      <trkpt lat="48.67628" lon="1.96205">
        <ele>169</ele>
        <time>2016-05-16T12:59:16Z</time>
      </trkpt>
      <trkpt lat="48.6763" lon="1.96211">
        <ele>171</ele>
        <time>2016-05-16T12:59:17Z</time>
      </trkpt>
      <trkpt lat="48.67632" lon="1.96221">
        <ele>166</ele>
        <time>2016-05-16T12:59:21Z</time>
      </trkpt>
      <trkpt lat="48.6763" lon="1.96225">
        <ele>167</ele>
        <time>2016-05-16T12:59:22Z</time>
      </trkpt>
      <trkpt lat="48.67627" lon="1.96236">
        <ele>170</ele>
        <time>2016-05-16T12:59:26Z</time>
      </trkpt>
      <trkpt lat="48.67627" lon="1.96239">
        <ele>170</ele>
        <time>2016-05-16T12:59:27Z</time>
      </trkpt>
      <trkpt lat="48.67624" lon="1.96252">
        <ele>174</ele>
        <time>2016-05-16T12:59:33Z</time>
      </trkpt>
      <trkpt lat="48.67624" lon="1.96253">
        <ele>173</ele>
        <time>2016-05-16T12:59:34Z</time>
      </trkpt>
      <trkpt lat="48.67618" lon="1.96261">
        <ele>178</ele>
        <time>2016-05-16T12:59:41Z</time>
      </trkpt>
      <trkpt lat="48.67618" lon="1.96262">
        <ele>180</ele>
        <time>2016-05-16T12:59:42Z</time>
      </trkpt>
      <trkpt lat="48.67618" lon="1.96262">
        <ele>180</ele>
        <time>2016-05-16T12:59:42Z</time>
      </trkpt>
      <trkpt lat="48.67619" lon="1.96263">
        <ele>180</ele>
        <time>2016-05-16T12:59:43Z</time>
      </trkpt>
      <trkpt lat="48.67623" lon="1.96266">
        <ele>177</ele>
        <time>2016-05-16T12:59:44Z</time>
      </trkpt>
      <trkpt lat="48.67629" lon="1.96277">
        <ele>175</ele>
        <time>2016-05-16T13:00:17Z</time>
      </trkpt>
      <trkpt lat="48.67629" lon="1.96277">
        <ele>175</ele>
        <time>2016-05-16T13:00:18Z</time>
      </trkpt>
      <trkpt lat="48.67633" lon="1.96281">
        <ele>173</ele>
        <time>2016-05-16T13:00:23Z</time>
      </trkpt>
      <trkpt lat="48.67636" lon="1.9629">
        <ele>171</ele>
        <time>2016-05-16T13:00:24Z</time>
      </trkpt>
      <trkpt lat="48.67635" lon="1.96297">
        <ele>170</ele>
        <time>2016-05-16T13:00:25Z</time>
      </trkpt>
      <trkpt lat="48.67635" lon="1.96304">
        <ele>171</ele>
        <time>2016-05-16T13:00:26Z</time>
      </trkpt>
      <trkpt lat="48.67631" lon="1.96314">
        <ele>171</ele>
        <time>2016-05-16T13:00:30Z</time>
      </trkpt>
      <trkpt lat="48.67628" lon="1.96318">
        <ele>171</ele>
        <time>2016-05-16T13:00:31Z</time>
      </trkpt>
      <trkpt lat="48.67626" lon="1.96329">
        <ele>170</ele>
        <time>2016-05-16T13:00:35Z</time>
      </trkpt>
      <trkpt lat="48.67629" lon="1.96333">
        <ele>168</ele>
        <time>2016-05-16T13:00:36Z</time>
      </trkpt>
      <trkpt lat="48.67636" lon="1.96336">
        <ele>160</ele>
        <time>2016-05-16T13:00:39Z</time>
      </trkpt>
      <trkpt lat="48.67637" lon="1.96341">
        <ele>159</ele>
        <time>2016-05-16T13:00:40Z</time>
      </trkpt>
      <trkpt lat="48.67639" lon="1.96353">
        <ele>166</ele>
        <time>2016-05-16T13:00:45Z</time>
      </trkpt>
      <trkpt lat="48.6764" lon="1.96356">
        <ele>165</ele>
        <time>2016-05-16T13:00:46Z</time>
      </trkpt>
      <trkpt lat="48.67643" lon="1.96365">
        <ele>166</ele>
        <time>2016-05-16T13:01:02Z</time>
      </trkpt>
      <trkpt lat="48.67646" lon="1.96369">
        <ele>166</ele>
        <time>2016-05-16T13:01:03Z</time>
      </trkpt>
      <trkpt lat="48.67652" lon="1.96376">
        <ele>169</ele>
        <time>2016-05-16T13:01:05Z</time>
      </trkpt>
      <trkpt lat="48.67657" lon="1.96383">
        <ele>170</ele>
        <time>2016-05-16T13:01:06Z</time>
      </trkpt>
      <trkpt lat="48.67664" lon="1.96388">
        <ele>166</ele>
        <time>2016-05-16T13:01:11Z</time>
      </trkpt>
      <trkpt lat="48.67667" lon="1.96391">
        <ele>166</ele>
        <time>2016-05-16T13:01:12Z</time>
      </trkpt>
      <trkpt lat="48.67672" lon="1.96398">
        <ele>167</ele>
        <time>2016-05-16T13:01:15Z</time>
      </trkpt>
      <trkpt lat="48.67673" lon="1.96401">
        <ele>167</ele>
        <time>2016-05-16T13:01:16Z</time>
      </trkpt>
      <trkpt lat="48.67677" lon="1.96406">
        <ele>170</ele>
        <time>2016-05-16T13:01:21Z</time>
      </trkpt>
      <trkpt lat="48.67676" lon="1.96407">
        <ele>170</ele>
        <time>2016-05-16T13:01:22Z</time>
      </trkpt>
      <trkpt lat="48.67676" lon="1.96407">
        <ele>170</ele>
        <time>2016-05-16T13:01:22Z</time>
      </trkpt>
      <trkpt lat="48.67678" lon="1.96409">
        <ele>170</ele>
        <time>2016-05-16T13:01:23Z</time>
      </trkpt>
      <trkpt lat="48.67685" lon="1.96411">
        <ele>172</ele>
        <time>2016-05-16T13:01:31Z</time>
      </trkpt>
      <trkpt lat="48.67689" lon="1.9641">
        <ele>172</ele>
        <time>2016-05-16T13:01:32Z</time>
      </trkpt>
      <trkpt lat="48.67693" lon="1.96405">
        <ele>171</ele>
        <time>2016-05-16T13:01:36Z</time>
      </trkpt>
      <trkpt lat="48.67699" lon="1.96406">
        <ele>174</ele>
        <time>2016-05-16T13:01:37Z</time>
      </trkpt>
      <trkpt lat="48.67707" lon="1.96409">
        <ele>173</ele>
        <time>2016-05-16T13:01:47Z</time>
      </trkpt>
      <trkpt lat="48.6771" lon="1.96405">
        <ele>174</ele>
        <time>2016-05-16T13:01:48Z</time>
      </trkpt>
      <trkpt lat="48.67715" lon="1.96409">
        <ele>174</ele>
        <time>2016-05-16T13:01:50Z</time>
      </trkpt>
      <trkpt lat="48.67722" lon="1.96406">
        <ele>176</ele>
        <time>2016-05-16T13:01:51Z</time>
      </trkpt>
      <trkpt lat="48.67726" lon="1.96403">
        <ele>176</ele>
        <time>2016-05-16T13:01:52Z</time>
      </trkpt>
      <trkpt lat="48.67731" lon="1.96402">
        <ele>175</ele>
        <time>2016-05-16T13:01:53Z</time>
      </trkpt>
      <trkpt lat="48.67726" lon="1.96413">
        <ele>169</ele>
        <time>2016-05-16T13:02:00Z</time>
      </trkpt>
      <trkpt lat="48.67726" lon="1.96414">
        <ele>170</ele>
        <time>2016-05-16T13:02:01Z</time>
      </trkpt>
      <trkpt lat="48.67726" lon="1.96414">
        <ele>170</ele>
        <time>2016-05-16T13:02:01Z</time>
      </trkpt>
      <trkpt lat="48.67727" lon="1.96417">
        <ele>170</ele>
        <time>2016-05-16T13:02:02Z</time>
      </trkpt>
      <trkpt lat="48.67729" lon="1.9642">
        <ele>157</ele>
        <time>2016-05-16T13:03:59Z</time>
      </trkpt>
      <trkpt lat="48.6773" lon="1.96422">
        <ele>158</ele>
        <time>2016-05-16T13:04:00Z</time>
      </trkpt>
      <trkpt lat="48.6773" lon="1.96422">
        <ele>158</ele>
        <time>2016-05-16T13:04:00Z</time>
      </trkpt>
      <trkpt lat="48.67728" lon="1.96427">
        <ele>160</ele>
        <time>2016-05-16T13:04:01Z</time>
      </trkpt>
      <trkpt lat="48.67728" lon="1.9643">
        <ele>161</ele>
        <time>2016-05-16T13:04:02Z</time>
      </trkpt>
      <trkpt lat="48.67727" lon="1.96427">
        <ele>162</ele>
        <time>2016-05-16T13:04:03Z</time>
      </trkpt>
      <trkpt lat="48.67727" lon="1.96427">
        <ele>162</ele>
        <time>2016-05-16T13:04:03Z</time>
      </trkpt>
      <trkpt lat="48.67731" lon="1.96427">
        <ele>162</ele>
        <time>2016-05-16T13:04:04Z</time>
      </trkpt>
      <trkpt lat="48.67739" lon="1.96428">
        <ele>159</ele>
        <time>2016-05-16T13:04:11Z</time>
      </trkpt>
      <trkpt lat="48.67741" lon="1.96427">
        <ele>159</ele>
        <time>2016-05-16T13:04:12Z</time>
      </trkpt>
      <trkpt lat="48.67744" lon="1.96422">
        <ele>161</ele>
        <time>2016-05-16T13:04:23Z</time>
      </trkpt>
      <trkpt lat="48.67744" lon="1.96423">
        <ele>162</ele>
        <time>2016-05-16T13:04:24Z</time>
      </trkpt>
      <trkpt lat="48.67745" lon="1.96418">
        <ele>162</ele>
        <time>2016-05-16T13:04:25Z</time>
      </trkpt>
      <trkpt lat="48.67749" lon="1.9642">
        <ele>162</ele>
        <time>2016-05-16T13:04:27Z</time>
      </trkpt>
      <trkpt lat="48.67747" lon="1.96419">
        <ele>161</ele>
        <time>2016-05-16T13:04:28Z</time>
      </trkpt>
      <trkpt lat="48.67747" lon="1.96419">
        <ele>161</ele>
        <time>2016-05-16T13:04:28Z</time>
      </trkpt>
      <trkpt lat="48.67749" lon="1.96413">
        <ele>162</ele>
        <time>2016-05-16T13:04:29Z</time>
      </trkpt>
      <trkpt lat="48.67754" lon="1.96422">
        <ele>162</ele>
        <time>2016-05-16T13:04:38Z</time>
      </trkpt>
      <trkpt lat="48.67759" lon="1.96423">
        <ele>155</ele>
        <time>2016-05-16T13:04:39Z</time>
      </trkpt>
      <trkpt lat="48.67765" lon="1.96418">
        <ele>153</ele>
        <time>2016-05-16T13:04:42Z</time>
      </trkpt>
      <trkpt lat="48.67769" lon="1.96417">
        <ele>151</ele>
        <time>2016-05-16T13:04:43Z</time>
      </trkpt>
      <trkpt lat="48.67773" lon="1.96427">
        <ele>153</ele>
        <time>2016-05-16T13:04:56Z</time>
      </trkpt>
      <trkpt lat="48.67774" lon="1.96429">
        <ele>154</ele>
        <time>2016-05-16T13:04:57Z</time>
      </trkpt>
      <trkpt lat="48.67777" lon="1.9644">
        <ele>154</ele>
        <time>2016-05-16T13:05:05Z</time>
      </trkpt>
      <trkpt lat="48.67777" lon="1.96442">
        <ele>154</ele>
        <time>2016-05-16T13:05:06Z</time>
      </trkpt>
      <trkpt lat="48.67769" lon="1.96449">
        <ele>161</ele>
        <time>2016-05-16T13:05:46Z</time>
      </trkpt>
      <trkpt lat="48.67769" lon="1.96448">
        <ele>162</ele>
        <time>2016-05-16T13:05:47Z</time>
      </trkpt>
      <trkpt lat="48.67777" lon="1.9645">
        <ele>154</ele>
        <time>2016-05-16T13:07:12Z</time>
      </trkpt>
      <trkpt lat="48.6778" lon="1.96453">
        <ele>155</ele>
        <time>2016-05-16T13:07:13Z</time>
      </trkpt>
      <trkpt lat="48.67789" lon="1.96453">
        <ele>163</ele>
        <time>2016-05-16T13:07:16Z</time>
      </trkpt>
      <trkpt lat="48.67793" lon="1.96454">
        <ele>162</ele>
        <time>2016-05-16T13:07:17Z</time>
      </trkpt>
      <trkpt lat="48.67797" lon="1.96459">
        <ele>163</ele>
        <time>2016-05-16T13:07:18Z</time>
      </trkpt>
      <trkpt lat="48.67808" lon="1.96461">
        <ele>161</ele>
        <time>2016-05-16T13:07:19Z</time>
      </trkpt>
      <trkpt lat="48.67814" lon="1.9647">
        <ele>157</ele>
        <time>2016-05-16T13:07:21Z</time>
      </trkpt>
      <trkpt lat="48.67812" lon="1.96476">
        <ele>157</ele>
        <time>2016-05-16T13:07:22Z</time>
      </trkpt>
      <trkpt lat="48.67821" lon="1.96477">
        <ele>157</ele>
        <time>2016-05-16T13:07:38Z</time>
      </trkpt>
      <trkpt lat="48.67821" lon="1.96477">
        <ele>156</ele>
        <time>2016-05-16T13:07:39Z</time>
      </trkpt>
      <trkpt lat="48.67827" lon="1.96475">
        <ele>159</ele>
        <time>2016-05-16T13:07:57Z</time>
      </trkpt>
      <trkpt lat="48.6783" lon="1.96478">
        <ele>158</ele>
        <time>2016-05-16T13:07:58Z</time>
      </trkpt>
      <trkpt lat="48.67835" lon="1.96488">
        <ele>152</ele>
        <time>2016-05-16T13:08:04Z</time>
      </trkpt>
      <trkpt lat="48.67841" lon="1.96492">
        <ele>152</ele>
        <time>2016-05-16T13:08:05Z</time>
      </trkpt>
      <trkpt lat="48.67849" lon="1.96486">
        <ele>149</ele>
        <time>2016-05-16T13:08:08Z</time>
      </trkpt>
      <trkpt lat="48.67855" lon="1.9648">
        <ele>150</ele>
        <time>2016-05-16T13:08:09Z</time>
      </trkpt>
      <trkpt lat="48.67862" lon="1.96486">
        <ele>151</ele>
        <time>2016-05-16T13:08:18Z</time>
      </trkpt>
      <trkpt lat="48.67863" lon="1.96486">
        <ele>152</ele>
        <time>2016-05-16T13:08:19Z</time>
      </trkpt>
      <trkpt lat="48.67869" lon="1.96487">
        <ele>152</ele>
        <time>2016-05-16T13:08:24Z</time>
      </trkpt>
      <trkpt lat="48.67874" lon="1.96503">
        <ele>154</ele>
        <time>2016-05-16T13:08:25Z</time>
      </trkpt>
      <trkpt lat="48.67871" lon="1.96491">
        <ele>153</ele>
        <time>2016-05-16T13:08:28Z</time>
      </trkpt>
      <trkpt lat="48.67871" lon="1.96486">
        <ele>151</ele>
        <time>2016-05-16T13:08:29Z</time>
      </trkpt>
      <trkpt lat="48.67875" lon="1.96494">
        <ele>154</ele>
        <time>2016-05-16T13:08:33Z</time>
      </trkpt>
      <trkpt lat="48.67877" lon="1.96495">
        <ele>154</ele>
        <time>2016-05-16T13:08:34Z</time>
      </trkpt>
      <trkpt lat="48.67884" lon="1.96503">
        <ele>156</ele>
        <time>2016-05-16T13:08:38Z</time>
      </trkpt>
      <trkpt lat="48.67885" lon="1.96504">
        <ele>156</ele>
        <time>2016-05-16T13:08:39Z</time>
      </trkpt>
      <trkpt lat="48.67885" lon="1.96508">
        <ele>152</ele>
        <time>2016-05-16T13:08:50Z</time>
      </trkpt>
      <trkpt lat="48.67886" lon="1.9651">
        <ele>152</ele>
        <time>2016-05-16T13:08:51Z</time>
      </trkpt>
      <trkpt lat="48.67886" lon="1.96511">
        <ele>152</ele>
        <time>2016-05-16T13:08:52Z</time>
      </trkpt>
      <trkpt lat="48.67886" lon="1.96507">
        <ele>154</ele>
        <time>2016-05-16T13:08:54Z</time>
      </trkpt>
      <trkpt lat="48.67895" lon="1.96502">
        <ele>150</ele>
        <time>2016-05-16T13:08:55Z</time>
      </trkpt>
      <trkpt lat="48.67901" lon="1.965">
        <ele>149</ele>
        <time>2016-05-16T13:09:00Z</time>
      </trkpt>
      <trkpt lat="48.67903" lon="1.96495">
        <ele>149</ele>
        <time>2016-05-16T13:09:01Z</time>
      </trkpt>
      <trkpt lat="48.67907" lon="1.96488">
        <ele>152</ele>
        <time>2016-05-16T13:09:14Z</time>
      </trkpt>
      <trkpt lat="48.67911" lon="1.96489">
        <ele>153</ele>
        <time>2016-05-16T13:09:15Z</time>
      </trkpt>
      <trkpt lat="48.67918" lon="1.96494">
        <ele>156</ele>
        <time>2016-05-16T13:09:20Z</time>
      </trkpt>
      <trkpt lat="48.67921" lon="1.965">
        <ele>154</ele>
        <time>2016-05-16T13:09:21Z</time>
      </trkpt>
      <trkpt lat="48.67928" lon="1.96503">
        <ele>155</ele>
        <time>2016-05-16T13:09:24Z</time>
      </trkpt>
      <trkpt lat="48.67932" lon="1.96504">
        <ele>156</ele>
        <time>2016-05-16T13:09:25Z</time>
      </trkpt>
      <trkpt lat="48.67939" lon="1.96511">
        <ele>156</ele>
        <time>2016-05-16T13:09:29Z</time>
      </trkpt>
      <trkpt lat="48.67941" lon="1.96511">
        <ele>156</ele>
        <time>2016-05-16T13:09:30Z</time>
      </trkpt>
      <trkpt lat="48.67944" lon="1.96522">
        <ele>158</ele>
        <time>2016-05-16T13:09:39Z</time>
      </trkpt>
      <trkpt lat="48.67946" lon="1.96522">
        <ele>158</ele>
        <time>2016-05-16T13:09:40Z</time>
      </trkpt>
      <trkpt lat="48.67941" lon="1.96523">
        <ele>158</ele>
        <time>2016-05-16T13:09:41Z</time>
      </trkpt>
      <trkpt lat="48.67932" lon="1.96524">
        <ele>158</ele>
        <time>2016-05-16T13:09:42Z</time>
      </trkpt>
      <trkpt lat="48.67926" lon="1.96533">
        <ele>159</ele>
        <time>2016-05-16T13:10:00Z</time>
      </trkpt>
      <trkpt lat="48.67929" lon="1.96537">
        <ele>160</ele>
        <time>2016-05-16T13:10:01Z</time>
      </trkpt>
      <trkpt lat="48.67928" lon="1.9655">
        <ele>156</ele>
        <time>2016-05-16T13:10:09Z</time>
      </trkpt>
      <trkpt lat="48.67928" lon="1.96553">
        <ele>156</ele>
        <time>2016-05-16T13:10:10Z</time>
      </trkpt>
      <trkpt lat="48.67928" lon="1.96558">
        <ele>152</ele>
        <time>2016-05-16T13:10:13Z</time>
      </trkpt>
      <trkpt lat="48.67927" lon="1.96557">
        <ele>153</ele>
        <time>2016-05-16T13:10:14Z</time>
      </trkpt>
      <trkpt lat="48.67927" lon="1.96557">
        <ele>153</ele>
        <time>2016-05-16T13:10:14Z</time>
      </trkpt>
      <trkpt lat="48.67928" lon="1.96559">
        <ele>153</ele>
        <time>2016-05-16T13:10:15Z</time>
      </trkpt>
      <trkpt lat="48.67935" lon="1.96565">
        <ele>153</ele>
        <time>2016-05-16T13:10:22Z</time>
      </trkpt>
      <trkpt lat="48.67937" lon="1.96566">
        <ele>154</ele>
        <time>2016-05-16T13:10:23Z</time>
      </trkpt>
      <trkpt lat="48.67937" lon="1.96576">
        <ele>154</ele>
        <time>2016-05-16T13:10:29Z</time>
      </trkpt>
      <trkpt lat="48.67943" lon="1.96577">
        <ele>152</ele>
        <time>2016-05-16T13:10:30Z</time>
      </trkpt>
      <trkpt lat="48.67949" lon="1.96582">
        <ele>156</ele>
        <time>2016-05-16T13:10:40Z</time>
      </trkpt>
    </trkseg>
  </trk>
</gpx>